<?xml version="1.0" encoding="UTF-8" standalone="no" ?>
<gpx xmlns="http://www.topografix.com/GPX/1/1" xmlns:xsi="http://www.w3.org/2001/XMLSchema-instance" xsi:schemaLocation="http://www.topografix.com/GPX/1/1 http://www.topografix.com/GPX/1/1/gpx.xsd" version="1.1" creator="VisuGPX - https://www.visugpx.com">
  <metadata>
    <name>La Gardonnette 2022</name>
  </metadata>
  <trk>
    <name><![CDATA[La Gardonnette 2022_1]]></name>
    <trkseg>
      <trkpt lat="44.78323" lon="0.44817">
        <ele>149.7</ele>
        <time>2022-07-14T06:14:02Z</time>
      </trkpt>
      <trkpt lat="44.78322" lon="0.4482">
        <ele>149.7</ele>
        <time>2022-07-14T06:14:03Z</time>
      </trkpt>
      <trkpt lat="44.78319" lon="0.44828">
        <ele>149.6</ele>
        <time>2022-07-14T06:14:05Z</time>
      </trkpt>
      <trkpt lat="44.78317" lon="0.44836">
        <ele>149.5</ele>
        <time>2022-07-14T06:14:07Z</time>
      </trkpt>
      <trkpt lat="44.78314" lon="0.44843">
        <ele>149.4</ele>
        <time>2022-07-14T06:14:09Z</time>
      </trkpt>
      <trkpt lat="44.78313" lon="0.44846">
        <ele>149.4</ele>
        <time>2022-07-14T06:14:10Z</time>
      </trkpt>
      <trkpt lat="44.7831" lon="0.44848">
        <ele>149.4</ele>
        <time>2022-07-14T06:14:11Z</time>
      </trkpt>
      <trkpt lat="44.78303" lon="0.44845">
        <ele>149.3</ele>
        <time>2022-07-14T06:14:13Z</time>
      </trkpt>
      <trkpt lat="44.78295" lon="0.44842">
        <ele>149.3</ele>
        <time>2022-07-14T06:14:15Z</time>
      </trkpt>
      <trkpt lat="44.78287" lon="0.44838">
        <ele>149.3</ele>
        <time>2022-07-14T06:14:17Z</time>
      </trkpt>
      <trkpt lat="44.7828" lon="0.44834">
        <ele>149.2</ele>
        <time>2022-07-14T06:14:19Z</time>
      </trkpt>
      <trkpt lat="44.78272" lon="0.44832">
        <ele>149.2</ele>
        <time>2022-07-14T06:14:21Z</time>
      </trkpt>
      <trkpt lat="44.78263" lon="0.44831">
        <ele>149.1</ele>
        <time>2022-07-14T06:14:23Z</time>
      </trkpt>
      <trkpt lat="44.78256" lon="0.44828">
        <ele>148.8</ele>
        <time>2022-07-14T06:14:25Z</time>
      </trkpt>
      <trkpt lat="44.78254" lon="0.44825">
        <ele>148.8</ele>
        <time>2022-07-14T06:14:26Z</time>
      </trkpt>
      <trkpt lat="44.78255" lon="0.44824">
        <ele>148.8</ele>
        <time>2022-07-14T06:14:27Z</time>
      </trkpt>
      <trkpt lat="44.78256" lon="0.4482">
        <ele>148.9</ele>
        <time>2022-07-14T06:14:28Z</time>
      </trkpt>
      <trkpt lat="44.78257" lon="0.44816">
        <ele>148.9</ele>
        <time>2022-07-14T06:14:29Z</time>
      </trkpt>
      <trkpt lat="44.7826" lon="0.44806">
        <ele>149</ele>
        <time>2022-07-14T06:14:31Z</time>
      </trkpt>
      <trkpt lat="44.78263" lon="0.44796">
        <ele>149</ele>
        <time>2022-07-14T06:14:33Z</time>
      </trkpt>
      <trkpt lat="44.78265" lon="0.44791">
        <ele>149.1</ele>
        <time>2022-07-14T06:14:34Z</time>
      </trkpt>
      <trkpt lat="44.78267" lon="0.44785">
        <ele>149.1</ele>
        <time>2022-07-14T06:14:35Z</time>
      </trkpt>
      <trkpt lat="44.7827" lon="0.44774">
        <ele>149.2</ele>
        <time>2022-07-14T06:14:37Z</time>
      </trkpt>
      <trkpt lat="44.78274" lon="0.44762">
        <ele>149.3</ele>
        <time>2022-07-14T06:14:39Z</time>
      </trkpt>
      <trkpt lat="44.78277" lon="0.44752">
        <ele>149.3</ele>
        <time>2022-07-14T06:14:41Z</time>
      </trkpt>
      <trkpt lat="44.7828" lon="0.44746">
        <ele>149.4</ele>
        <time>2022-07-14T06:14:42Z</time>
      </trkpt>
      <trkpt lat="44.78283" lon="0.44742">
        <ele>149.4</ele>
        <time>2022-07-14T06:14:43Z</time>
      </trkpt>
      <trkpt lat="44.78289" lon="0.44733">
        <ele>149.5</ele>
        <time>2022-07-14T06:14:45Z</time>
      </trkpt>
      <trkpt lat="44.78295" lon="0.44724">
        <ele>149.5</ele>
        <time>2022-07-14T06:14:47Z</time>
      </trkpt>
      <trkpt lat="44.78298" lon="0.4472">
        <ele>149.6</ele>
        <time>2022-07-14T06:14:48Z</time>
      </trkpt>
      <trkpt lat="44.78301" lon="0.44715">
        <ele>149.6</ele>
        <time>2022-07-14T06:14:49Z</time>
      </trkpt>
      <trkpt lat="44.78307" lon="0.44706">
        <ele>149.7</ele>
        <time>2022-07-14T06:14:51Z</time>
      </trkpt>
      <trkpt lat="44.78313" lon="0.44697">
        <ele>149.7</ele>
        <time>2022-07-14T06:14:53Z</time>
      </trkpt>
      <trkpt lat="44.7832" lon="0.44688">
        <ele>149.8</ele>
        <time>2022-07-14T06:14:55Z</time>
      </trkpt>
      <trkpt lat="44.78327" lon="0.44679">
        <ele>149.9</ele>
        <time>2022-07-14T06:14:57Z</time>
      </trkpt>
      <trkpt lat="44.78334" lon="0.4467">
        <ele>150.1</ele>
        <time>2022-07-14T06:14:59Z</time>
      </trkpt>
      <trkpt lat="44.78341" lon="0.44661">
        <ele>150.2</ele>
        <time>2022-07-14T06:15:01Z</time>
      </trkpt>
      <trkpt lat="44.78348" lon="0.44652">
        <ele>150.4</ele>
        <time>2022-07-14T06:15:03Z</time>
      </trkpt>
      <trkpt lat="44.78355" lon="0.44643">
        <ele>150.5</ele>
        <time>2022-07-14T06:15:05Z</time>
      </trkpt>
      <trkpt lat="44.78358" lon="0.44639">
        <ele>150.6</ele>
        <time>2022-07-14T06:15:06Z</time>
      </trkpt>
      <trkpt lat="44.78364" lon="0.44633">
        <ele>150.6</ele>
        <time>2022-07-14T06:15:07Z</time>
      </trkpt>
      <trkpt lat="44.78369" lon="0.44635">
        <ele>150.6</ele>
        <time>2022-07-14T06:15:08Z</time>
      </trkpt>
      <trkpt lat="44.78373" lon="0.44636">
        <ele>150.5</ele>
        <time>2022-07-14T06:15:09Z</time>
      </trkpt>
      <trkpt lat="44.78383" lon="0.44639">
        <ele>150.4</ele>
        <time>2022-07-14T06:15:11Z</time>
      </trkpt>
      <trkpt lat="44.78388" lon="0.4464">
        <ele>150.3</ele>
        <time>2022-07-14T06:15:12Z</time>
      </trkpt>
      <trkpt lat="44.78393" lon="0.44642">
        <ele>150.2</ele>
        <time>2022-07-14T06:15:13Z</time>
      </trkpt>
      <trkpt lat="44.78398" lon="0.44643">
        <ele>150.1</ele>
        <time>2022-07-14T06:15:14Z</time>
      </trkpt>
      <trkpt lat="44.78404" lon="0.44644">
        <ele>149.9</ele>
        <time>2022-07-14T06:15:15Z</time>
      </trkpt>
      <trkpt lat="44.78415" lon="0.44645">
        <ele>149.6</ele>
        <time>2022-07-14T06:15:17Z</time>
      </trkpt>
      <trkpt lat="44.78426" lon="0.44647">
        <ele>149.2</ele>
        <time>2022-07-14T06:15:19Z</time>
      </trkpt>
      <trkpt lat="44.78438" lon="0.44649">
        <ele>148.8</ele>
        <time>2022-07-14T06:15:21Z</time>
      </trkpt>
      <trkpt lat="44.78449" lon="0.44651">
        <ele>148.5</ele>
        <time>2022-07-14T06:15:23Z</time>
      </trkpt>
      <trkpt lat="44.7846" lon="0.44652">
        <ele>148.2</ele>
        <time>2022-07-14T06:15:25Z</time>
      </trkpt>
      <trkpt lat="44.78471" lon="0.44654">
        <ele>147.8</ele>
        <time>2022-07-14T06:15:27Z</time>
      </trkpt>
      <trkpt lat="44.78482" lon="0.44656">
        <ele>147.5</ele>
        <time>2022-07-14T06:15:29Z</time>
      </trkpt>
      <trkpt lat="44.78493" lon="0.44656">
        <ele>147.1</ele>
        <time>2022-07-14T06:15:31Z</time>
      </trkpt>
      <trkpt lat="44.78504" lon="0.44656">
        <ele>146.8</ele>
        <time>2022-07-14T06:15:33Z</time>
      </trkpt>
      <trkpt lat="44.78514" lon="0.44655">
        <ele>146.4</ele>
        <time>2022-07-14T06:15:35Z</time>
      </trkpt>
      <trkpt lat="44.7852" lon="0.44655">
        <ele>146.3</ele>
        <time>2022-07-14T06:15:36Z</time>
      </trkpt>
      <trkpt lat="44.78525" lon="0.44654">
        <ele>146.1</ele>
        <time>2022-07-14T06:15:37Z</time>
      </trkpt>
      <trkpt lat="44.78536" lon="0.44654">
        <ele>145.6</ele>
        <time>2022-07-14T06:15:39Z</time>
      </trkpt>
      <trkpt lat="44.78541" lon="0.44654">
        <ele>145.4</ele>
        <time>2022-07-14T06:15:40Z</time>
      </trkpt>
      <trkpt lat="44.78546" lon="0.44653">
        <ele>145.1</ele>
        <time>2022-07-14T06:15:41Z</time>
      </trkpt>
      <trkpt lat="44.78557" lon="0.44653">
        <ele>144.5</ele>
        <time>2022-07-14T06:15:43Z</time>
      </trkpt>
      <trkpt lat="44.78563" lon="0.44653">
        <ele>144.2</ele>
        <time>2022-07-14T06:15:44Z</time>
      </trkpt>
      <trkpt lat="44.78568" lon="0.44653">
        <ele>144</ele>
        <time>2022-07-14T06:15:45Z</time>
      </trkpt>
      <trkpt lat="44.78572" lon="0.44653">
        <ele>143.7</ele>
        <time>2022-07-14T06:15:46Z</time>
      </trkpt>
      <trkpt lat="44.78577" lon="0.44653">
        <ele>143.4</ele>
        <time>2022-07-14T06:15:47Z</time>
      </trkpt>
      <trkpt lat="44.78582" lon="0.44653">
        <ele>143.2</ele>
        <time>2022-07-14T06:15:48Z</time>
      </trkpt>
      <trkpt lat="44.78587" lon="0.44652">
        <ele>142.9</ele>
        <time>2022-07-14T06:15:49Z</time>
      </trkpt>
      <trkpt lat="44.78591" lon="0.44647">
        <ele>142.6</ele>
        <time>2022-07-14T06:15:50Z</time>
      </trkpt>
      <trkpt lat="44.78595" lon="0.44642">
        <ele>142.3</ele>
        <time>2022-07-14T06:15:51Z</time>
      </trkpt>
      <trkpt lat="44.78599" lon="0.44636">
        <ele>142.1</ele>
        <time>2022-07-14T06:15:52Z</time>
      </trkpt>
      <trkpt lat="44.78603" lon="0.44631">
        <ele>141.8</ele>
        <time>2022-07-14T06:15:53Z</time>
      </trkpt>
      <trkpt lat="44.78613" lon="0.44623">
        <ele>141.4</ele>
        <time>2022-07-14T06:15:55Z</time>
      </trkpt>
      <trkpt lat="44.78618" lon="0.44619">
        <ele>141.2</ele>
        <time>2022-07-14T06:15:56Z</time>
      </trkpt>
      <trkpt lat="44.78623" lon="0.44616">
        <ele>141</ele>
        <time>2022-07-14T06:15:57Z</time>
      </trkpt>
      <trkpt lat="44.78634" lon="0.44609">
        <ele>140.6</ele>
        <time>2022-07-14T06:15:59Z</time>
      </trkpt>
      <trkpt lat="44.78645" lon="0.44601">
        <ele>140</ele>
        <time>2022-07-14T06:16:01Z</time>
      </trkpt>
      <trkpt lat="44.78656" lon="0.44594">
        <ele>139.5</ele>
        <time>2022-07-14T06:16:03Z</time>
      </trkpt>
      <trkpt lat="44.78661" lon="0.4459">
        <ele>139.3</ele>
        <time>2022-07-14T06:16:04Z</time>
      </trkpt>
      <trkpt lat="44.78666" lon="0.44587">
        <ele>139.1</ele>
        <time>2022-07-14T06:16:05Z</time>
      </trkpt>
      <trkpt lat="44.78671" lon="0.44585">
        <ele>139.1</ele>
        <time>2022-07-14T06:16:06Z</time>
      </trkpt>
      <trkpt lat="44.78675" lon="0.44582">
        <ele>139</ele>
        <time>2022-07-14T06:16:07Z</time>
      </trkpt>
      <trkpt lat="44.7868" lon="0.44579">
        <ele>138.9</ele>
        <time>2022-07-14T06:16:08Z</time>
      </trkpt>
      <trkpt lat="44.78685" lon="0.44575">
        <ele>138.8</ele>
        <time>2022-07-14T06:16:09Z</time>
      </trkpt>
      <trkpt lat="44.78687" lon="0.44568">
        <ele>138.7</ele>
        <time>2022-07-14T06:16:10Z</time>
      </trkpt>
      <trkpt lat="44.7869" lon="0.4456">
        <ele>138.5</ele>
        <time>2022-07-14T06:16:11Z</time>
      </trkpt>
      <trkpt lat="44.78693" lon="0.44552">
        <ele>138.3</ele>
        <time>2022-07-14T06:16:12Z</time>
      </trkpt>
      <trkpt lat="44.78697" lon="0.44543">
        <ele>138.1</ele>
        <time>2022-07-14T06:16:13Z</time>
      </trkpt>
      <trkpt lat="44.78703" lon="0.44527">
        <ele>137.9</ele>
        <time>2022-07-14T06:16:15Z</time>
      </trkpt>
      <trkpt lat="44.78706" lon="0.44519">
        <ele>137.9</ele>
        <time>2022-07-14T06:16:16Z</time>
      </trkpt>
      <trkpt lat="44.78711" lon="0.44514">
        <ele>137.8</ele>
        <time>2022-07-14T06:16:17Z</time>
      </trkpt>
      <trkpt lat="44.78716" lon="0.44514">
        <ele>137.8</ele>
        <time>2022-07-14T06:16:18Z</time>
      </trkpt>
      <trkpt lat="44.78722" lon="0.44514">
        <ele>137.8</ele>
        <time>2022-07-14T06:16:19Z</time>
      </trkpt>
      <trkpt lat="44.78726" lon="0.44516">
        <ele>137.8</ele>
        <time>2022-07-14T06:16:20Z</time>
      </trkpt>
      <trkpt lat="44.78732" lon="0.44519">
        <ele>137.9</ele>
        <time>2022-07-14T06:16:21Z</time>
      </trkpt>
      <trkpt lat="44.78741" lon="0.44524">
        <ele>138</ele>
        <time>2022-07-14T06:16:23Z</time>
      </trkpt>
      <trkpt lat="44.78749" lon="0.44524">
        <ele>138.1</ele>
        <time>2022-07-14T06:16:25Z</time>
      </trkpt>
      <trkpt lat="44.78757" lon="0.44514">
        <ele>138</ele>
        <time>2022-07-14T06:16:27Z</time>
      </trkpt>
      <trkpt lat="44.78762" lon="0.44502">
        <ele>137.5</ele>
        <time>2022-07-14T06:16:29Z</time>
      </trkpt>
      <trkpt lat="44.78763" lon="0.44495">
        <ele>137.3</ele>
        <time>2022-07-14T06:16:30Z</time>
      </trkpt>
      <trkpt lat="44.78763" lon="0.44488">
        <ele>136.9</ele>
        <time>2022-07-14T06:16:31Z</time>
      </trkpt>
      <trkpt lat="44.78762" lon="0.44475">
        <ele>136.3</ele>
        <time>2022-07-14T06:16:33Z</time>
      </trkpt>
      <trkpt lat="44.78758" lon="0.44461">
        <ele>135.7</ele>
        <time>2022-07-14T06:16:35Z</time>
      </trkpt>
      <trkpt lat="44.78756" lon="0.44452">
        <ele>135.4</ele>
        <time>2022-07-14T06:16:37Z</time>
      </trkpt>
      <trkpt lat="44.78755" lon="0.44449">
        <ele>135.2</ele>
        <time>2022-07-14T06:16:39Z</time>
      </trkpt>
      <trkpt lat="44.78755" lon="0.44449">
        <ele>135.2</ele>
        <time>2022-07-14T06:16:41Z</time>
      </trkpt>
      <trkpt lat="44.78755" lon="0.44448">
        <ele>135.2</ele>
        <time>2022-07-14T06:16:42Z</time>
      </trkpt>
      <trkpt lat="44.78755" lon="0.44447">
        <ele>135.2</ele>
        <time>2022-07-14T06:16:43Z</time>
      </trkpt>
      <trkpt lat="44.78757" lon="0.44447">
        <ele>135.2</ele>
        <time>2022-07-14T06:16:44Z</time>
      </trkpt>
      <trkpt lat="44.7876" lon="0.44446">
        <ele>135.2</ele>
        <time>2022-07-14T06:16:45Z</time>
      </trkpt>
      <trkpt lat="44.78767" lon="0.44443">
        <ele>135.3</ele>
        <time>2022-07-14T06:16:47Z</time>
      </trkpt>
      <trkpt lat="44.78771" lon="0.44441">
        <ele>135.3</ele>
        <time>2022-07-14T06:16:48Z</time>
      </trkpt>
      <trkpt lat="44.78775" lon="0.44438">
        <ele>135.3</ele>
        <time>2022-07-14T06:16:49Z</time>
      </trkpt>
      <trkpt lat="44.78783" lon="0.44434">
        <ele>135.3</ele>
        <time>2022-07-14T06:16:51Z</time>
      </trkpt>
      <trkpt lat="44.7879" lon="0.4443">
        <ele>135.3</ele>
        <time>2022-07-14T06:16:53Z</time>
      </trkpt>
      <trkpt lat="44.78794" lon="0.44429">
        <ele>135.3</ele>
        <time>2022-07-14T06:16:54Z</time>
      </trkpt>
      <trkpt lat="44.78798" lon="0.44429">
        <ele>135.3</ele>
        <time>2022-07-14T06:16:55Z</time>
      </trkpt>
      <trkpt lat="44.78807" lon="0.44431">
        <ele>135.3</ele>
        <time>2022-07-14T06:16:57Z</time>
      </trkpt>
      <trkpt lat="44.78816" lon="0.44437">
        <ele>135.4</ele>
        <time>2022-07-14T06:16:59Z</time>
      </trkpt>
      <trkpt lat="44.78825" lon="0.44444">
        <ele>135.5</ele>
        <time>2022-07-14T06:17:01Z</time>
      </trkpt>
      <trkpt lat="44.78834" lon="0.44451">
        <ele>135.6</ele>
        <time>2022-07-14T06:17:03Z</time>
      </trkpt>
      <trkpt lat="44.78842" lon="0.44457">
        <ele>135.8</ele>
        <time>2022-07-14T06:17:05Z</time>
      </trkpt>
      <trkpt lat="44.78848" lon="0.44456">
        <ele>136</ele>
        <time>2022-07-14T06:17:06Z</time>
      </trkpt>
      <trkpt lat="44.78851" lon="0.44453">
        <ele>136.1</ele>
        <time>2022-07-14T06:17:07Z</time>
      </trkpt>
      <trkpt lat="44.78857" lon="0.44445">
        <ele>136.4</ele>
        <time>2022-07-14T06:17:09Z</time>
      </trkpt>
      <trkpt lat="44.78863" lon="0.4444">
        <ele>136.7</ele>
        <time>2022-07-14T06:17:11Z</time>
      </trkpt>
      <trkpt lat="44.7887" lon="0.44439">
        <ele>137.1</ele>
        <time>2022-07-14T06:17:13Z</time>
      </trkpt>
      <trkpt lat="44.78878" lon="0.4444">
        <ele>137.5</ele>
        <time>2022-07-14T06:17:15Z</time>
      </trkpt>
      <trkpt lat="44.78886" lon="0.4444">
        <ele>137.9</ele>
        <time>2022-07-14T06:17:17Z</time>
      </trkpt>
      <trkpt lat="44.7889" lon="0.44441">
        <ele>138.1</ele>
        <time>2022-07-14T06:17:18Z</time>
      </trkpt>
      <trkpt lat="44.78894" lon="0.44441">
        <ele>138.1</ele>
        <time>2022-07-14T06:17:19Z</time>
      </trkpt>
      <trkpt lat="44.78903" lon="0.44443">
        <ele>138.2</ele>
        <time>2022-07-14T06:17:21Z</time>
      </trkpt>
      <trkpt lat="44.78912" lon="0.44445">
        <ele>138.3</ele>
        <time>2022-07-14T06:17:23Z</time>
      </trkpt>
      <trkpt lat="44.78916" lon="0.44446">
        <ele>138.3</ele>
        <time>2022-07-14T06:17:24Z</time>
      </trkpt>
      <trkpt lat="44.78921" lon="0.44447">
        <ele>138.4</ele>
        <time>2022-07-14T06:17:25Z</time>
      </trkpt>
      <trkpt lat="44.7893" lon="0.44448">
        <ele>138.4</ele>
        <time>2022-07-14T06:17:27Z</time>
      </trkpt>
      <trkpt lat="44.78938" lon="0.4445">
        <ele>138.6</ele>
        <time>2022-07-14T06:17:29Z</time>
      </trkpt>
      <trkpt lat="44.78947" lon="0.44452">
        <ele>138.7</ele>
        <time>2022-07-14T06:17:31Z</time>
      </trkpt>
      <trkpt lat="44.78955" lon="0.44445">
        <ele>138.8</ele>
        <time>2022-07-14T06:17:33Z</time>
      </trkpt>
      <trkpt lat="44.78958" lon="0.44439">
        <ele>138.8</ele>
        <time>2022-07-14T06:17:34Z</time>
      </trkpt>
      <trkpt lat="44.78962" lon="0.44437">
        <ele>138.9</ele>
        <time>2022-07-14T06:17:35Z</time>
      </trkpt>
      <trkpt lat="44.78971" lon="0.44435">
        <ele>139</ele>
        <time>2022-07-14T06:17:37Z</time>
      </trkpt>
      <trkpt lat="44.78975" lon="0.44433">
        <ele>139.1</ele>
        <time>2022-07-14T06:17:38Z</time>
      </trkpt>
      <trkpt lat="44.78979" lon="0.44432">
        <ele>139.1</ele>
        <time>2022-07-14T06:17:39Z</time>
      </trkpt>
      <trkpt lat="44.78987" lon="0.4443">
        <ele>139.1</ele>
        <time>2022-07-14T06:17:41Z</time>
      </trkpt>
      <trkpt lat="44.78996" lon="0.44429">
        <ele>139</ele>
        <time>2022-07-14T06:17:43Z</time>
      </trkpt>
      <trkpt lat="44.79005" lon="0.44428">
        <ele>138.9</ele>
        <time>2022-07-14T06:17:45Z</time>
      </trkpt>
      <trkpt lat="44.79014" lon="0.44429">
        <ele>138.8</ele>
        <time>2022-07-14T06:17:47Z</time>
      </trkpt>
      <trkpt lat="44.79019" lon="0.44429">
        <ele>138.7</ele>
        <time>2022-07-14T06:17:48Z</time>
      </trkpt>
      <trkpt lat="44.79023" lon="0.4443">
        <ele>138.6</ele>
        <time>2022-07-14T06:17:49Z</time>
      </trkpt>
      <trkpt lat="44.79033" lon="0.4443">
        <ele>138.4</ele>
        <time>2022-07-14T06:17:51Z</time>
      </trkpt>
      <trkpt lat="44.79042" lon="0.44431">
        <ele>138.4</ele>
        <time>2022-07-14T06:17:53Z</time>
      </trkpt>
      <trkpt lat="44.79052" lon="0.44432">
        <ele>138.4</ele>
        <time>2022-07-14T06:17:55Z</time>
      </trkpt>
      <trkpt lat="44.79061" lon="0.44432">
        <ele>138.4</ele>
        <time>2022-07-14T06:17:57Z</time>
      </trkpt>
      <trkpt lat="44.7907" lon="0.44433">
        <ele>138.3</ele>
        <time>2022-07-14T06:17:59Z</time>
      </trkpt>
      <trkpt lat="44.79079" lon="0.44434">
        <ele>138.3</ele>
        <time>2022-07-14T06:18:01Z</time>
      </trkpt>
      <trkpt lat="44.79087" lon="0.44434">
        <ele>138.3</ele>
        <time>2022-07-14T06:18:03Z</time>
      </trkpt>
      <trkpt lat="44.7909" lon="0.44434">
        <ele>138.4</ele>
        <time>2022-07-14T06:18:04Z</time>
      </trkpt>
      <trkpt lat="44.79093" lon="0.44424">
        <ele>139.2</ele>
        <time>2022-07-14T06:18:05Z</time>
      </trkpt>
      <trkpt lat="44.79095" lon="0.44413">
        <ele>139.2</ele>
        <time>2022-07-14T06:18:06Z</time>
      </trkpt>
      <trkpt lat="44.79096" lon="0.44401">
        <ele>140.1</ele>
        <time>2022-07-14T06:18:07Z</time>
      </trkpt>
      <trkpt lat="44.79098" lon="0.4439">
        <ele>140.8</ele>
        <time>2022-07-14T06:18:09Z</time>
      </trkpt>
      <trkpt lat="44.79099" lon="0.44383">
        <ele>140.8</ele>
        <time>2022-07-14T06:18:10Z</time>
      </trkpt>
      <trkpt lat="44.791" lon="0.44377">
        <ele>140.8</ele>
        <time>2022-07-14T06:18:11Z</time>
      </trkpt>
      <trkpt lat="44.79101" lon="0.44364">
        <ele>141</ele>
        <time>2022-07-14T06:18:13Z</time>
      </trkpt>
      <trkpt lat="44.79103" lon="0.44357">
        <ele>140.7</ele>
        <time>2022-07-14T06:18:14Z</time>
      </trkpt>
      <trkpt lat="44.79104" lon="0.4435">
        <ele>140.7</ele>
        <time>2022-07-14T06:18:15Z</time>
      </trkpt>
      <trkpt lat="44.79107" lon="0.44345">
        <ele>140.7</ele>
        <time>2022-07-14T06:18:16Z</time>
      </trkpt>
      <trkpt lat="44.79111" lon="0.44342">
        <ele>140</ele>
        <time>2022-07-14T06:18:17Z</time>
      </trkpt>
      <trkpt lat="44.79116" lon="0.44341">
        <ele>140</ele>
        <time>2022-07-14T06:18:18Z</time>
      </trkpt>
      <trkpt lat="44.79119" lon="0.44339">
        <ele>139.6</ele>
        <time>2022-07-14T06:18:19Z</time>
      </trkpt>
      <trkpt lat="44.79122" lon="0.44334">
        <ele>138.9</ele>
        <time>2022-07-14T06:18:20Z</time>
      </trkpt>
      <trkpt lat="44.79123" lon="0.44327">
        <ele>138.9</ele>
        <time>2022-07-14T06:18:21Z</time>
      </trkpt>
      <trkpt lat="44.79124" lon="0.44321">
        <ele>138.5</ele>
        <time>2022-07-14T06:18:22Z</time>
      </trkpt>
      <trkpt lat="44.79125" lon="0.44314">
        <ele>138.5</ele>
        <time>2022-07-14T06:18:23Z</time>
      </trkpt>
      <trkpt lat="44.79126" lon="0.44301">
        <ele>138.1</ele>
        <time>2022-07-14T06:18:25Z</time>
      </trkpt>
      <trkpt lat="44.79127" lon="0.44296">
        <ele>138.1</ele>
        <time>2022-07-14T06:18:26Z</time>
      </trkpt>
      <trkpt lat="44.79127" lon="0.44291">
        <ele>138.1</ele>
        <time>2022-07-14T06:18:27Z</time>
      </trkpt>
      <trkpt lat="44.79127" lon="0.44281">
        <ele>137.7</ele>
        <time>2022-07-14T06:18:29Z</time>
      </trkpt>
      <trkpt lat="44.79127" lon="0.44277">
        <ele>137.7</ele>
        <time>2022-07-14T06:18:30Z</time>
      </trkpt>
      <trkpt lat="44.79128" lon="0.44273">
        <ele>137.7</ele>
        <time>2022-07-14T06:18:31Z</time>
      </trkpt>
      <trkpt lat="44.79128" lon="0.44264">
        <ele>137.4</ele>
        <time>2022-07-14T06:18:33Z</time>
      </trkpt>
      <trkpt lat="44.79129" lon="0.44256">
        <ele>137.4</ele>
        <time>2022-07-14T06:18:35Z</time>
      </trkpt>
      <trkpt lat="44.79131" lon="0.44245">
        <ele>137</ele>
        <time>2022-07-14T06:18:37Z</time>
      </trkpt>
      <trkpt lat="44.79132" lon="0.44236">
        <ele>136.6</ele>
        <time>2022-07-14T06:18:39Z</time>
      </trkpt>
      <trkpt lat="44.79134" lon="0.44225">
        <ele>135</ele>
        <time>2022-07-14T06:18:41Z</time>
      </trkpt>
      <trkpt lat="44.79138" lon="0.44213">
        <ele>134.5</ele>
        <time>2022-07-14T06:18:43Z</time>
      </trkpt>
      <trkpt lat="44.79139" lon="0.44206">
        <ele>134.5</ele>
        <time>2022-07-14T06:18:44Z</time>
      </trkpt>
      <trkpt lat="44.79141" lon="0.442">
        <ele>133.9</ele>
        <time>2022-07-14T06:18:45Z</time>
      </trkpt>
      <trkpt lat="44.79141" lon="0.44192">
        <ele>133.9</ele>
        <time>2022-07-14T06:18:47Z</time>
      </trkpt>
      <trkpt lat="44.79141" lon="0.44188">
        <ele>133.9</ele>
        <time>2022-07-14T06:18:48Z</time>
      </trkpt>
      <trkpt lat="44.79143" lon="0.44185">
        <ele>133.3</ele>
        <time>2022-07-14T06:18:49Z</time>
      </trkpt>
      <trkpt lat="44.79147" lon="0.4418">
        <ele>131.8</ele>
        <time>2022-07-14T06:18:51Z</time>
      </trkpt>
      <trkpt lat="44.79151" lon="0.44171">
        <ele>131.8</ele>
        <time>2022-07-14T06:18:53Z</time>
      </trkpt>
      <trkpt lat="44.79157" lon="0.44164">
        <ele>131.3</ele>
        <time>2022-07-14T06:18:55Z</time>
      </trkpt>
      <trkpt lat="44.79159" lon="0.44159">
        <ele>129.7</ele>
        <time>2022-07-14T06:18:57Z</time>
      </trkpt>
      <trkpt lat="44.79158" lon="0.44155">
        <ele>129.7</ele>
        <time>2022-07-14T06:18:58Z</time>
      </trkpt>
      <trkpt lat="44.79156" lon="0.44152">
        <ele>131.3</ele>
        <time>2022-07-14T06:18:59Z</time>
      </trkpt>
      <trkpt lat="44.79153" lon="0.44149">
        <ele>130.7</ele>
        <time>2022-07-14T06:19:01Z</time>
      </trkpt>
      <trkpt lat="44.79146" lon="0.44146">
        <ele>132.1</ele>
        <time>2022-07-14T06:19:03Z</time>
      </trkpt>
      <trkpt lat="44.79139" lon="0.44145">
        <ele>132.1</ele>
        <time>2022-07-14T06:19:05Z</time>
      </trkpt>
      <trkpt lat="44.79135" lon="0.44145">
        <ele>132.1</ele>
        <time>2022-07-14T06:19:07Z</time>
      </trkpt>
      <trkpt lat="44.7913" lon="0.44145">
        <ele>133.3</ele>
        <time>2022-07-14T06:19:09Z</time>
      </trkpt>
      <trkpt lat="44.79123" lon="0.44143">
        <ele>133.3</ele>
        <time>2022-07-14T06:19:11Z</time>
      </trkpt>
      <trkpt lat="44.79117" lon="0.44143">
        <ele>134.5</ele>
        <time>2022-07-14T06:19:13Z</time>
      </trkpt>
      <trkpt lat="44.79113" lon="0.44144">
        <ele>134.5</ele>
        <time>2022-07-14T06:19:15Z</time>
      </trkpt>
      <trkpt lat="44.79109" lon="0.44146">
        <ele>135.5</ele>
        <time>2022-07-14T06:19:17Z</time>
      </trkpt>
      <trkpt lat="44.79107" lon="0.44146">
        <ele>135.5</ele>
        <time>2022-07-14T06:19:18Z</time>
      </trkpt>
      <trkpt lat="44.79104" lon="0.44147">
        <ele>135.5</ele>
        <time>2022-07-14T06:19:19Z</time>
      </trkpt>
      <trkpt lat="44.79098" lon="0.44145">
        <ele>135.5</ele>
        <time>2022-07-14T06:19:21Z</time>
      </trkpt>
      <trkpt lat="44.79095" lon="0.44146">
        <ele>136.2</ele>
        <time>2022-07-14T06:19:22Z</time>
      </trkpt>
      <trkpt lat="44.79092" lon="0.44146">
        <ele>136.2</ele>
        <time>2022-07-14T06:19:23Z</time>
      </trkpt>
      <trkpt lat="44.79084" lon="0.44145">
        <ele>136.5</ele>
        <time>2022-07-14T06:19:25Z</time>
      </trkpt>
      <trkpt lat="44.79081" lon="0.44144">
        <ele>136.5</ele>
        <time>2022-07-14T06:19:26Z</time>
      </trkpt>
      <trkpt lat="44.79078" lon="0.44143">
        <ele>136.5</ele>
        <time>2022-07-14T06:19:27Z</time>
      </trkpt>
      <trkpt lat="44.79072" lon="0.44142">
        <ele>136.3</ele>
        <time>2022-07-14T06:19:29Z</time>
      </trkpt>
      <trkpt lat="44.79065" lon="0.44144">
        <ele>136.3</ele>
        <time>2022-07-14T06:19:31Z</time>
      </trkpt>
      <trkpt lat="44.79058" lon="0.44145">
        <ele>136</ele>
        <time>2022-07-14T06:19:33Z</time>
      </trkpt>
      <trkpt lat="44.79049" lon="0.44144">
        <ele>136</ele>
        <time>2022-07-14T06:19:35Z</time>
      </trkpt>
      <trkpt lat="44.79046" lon="0.44143">
        <ele>135.4</ele>
        <time>2022-07-14T06:19:36Z</time>
      </trkpt>
      <trkpt lat="44.79044" lon="0.44143">
        <ele>135.4</ele>
        <time>2022-07-14T06:19:37Z</time>
      </trkpt>
      <trkpt lat="44.79042" lon="0.44144">
        <ele>135.4</ele>
        <time>2022-07-14T06:19:39Z</time>
      </trkpt>
      <trkpt lat="44.79024" lon="0.44141">
        <ele>134.4</ele>
        <time>2022-07-14T06:20:09Z</time>
      </trkpt>
      <trkpt lat="44.79022" lon="0.4414">
        <ele>134.4</ele>
        <time>2022-07-14T06:20:10Z</time>
      </trkpt>
      <trkpt lat="44.7902" lon="0.44139">
        <ele>134.4</ele>
        <time>2022-07-14T06:20:11Z</time>
      </trkpt>
      <trkpt lat="44.79015" lon="0.44137">
        <ele>134.4</ele>
        <time>2022-07-14T06:20:13Z</time>
      </trkpt>
      <trkpt lat="44.79007" lon="0.44134">
        <ele>134.1</ele>
        <time>2022-07-14T06:20:15Z</time>
      </trkpt>
      <trkpt lat="44.79003" lon="0.4413">
        <ele>133.6</ele>
        <time>2022-07-14T06:20:17Z</time>
      </trkpt>
      <trkpt lat="44.79001" lon="0.44128">
        <ele>133.6</ele>
        <time>2022-07-14T06:20:18Z</time>
      </trkpt>
      <trkpt lat="44.78999" lon="0.44125">
        <ele>133.3</ele>
        <time>2022-07-14T06:20:19Z</time>
      </trkpt>
      <trkpt lat="44.78995" lon="0.44124">
        <ele>133.3</ele>
        <time>2022-07-14T06:20:20Z</time>
      </trkpt>
      <trkpt lat="44.78991" lon="0.44123">
        <ele>133.3</ele>
        <time>2022-07-14T06:20:21Z</time>
      </trkpt>
      <trkpt lat="44.78986" lon="0.44122">
        <ele>132.9</ele>
        <time>2022-07-14T06:20:22Z</time>
      </trkpt>
      <trkpt lat="44.78984" lon="0.4412">
        <ele>132.9</ele>
        <time>2022-07-14T06:20:23Z</time>
      </trkpt>
      <trkpt lat="44.78977" lon="0.44116">
        <ele>132.4</ele>
        <time>2022-07-14T06:20:25Z</time>
      </trkpt>
      <trkpt lat="44.78968" lon="0.44109">
        <ele>132</ele>
        <time>2022-07-14T06:20:27Z</time>
      </trkpt>
      <trkpt lat="44.78964" lon="0.44103">
        <ele>131.9</ele>
        <time>2022-07-14T06:20:28Z</time>
      </trkpt>
      <trkpt lat="44.7896" lon="0.44098">
        <ele>131.2</ele>
        <time>2022-07-14T06:20:29Z</time>
      </trkpt>
      <trkpt lat="44.78955" lon="0.44093">
        <ele>131.2</ele>
        <time>2022-07-14T06:20:30Z</time>
      </trkpt>
      <trkpt lat="44.7895" lon="0.44089">
        <ele>130.5</ele>
        <time>2022-07-14T06:20:31Z</time>
      </trkpt>
      <trkpt lat="44.78945" lon="0.44085">
        <ele>130.5</ele>
        <time>2022-07-14T06:20:32Z</time>
      </trkpt>
      <trkpt lat="44.78941" lon="0.44083">
        <ele>130.3</ele>
        <time>2022-07-14T06:20:33Z</time>
      </trkpt>
      <trkpt lat="44.78933" lon="0.44073">
        <ele>129.3</ele>
        <time>2022-07-14T06:20:35Z</time>
      </trkpt>
      <trkpt lat="44.78926" lon="0.44065">
        <ele>127.3</ele>
        <time>2022-07-14T06:20:37Z</time>
      </trkpt>
      <trkpt lat="44.78922" lon="0.44054">
        <ele>127.3</ele>
        <time>2022-07-14T06:20:39Z</time>
      </trkpt>
      <trkpt lat="44.78916" lon="0.4404">
        <ele>126.1</ele>
        <time>2022-07-14T06:20:41Z</time>
      </trkpt>
      <trkpt lat="44.78916" lon="0.44039">
        <ele>126.1</ele>
        <time>2022-07-14T06:20:42Z</time>
      </trkpt>
      <trkpt lat="44.78914" lon="0.44035">
        <ele>124.3</ele>
        <time>2022-07-14T06:20:43Z</time>
      </trkpt>
      <trkpt lat="44.78914" lon="0.44031">
        <ele>122.7</ele>
        <time>2022-07-14T06:20:44Z</time>
      </trkpt>
      <trkpt lat="44.78913" lon="0.44026">
        <ele>122.7</ele>
        <time>2022-07-14T06:20:45Z</time>
      </trkpt>
      <trkpt lat="44.78914" lon="0.44021">
        <ele>122.7</ele>
        <time>2022-07-14T06:20:46Z</time>
      </trkpt>
      <trkpt lat="44.78915" lon="0.44015">
        <ele>124.7</ele>
        <time>2022-07-14T06:20:47Z</time>
      </trkpt>
      <trkpt lat="44.78918" lon="0.44003">
        <ele>123.2</ele>
        <time>2022-07-14T06:20:49Z</time>
      </trkpt>
      <trkpt lat="44.7892" lon="0.43997">
        <ele>123.2</ele>
        <time>2022-07-14T06:20:50Z</time>
      </trkpt>
      <trkpt lat="44.78923" lon="0.43994">
        <ele>121.7</ele>
        <time>2022-07-14T06:20:51Z</time>
      </trkpt>
      <trkpt lat="44.78925" lon="0.43994">
        <ele>121.7</ele>
        <time>2022-07-14T06:20:52Z</time>
      </trkpt>
      <trkpt lat="44.78928" lon="0.43995">
        <ele>123.5</ele>
        <time>2022-07-14T06:20:53Z</time>
      </trkpt>
      <trkpt lat="44.78934" lon="0.43996">
        <ele>123.5</ele>
        <time>2022-07-14T06:20:55Z</time>
      </trkpt>
      <trkpt lat="44.7894" lon="0.43998">
        <ele>126.1</ele>
        <time>2022-07-14T06:20:57Z</time>
      </trkpt>
      <trkpt lat="44.78942" lon="0.43997">
        <ele>126.1</ele>
        <time>2022-07-14T06:20:58Z</time>
      </trkpt>
      <trkpt lat="44.78945" lon="0.44">
        <ele>126.1</ele>
        <time>2022-07-14T06:20:59Z</time>
      </trkpt>
      <trkpt lat="44.7895" lon="0.44003">
        <ele>126.1</ele>
        <time>2022-07-14T06:21:01Z</time>
      </trkpt>
      <trkpt lat="44.78953" lon="0.44003">
        <ele>126.9</ele>
        <time>2022-07-14T06:21:02Z</time>
      </trkpt>
      <trkpt lat="44.78957" lon="0.44001">
        <ele>126.9</ele>
        <time>2022-07-14T06:21:03Z</time>
      </trkpt>
      <trkpt lat="44.78964" lon="0.44">
        <ele>127.4</ele>
        <time>2022-07-14T06:21:05Z</time>
      </trkpt>
      <trkpt lat="44.78968" lon="0.43999">
        <ele>127.4</ele>
        <time>2022-07-14T06:21:06Z</time>
      </trkpt>
      <trkpt lat="44.78972" lon="0.43999">
        <ele>127.4</ele>
        <time>2022-07-14T06:21:07Z</time>
      </trkpt>
      <trkpt lat="44.78978" lon="0.43997">
        <ele>127.6</ele>
        <time>2022-07-14T06:21:09Z</time>
      </trkpt>
      <trkpt lat="44.7898" lon="0.43996">
        <ele>126.6</ele>
        <time>2022-07-14T06:21:10Z</time>
      </trkpt>
      <trkpt lat="44.78984" lon="0.43994">
        <ele>126.6</ele>
        <time>2022-07-14T06:21:11Z</time>
      </trkpt>
      <trkpt lat="44.78991" lon="0.43994">
        <ele>126.4</ele>
        <time>2022-07-14T06:21:13Z</time>
      </trkpt>
      <trkpt lat="44.78995" lon="0.43994">
        <ele>126.4</ele>
        <time>2022-07-14T06:21:14Z</time>
      </trkpt>
      <trkpt lat="44.78999" lon="0.43994">
        <ele>126.4</ele>
        <time>2022-07-14T06:21:15Z</time>
      </trkpt>
      <trkpt lat="44.79006" lon="0.43993">
        <ele>125.8</ele>
        <time>2022-07-14T06:21:17Z</time>
      </trkpt>
      <trkpt lat="44.79012" lon="0.43992">
        <ele>125.2</ele>
        <time>2022-07-14T06:21:19Z</time>
      </trkpt>
      <trkpt lat="44.7902" lon="0.43993">
        <ele>125.2</ele>
        <time>2022-07-14T06:21:21Z</time>
      </trkpt>
      <trkpt lat="44.79027" lon="0.43992">
        <ele>124.7</ele>
        <time>2022-07-14T06:21:23Z</time>
      </trkpt>
      <trkpt lat="44.79029" lon="0.43991">
        <ele>124.7</ele>
        <time>2022-07-14T06:21:24Z</time>
      </trkpt>
      <trkpt lat="44.79032" lon="0.43991">
        <ele>124.7</ele>
        <time>2022-07-14T06:21:25Z</time>
      </trkpt>
      <trkpt lat="44.79034" lon="0.43988">
        <ele>124.7</ele>
        <time>2022-07-14T06:21:27Z</time>
      </trkpt>
      <trkpt lat="44.79035" lon="0.43984">
        <ele>124.7</ele>
        <time>2022-07-14T06:21:28Z</time>
      </trkpt>
      <trkpt lat="44.79036" lon="0.43982">
        <ele>124.7</ele>
        <time>2022-07-14T06:21:29Z</time>
      </trkpt>
      <trkpt lat="44.79036" lon="0.43975">
        <ele>123.7</ele>
        <time>2022-07-14T06:21:31Z</time>
      </trkpt>
      <trkpt lat="44.79034" lon="0.43972">
        <ele>123.7</ele>
        <time>2022-07-14T06:21:32Z</time>
      </trkpt>
      <trkpt lat="44.79033" lon="0.43969">
        <ele>123.7</ele>
        <time>2022-07-14T06:21:33Z</time>
      </trkpt>
      <trkpt lat="44.79027" lon="0.43963">
        <ele>123.7</ele>
        <time>2022-07-14T06:21:35Z</time>
      </trkpt>
      <trkpt lat="44.79025" lon="0.43962">
        <ele>123.1</ele>
        <time>2022-07-14T06:21:36Z</time>
      </trkpt>
      <trkpt lat="44.79023" lon="0.43961">
        <ele>123.5</ele>
        <time>2022-07-14T06:21:37Z</time>
      </trkpt>
      <trkpt lat="44.79018" lon="0.43961">
        <ele>123.5</ele>
        <time>2022-07-14T06:21:38Z</time>
      </trkpt>
      <trkpt lat="44.79014" lon="0.43961">
        <ele>123.5</ele>
        <time>2022-07-14T06:21:39Z</time>
      </trkpt>
      <trkpt lat="44.7901" lon="0.43961">
        <ele>124.1</ele>
        <time>2022-07-14T06:21:40Z</time>
      </trkpt>
      <trkpt lat="44.79009" lon="0.43961">
        <ele>124.1</ele>
        <time>2022-07-14T06:21:41Z</time>
      </trkpt>
      <trkpt lat="44.79001" lon="0.43959">
        <ele>124.1</ele>
        <time>2022-07-14T06:21:43Z</time>
      </trkpt>
      <trkpt lat="44.78996" lon="0.43955">
        <ele>124.5</ele>
        <time>2022-07-14T06:21:45Z</time>
      </trkpt>
      <trkpt lat="44.78992" lon="0.43954">
        <ele>124.5</ele>
        <time>2022-07-14T06:21:47Z</time>
      </trkpt>
      <trkpt lat="44.78987" lon="0.43953">
        <ele>124.7</ele>
        <time>2022-07-14T06:21:49Z</time>
      </trkpt>
      <trkpt lat="44.78981" lon="0.43954">
        <ele>124.7</ele>
        <time>2022-07-14T06:21:51Z</time>
      </trkpt>
      <trkpt lat="44.78979" lon="0.43955">
        <ele>124.7</ele>
        <time>2022-07-14T06:21:52Z</time>
      </trkpt>
      <trkpt lat="44.78975" lon="0.43956">
        <ele>124.6</ele>
        <time>2022-07-14T06:21:53Z</time>
      </trkpt>
      <trkpt lat="44.78965" lon="0.43957">
        <ele>124.5</ele>
        <time>2022-07-14T06:21:55Z</time>
      </trkpt>
      <trkpt lat="44.78958" lon="0.43952">
        <ele>123.9</ele>
        <time>2022-07-14T06:21:57Z</time>
      </trkpt>
      <trkpt lat="44.78953" lon="0.43949">
        <ele>123.9</ele>
        <time>2022-07-14T06:21:58Z</time>
      </trkpt>
      <trkpt lat="44.78949" lon="0.43946">
        <ele>122.9</ele>
        <time>2022-07-14T06:21:59Z</time>
      </trkpt>
      <trkpt lat="44.78943" lon="0.43944">
        <ele>121.8</ele>
        <time>2022-07-14T06:22:01Z</time>
      </trkpt>
      <trkpt lat="44.78941" lon="0.43942">
        <ele>121.8</ele>
        <time>2022-07-14T06:22:02Z</time>
      </trkpt>
      <trkpt lat="44.78938" lon="0.43941">
        <ele>120.2</ele>
        <time>2022-07-14T06:22:03Z</time>
      </trkpt>
      <trkpt lat="44.78931" lon="0.43939">
        <ele>120.2</ele>
        <time>2022-07-14T06:22:05Z</time>
      </trkpt>
      <trkpt lat="44.78926" lon="0.43937">
        <ele>118.4</ele>
        <time>2022-07-14T06:22:06Z</time>
      </trkpt>
      <trkpt lat="44.78921" lon="0.43932">
        <ele>118.4</ele>
        <time>2022-07-14T06:22:07Z</time>
      </trkpt>
      <trkpt lat="44.7891" lon="0.43923">
        <ele>115.5</ele>
        <time>2022-07-14T06:22:09Z</time>
      </trkpt>
      <trkpt lat="44.78899" lon="0.43919">
        <ele>113.3</ele>
        <time>2022-07-14T06:22:11Z</time>
      </trkpt>
      <trkpt lat="44.78887" lon="0.43922">
        <ele>110.9</ele>
        <time>2022-07-14T06:22:13Z</time>
      </trkpt>
      <trkpt lat="44.78875" lon="0.43914">
        <ele>108.8</ele>
        <time>2022-07-14T06:22:15Z</time>
      </trkpt>
      <trkpt lat="44.78871" lon="0.43908">
        <ele>108.8</ele>
        <time>2022-07-14T06:22:16Z</time>
      </trkpt>
      <trkpt lat="44.78867" lon="0.43899">
        <ele>108.8</ele>
        <time>2022-07-14T06:22:17Z</time>
      </trkpt>
      <trkpt lat="44.7886" lon="0.43881">
        <ele>108</ele>
        <time>2022-07-14T06:22:19Z</time>
      </trkpt>
      <trkpt lat="44.78852" lon="0.43862">
        <ele>107.9</ele>
        <time>2022-07-14T06:22:21Z</time>
      </trkpt>
      <trkpt lat="44.78844" lon="0.43842">
        <ele>109.5</ele>
        <time>2022-07-14T06:22:23Z</time>
      </trkpt>
      <trkpt lat="44.78836" lon="0.43825">
        <ele>108.5</ele>
        <time>2022-07-14T06:22:25Z</time>
      </trkpt>
      <trkpt lat="44.78831" lon="0.43821">
        <ele>109.3</ele>
        <time>2022-07-14T06:22:26Z</time>
      </trkpt>
      <trkpt lat="44.78825" lon="0.43821">
        <ele>108.7</ele>
        <time>2022-07-14T06:22:27Z</time>
      </trkpt>
      <trkpt lat="44.78814" lon="0.43821">
        <ele>108.4</ele>
        <time>2022-07-14T06:22:29Z</time>
      </trkpt>
      <trkpt lat="44.78808" lon="0.4382">
        <ele>108.4</ele>
        <time>2022-07-14T06:22:30Z</time>
      </trkpt>
      <trkpt lat="44.78802" lon="0.43818">
        <ele>108.3</ele>
        <time>2022-07-14T06:22:31Z</time>
      </trkpt>
      <trkpt lat="44.78789" lon="0.43817">
        <ele>108.5</ele>
        <time>2022-07-14T06:22:33Z</time>
      </trkpt>
      <trkpt lat="44.78777" lon="0.43818">
        <ele>108.7</ele>
        <time>2022-07-14T06:22:35Z</time>
      </trkpt>
      <trkpt lat="44.78767" lon="0.43819">
        <ele>108.9</ele>
        <time>2022-07-14T06:22:37Z</time>
      </trkpt>
      <trkpt lat="44.78763" lon="0.43819">
        <ele>108.9</ele>
        <time>2022-07-14T06:22:38Z</time>
      </trkpt>
      <trkpt lat="44.78759" lon="0.43819">
        <ele>108.9</ele>
        <time>2022-07-14T06:22:39Z</time>
      </trkpt>
      <trkpt lat="44.78751" lon="0.43819">
        <ele>109.1</ele>
        <time>2022-07-14T06:22:41Z</time>
      </trkpt>
      <trkpt lat="44.78743" lon="0.43818">
        <ele>109.4</ele>
        <time>2022-07-14T06:22:43Z</time>
      </trkpt>
      <trkpt lat="44.78739" lon="0.43819">
        <ele>109.4</ele>
        <time>2022-07-14T06:22:44Z</time>
      </trkpt>
      <trkpt lat="44.78735" lon="0.43818">
        <ele>109.4</ele>
        <time>2022-07-14T06:22:45Z</time>
      </trkpt>
      <trkpt lat="44.78727" lon="0.43816">
        <ele>109.8</ele>
        <time>2022-07-14T06:22:47Z</time>
      </trkpt>
      <trkpt lat="44.7872" lon="0.43814">
        <ele>109.8</ele>
        <time>2022-07-14T06:22:49Z</time>
      </trkpt>
      <trkpt lat="44.78715" lon="0.43815">
        <ele>110.4</ele>
        <time>2022-07-14T06:22:50Z</time>
      </trkpt>
      <trkpt lat="44.78711" lon="0.43816">
        <ele>110.4</ele>
        <time>2022-07-14T06:22:51Z</time>
      </trkpt>
      <trkpt lat="44.78703" lon="0.43817">
        <ele>111</ele>
        <time>2022-07-14T06:22:53Z</time>
      </trkpt>
      <trkpt lat="44.78699" lon="0.43817">
        <ele>111</ele>
        <time>2022-07-14T06:22:54Z</time>
      </trkpt>
      <trkpt lat="44.78694" lon="0.43816">
        <ele>111.6</ele>
        <time>2022-07-14T06:22:55Z</time>
      </trkpt>
      <trkpt lat="44.78687" lon="0.43812">
        <ele>111.6</ele>
        <time>2022-07-14T06:22:57Z</time>
      </trkpt>
      <trkpt lat="44.7868" lon="0.43808">
        <ele>112.1</ele>
        <time>2022-07-14T06:22:59Z</time>
      </trkpt>
      <trkpt lat="44.78674" lon="0.43804">
        <ele>112.8</ele>
        <time>2022-07-14T06:23:01Z</time>
      </trkpt>
      <trkpt lat="44.7867" lon="0.43802">
        <ele>113.1</ele>
        <time>2022-07-14T06:23:02Z</time>
      </trkpt>
      <trkpt lat="44.78667" lon="0.438">
        <ele>113.1</ele>
        <time>2022-07-14T06:23:03Z</time>
      </trkpt>
      <trkpt lat="44.78659" lon="0.43793">
        <ele>113.2</ele>
        <time>2022-07-14T06:23:05Z</time>
      </trkpt>
      <trkpt lat="44.78651" lon="0.4379">
        <ele>113.6</ele>
        <time>2022-07-14T06:23:07Z</time>
      </trkpt>
      <trkpt lat="44.78644" lon="0.43787">
        <ele>113.5</ele>
        <time>2022-07-14T06:23:09Z</time>
      </trkpt>
      <trkpt lat="44.78636" lon="0.43781">
        <ele>113.5</ele>
        <time>2022-07-14T06:23:11Z</time>
      </trkpt>
      <trkpt lat="44.78627" lon="0.43779">
        <ele>113.3</ele>
        <time>2022-07-14T06:23:12Z</time>
      </trkpt>
      <trkpt lat="44.78627" lon="0.43776">
        <ele>113.3</ele>
        <time>2022-07-14T06:23:13Z</time>
      </trkpt>
      <trkpt lat="44.78628" lon="0.43768">
        <ele>113.6</ele>
        <time>2022-07-14T06:23:15Z</time>
      </trkpt>
      <trkpt lat="44.78628" lon="0.43758">
        <ele>113.6</ele>
        <time>2022-07-14T06:23:17Z</time>
      </trkpt>
      <trkpt lat="44.78629" lon="0.43746">
        <ele>113.7</ele>
        <time>2022-07-14T06:23:19Z</time>
      </trkpt>
      <trkpt lat="44.7863" lon="0.43733">
        <ele>113.7</ele>
        <time>2022-07-14T06:23:21Z</time>
      </trkpt>
      <trkpt lat="44.7863" lon="0.43731">
        <ele>113.7</ele>
        <time>2022-07-14T06:23:23Z</time>
      </trkpt>
      <trkpt lat="44.78629" lon="0.43713">
        <ele>113.6</ele>
        <time>2022-07-14T06:23:25Z</time>
      </trkpt>
      <trkpt lat="44.78675" lon="0.43692">
        <ele>114.1</ele>
        <time>2022-07-14T06:23:27Z</time>
      </trkpt>
      <trkpt lat="44.7868" lon="0.43693">
        <ele>114.1</ele>
        <time>2022-07-14T06:23:29Z</time>
      </trkpt>
      <trkpt lat="44.78683" lon="0.43694">
        <ele>114</ele>
        <time>2022-07-14T06:23:30Z</time>
      </trkpt>
      <trkpt lat="44.78685" lon="0.43695">
        <ele>114</ele>
        <time>2022-07-14T06:23:31Z</time>
      </trkpt>
      <trkpt lat="44.78692" lon="0.437">
        <ele>114</ele>
        <time>2022-07-14T06:23:33Z</time>
      </trkpt>
      <trkpt lat="44.78695" lon="0.43704">
        <ele>113.8</ele>
        <time>2022-07-14T06:23:34Z</time>
      </trkpt>
      <trkpt lat="44.78698" lon="0.4371">
        <ele>113.8</ele>
        <time>2022-07-14T06:23:35Z</time>
      </trkpt>
      <trkpt lat="44.78702" lon="0.43718">
        <ele>113.8</ele>
        <time>2022-07-14T06:23:37Z</time>
      </trkpt>
      <trkpt lat="44.78704" lon="0.43722">
        <ele>113.7</ele>
        <time>2022-07-14T06:23:38Z</time>
      </trkpt>
      <trkpt lat="44.78706" lon="0.43724">
        <ele>113.6</ele>
        <time>2022-07-14T06:23:39Z</time>
      </trkpt>
      <trkpt lat="44.78708" lon="0.43725">
        <ele>113.4</ele>
        <time>2022-07-14T06:23:40Z</time>
      </trkpt>
      <trkpt lat="44.78711" lon="0.43727">
        <ele>113.4</ele>
        <time>2022-07-14T06:23:41Z</time>
      </trkpt>
      <trkpt lat="44.78717" lon="0.43723">
        <ele>113.4</ele>
        <time>2022-07-14T06:23:43Z</time>
      </trkpt>
      <trkpt lat="44.78719" lon="0.43719">
        <ele>113.6</ele>
        <time>2022-07-14T06:23:44Z</time>
      </trkpt>
      <trkpt lat="44.7872" lon="0.43717">
        <ele>113.4</ele>
        <time>2022-07-14T06:23:45Z</time>
      </trkpt>
      <trkpt lat="44.7872" lon="0.43714">
        <ele>113.4</ele>
        <time>2022-07-14T06:23:46Z</time>
      </trkpt>
      <trkpt lat="44.7872" lon="0.43711">
        <ele>113.5</ele>
        <time>2022-07-14T06:23:47Z</time>
      </trkpt>
      <trkpt lat="44.78721" lon="0.43708">
        <ele>113.4</ele>
        <time>2022-07-14T06:23:48Z</time>
      </trkpt>
      <trkpt lat="44.78722" lon="0.43705">
        <ele>113.4</ele>
        <time>2022-07-14T06:23:49Z</time>
      </trkpt>
      <trkpt lat="44.78722" lon="0.43694">
        <ele>113.5</ele>
        <time>2022-07-14T06:23:51Z</time>
      </trkpt>
      <trkpt lat="44.78721" lon="0.4369">
        <ele>113.5</ele>
        <time>2022-07-14T06:23:52Z</time>
      </trkpt>
      <trkpt lat="44.78719" lon="0.43685">
        <ele>113.6</ele>
        <time>2022-07-14T06:23:53Z</time>
      </trkpt>
      <trkpt lat="44.78716" lon="0.43678">
        <ele>113.6</ele>
        <time>2022-07-14T06:23:55Z</time>
      </trkpt>
      <trkpt lat="44.78714" lon="0.43674">
        <ele>113.6</ele>
        <time>2022-07-14T06:23:56Z</time>
      </trkpt>
      <trkpt lat="44.78713" lon="0.43669">
        <ele>113.3</ele>
        <time>2022-07-14T06:23:57Z</time>
      </trkpt>
      <trkpt lat="44.78711" lon="0.4366">
        <ele>113.3</ele>
        <time>2022-07-14T06:23:59Z</time>
      </trkpt>
      <trkpt lat="44.78711" lon="0.43657">
        <ele>113.3</ele>
        <time>2022-07-14T06:24:00Z</time>
      </trkpt>
      <trkpt lat="44.7871" lon="0.43652">
        <ele>113</ele>
        <time>2022-07-14T06:24:01Z</time>
      </trkpt>
      <trkpt lat="44.7871" lon="0.43647">
        <ele>113</ele>
        <time>2022-07-14T06:24:03Z</time>
      </trkpt>
      <trkpt lat="44.78711" lon="0.43644">
        <ele>113</ele>
        <time>2022-07-14T06:24:04Z</time>
      </trkpt>
      <trkpt lat="44.78713" lon="0.43641">
        <ele>113</ele>
        <time>2022-07-14T06:24:05Z</time>
      </trkpt>
      <trkpt lat="44.78715" lon="0.43642">
        <ele>113</ele>
        <time>2022-07-14T06:24:07Z</time>
      </trkpt>
      <trkpt lat="44.78715" lon="0.43643">
        <ele>113</ele>
        <time>2022-07-14T06:24:08Z</time>
      </trkpt>
      <trkpt lat="44.78715" lon="0.43644">
        <ele>113</ele>
        <time>2022-07-14T06:24:09Z</time>
      </trkpt>
      <trkpt lat="44.78717" lon="0.43648">
        <ele>113</ele>
        <time>2022-07-14T06:24:11Z</time>
      </trkpt>
      <trkpt lat="44.78719" lon="0.43649">
        <ele>113</ele>
        <time>2022-07-14T06:24:12Z</time>
      </trkpt>
      <trkpt lat="44.78721" lon="0.43647">
        <ele>113</ele>
        <time>2022-07-14T06:24:13Z</time>
      </trkpt>
      <trkpt lat="44.78724" lon="0.43642">
        <ele>113</ele>
        <time>2022-07-14T06:24:15Z</time>
      </trkpt>
      <trkpt lat="44.78729" lon="0.4364">
        <ele>113</ele>
        <time>2022-07-14T06:24:17Z</time>
      </trkpt>
      <trkpt lat="44.78732" lon="0.43642">
        <ele>113</ele>
        <time>2022-07-14T06:24:18Z</time>
      </trkpt>
      <trkpt lat="44.78734" lon="0.43644">
        <ele>113</ele>
        <time>2022-07-14T06:24:19Z</time>
      </trkpt>
      <trkpt lat="44.7874" lon="0.43646">
        <ele>113</ele>
        <time>2022-07-14T06:24:21Z</time>
      </trkpt>
      <trkpt lat="44.78744" lon="0.43644">
        <ele>113</ele>
        <time>2022-07-14T06:24:23Z</time>
      </trkpt>
      <trkpt lat="44.78745" lon="0.4364">
        <ele>113</ele>
        <time>2022-07-14T06:24:24Z</time>
      </trkpt>
      <trkpt lat="44.78746" lon="0.43636">
        <ele>112.7</ele>
        <time>2022-07-14T06:24:25Z</time>
      </trkpt>
      <trkpt lat="44.78747" lon="0.43632">
        <ele>112.7</ele>
        <time>2022-07-14T06:24:26Z</time>
      </trkpt>
      <trkpt lat="44.78748" lon="0.4363">
        <ele>112.7</ele>
        <time>2022-07-14T06:24:27Z</time>
      </trkpt>
      <trkpt lat="44.78754" lon="0.43627">
        <ele>112.7</ele>
        <time>2022-07-14T06:24:29Z</time>
      </trkpt>
      <trkpt lat="44.78757" lon="0.43627">
        <ele>112.6</ele>
        <time>2022-07-14T06:24:30Z</time>
      </trkpt>
      <trkpt lat="44.78758" lon="0.43629">
        <ele>112.6</ele>
        <time>2022-07-14T06:24:31Z</time>
      </trkpt>
      <trkpt lat="44.78763" lon="0.43633">
        <ele>112.6</ele>
        <time>2022-07-14T06:24:33Z</time>
      </trkpt>
      <trkpt lat="44.78767" lon="0.43634">
        <ele>112.6</ele>
        <time>2022-07-14T06:24:35Z</time>
      </trkpt>
      <trkpt lat="44.78768" lon="0.43629">
        <ele>112.6</ele>
        <time>2022-07-14T06:24:37Z</time>
      </trkpt>
      <trkpt lat="44.78765" lon="0.43627">
        <ele>112.6</ele>
        <time>2022-07-14T06:24:39Z</time>
      </trkpt>
      <trkpt lat="44.78764" lon="0.43623">
        <ele>112.6</ele>
        <time>2022-07-14T06:24:41Z</time>
      </trkpt>
      <trkpt lat="44.78764" lon="0.43618">
        <ele>112.4</ele>
        <time>2022-07-14T06:24:43Z</time>
      </trkpt>
      <trkpt lat="44.78765" lon="0.43611">
        <ele>112.3</ele>
        <time>2022-07-14T06:24:45Z</time>
      </trkpt>
      <trkpt lat="44.78765" lon="0.43608">
        <ele>112.3</ele>
        <time>2022-07-14T06:24:46Z</time>
      </trkpt>
      <trkpt lat="44.78766" lon="0.43603">
        <ele>112.3</ele>
        <time>2022-07-14T06:24:47Z</time>
      </trkpt>
      <trkpt lat="44.78768" lon="0.43599">
        <ele>112.1</ele>
        <time>2022-07-14T06:24:49Z</time>
      </trkpt>
      <trkpt lat="44.78771" lon="0.43593">
        <ele>112.1</ele>
        <time>2022-07-14T06:24:51Z</time>
      </trkpt>
      <trkpt lat="44.78775" lon="0.43588">
        <ele>112.1</ele>
        <time>2022-07-14T06:24:53Z</time>
      </trkpt>
      <trkpt lat="44.78776" lon="0.43585">
        <ele>111.9</ele>
        <time>2022-07-14T06:24:54Z</time>
      </trkpt>
      <trkpt lat="44.78778" lon="0.43582">
        <ele>111.9</ele>
        <time>2022-07-14T06:24:55Z</time>
      </trkpt>
      <trkpt lat="44.78781" lon="0.43576">
        <ele>111.9</ele>
        <time>2022-07-14T06:24:57Z</time>
      </trkpt>
      <trkpt lat="44.78783" lon="0.4357">
        <ele>111.9</ele>
        <time>2022-07-14T06:24:59Z</time>
      </trkpt>
      <trkpt lat="44.78784" lon="0.43563">
        <ele>112</ele>
        <time>2022-07-14T06:25:01Z</time>
      </trkpt>
      <trkpt lat="44.78783" lon="0.43557">
        <ele>112</ele>
        <time>2022-07-14T06:25:03Z</time>
      </trkpt>
      <trkpt lat="44.78783" lon="0.4355">
        <ele>112.2</ele>
        <time>2022-07-14T06:25:05Z</time>
      </trkpt>
      <trkpt lat="44.78783" lon="0.43546">
        <ele>112.2</ele>
        <time>2022-07-14T06:25:06Z</time>
      </trkpt>
      <trkpt lat="44.78784" lon="0.43542">
        <ele>112.2</ele>
        <time>2022-07-14T06:25:07Z</time>
      </trkpt>
      <trkpt lat="44.78785" lon="0.43538">
        <ele>112.2</ele>
        <time>2022-07-14T06:25:08Z</time>
      </trkpt>
      <trkpt lat="44.78785" lon="0.43535">
        <ele>112.2</ele>
        <time>2022-07-14T06:25:09Z</time>
      </trkpt>
      <trkpt lat="44.78786" lon="0.43529">
        <ele>112.5</ele>
        <time>2022-07-14T06:25:11Z</time>
      </trkpt>
      <trkpt lat="44.78787" lon="0.43523">
        <ele>112.5</ele>
        <time>2022-07-14T06:25:13Z</time>
      </trkpt>
      <trkpt lat="44.78787" lon="0.43519">
        <ele>112.5</ele>
        <time>2022-07-14T06:25:14Z</time>
      </trkpt>
      <trkpt lat="44.78786" lon="0.43515">
        <ele>112.9</ele>
        <time>2022-07-14T06:25:15Z</time>
      </trkpt>
      <trkpt lat="44.78784" lon="0.43514">
        <ele>112.9</ele>
        <time>2022-07-14T06:25:16Z</time>
      </trkpt>
      <trkpt lat="44.78782" lon="0.43512">
        <ele>112.9</ele>
        <time>2022-07-14T06:25:17Z</time>
      </trkpt>
      <trkpt lat="44.7878" lon="0.4351">
        <ele>112.5</ele>
        <time>2022-07-14T06:25:18Z</time>
      </trkpt>
      <trkpt lat="44.78779" lon="0.43508">
        <ele>112.5</ele>
        <time>2022-07-14T06:25:19Z</time>
      </trkpt>
      <trkpt lat="44.78774" lon="0.43504">
        <ele>112.5</ele>
        <time>2022-07-14T06:25:21Z</time>
      </trkpt>
      <trkpt lat="44.7877" lon="0.43497">
        <ele>112.8</ele>
        <time>2022-07-14T06:25:23Z</time>
      </trkpt>
      <trkpt lat="44.78761" lon="0.4349">
        <ele>112.2</ele>
        <time>2022-07-14T06:25:25Z</time>
      </trkpt>
      <trkpt lat="44.78752" lon="0.43485">
        <ele>111.5</ele>
        <time>2022-07-14T06:25:27Z</time>
      </trkpt>
      <trkpt lat="44.78748" lon="0.4348">
        <ele>111.6</ele>
        <time>2022-07-14T06:25:28Z</time>
      </trkpt>
      <trkpt lat="44.78745" lon="0.43475">
        <ele>111.6</ele>
        <time>2022-07-14T06:25:29Z</time>
      </trkpt>
      <trkpt lat="44.78741" lon="0.43468">
        <ele>110.8</ele>
        <time>2022-07-14T06:25:30Z</time>
      </trkpt>
      <trkpt lat="44.78739" lon="0.43462">
        <ele>110.9</ele>
        <time>2022-07-14T06:25:31Z</time>
      </trkpt>
      <trkpt lat="44.78738" lon="0.43449">
        <ele>110.8</ele>
        <time>2022-07-14T06:25:33Z</time>
      </trkpt>
      <trkpt lat="44.78737" lon="0.43443">
        <ele>111.1</ele>
        <time>2022-07-14T06:25:35Z</time>
      </trkpt>
      <trkpt lat="44.78737" lon="0.4344">
        <ele>111.1</ele>
        <time>2022-07-14T06:25:36Z</time>
      </trkpt>
      <trkpt lat="44.78737" lon="0.43436">
        <ele>111.1</ele>
        <time>2022-07-14T06:25:37Z</time>
      </trkpt>
      <trkpt lat="44.78735" lon="0.4343">
        <ele>111.5</ele>
        <time>2022-07-14T06:25:39Z</time>
      </trkpt>
      <trkpt lat="44.78735" lon="0.43423">
        <ele>111.5</ele>
        <time>2022-07-14T06:25:41Z</time>
      </trkpt>
      <trkpt lat="44.78735" lon="0.43416">
        <ele>111.5</ele>
        <time>2022-07-14T06:25:43Z</time>
      </trkpt>
      <trkpt lat="44.78733" lon="0.43409">
        <ele>111.9</ele>
        <time>2022-07-14T06:25:45Z</time>
      </trkpt>
      <trkpt lat="44.78733" lon="0.43406">
        <ele>111.9</ele>
        <time>2022-07-14T06:25:46Z</time>
      </trkpt>
      <trkpt lat="44.78732" lon="0.43402">
        <ele>111.9</ele>
        <time>2022-07-14T06:25:47Z</time>
      </trkpt>
      <trkpt lat="44.78732" lon="0.434">
        <ele>111.9</ele>
        <time>2022-07-14T06:25:48Z</time>
      </trkpt>
      <trkpt lat="44.78732" lon="0.43397">
        <ele>111</ele>
        <time>2022-07-14T06:25:49Z</time>
      </trkpt>
      <trkpt lat="44.78731" lon="0.43391">
        <ele>111.3</ele>
        <time>2022-07-14T06:25:51Z</time>
      </trkpt>
      <trkpt lat="44.78731" lon="0.43384">
        <ele>111.3</ele>
        <time>2022-07-14T06:25:53Z</time>
      </trkpt>
      <trkpt lat="44.78732" lon="0.43383">
        <ele>111.3</ele>
        <time>2022-07-14T06:25:55Z</time>
      </trkpt>
      <trkpt lat="44.78733" lon="0.4338">
        <ele>112.1</ele>
        <time>2022-07-14T06:25:57Z</time>
      </trkpt>
      <trkpt lat="44.78734" lon="0.43378">
        <ele>112.4</ele>
        <time>2022-07-14T06:25:59Z</time>
      </trkpt>
      <trkpt lat="44.78735" lon="0.43375">
        <ele>112.4</ele>
        <time>2022-07-14T06:26:01Z</time>
      </trkpt>
      <trkpt lat="44.78736" lon="0.43372">
        <ele>112.4</ele>
        <time>2022-07-14T06:26:03Z</time>
      </trkpt>
      <trkpt lat="44.78737" lon="0.4337">
        <ele>112.4</ele>
        <time>2022-07-14T06:26:04Z</time>
      </trkpt>
      <trkpt lat="44.78737" lon="0.43368">
        <ele>112.4</ele>
        <time>2022-07-14T06:26:05Z</time>
      </trkpt>
      <trkpt lat="44.78739" lon="0.43366">
        <ele>112.4</ele>
        <time>2022-07-14T06:26:06Z</time>
      </trkpt>
      <trkpt lat="44.78739" lon="0.43366">
        <ele>112.4</ele>
        <time>2022-07-14T06:26:07Z</time>
      </trkpt>
      <trkpt lat="44.78741" lon="0.43362">
        <ele>112.4</ele>
        <time>2022-07-14T06:26:09Z</time>
      </trkpt>
      <trkpt lat="44.78744" lon="0.43359">
        <ele>112.9</ele>
        <time>2022-07-14T06:26:11Z</time>
      </trkpt>
      <trkpt lat="44.78745" lon="0.43357">
        <ele>113.9</ele>
        <time>2022-07-14T06:26:12Z</time>
      </trkpt>
      <trkpt lat="44.78746" lon="0.43356">
        <ele>113.9</ele>
        <time>2022-07-14T06:26:13Z</time>
      </trkpt>
      <trkpt lat="44.78747" lon="0.43355">
        <ele>113.9</ele>
        <time>2022-07-14T06:26:14Z</time>
      </trkpt>
      <trkpt lat="44.78749" lon="0.43354">
        <ele>113.9</ele>
        <time>2022-07-14T06:26:15Z</time>
      </trkpt>
      <trkpt lat="44.7875" lon="0.43352">
        <ele>113.9</ele>
        <time>2022-07-14T06:26:16Z</time>
      </trkpt>
      <trkpt lat="44.78751" lon="0.4335">
        <ele>113.9</ele>
        <time>2022-07-14T06:26:17Z</time>
      </trkpt>
      <trkpt lat="44.78753" lon="0.43346">
        <ele>113.9</ele>
        <time>2022-07-14T06:26:19Z</time>
      </trkpt>
      <trkpt lat="44.78754" lon="0.43343">
        <ele>114.4</ele>
        <time>2022-07-14T06:26:21Z</time>
      </trkpt>
      <trkpt lat="44.78755" lon="0.4334">
        <ele>114.4</ele>
        <time>2022-07-14T06:26:22Z</time>
      </trkpt>
      <trkpt lat="44.78756" lon="0.43339">
        <ele>114.4</ele>
        <time>2022-07-14T06:26:23Z</time>
      </trkpt>
      <trkpt lat="44.78757" lon="0.43337">
        <ele>115.5</ele>
        <time>2022-07-14T06:26:24Z</time>
      </trkpt>
      <trkpt lat="44.78758" lon="0.43336">
        <ele>115.5</ele>
        <time>2022-07-14T06:26:25Z</time>
      </trkpt>
      <trkpt lat="44.7876" lon="0.43335">
        <ele>115.5</ele>
        <time>2022-07-14T06:26:27Z</time>
      </trkpt>
      <trkpt lat="44.78761" lon="0.43332">
        <ele>115.5</ele>
        <time>2022-07-14T06:26:29Z</time>
      </trkpt>
      <trkpt lat="44.78761" lon="0.43332">
        <ele>115.5</ele>
        <time>2022-07-14T06:26:31Z</time>
      </trkpt>
      <trkpt lat="44.78759" lon="0.43332">
        <ele>115.5</ele>
        <time>2022-07-14T06:26:33Z</time>
      </trkpt>
      <trkpt lat="44.78756" lon="0.43329">
        <ele>114.3</ele>
        <time>2022-07-14T06:26:35Z</time>
      </trkpt>
      <trkpt lat="44.78753" lon="0.43327">
        <ele>114.8</ele>
        <time>2022-07-14T06:26:37Z</time>
      </trkpt>
      <trkpt lat="44.7875" lon="0.43324">
        <ele>114.8</ele>
        <time>2022-07-14T06:26:39Z</time>
      </trkpt>
      <trkpt lat="44.78747" lon="0.43321">
        <ele>114.8</ele>
        <time>2022-07-14T06:26:41Z</time>
      </trkpt>
      <trkpt lat="44.78745" lon="0.43319">
        <ele>114.8</ele>
        <time>2022-07-14T06:26:43Z</time>
      </trkpt>
      <trkpt lat="44.78743" lon="0.43316">
        <ele>113.8</ele>
        <time>2022-07-14T06:26:44Z</time>
      </trkpt>
      <trkpt lat="44.78742" lon="0.43314">
        <ele>113.8</ele>
        <time>2022-07-14T06:26:45Z</time>
      </trkpt>
      <trkpt lat="44.78739" lon="0.43312">
        <ele>113.8</ele>
        <time>2022-07-14T06:26:47Z</time>
      </trkpt>
      <trkpt lat="44.78739" lon="0.43311">
        <ele>113.8</ele>
        <time>2022-07-14T06:26:48Z</time>
      </trkpt>
      <trkpt lat="44.78738" lon="0.43308">
        <ele>114</ele>
        <time>2022-07-14T06:26:49Z</time>
      </trkpt>
      <trkpt lat="44.78736" lon="0.43307">
        <ele>114</ele>
        <time>2022-07-14T06:26:51Z</time>
      </trkpt>
      <trkpt lat="44.78734" lon="0.43307">
        <ele>114</ele>
        <time>2022-07-14T06:26:52Z</time>
      </trkpt>
      <trkpt lat="44.78726" lon="0.43313">
        <ele>113</ele>
        <time>2022-07-14T06:26:58Z</time>
      </trkpt>
      <trkpt lat="44.78725" lon="0.43314">
        <ele>113</ele>
        <time>2022-07-14T06:26:59Z</time>
      </trkpt>
      <trkpt lat="44.78723" lon="0.43315">
        <ele>113</ele>
        <time>2022-07-14T06:27:01Z</time>
      </trkpt>
      <trkpt lat="44.78721" lon="0.43316">
        <ele>113</ele>
        <time>2022-07-14T06:27:03Z</time>
      </trkpt>
      <trkpt lat="44.78719" lon="0.43317">
        <ele>112.1</ele>
        <time>2022-07-14T06:27:04Z</time>
      </trkpt>
      <trkpt lat="44.78716" lon="0.43316">
        <ele>112.1</ele>
        <time>2022-07-14T06:27:05Z</time>
      </trkpt>
      <trkpt lat="44.78713" lon="0.43315">
        <ele>112.1</ele>
        <time>2022-07-14T06:27:07Z</time>
      </trkpt>
      <trkpt lat="44.78708" lon="0.43313">
        <ele>112.1</ele>
        <time>2022-07-14T06:27:09Z</time>
      </trkpt>
      <trkpt lat="44.78705" lon="0.43313">
        <ele>111.6</ele>
        <time>2022-07-14T06:27:10Z</time>
      </trkpt>
      <trkpt lat="44.78703" lon="0.4331">
        <ele>111.6</ele>
        <time>2022-07-14T06:27:11Z</time>
      </trkpt>
      <trkpt lat="44.787" lon="0.43308">
        <ele>111.8</ele>
        <time>2022-07-14T06:27:13Z</time>
      </trkpt>
      <trkpt lat="44.78696" lon="0.43303">
        <ele>111.8</ele>
        <time>2022-07-14T06:27:15Z</time>
      </trkpt>
      <trkpt lat="44.78691" lon="0.43298">
        <ele>111.4</ele>
        <time>2022-07-14T06:27:17Z</time>
      </trkpt>
      <trkpt lat="44.78686" lon="0.43295">
        <ele>111.4</ele>
        <time>2022-07-14T06:27:19Z</time>
      </trkpt>
      <trkpt lat="44.78682" lon="0.43291">
        <ele>111.3</ele>
        <time>2022-07-14T06:27:20Z</time>
      </trkpt>
      <trkpt lat="44.78677" lon="0.43287">
        <ele>111.3</ele>
        <time>2022-07-14T06:27:21Z</time>
      </trkpt>
      <trkpt lat="44.7867" lon="0.4328">
        <ele>110.8</ele>
        <time>2022-07-14T06:27:23Z</time>
      </trkpt>
      <trkpt lat="44.78667" lon="0.43277">
        <ele>110.8</ele>
        <time>2022-07-14T06:27:24Z</time>
      </trkpt>
      <trkpt lat="44.78663" lon="0.43275">
        <ele>111.3</ele>
        <time>2022-07-14T06:27:25Z</time>
      </trkpt>
      <trkpt lat="44.78657" lon="0.43271">
        <ele>110.9</ele>
        <time>2022-07-14T06:27:27Z</time>
      </trkpt>
      <trkpt lat="44.78655" lon="0.43269">
        <ele>110.9</ele>
        <time>2022-07-14T06:27:28Z</time>
      </trkpt>
      <trkpt lat="44.78652" lon="0.43268">
        <ele>110.9</ele>
        <time>2022-07-14T06:27:29Z</time>
      </trkpt>
      <trkpt lat="44.7865" lon="0.43267">
        <ele>110.9</ele>
        <time>2022-07-14T06:27:31Z</time>
      </trkpt>
      <trkpt lat="44.78646" lon="0.43265">
        <ele>110.4</ele>
        <time>2022-07-14T06:27:33Z</time>
      </trkpt>
      <trkpt lat="44.78643" lon="0.43265">
        <ele>110.4</ele>
        <time>2022-07-14T06:27:35Z</time>
      </trkpt>
      <trkpt lat="44.7864" lon="0.43269">
        <ele>110.4</ele>
        <time>2022-07-14T06:27:37Z</time>
      </trkpt>
      <trkpt lat="44.78633" lon="0.43269">
        <ele>109.9</ele>
        <time>2022-07-14T06:27:39Z</time>
      </trkpt>
      <trkpt lat="44.78631" lon="0.43267">
        <ele>109.9</ele>
        <time>2022-07-14T06:27:41Z</time>
      </trkpt>
      <trkpt lat="44.78631" lon="0.43264">
        <ele>109.9</ele>
        <time>2022-07-14T06:27:42Z</time>
      </trkpt>
      <trkpt lat="44.78631" lon="0.43262">
        <ele>109.9</ele>
        <time>2022-07-14T06:27:43Z</time>
      </trkpt>
      <trkpt lat="44.78629" lon="0.43256">
        <ele>110.6</ele>
        <time>2022-07-14T06:27:45Z</time>
      </trkpt>
      <trkpt lat="44.78627" lon="0.43254">
        <ele>110.6</ele>
        <time>2022-07-14T06:27:46Z</time>
      </trkpt>
      <trkpt lat="44.78626" lon="0.43252">
        <ele>110.6</ele>
        <time>2022-07-14T06:27:47Z</time>
      </trkpt>
      <trkpt lat="44.78622" lon="0.43248">
        <ele>110.6</ele>
        <time>2022-07-14T06:27:49Z</time>
      </trkpt>
      <trkpt lat="44.78621" lon="0.43247">
        <ele>110.2</ele>
        <time>2022-07-14T06:27:50Z</time>
      </trkpt>
      <trkpt lat="44.7862" lon="0.43245">
        <ele>110.2</ele>
        <time>2022-07-14T06:27:51Z</time>
      </trkpt>
      <trkpt lat="44.78616" lon="0.43242">
        <ele>110.2</ele>
        <time>2022-07-14T06:27:53Z</time>
      </trkpt>
      <trkpt lat="44.78614" lon="0.4324">
        <ele>110.9</ele>
        <time>2022-07-14T06:27:54Z</time>
      </trkpt>
      <trkpt lat="44.78613" lon="0.43237">
        <ele>110.9</ele>
        <time>2022-07-14T06:27:55Z</time>
      </trkpt>
      <trkpt lat="44.7861" lon="0.43231">
        <ele>110.9</ele>
        <time>2022-07-14T06:27:57Z</time>
      </trkpt>
      <trkpt lat="44.78608" lon="0.43225">
        <ele>110.5</ele>
        <time>2022-07-14T06:27:59Z</time>
      </trkpt>
      <trkpt lat="44.78605" lon="0.43221">
        <ele>111.3</ele>
        <time>2022-07-14T06:28:01Z</time>
      </trkpt>
      <trkpt lat="44.78603" lon="0.43216">
        <ele>111.3</ele>
        <time>2022-07-14T06:28:03Z</time>
      </trkpt>
      <trkpt lat="44.78601" lon="0.43211">
        <ele>111.3</ele>
        <time>2022-07-14T06:28:05Z</time>
      </trkpt>
      <trkpt lat="44.78601" lon="0.43204">
        <ele>111.9</ele>
        <time>2022-07-14T06:28:07Z</time>
      </trkpt>
      <trkpt lat="44.786" lon="0.43198">
        <ele>111.9</ele>
        <time>2022-07-14T06:28:09Z</time>
      </trkpt>
      <trkpt lat="44.78599" lon="0.43194">
        <ele>111.9</ele>
        <time>2022-07-14T06:28:10Z</time>
      </trkpt>
      <trkpt lat="44.78598" lon="0.4319">
        <ele>111.5</ele>
        <time>2022-07-14T06:28:11Z</time>
      </trkpt>
      <trkpt lat="44.78595" lon="0.43186">
        <ele>112.2</ele>
        <time>2022-07-14T06:28:13Z</time>
      </trkpt>
      <trkpt lat="44.78593" lon="0.43181">
        <ele>112.2</ele>
        <time>2022-07-14T06:28:15Z</time>
      </trkpt>
      <trkpt lat="44.78591" lon="0.43174">
        <ele>112.2</ele>
        <time>2022-07-14T06:28:17Z</time>
      </trkpt>
      <trkpt lat="44.78592" lon="0.43171">
        <ele>112.6</ele>
        <time>2022-07-14T06:28:18Z</time>
      </trkpt>
      <trkpt lat="44.78592" lon="0.43169">
        <ele>112.6</ele>
        <time>2022-07-14T06:28:19Z</time>
      </trkpt>
      <trkpt lat="44.78591" lon="0.43166">
        <ele>112.6</ele>
        <time>2022-07-14T06:28:20Z</time>
      </trkpt>
      <trkpt lat="44.78592" lon="0.43162">
        <ele>112.6</ele>
        <time>2022-07-14T06:28:21Z</time>
      </trkpt>
      <trkpt lat="44.7859" lon="0.43156">
        <ele>112.6</ele>
        <time>2022-07-14T06:28:23Z</time>
      </trkpt>
      <trkpt lat="44.78589" lon="0.43154">
        <ele>113</ele>
        <time>2022-07-14T06:28:24Z</time>
      </trkpt>
      <trkpt lat="44.78587" lon="0.43151">
        <ele>113</ele>
        <time>2022-07-14T06:28:25Z</time>
      </trkpt>
      <trkpt lat="44.78583" lon="0.43143">
        <ele>112.6</ele>
        <time>2022-07-14T06:28:27Z</time>
      </trkpt>
      <trkpt lat="44.78582" lon="0.43139">
        <ele>112.6</ele>
        <time>2022-07-14T06:28:28Z</time>
      </trkpt>
      <trkpt lat="44.78583" lon="0.43134">
        <ele>113</ele>
        <time>2022-07-14T06:28:29Z</time>
      </trkpt>
      <trkpt lat="44.78582" lon="0.43126">
        <ele>113</ele>
        <time>2022-07-14T06:28:31Z</time>
      </trkpt>
      <trkpt lat="44.78579" lon="0.43122">
        <ele>113</ele>
        <time>2022-07-14T06:28:32Z</time>
      </trkpt>
      <trkpt lat="44.78576" lon="0.43117">
        <ele>113.3</ele>
        <time>2022-07-14T06:28:33Z</time>
      </trkpt>
      <trkpt lat="44.78575" lon="0.43111">
        <ele>113.3</ele>
        <time>2022-07-14T06:28:34Z</time>
      </trkpt>
      <trkpt lat="44.78571" lon="0.43104">
        <ele>112.7</ele>
        <time>2022-07-14T06:28:35Z</time>
      </trkpt>
      <trkpt lat="44.78565" lon="0.43091">
        <ele>112.9</ele>
        <time>2022-07-14T06:28:37Z</time>
      </trkpt>
      <trkpt lat="44.78557" lon="0.43085">
        <ele>111.8</ele>
        <time>2022-07-14T06:28:39Z</time>
      </trkpt>
      <trkpt lat="44.78554" lon="0.43082">
        <ele>111.8</ele>
        <time>2022-07-14T06:28:40Z</time>
      </trkpt>
      <trkpt lat="44.78551" lon="0.4308">
        <ele>111.8</ele>
        <time>2022-07-14T06:28:41Z</time>
      </trkpt>
      <trkpt lat="44.7855" lon="0.43074">
        <ele>111.8</ele>
        <time>2022-07-14T06:28:43Z</time>
      </trkpt>
      <trkpt lat="44.7855" lon="0.4307">
        <ele>111.8</ele>
        <time>2022-07-14T06:28:44Z</time>
      </trkpt>
      <trkpt lat="44.7855" lon="0.43067">
        <ele>111.5</ele>
        <time>2022-07-14T06:28:45Z</time>
      </trkpt>
      <trkpt lat="44.78553" lon="0.43061">
        <ele>111.5</ele>
        <time>2022-07-14T06:28:47Z</time>
      </trkpt>
      <trkpt lat="44.78555" lon="0.43055">
        <ele>111.5</ele>
        <time>2022-07-14T06:28:49Z</time>
      </trkpt>
      <trkpt lat="44.78555" lon="0.43052">
        <ele>111.2</ele>
        <time>2022-07-14T06:28:50Z</time>
      </trkpt>
      <trkpt lat="44.78555" lon="0.43049">
        <ele>111.2</ele>
        <time>2022-07-14T06:28:51Z</time>
      </trkpt>
      <trkpt lat="44.78556" lon="0.43044">
        <ele>111.2</ele>
        <time>2022-07-14T06:28:53Z</time>
      </trkpt>
      <trkpt lat="44.78558" lon="0.43039">
        <ele>111.2</ele>
        <time>2022-07-14T06:28:55Z</time>
      </trkpt>
      <trkpt lat="44.78558" lon="0.43034">
        <ele>110.7</ele>
        <time>2022-07-14T06:28:57Z</time>
      </trkpt>
      <trkpt lat="44.78559" lon="0.4303">
        <ele>110.7</ele>
        <time>2022-07-14T06:28:59Z</time>
      </trkpt>
      <trkpt lat="44.7856" lon="0.43025">
        <ele>110.7</ele>
        <time>2022-07-14T06:29:01Z</time>
      </trkpt>
      <trkpt lat="44.7856" lon="0.43021">
        <ele>110.7</ele>
        <time>2022-07-14T06:29:03Z</time>
      </trkpt>
      <trkpt lat="44.78561" lon="0.43016">
        <ele>110.5</ele>
        <time>2022-07-14T06:29:05Z</time>
      </trkpt>
      <trkpt lat="44.78563" lon="0.43012">
        <ele>111.6</ele>
        <time>2022-07-14T06:29:07Z</time>
      </trkpt>
      <trkpt lat="44.78563" lon="0.43009">
        <ele>111.6</ele>
        <time>2022-07-14T06:29:09Z</time>
      </trkpt>
      <trkpt lat="44.78564" lon="0.43005">
        <ele>111.6</ele>
        <time>2022-07-14T06:29:11Z</time>
      </trkpt>
      <trkpt lat="44.78565" lon="0.43">
        <ele>111.5</ele>
        <time>2022-07-14T06:29:13Z</time>
      </trkpt>
      <trkpt lat="44.78566" lon="0.42997">
        <ele>111.5</ele>
        <time>2022-07-14T06:29:14Z</time>
      </trkpt>
      <trkpt lat="44.78567" lon="0.42995">
        <ele>111.5</ele>
        <time>2022-07-14T06:29:15Z</time>
      </trkpt>
      <trkpt lat="44.78569" lon="0.42989">
        <ele>111.5</ele>
        <time>2022-07-14T06:29:17Z</time>
      </trkpt>
      <trkpt lat="44.78571" lon="0.42983">
        <ele>111.7</ele>
        <time>2022-07-14T06:29:19Z</time>
      </trkpt>
      <trkpt lat="44.78574" lon="0.42978">
        <ele>112.3</ele>
        <time>2022-07-14T06:29:21Z</time>
      </trkpt>
      <trkpt lat="44.78577" lon="0.42975">
        <ele>112.3</ele>
        <time>2022-07-14T06:29:22Z</time>
      </trkpt>
      <trkpt lat="44.7858" lon="0.42964">
        <ele>112.7</ele>
        <time>2022-07-14T06:29:23Z</time>
      </trkpt>
      <trkpt lat="44.78584" lon="0.42966">
        <ele>112.7</ele>
        <time>2022-07-14T06:29:25Z</time>
      </trkpt>
      <trkpt lat="44.78587" lon="0.42967">
        <ele>112.7</ele>
        <time>2022-07-14T06:29:26Z</time>
      </trkpt>
      <trkpt lat="44.7859" lon="0.42968">
        <ele>112.7</ele>
        <time>2022-07-14T06:29:27Z</time>
      </trkpt>
      <trkpt lat="44.78596" lon="0.42971">
        <ele>112.5</ele>
        <time>2022-07-14T06:29:29Z</time>
      </trkpt>
      <trkpt lat="44.78604" lon="0.42974">
        <ele>112.1</ele>
        <time>2022-07-14T06:29:31Z</time>
      </trkpt>
      <trkpt lat="44.78611" lon="0.42977">
        <ele>111.7</ele>
        <time>2022-07-14T06:29:33Z</time>
      </trkpt>
      <trkpt lat="44.7862" lon="0.42981">
        <ele>111.4</ele>
        <time>2022-07-14T06:29:35Z</time>
      </trkpt>
      <trkpt lat="44.78624" lon="0.42983">
        <ele>111.2</ele>
        <time>2022-07-14T06:29:36Z</time>
      </trkpt>
      <trkpt lat="44.78628" lon="0.42985">
        <ele>111.1</ele>
        <time>2022-07-14T06:29:37Z</time>
      </trkpt>
      <trkpt lat="44.78635" lon="0.42989">
        <ele>110.9</ele>
        <time>2022-07-14T06:29:39Z</time>
      </trkpt>
      <trkpt lat="44.78641" lon="0.42991">
        <ele>110.9</ele>
        <time>2022-07-14T06:29:41Z</time>
      </trkpt>
      <trkpt lat="44.78644" lon="0.42993">
        <ele>110.9</ele>
        <time>2022-07-14T06:29:42Z</time>
      </trkpt>
      <trkpt lat="44.78647" lon="0.42994">
        <ele>110.9</ele>
        <time>2022-07-14T06:29:43Z</time>
      </trkpt>
      <trkpt lat="44.78654" lon="0.42997">
        <ele>111.1</ele>
        <time>2022-07-14T06:29:45Z</time>
      </trkpt>
      <trkpt lat="44.7866" lon="0.43">
        <ele>111.3</ele>
        <time>2022-07-14T06:29:47Z</time>
      </trkpt>
      <trkpt lat="44.78666" lon="0.43003">
        <ele>111.5</ele>
        <time>2022-07-14T06:29:49Z</time>
      </trkpt>
      <trkpt lat="44.78673" lon="0.43003">
        <ele>111.8</ele>
        <time>2022-07-14T06:29:51Z</time>
      </trkpt>
      <trkpt lat="44.78679" lon="0.43003">
        <ele>112.1</ele>
        <time>2022-07-14T06:29:53Z</time>
      </trkpt>
      <trkpt lat="44.78685" lon="0.43003">
        <ele>112.4</ele>
        <time>2022-07-14T06:29:55Z</time>
      </trkpt>
      <trkpt lat="44.78691" lon="0.43002">
        <ele>112.8</ele>
        <time>2022-07-14T06:29:57Z</time>
      </trkpt>
      <trkpt lat="44.78697" lon="0.43002">
        <ele>113.1</ele>
        <time>2022-07-14T06:29:59Z</time>
      </trkpt>
      <trkpt lat="44.78702" lon="0.43002">
        <ele>113.5</ele>
        <time>2022-07-14T06:30:01Z</time>
      </trkpt>
      <trkpt lat="44.78708" lon="0.43002">
        <ele>113.8</ele>
        <time>2022-07-14T06:30:03Z</time>
      </trkpt>
      <trkpt lat="44.78713" lon="0.43001">
        <ele>114.2</ele>
        <time>2022-07-14T06:30:05Z</time>
      </trkpt>
      <trkpt lat="44.78718" lon="0.43001">
        <ele>114.7</ele>
        <time>2022-07-14T06:30:07Z</time>
      </trkpt>
      <trkpt lat="44.78723" lon="0.43001">
        <ele>115</ele>
        <time>2022-07-14T06:30:09Z</time>
      </trkpt>
      <trkpt lat="44.78728" lon="0.43001">
        <ele>115.5</ele>
        <time>2022-07-14T06:30:11Z</time>
      </trkpt>
      <trkpt lat="44.78734" lon="0.43">
        <ele>115.9</ele>
        <time>2022-07-14T06:30:13Z</time>
      </trkpt>
      <trkpt lat="44.78739" lon="0.43">
        <ele>116.3</ele>
        <time>2022-07-14T06:30:15Z</time>
      </trkpt>
      <trkpt lat="44.78744" lon="0.43">
        <ele>116.6</ele>
        <time>2022-07-14T06:30:17Z</time>
      </trkpt>
      <trkpt lat="44.7875" lon="0.43">
        <ele>117</ele>
        <time>2022-07-14T06:30:19Z</time>
      </trkpt>
      <trkpt lat="44.78755" lon="0.42999">
        <ele>117.3</ele>
        <time>2022-07-14T06:30:21Z</time>
      </trkpt>
      <trkpt lat="44.78758" lon="0.42999">
        <ele>117.4</ele>
        <time>2022-07-14T06:30:22Z</time>
      </trkpt>
      <trkpt lat="44.78761" lon="0.42999">
        <ele>117.5</ele>
        <time>2022-07-14T06:30:23Z</time>
      </trkpt>
      <trkpt lat="44.78766" lon="0.43">
        <ele>117.5</ele>
        <time>2022-07-14T06:30:25Z</time>
      </trkpt>
      <trkpt lat="44.78771" lon="0.43003">
        <ele>117.3</ele>
        <time>2022-07-14T06:30:27Z</time>
      </trkpt>
      <trkpt lat="44.78774" lon="0.43005">
        <ele>117.2</ele>
        <time>2022-07-14T06:30:28Z</time>
      </trkpt>
      <trkpt lat="44.78778" lon="0.43007">
        <ele>116.9</ele>
        <time>2022-07-14T06:30:29Z</time>
      </trkpt>
      <trkpt lat="44.78787" lon="0.43012">
        <ele>116.3</ele>
        <time>2022-07-14T06:30:31Z</time>
      </trkpt>
      <trkpt lat="44.78791" lon="0.43014">
        <ele>116</ele>
        <time>2022-07-14T06:30:32Z</time>
      </trkpt>
      <trkpt lat="44.78796" lon="0.43017">
        <ele>115.8</ele>
        <time>2022-07-14T06:30:33Z</time>
      </trkpt>
      <trkpt lat="44.78805" lon="0.43021">
        <ele>115.6</ele>
        <time>2022-07-14T06:30:35Z</time>
      </trkpt>
      <trkpt lat="44.78812" lon="0.43025">
        <ele>115.5</ele>
        <time>2022-07-14T06:30:37Z</time>
      </trkpt>
      <trkpt lat="44.78819" lon="0.43029">
        <ele>115.6</ele>
        <time>2022-07-14T06:30:39Z</time>
      </trkpt>
      <trkpt lat="44.78825" lon="0.43032">
        <ele>115.7</ele>
        <time>2022-07-14T06:30:41Z</time>
      </trkpt>
      <trkpt lat="44.7883" lon="0.43034">
        <ele>115.9</ele>
        <time>2022-07-14T06:30:43Z</time>
      </trkpt>
      <trkpt lat="44.78835" lon="0.43036">
        <ele>116</ele>
        <time>2022-07-14T06:30:45Z</time>
      </trkpt>
      <trkpt lat="44.7884" lon="0.43038">
        <ele>116.1</ele>
        <time>2022-07-14T06:30:47Z</time>
      </trkpt>
      <trkpt lat="44.78845" lon="0.43039">
        <ele>116.3</ele>
        <time>2022-07-14T06:30:49Z</time>
      </trkpt>
      <trkpt lat="44.78849" lon="0.43041">
        <ele>116.5</ele>
        <time>2022-07-14T06:30:51Z</time>
      </trkpt>
      <trkpt lat="44.78851" lon="0.43042">
        <ele>116.6</ele>
        <time>2022-07-14T06:30:52Z</time>
      </trkpt>
      <trkpt lat="44.78853" lon="0.43043">
        <ele>116.7</ele>
        <time>2022-07-14T06:30:53Z</time>
      </trkpt>
      <trkpt lat="44.78855" lon="0.43044">
        <ele>116.9</ele>
        <time>2022-07-14T06:30:54Z</time>
      </trkpt>
      <trkpt lat="44.78858" lon="0.43044">
        <ele>117</ele>
        <time>2022-07-14T06:30:55Z</time>
      </trkpt>
      <trkpt lat="44.78859" lon="0.43045">
        <ele>117.1</ele>
        <time>2022-07-14T06:30:56Z</time>
      </trkpt>
      <trkpt lat="44.7886" lon="0.43046">
        <ele>117.2</ele>
        <time>2022-07-14T06:30:57Z</time>
      </trkpt>
      <trkpt lat="44.78863" lon="0.43047">
        <ele>117.5</ele>
        <time>2022-07-14T06:30:59Z</time>
      </trkpt>
      <trkpt lat="44.78866" lon="0.43048">
        <ele>117.8</ele>
        <time>2022-07-14T06:31:01Z</time>
      </trkpt>
      <trkpt lat="44.78868" lon="0.43048">
        <ele>117.9</ele>
        <time>2022-07-14T06:31:02Z</time>
      </trkpt>
      <trkpt lat="44.78869" lon="0.43049">
        <ele>118.1</ele>
        <time>2022-07-14T06:31:03Z</time>
      </trkpt>
      <trkpt lat="44.78871" lon="0.4305">
        <ele>118.5</ele>
        <time>2022-07-14T06:31:05Z</time>
      </trkpt>
      <trkpt lat="44.78873" lon="0.4305">
        <ele>118.7</ele>
        <time>2022-07-14T06:31:06Z</time>
      </trkpt>
      <trkpt lat="44.78874" lon="0.43051">
        <ele>118.9</ele>
        <time>2022-07-14T06:31:07Z</time>
      </trkpt>
      <trkpt lat="44.78877" lon="0.43052">
        <ele>119.3</ele>
        <time>2022-07-14T06:31:09Z</time>
      </trkpt>
      <trkpt lat="44.78879" lon="0.43053">
        <ele>119.7</ele>
        <time>2022-07-14T06:31:11Z</time>
      </trkpt>
      <trkpt lat="44.78882" lon="0.43054">
        <ele>120.2</ele>
        <time>2022-07-14T06:31:13Z</time>
      </trkpt>
      <trkpt lat="44.78884" lon="0.43055">
        <ele>120.5</ele>
        <time>2022-07-14T06:31:14Z</time>
      </trkpt>
      <trkpt lat="44.78885" lon="0.43055">
        <ele>120.8</ele>
        <time>2022-07-14T06:31:15Z</time>
      </trkpt>
      <trkpt lat="44.78888" lon="0.43056">
        <ele>121.2</ele>
        <time>2022-07-14T06:31:17Z</time>
      </trkpt>
      <trkpt lat="44.78891" lon="0.43057">
        <ele>121.6</ele>
        <time>2022-07-14T06:31:19Z</time>
      </trkpt>
      <trkpt lat="44.78893" lon="0.43058">
        <ele>121.9</ele>
        <time>2022-07-14T06:31:21Z</time>
      </trkpt>
      <trkpt lat="44.78895" lon="0.43059">
        <ele>122.2</ele>
        <time>2022-07-14T06:31:22Z</time>
      </trkpt>
      <trkpt lat="44.78896" lon="0.4306">
        <ele>122.4</ele>
        <time>2022-07-14T06:31:23Z</time>
      </trkpt>
      <trkpt lat="44.789" lon="0.43061">
        <ele>122.8</ele>
        <time>2022-07-14T06:31:25Z</time>
      </trkpt>
      <trkpt lat="44.78903" lon="0.43062">
        <ele>123.2</ele>
        <time>2022-07-14T06:31:27Z</time>
      </trkpt>
      <trkpt lat="44.78906" lon="0.43063">
        <ele>123.6</ele>
        <time>2022-07-14T06:31:29Z</time>
      </trkpt>
      <trkpt lat="44.7891" lon="0.43065">
        <ele>123.9</ele>
        <time>2022-07-14T06:31:31Z</time>
      </trkpt>
      <trkpt lat="44.78914" lon="0.43066">
        <ele>124.3</ele>
        <time>2022-07-14T06:31:33Z</time>
      </trkpt>
      <trkpt lat="44.78916" lon="0.43067">
        <ele>124.5</ele>
        <time>2022-07-14T06:31:34Z</time>
      </trkpt>
      <trkpt lat="44.78917" lon="0.43068">
        <ele>124.6</ele>
        <time>2022-07-14T06:31:35Z</time>
      </trkpt>
      <trkpt lat="44.78921" lon="0.43069">
        <ele>124.9</ele>
        <time>2022-07-14T06:31:37Z</time>
      </trkpt>
      <trkpt lat="44.78925" lon="0.4307">
        <ele>125.2</ele>
        <time>2022-07-14T06:31:39Z</time>
      </trkpt>
      <trkpt lat="44.78926" lon="0.43071">
        <ele>125.3</ele>
        <time>2022-07-14T06:31:40Z</time>
      </trkpt>
      <trkpt lat="44.7893" lon="0.43072">
        <ele>125.6</ele>
        <time>2022-07-14T06:31:41Z</time>
      </trkpt>
      <trkpt lat="44.78934" lon="0.43071">
        <ele>125.9</ele>
        <time>2022-07-14T06:31:43Z</time>
      </trkpt>
      <trkpt lat="44.78938" lon="0.4307">
        <ele>126.1</ele>
        <time>2022-07-14T06:31:45Z</time>
      </trkpt>
      <trkpt lat="44.7894" lon="0.4307">
        <ele>126.2</ele>
        <time>2022-07-14T06:31:46Z</time>
      </trkpt>
      <trkpt lat="44.78943" lon="0.4307">
        <ele>126.4</ele>
        <time>2022-07-14T06:31:47Z</time>
      </trkpt>
      <trkpt lat="44.78946" lon="0.43069">
        <ele>126.6</ele>
        <time>2022-07-14T06:31:49Z</time>
      </trkpt>
      <trkpt lat="44.7895" lon="0.43068">
        <ele>126.9</ele>
        <time>2022-07-14T06:31:51Z</time>
      </trkpt>
      <trkpt lat="44.78953" lon="0.43068">
        <ele>127.1</ele>
        <time>2022-07-14T06:31:53Z</time>
      </trkpt>
      <trkpt lat="44.78957" lon="0.43067">
        <ele>127.3</ele>
        <time>2022-07-14T06:31:55Z</time>
      </trkpt>
      <trkpt lat="44.78959" lon="0.43067">
        <ele>127.5</ele>
        <time>2022-07-14T06:31:56Z</time>
      </trkpt>
      <trkpt lat="44.7896" lon="0.43066">
        <ele>127.6</ele>
        <time>2022-07-14T06:31:57Z</time>
      </trkpt>
      <trkpt lat="44.78964" lon="0.43066">
        <ele>127.9</ele>
        <time>2022-07-14T06:31:59Z</time>
      </trkpt>
      <trkpt lat="44.78969" lon="0.43065">
        <ele>128.2</ele>
        <time>2022-07-14T06:32:01Z</time>
      </trkpt>
      <trkpt lat="44.78974" lon="0.43064">
        <ele>128.5</ele>
        <time>2022-07-14T06:32:03Z</time>
      </trkpt>
      <trkpt lat="44.78978" lon="0.43063">
        <ele>128.8</ele>
        <time>2022-07-14T06:32:05Z</time>
      </trkpt>
      <trkpt lat="44.78981" lon="0.43063">
        <ele>129</ele>
        <time>2022-07-14T06:32:06Z</time>
      </trkpt>
      <trkpt lat="44.78983" lon="0.43062">
        <ele>129.2</ele>
        <time>2022-07-14T06:32:07Z</time>
      </trkpt>
      <trkpt lat="44.78987" lon="0.43062">
        <ele>129.5</ele>
        <time>2022-07-14T06:32:09Z</time>
      </trkpt>
      <trkpt lat="44.7899" lon="0.43061">
        <ele>129.7</ele>
        <time>2022-07-14T06:32:11Z</time>
      </trkpt>
      <trkpt lat="44.78994" lon="0.43061">
        <ele>130</ele>
        <time>2022-07-14T06:32:13Z</time>
      </trkpt>
      <trkpt lat="44.78998" lon="0.4306">
        <ele>130.3</ele>
        <time>2022-07-14T06:32:15Z</time>
      </trkpt>
      <trkpt lat="44.79001" lon="0.43059">
        <ele>130.6</ele>
        <time>2022-07-14T06:32:17Z</time>
      </trkpt>
      <trkpt lat="44.79003" lon="0.43059">
        <ele>130.7</ele>
        <time>2022-07-14T06:32:18Z</time>
      </trkpt>
      <trkpt lat="44.79005" lon="0.43059">
        <ele>130.9</ele>
        <time>2022-07-14T06:32:19Z</time>
      </trkpt>
      <trkpt lat="44.79009" lon="0.43058">
        <ele>131.2</ele>
        <time>2022-07-14T06:32:21Z</time>
      </trkpt>
      <trkpt lat="44.79013" lon="0.43057">
        <ele>131.5</ele>
        <time>2022-07-14T06:32:23Z</time>
      </trkpt>
      <trkpt lat="44.79016" lon="0.43057">
        <ele>131.7</ele>
        <time>2022-07-14T06:32:24Z</time>
      </trkpt>
      <trkpt lat="44.79018" lon="0.43056">
        <ele>131.8</ele>
        <time>2022-07-14T06:32:25Z</time>
      </trkpt>
      <trkpt lat="44.79022" lon="0.43056">
        <ele>132.2</ele>
        <time>2022-07-14T06:32:27Z</time>
      </trkpt>
      <trkpt lat="44.79027" lon="0.43055">
        <ele>132.6</ele>
        <time>2022-07-14T06:32:29Z</time>
      </trkpt>
      <trkpt lat="44.79031" lon="0.43054">
        <ele>133.1</ele>
        <time>2022-07-14T06:32:31Z</time>
      </trkpt>
      <trkpt lat="44.79036" lon="0.43053">
        <ele>133.6</ele>
        <time>2022-07-14T06:32:33Z</time>
      </trkpt>
      <trkpt lat="44.7904" lon="0.43052">
        <ele>133.9</ele>
        <time>2022-07-14T06:32:35Z</time>
      </trkpt>
      <trkpt lat="44.79044" lon="0.4305">
        <ele>134.3</ele>
        <time>2022-07-14T06:32:37Z</time>
      </trkpt>
      <trkpt lat="44.79048" lon="0.43047">
        <ele>134.6</ele>
        <time>2022-07-14T06:32:39Z</time>
      </trkpt>
      <trkpt lat="44.7905" lon="0.43046">
        <ele>134.7</ele>
        <time>2022-07-14T06:32:40Z</time>
      </trkpt>
      <trkpt lat="44.79052" lon="0.43045">
        <ele>134.9</ele>
        <time>2022-07-14T06:32:41Z</time>
      </trkpt>
      <trkpt lat="44.79056" lon="0.43043">
        <ele>135.1</ele>
        <time>2022-07-14T06:32:43Z</time>
      </trkpt>
      <trkpt lat="44.7906" lon="0.43041">
        <ele>135.3</ele>
        <time>2022-07-14T06:32:45Z</time>
      </trkpt>
      <trkpt lat="44.79063" lon="0.4304">
        <ele>135.5</ele>
        <time>2022-07-14T06:32:47Z</time>
      </trkpt>
      <trkpt lat="44.79067" lon="0.43038">
        <ele>135.7</ele>
        <time>2022-07-14T06:32:49Z</time>
      </trkpt>
      <trkpt lat="44.79068" lon="0.43037">
        <ele>135.8</ele>
        <time>2022-07-14T06:32:50Z</time>
      </trkpt>
      <trkpt lat="44.7907" lon="0.43036">
        <ele>135.9</ele>
        <time>2022-07-14T06:32:51Z</time>
      </trkpt>
      <trkpt lat="44.79073" lon="0.43034">
        <ele>136.1</ele>
        <time>2022-07-14T06:32:53Z</time>
      </trkpt>
      <trkpt lat="44.79077" lon="0.43032">
        <ele>136.3</ele>
        <time>2022-07-14T06:32:55Z</time>
      </trkpt>
      <trkpt lat="44.7908" lon="0.43031">
        <ele>136.6</ele>
        <time>2022-07-14T06:32:57Z</time>
      </trkpt>
      <trkpt lat="44.79084" lon="0.43029">
        <ele>136.8</ele>
        <time>2022-07-14T06:32:59Z</time>
      </trkpt>
      <trkpt lat="44.79087" lon="0.43027">
        <ele>137</ele>
        <time>2022-07-14T06:33:01Z</time>
      </trkpt>
      <trkpt lat="44.7909" lon="0.43025">
        <ele>137.3</ele>
        <time>2022-07-14T06:33:03Z</time>
      </trkpt>
      <trkpt lat="44.79094" lon="0.43023">
        <ele>137.5</ele>
        <time>2022-07-14T06:33:05Z</time>
      </trkpt>
      <trkpt lat="44.79097" lon="0.43022">
        <ele>137.7</ele>
        <time>2022-07-14T06:33:07Z</time>
      </trkpt>
      <trkpt lat="44.79099" lon="0.43021">
        <ele>137.8</ele>
        <time>2022-07-14T06:33:08Z</time>
      </trkpt>
      <trkpt lat="44.79101" lon="0.4302">
        <ele>138</ele>
        <time>2022-07-14T06:33:09Z</time>
      </trkpt>
      <trkpt lat="44.79104" lon="0.43018">
        <ele>138.2</ele>
        <time>2022-07-14T06:33:11Z</time>
      </trkpt>
      <trkpt lat="44.79108" lon="0.43016">
        <ele>138.5</ele>
        <time>2022-07-14T06:33:13Z</time>
      </trkpt>
      <trkpt lat="44.79112" lon="0.43014">
        <ele>138.8</ele>
        <time>2022-07-14T06:33:15Z</time>
      </trkpt>
      <trkpt lat="44.79116" lon="0.43012">
        <ele>139</ele>
        <time>2022-07-14T06:33:17Z</time>
      </trkpt>
      <trkpt lat="44.7912" lon="0.4301">
        <ele>139.3</ele>
        <time>2022-07-14T06:33:19Z</time>
      </trkpt>
      <trkpt lat="44.79124" lon="0.43008">
        <ele>139.7</ele>
        <time>2022-07-14T06:33:21Z</time>
      </trkpt>
      <trkpt lat="44.79127" lon="0.43007">
        <ele>140</ele>
        <time>2022-07-14T06:33:23Z</time>
      </trkpt>
      <trkpt lat="44.79129" lon="0.43006">
        <ele>140.1</ele>
        <time>2022-07-14T06:33:24Z</time>
      </trkpt>
      <trkpt lat="44.7913" lon="0.43005">
        <ele>140.3</ele>
        <time>2022-07-14T06:33:25Z</time>
      </trkpt>
      <trkpt lat="44.79134" lon="0.43004">
        <ele>140.6</ele>
        <time>2022-07-14T06:33:27Z</time>
      </trkpt>
      <trkpt lat="44.79137" lon="0.43003">
        <ele>140.9</ele>
        <time>2022-07-14T06:33:29Z</time>
      </trkpt>
      <trkpt lat="44.7914" lon="0.43001">
        <ele>141.2</ele>
        <time>2022-07-14T06:33:31Z</time>
      </trkpt>
      <trkpt lat="44.79144" lon="0.43">
        <ele>141.5</ele>
        <time>2022-07-14T06:33:33Z</time>
      </trkpt>
      <trkpt lat="44.79147" lon="0.42998">
        <ele>141.9</ele>
        <time>2022-07-14T06:33:35Z</time>
      </trkpt>
      <trkpt lat="44.7915" lon="0.42997">
        <ele>142.2</ele>
        <time>2022-07-14T06:33:37Z</time>
      </trkpt>
      <trkpt lat="44.79154" lon="0.42995">
        <ele>142.6</ele>
        <time>2022-07-14T06:33:39Z</time>
      </trkpt>
      <trkpt lat="44.79157" lon="0.42994">
        <ele>142.9</ele>
        <time>2022-07-14T06:33:41Z</time>
      </trkpt>
      <trkpt lat="44.7916" lon="0.42993">
        <ele>143.3</ele>
        <time>2022-07-14T06:33:43Z</time>
      </trkpt>
      <trkpt lat="44.79164" lon="0.42991">
        <ele>143.7</ele>
        <time>2022-07-14T06:33:45Z</time>
      </trkpt>
      <trkpt lat="44.79168" lon="0.4299">
        <ele>144.1</ele>
        <time>2022-07-14T06:33:47Z</time>
      </trkpt>
      <trkpt lat="44.79169" lon="0.42989">
        <ele>144.2</ele>
        <time>2022-07-14T06:33:48Z</time>
      </trkpt>
      <trkpt lat="44.79171" lon="0.42988">
        <ele>144.4</ele>
        <time>2022-07-14T06:33:49Z</time>
      </trkpt>
      <trkpt lat="44.79174" lon="0.42987">
        <ele>144.7</ele>
        <time>2022-07-14T06:33:51Z</time>
      </trkpt>
      <trkpt lat="44.79177" lon="0.42986">
        <ele>145.1</ele>
        <time>2022-07-14T06:33:53Z</time>
      </trkpt>
      <trkpt lat="44.79181" lon="0.42984">
        <ele>145.5</ele>
        <time>2022-07-14T06:33:55Z</time>
      </trkpt>
      <trkpt lat="44.79184" lon="0.42983">
        <ele>145.8</ele>
        <time>2022-07-14T06:33:57Z</time>
      </trkpt>
      <trkpt lat="44.79187" lon="0.42981">
        <ele>146.1</ele>
        <time>2022-07-14T06:33:59Z</time>
      </trkpt>
      <trkpt lat="44.79191" lon="0.4298">
        <ele>146.4</ele>
        <time>2022-07-14T06:34:01Z</time>
      </trkpt>
      <trkpt lat="44.79194" lon="0.42979">
        <ele>146.7</ele>
        <time>2022-07-14T06:34:03Z</time>
      </trkpt>
      <trkpt lat="44.79196" lon="0.42978">
        <ele>146.8</ele>
        <time>2022-07-14T06:34:04Z</time>
      </trkpt>
      <trkpt lat="44.79198" lon="0.42977">
        <ele>147</ele>
        <time>2022-07-14T06:34:05Z</time>
      </trkpt>
      <trkpt lat="44.79201" lon="0.42976">
        <ele>147.3</ele>
        <time>2022-07-14T06:34:07Z</time>
      </trkpt>
      <trkpt lat="44.79205" lon="0.42974">
        <ele>147.6</ele>
        <time>2022-07-14T06:34:09Z</time>
      </trkpt>
      <trkpt lat="44.79208" lon="0.42973">
        <ele>147.9</ele>
        <time>2022-07-14T06:34:11Z</time>
      </trkpt>
      <trkpt lat="44.79212" lon="0.42971">
        <ele>148.2</ele>
        <time>2022-07-14T06:34:13Z</time>
      </trkpt>
      <trkpt lat="44.79215" lon="0.42976">
        <ele>148.6</ele>
        <time>2022-07-14T06:34:14Z</time>
      </trkpt>
      <trkpt lat="44.79216" lon="0.42977">
        <ele>148.7</ele>
        <time>2022-07-14T06:34:15Z</time>
      </trkpt>
      <trkpt lat="44.79218" lon="0.42981">
        <ele>149</ele>
        <time>2022-07-14T06:34:17Z</time>
      </trkpt>
      <trkpt lat="44.79221" lon="0.42984">
        <ele>149.3</ele>
        <time>2022-07-14T06:34:19Z</time>
      </trkpt>
      <trkpt lat="44.79223" lon="0.42988">
        <ele>149.6</ele>
        <time>2022-07-14T06:34:21Z</time>
      </trkpt>
      <trkpt lat="44.79226" lon="0.42991">
        <ele>149.8</ele>
        <time>2022-07-14T06:34:23Z</time>
      </trkpt>
      <trkpt lat="44.79228" lon="0.42995">
        <ele>150.1</ele>
        <time>2022-07-14T06:34:25Z</time>
      </trkpt>
      <trkpt lat="44.79231" lon="0.42999">
        <ele>150.3</ele>
        <time>2022-07-14T06:34:27Z</time>
      </trkpt>
      <trkpt lat="44.79233" lon="0.43002">
        <ele>150.5</ele>
        <time>2022-07-14T06:34:29Z</time>
      </trkpt>
      <trkpt lat="44.79236" lon="0.43006">
        <ele>150.6</ele>
        <time>2022-07-14T06:34:31Z</time>
      </trkpt>
      <trkpt lat="44.79238" lon="0.4301">
        <ele>150.8</ele>
        <time>2022-07-14T06:34:33Z</time>
      </trkpt>
      <trkpt lat="44.7924" lon="0.43012">
        <ele>150.9</ele>
        <time>2022-07-14T06:34:34Z</time>
      </trkpt>
      <trkpt lat="44.79241" lon="0.43015">
        <ele>151</ele>
        <time>2022-07-14T06:34:35Z</time>
      </trkpt>
      <trkpt lat="44.79244" lon="0.43019">
        <ele>151.1</ele>
        <time>2022-07-14T06:34:37Z</time>
      </trkpt>
      <trkpt lat="44.79246" lon="0.43025">
        <ele>151.3</ele>
        <time>2022-07-14T06:34:39Z</time>
      </trkpt>
      <trkpt lat="44.79248" lon="0.4303">
        <ele>151.4</ele>
        <time>2022-07-14T06:34:41Z</time>
      </trkpt>
      <trkpt lat="44.7925" lon="0.43035">
        <ele>151.6</ele>
        <time>2022-07-14T06:34:43Z</time>
      </trkpt>
      <trkpt lat="44.79252" lon="0.4304">
        <ele>151.8</ele>
        <time>2022-07-14T06:34:45Z</time>
      </trkpt>
      <trkpt lat="44.79254" lon="0.43045">
        <ele>151.9</ele>
        <time>2022-07-14T06:34:47Z</time>
      </trkpt>
      <trkpt lat="44.79256" lon="0.43051">
        <ele>152.1</ele>
        <time>2022-07-14T06:34:49Z</time>
      </trkpt>
      <trkpt lat="44.79257" lon="0.43053">
        <ele>152.1</ele>
        <time>2022-07-14T06:34:50Z</time>
      </trkpt>
      <trkpt lat="44.79258" lon="0.43056">
        <ele>152.2</ele>
        <time>2022-07-14T06:34:51Z</time>
      </trkpt>
      <trkpt lat="44.79263" lon="0.43066">
        <ele>152.7</ele>
        <time>2022-07-14T06:34:53Z</time>
      </trkpt>
      <trkpt lat="44.7927" lon="0.43061">
        <ele>152.9</ele>
        <time>2022-07-14T06:34:55Z</time>
      </trkpt>
      <trkpt lat="44.79274" lon="0.43059">
        <ele>153</ele>
        <time>2022-07-14T06:34:57Z</time>
      </trkpt>
      <trkpt lat="44.79278" lon="0.43057">
        <ele>153.1</ele>
        <time>2022-07-14T06:34:59Z</time>
      </trkpt>
      <trkpt lat="44.79283" lon="0.43055">
        <ele>153.2</ele>
        <time>2022-07-14T06:35:01Z</time>
      </trkpt>
      <trkpt lat="44.79285" lon="0.43054">
        <ele>153.2</ele>
        <time>2022-07-14T06:35:02Z</time>
      </trkpt>
      <trkpt lat="44.79287" lon="0.43054">
        <ele>153.3</ele>
        <time>2022-07-14T06:35:03Z</time>
      </trkpt>
      <trkpt lat="44.79292" lon="0.43053">
        <ele>153.4</ele>
        <time>2022-07-14T06:35:05Z</time>
      </trkpt>
      <trkpt lat="44.79296" lon="0.43052">
        <ele>153.4</ele>
        <time>2022-07-14T06:35:07Z</time>
      </trkpt>
      <trkpt lat="44.79301" lon="0.43051">
        <ele>153.5</ele>
        <time>2022-07-14T06:35:09Z</time>
      </trkpt>
      <trkpt lat="44.79306" lon="0.4305">
        <ele>153.6</ele>
        <time>2022-07-14T06:35:11Z</time>
      </trkpt>
      <trkpt lat="44.7931" lon="0.43049">
        <ele>153.7</ele>
        <time>2022-07-14T06:35:13Z</time>
      </trkpt>
      <trkpt lat="44.79314" lon="0.43048">
        <ele>153.8</ele>
        <time>2022-07-14T06:35:15Z</time>
      </trkpt>
      <trkpt lat="44.79319" lon="0.43047">
        <ele>153.9</ele>
        <time>2022-07-14T06:35:17Z</time>
      </trkpt>
      <trkpt lat="44.79323" lon="0.43046">
        <ele>154</ele>
        <time>2022-07-14T06:35:19Z</time>
      </trkpt>
      <trkpt lat="44.79327" lon="0.43045">
        <ele>154.1</ele>
        <time>2022-07-14T06:35:21Z</time>
      </trkpt>
      <trkpt lat="44.79332" lon="0.43044">
        <ele>154.2</ele>
        <time>2022-07-14T06:35:23Z</time>
      </trkpt>
      <trkpt lat="44.79334" lon="0.43044">
        <ele>154.2</ele>
        <time>2022-07-14T06:35:24Z</time>
      </trkpt>
      <trkpt lat="44.79336" lon="0.43044">
        <ele>154.3</ele>
        <time>2022-07-14T06:35:25Z</time>
      </trkpt>
      <trkpt lat="44.7934" lon="0.43043">
        <ele>154.4</ele>
        <time>2022-07-14T06:35:27Z</time>
      </trkpt>
      <trkpt lat="44.79345" lon="0.43042">
        <ele>154.4</ele>
        <time>2022-07-14T06:35:29Z</time>
      </trkpt>
      <trkpt lat="44.79349" lon="0.43041">
        <ele>154.5</ele>
        <time>2022-07-14T06:35:31Z</time>
      </trkpt>
      <trkpt lat="44.79352" lon="0.4304">
        <ele>154.6</ele>
        <time>2022-07-14T06:35:32Z</time>
      </trkpt>
      <trkpt lat="44.79354" lon="0.4304">
        <ele>154.6</ele>
        <time>2022-07-14T06:35:33Z</time>
      </trkpt>
      <trkpt lat="44.79359" lon="0.43039">
        <ele>154.7</ele>
        <time>2022-07-14T06:35:35Z</time>
      </trkpt>
      <trkpt lat="44.79363" lon="0.43038">
        <ele>154.8</ele>
        <time>2022-07-14T06:35:37Z</time>
      </trkpt>
      <trkpt lat="44.79367" lon="0.43037">
        <ele>154.9</ele>
        <time>2022-07-14T06:35:39Z</time>
      </trkpt>
      <trkpt lat="44.79372" lon="0.43036">
        <ele>155</ele>
        <time>2022-07-14T06:35:41Z</time>
      </trkpt>
      <trkpt lat="44.79376" lon="0.43035">
        <ele>155.1</ele>
        <time>2022-07-14T06:35:43Z</time>
      </trkpt>
      <trkpt lat="44.79381" lon="0.43034">
        <ele>155.2</ele>
        <time>2022-07-14T06:35:45Z</time>
      </trkpt>
      <trkpt lat="44.79386" lon="0.43033">
        <ele>155.3</ele>
        <time>2022-07-14T06:35:47Z</time>
      </trkpt>
      <trkpt lat="44.7939" lon="0.43032">
        <ele>155.4</ele>
        <time>2022-07-14T06:35:49Z</time>
      </trkpt>
      <trkpt lat="44.79392" lon="0.43032">
        <ele>155.4</ele>
        <time>2022-07-14T06:35:50Z</time>
      </trkpt>
      <trkpt lat="44.79395" lon="0.43031">
        <ele>155.5</ele>
        <time>2022-07-14T06:35:51Z</time>
      </trkpt>
      <trkpt lat="44.79399" lon="0.4303">
        <ele>155.6</ele>
        <time>2022-07-14T06:35:53Z</time>
      </trkpt>
      <trkpt lat="44.79404" lon="0.43029">
        <ele>155.7</ele>
        <time>2022-07-14T06:35:55Z</time>
      </trkpt>
      <trkpt lat="44.79409" lon="0.43028">
        <ele>155.8</ele>
        <time>2022-07-14T06:35:57Z</time>
      </trkpt>
      <trkpt lat="44.79414" lon="0.43027">
        <ele>155.9</ele>
        <time>2022-07-14T06:35:59Z</time>
      </trkpt>
      <trkpt lat="44.7942" lon="0.43026">
        <ele>156</ele>
        <time>2022-07-14T06:36:01Z</time>
      </trkpt>
      <trkpt lat="44.79425" lon="0.43025">
        <ele>156.1</ele>
        <time>2022-07-14T06:36:03Z</time>
      </trkpt>
      <trkpt lat="44.79426" lon="0.43025">
        <ele>156.1</ele>
        <time>2022-07-14T06:36:04Z</time>
      </trkpt>
      <trkpt lat="44.79427" lon="0.43024">
        <ele>156.1</ele>
        <time>2022-07-14T06:36:05Z</time>
      </trkpt>
      <trkpt lat="44.7943" lon="0.43024">
        <ele>156.2</ele>
        <time>2022-07-14T06:36:07Z</time>
      </trkpt>
      <trkpt lat="44.79433" lon="0.43023">
        <ele>156.3</ele>
        <time>2022-07-14T06:36:09Z</time>
      </trkpt>
      <trkpt lat="44.79434" lon="0.43018">
        <ele>156.3</ele>
        <time>2022-07-14T06:36:10Z</time>
      </trkpt>
      <trkpt lat="44.79433" lon="0.43015">
        <ele>156.5</ele>
        <time>2022-07-14T06:36:11Z</time>
      </trkpt>
      <trkpt lat="44.79432" lon="0.43011">
        <ele>156.5</ele>
        <time>2022-07-14T06:36:12Z</time>
      </trkpt>
      <trkpt lat="44.79431" lon="0.43008">
        <ele>156.6</ele>
        <time>2022-07-14T06:36:13Z</time>
      </trkpt>
      <trkpt lat="44.79429" lon="0.43001">
        <ele>156.7</ele>
        <time>2022-07-14T06:36:15Z</time>
      </trkpt>
      <trkpt lat="44.79427" lon="0.42994">
        <ele>156.8</ele>
        <time>2022-07-14T06:36:17Z</time>
      </trkpt>
      <trkpt lat="44.79425" lon="0.42987">
        <ele>157</ele>
        <time>2022-07-14T06:36:19Z</time>
      </trkpt>
      <trkpt lat="44.79423" lon="0.4298">
        <ele>157.1</ele>
        <time>2022-07-14T06:36:21Z</time>
      </trkpt>
      <trkpt lat="44.79421" lon="0.42972">
        <ele>157.3</ele>
        <time>2022-07-14T06:36:23Z</time>
      </trkpt>
      <trkpt lat="44.7942" lon="0.42965">
        <ele>157.5</ele>
        <time>2022-07-14T06:36:25Z</time>
      </trkpt>
      <trkpt lat="44.79419" lon="0.42961">
        <ele>157.6</ele>
        <time>2022-07-14T06:36:26Z</time>
      </trkpt>
      <trkpt lat="44.79419" lon="0.42956">
        <ele>157.7</ele>
        <time>2022-07-14T06:36:27Z</time>
      </trkpt>
      <trkpt lat="44.79417" lon="0.42947">
        <ele>157.9</ele>
        <time>2022-07-14T06:36:29Z</time>
      </trkpt>
      <trkpt lat="44.79416" lon="0.42939">
        <ele>158</ele>
        <time>2022-07-14T06:36:31Z</time>
      </trkpt>
      <trkpt lat="44.79415" lon="0.42931">
        <ele>158.2</ele>
        <time>2022-07-14T06:36:33Z</time>
      </trkpt>
      <trkpt lat="44.79414" lon="0.42923">
        <ele>158.3</ele>
        <time>2022-07-14T06:36:35Z</time>
      </trkpt>
      <trkpt lat="44.79414" lon="0.42915">
        <ele>158.4</ele>
        <time>2022-07-14T06:36:37Z</time>
      </trkpt>
      <trkpt lat="44.79419" lon="0.42912">
        <ele>158.1</ele>
        <time>2022-07-14T06:36:39Z</time>
      </trkpt>
      <trkpt lat="44.79425" lon="0.4291">
        <ele>157.7</ele>
        <time>2022-07-14T06:36:41Z</time>
      </trkpt>
      <trkpt lat="44.79431" lon="0.42907">
        <ele>157.4</ele>
        <time>2022-07-14T06:36:43Z</time>
      </trkpt>
      <trkpt lat="44.79438" lon="0.42904">
        <ele>157</ele>
        <time>2022-07-14T06:36:45Z</time>
      </trkpt>
      <trkpt lat="44.79444" lon="0.429">
        <ele>156.7</ele>
        <time>2022-07-14T06:36:47Z</time>
      </trkpt>
      <trkpt lat="44.79448" lon="0.42899">
        <ele>156.5</ele>
        <time>2022-07-14T06:36:48Z</time>
      </trkpt>
      <trkpt lat="44.79451" lon="0.42897">
        <ele>156.3</ele>
        <time>2022-07-14T06:36:49Z</time>
      </trkpt>
      <trkpt lat="44.79458" lon="0.42893">
        <ele>155.8</ele>
        <time>2022-07-14T06:36:51Z</time>
      </trkpt>
      <trkpt lat="44.79466" lon="0.4289">
        <ele>155.4</ele>
        <time>2022-07-14T06:36:53Z</time>
      </trkpt>
      <trkpt lat="44.79474" lon="0.42886">
        <ele>154.9</ele>
        <time>2022-07-14T06:36:55Z</time>
      </trkpt>
      <trkpt lat="44.79484" lon="0.42881">
        <ele>154.4</ele>
        <time>2022-07-14T06:36:57Z</time>
      </trkpt>
      <trkpt lat="44.79494" lon="0.42876">
        <ele>153.8</ele>
        <time>2022-07-14T06:36:59Z</time>
      </trkpt>
      <trkpt lat="44.79506" lon="0.4287">
        <ele>153.1</ele>
        <time>2022-07-14T06:37:01Z</time>
      </trkpt>
      <trkpt lat="44.79519" lon="0.42864">
        <ele>152.4</ele>
        <time>2022-07-14T06:37:03Z</time>
      </trkpt>
      <trkpt lat="44.79533" lon="0.42857">
        <ele>151.6</ele>
        <time>2022-07-14T06:37:05Z</time>
      </trkpt>
      <trkpt lat="44.7954" lon="0.42855">
        <ele>151.2</ele>
        <time>2022-07-14T06:37:06Z</time>
      </trkpt>
      <trkpt lat="44.79547" lon="0.42856">
        <ele>150.8</ele>
        <time>2022-07-14T06:37:07Z</time>
      </trkpt>
      <trkpt lat="44.79562" lon="0.42856">
        <ele>150</ele>
        <time>2022-07-14T06:37:09Z</time>
      </trkpt>
      <trkpt lat="44.79577" lon="0.42857">
        <ele>149.1</ele>
        <time>2022-07-14T06:37:11Z</time>
      </trkpt>
      <trkpt lat="44.79584" lon="0.42857">
        <ele>148.8</ele>
        <time>2022-07-14T06:37:12Z</time>
      </trkpt>
      <trkpt lat="44.79589" lon="0.42857">
        <ele>148.5</ele>
        <time>2022-07-14T06:37:13Z</time>
      </trkpt>
      <trkpt lat="44.79594" lon="0.42857">
        <ele>148.2</ele>
        <time>2022-07-14T06:37:14Z</time>
      </trkpt>
      <trkpt lat="44.79596" lon="0.42857">
        <ele>148.1</ele>
        <time>2022-07-14T06:37:15Z</time>
      </trkpt>
      <trkpt lat="44.79599" lon="0.42844">
        <ele>147.6</ele>
        <time>2022-07-14T06:37:17Z</time>
      </trkpt>
      <trkpt lat="44.79602" lon="0.42833">
        <ele>147.1</ele>
        <time>2022-07-14T06:37:18Z</time>
      </trkpt>
      <trkpt lat="44.79604" lon="0.42821">
        <ele>146.7</ele>
        <time>2022-07-14T06:37:19Z</time>
      </trkpt>
      <trkpt lat="44.7961" lon="0.42797">
        <ele>145.7</ele>
        <time>2022-07-14T06:37:21Z</time>
      </trkpt>
      <trkpt lat="44.79619" lon="0.42788">
        <ele>145.1</ele>
        <time>2022-07-14T06:37:22Z</time>
      </trkpt>
      <trkpt lat="44.79628" lon="0.42779">
        <ele>144.5</ele>
        <time>2022-07-14T06:37:23Z</time>
      </trkpt>
      <trkpt lat="44.79634" lon="0.42774">
        <ele>144.1</ele>
        <time>2022-07-14T06:37:25Z</time>
      </trkpt>
      <trkpt lat="44.79638" lon="0.42769">
        <ele>143.8</ele>
        <time>2022-07-14T06:37:27Z</time>
      </trkpt>
      <trkpt lat="44.79642" lon="0.42765">
        <ele>143.5</ele>
        <time>2022-07-14T06:37:28Z</time>
      </trkpt>
      <trkpt lat="44.79654" lon="0.42752">
        <ele>142.7</ele>
        <time>2022-07-14T06:37:29Z</time>
      </trkpt>
      <trkpt lat="44.79688" lon="0.4279">
        <ele>133.8</ele>
        <time>2022-07-14T06:37:31Z</time>
      </trkpt>
      <trkpt lat="44.79704" lon="0.42791">
        <ele>130</ele>
        <time>2022-07-14T06:37:33Z</time>
      </trkpt>
      <trkpt lat="44.79722" lon="0.42792">
        <ele>123</ele>
        <time>2022-07-14T06:37:35Z</time>
      </trkpt>
      <trkpt lat="44.79742" lon="0.42794">
        <ele>120</ele>
        <time>2022-07-14T06:37:37Z</time>
      </trkpt>
      <trkpt lat="44.79751" lon="0.42794">
        <ele>117.3</ele>
        <time>2022-07-14T06:37:38Z</time>
      </trkpt>
      <trkpt lat="44.79759" lon="0.42794">
        <ele>114.9</ele>
        <time>2022-07-14T06:37:39Z</time>
      </trkpt>
      <trkpt lat="44.79769" lon="0.42797">
        <ele>112.8</ele>
        <time>2022-07-14T06:37:41Z</time>
      </trkpt>
      <trkpt lat="44.79771" lon="0.42807">
        <ele>112.8</ele>
        <time>2022-07-14T06:37:43Z</time>
      </trkpt>
      <trkpt lat="44.79771" lon="0.42813">
        <ele>112.7</ele>
        <time>2022-07-14T06:37:44Z</time>
      </trkpt>
      <trkpt lat="44.79769" lon="0.42819">
        <ele>112.7</ele>
        <time>2022-07-14T06:37:45Z</time>
      </trkpt>
      <trkpt lat="44.79767" lon="0.42829">
        <ele>114.3</ele>
        <time>2022-07-14T06:37:47Z</time>
      </trkpt>
      <trkpt lat="44.79764" lon="0.42839">
        <ele>114.6</ele>
        <time>2022-07-14T06:37:49Z</time>
      </trkpt>
      <trkpt lat="44.79762" lon="0.4285">
        <ele>115.1</ele>
        <time>2022-07-14T06:37:51Z</time>
      </trkpt>
      <trkpt lat="44.79761" lon="0.42861">
        <ele>115.1</ele>
        <time>2022-07-14T06:37:53Z</time>
      </trkpt>
      <trkpt lat="44.79759" lon="0.42872">
        <ele>115.4</ele>
        <time>2022-07-14T06:37:55Z</time>
      </trkpt>
      <trkpt lat="44.79758" lon="0.42877">
        <ele>115.4</ele>
        <time>2022-07-14T06:37:56Z</time>
      </trkpt>
      <trkpt lat="44.79758" lon="0.42881">
        <ele>115.5</ele>
        <time>2022-07-14T06:37:57Z</time>
      </trkpt>
      <trkpt lat="44.79757" lon="0.42891">
        <ele>115.5</ele>
        <time>2022-07-14T06:37:59Z</time>
      </trkpt>
      <trkpt lat="44.79756" lon="0.42901">
        <ele>115.6</ele>
        <time>2022-07-14T06:38:01Z</time>
      </trkpt>
      <trkpt lat="44.79755" lon="0.42912">
        <ele>117.5</ele>
        <time>2022-07-14T06:38:03Z</time>
      </trkpt>
      <trkpt lat="44.79755" lon="0.42923">
        <ele>115.7</ele>
        <time>2022-07-14T06:38:05Z</time>
      </trkpt>
      <trkpt lat="44.79756" lon="0.42933">
        <ele>115.9</ele>
        <time>2022-07-14T06:38:07Z</time>
      </trkpt>
      <trkpt lat="44.79757" lon="0.42944">
        <ele>115.9</ele>
        <time>2022-07-14T06:38:09Z</time>
      </trkpt>
      <trkpt lat="44.79759" lon="0.42955">
        <ele>116</ele>
        <time>2022-07-14T06:38:11Z</time>
      </trkpt>
      <trkpt lat="44.79762" lon="0.42965">
        <ele>116</ele>
        <time>2022-07-14T06:38:13Z</time>
      </trkpt>
      <trkpt lat="44.79764" lon="0.42967">
        <ele>116.1</ele>
        <time>2022-07-14T06:38:14Z</time>
      </trkpt>
      <trkpt lat="44.79768" lon="0.42968">
        <ele>114.9</ele>
        <time>2022-07-14T06:38:15Z</time>
      </trkpt>
      <trkpt lat="44.79768" lon="0.42967">
        <ele>114.5</ele>
        <time>2022-07-14T06:38:16Z</time>
      </trkpt>
      <trkpt lat="44.79771" lon="0.42963">
        <ele>114.5</ele>
        <time>2022-07-14T06:38:17Z</time>
      </trkpt>
      <trkpt lat="44.79776" lon="0.4296">
        <ele>114.5</ele>
        <time>2022-07-14T06:38:18Z</time>
      </trkpt>
      <trkpt lat="44.79781" lon="0.42957">
        <ele>113</ele>
        <time>2022-07-14T06:38:19Z</time>
      </trkpt>
      <trkpt lat="44.79787" lon="0.42957">
        <ele>113.1</ele>
        <time>2022-07-14T06:38:20Z</time>
      </trkpt>
      <trkpt lat="44.79793" lon="0.42962">
        <ele>112</ele>
        <time>2022-07-14T06:38:21Z</time>
      </trkpt>
      <trkpt lat="44.79796" lon="0.42968">
        <ele>112.8</ele>
        <time>2022-07-14T06:38:22Z</time>
      </trkpt>
      <trkpt lat="44.79798" lon="0.42975">
        <ele>112.8</ele>
        <time>2022-07-14T06:38:23Z</time>
      </trkpt>
      <trkpt lat="44.79799" lon="0.42981">
        <ele>112.8</ele>
        <time>2022-07-14T06:38:24Z</time>
      </trkpt>
      <trkpt lat="44.798" lon="0.42987">
        <ele>113.6</ele>
        <time>2022-07-14T06:38:25Z</time>
      </trkpt>
      <trkpt lat="44.79801" lon="0.42993">
        <ele>113.6</ele>
        <time>2022-07-14T06:38:26Z</time>
      </trkpt>
      <trkpt lat="44.79803" lon="0.42999">
        <ele>113.6</ele>
        <time>2022-07-14T06:38:27Z</time>
      </trkpt>
      <trkpt lat="44.79807" lon="0.43011">
        <ele>112.6</ele>
        <time>2022-07-14T06:38:29Z</time>
      </trkpt>
      <trkpt lat="44.7981" lon="0.43018">
        <ele>112.6</ele>
        <time>2022-07-14T06:38:30Z</time>
      </trkpt>
      <trkpt lat="44.79813" lon="0.43025">
        <ele>112.7</ele>
        <time>2022-07-14T06:38:31Z</time>
      </trkpt>
      <trkpt lat="44.79822" lon="0.43042">
        <ele>111.4</ele>
        <time>2022-07-14T06:38:33Z</time>
      </trkpt>
      <trkpt lat="44.7983" lon="0.43056">
        <ele>110.3</ele>
        <time>2022-07-14T06:38:35Z</time>
      </trkpt>
      <trkpt lat="44.79836" lon="0.43057">
        <ele>110.3</ele>
        <time>2022-07-14T06:38:36Z</time>
      </trkpt>
      <trkpt lat="44.79841" lon="0.43056">
        <ele>109.2</ele>
        <time>2022-07-14T06:38:37Z</time>
      </trkpt>
      <trkpt lat="44.79853" lon="0.43057">
        <ele>108.1</ele>
        <time>2022-07-14T06:38:39Z</time>
      </trkpt>
      <trkpt lat="44.79862" lon="0.4307">
        <ele>108.1</ele>
        <time>2022-07-14T06:38:41Z</time>
      </trkpt>
      <trkpt lat="44.79866" lon="0.43075">
        <ele>107.4</ele>
        <time>2022-07-14T06:38:42Z</time>
      </trkpt>
      <trkpt lat="44.79873" lon="0.43076">
        <ele>107.4</ele>
        <time>2022-07-14T06:38:43Z</time>
      </trkpt>
      <trkpt lat="44.7988" lon="0.43074">
        <ele>106.2</ele>
        <time>2022-07-14T06:38:44Z</time>
      </trkpt>
      <trkpt lat="44.79887" lon="0.43071">
        <ele>106.2</ele>
        <time>2022-07-14T06:38:45Z</time>
      </trkpt>
      <trkpt lat="44.79902" lon="0.43066">
        <ele>103.4</ele>
        <time>2022-07-14T06:38:47Z</time>
      </trkpt>
      <trkpt lat="44.79909" lon="0.43063">
        <ele>103.4</ele>
        <time>2022-07-14T06:38:48Z</time>
      </trkpt>
      <trkpt lat="44.79917" lon="0.4306">
        <ele>102.2</ele>
        <time>2022-07-14T06:38:49Z</time>
      </trkpt>
      <trkpt lat="44.79932" lon="0.43053">
        <ele>101.3</ele>
        <time>2022-07-14T06:38:51Z</time>
      </trkpt>
      <trkpt lat="44.79948" lon="0.43045">
        <ele>99.6</ele>
        <time>2022-07-14T06:38:53Z</time>
      </trkpt>
      <trkpt lat="44.79956" lon="0.43041">
        <ele>98.9</ele>
        <time>2022-07-14T06:38:54Z</time>
      </trkpt>
      <trkpt lat="44.79964" lon="0.43037">
        <ele>98.4</ele>
        <time>2022-07-14T06:38:55Z</time>
      </trkpt>
      <trkpt lat="44.79981" lon="0.43028">
        <ele>96.6</ele>
        <time>2022-07-14T06:38:57Z</time>
      </trkpt>
      <trkpt lat="44.79995" lon="0.43021">
        <ele>96.3</ele>
        <time>2022-07-14T06:38:59Z</time>
      </trkpt>
      <trkpt lat="44.80001" lon="0.43017">
        <ele>95.2</ele>
        <time>2022-07-14T06:39:00Z</time>
      </trkpt>
      <trkpt lat="44.80005" lon="0.43012">
        <ele>95.2</ele>
        <time>2022-07-14T06:39:01Z</time>
      </trkpt>
      <trkpt lat="44.80014" lon="0.42996">
        <ele>94.5</ele>
        <time>2022-07-14T06:39:03Z</time>
      </trkpt>
      <trkpt lat="44.80024" lon="0.42978">
        <ele>93.9</ele>
        <time>2022-07-14T06:39:05Z</time>
      </trkpt>
      <trkpt lat="44.80027" lon="0.42968">
        <ele>93.9</ele>
        <time>2022-07-14T06:39:06Z</time>
      </trkpt>
      <trkpt lat="44.80031" lon="0.42958">
        <ele>93.1</ele>
        <time>2022-07-14T06:39:07Z</time>
      </trkpt>
      <trkpt lat="44.80035" lon="0.42948">
        <ele>92.4</ele>
        <time>2022-07-14T06:39:08Z</time>
      </trkpt>
      <trkpt lat="44.80039" lon="0.42939">
        <ele>92.5</ele>
        <time>2022-07-14T06:39:09Z</time>
      </trkpt>
      <trkpt lat="44.80047" lon="0.42921">
        <ele>92</ele>
        <time>2022-07-14T06:39:11Z</time>
      </trkpt>
      <trkpt lat="44.80056" lon="0.42903">
        <ele>91.6</ele>
        <time>2022-07-14T06:39:13Z</time>
      </trkpt>
      <trkpt lat="44.80065" lon="0.42883">
        <ele>91.1</ele>
        <time>2022-07-14T06:39:15Z</time>
      </trkpt>
      <trkpt lat="44.80073" lon="0.42864">
        <ele>90</ele>
        <time>2022-07-14T06:39:17Z</time>
      </trkpt>
      <trkpt lat="44.80082" lon="0.42844">
        <ele>89.6</ele>
        <time>2022-07-14T06:39:19Z</time>
      </trkpt>
      <trkpt lat="44.8009" lon="0.42824">
        <ele>89.1</ele>
        <time>2022-07-14T06:39:21Z</time>
      </trkpt>
      <trkpt lat="44.80094" lon="0.42815">
        <ele>89.1</ele>
        <time>2022-07-14T06:39:22Z</time>
      </trkpt>
      <trkpt lat="44.80098" lon="0.42806">
        <ele>88.6</ele>
        <time>2022-07-14T06:39:23Z</time>
      </trkpt>
      <trkpt lat="44.80108" lon="0.42789">
        <ele>88.1</ele>
        <time>2022-07-14T06:39:25Z</time>
      </trkpt>
      <trkpt lat="44.80117" lon="0.42771">
        <ele>87.5</ele>
        <time>2022-07-14T06:39:27Z</time>
      </trkpt>
      <trkpt lat="44.80121" lon="0.42762">
        <ele>87.5</ele>
        <time>2022-07-14T06:39:28Z</time>
      </trkpt>
      <trkpt lat="44.80125" lon="0.42753">
        <ele>87</ele>
        <time>2022-07-14T06:39:29Z</time>
      </trkpt>
      <trkpt lat="44.80133" lon="0.42736">
        <ele>86.5</ele>
        <time>2022-07-14T06:39:31Z</time>
      </trkpt>
      <trkpt lat="44.80141" lon="0.42718">
        <ele>85.9</ele>
        <time>2022-07-14T06:39:33Z</time>
      </trkpt>
      <trkpt lat="44.80142" lon="0.4271">
        <ele>85.9</ele>
        <time>2022-07-14T06:39:34Z</time>
      </trkpt>
      <trkpt lat="44.8014" lon="0.42704">
        <ele>85.4</ele>
        <time>2022-07-14T06:39:35Z</time>
      </trkpt>
      <trkpt lat="44.80139" lon="0.427">
        <ele>85.4</ele>
        <time>2022-07-14T06:39:36Z</time>
      </trkpt>
      <trkpt lat="44.80143" lon="0.42694">
        <ele>85.4</ele>
        <time>2022-07-14T06:39:37Z</time>
      </trkpt>
      <trkpt lat="44.80147" lon="0.42689">
        <ele>85.4</ele>
        <time>2022-07-14T06:39:38Z</time>
      </trkpt>
      <trkpt lat="44.80151" lon="0.42683">
        <ele>85.3</ele>
        <time>2022-07-14T06:39:39Z</time>
      </trkpt>
      <trkpt lat="44.8016" lon="0.42672">
        <ele>85.3</ele>
        <time>2022-07-14T06:39:41Z</time>
      </trkpt>
      <trkpt lat="44.80162" lon="0.42666">
        <ele>85.2</ele>
        <time>2022-07-14T06:39:42Z</time>
      </trkpt>
      <trkpt lat="44.80162" lon="0.42662">
        <ele>85.2</ele>
        <time>2022-07-14T06:39:43Z</time>
      </trkpt>
      <trkpt lat="44.80156" lon="0.42654">
        <ele>85</ele>
        <time>2022-07-14T06:39:45Z</time>
      </trkpt>
      <trkpt lat="44.8015" lon="0.42646">
        <ele>84.9</ele>
        <time>2022-07-14T06:39:47Z</time>
      </trkpt>
      <trkpt lat="44.80147" lon="0.42636">
        <ele>85.1</ele>
        <time>2022-07-14T06:39:49Z</time>
      </trkpt>
      <trkpt lat="44.80146" lon="0.42625">
        <ele>85.4</ele>
        <time>2022-07-14T06:39:51Z</time>
      </trkpt>
      <trkpt lat="44.80144" lon="0.42615">
        <ele>85.7</ele>
        <time>2022-07-14T06:39:53Z</time>
      </trkpt>
      <trkpt lat="44.80143" lon="0.42604">
        <ele>86.1</ele>
        <time>2022-07-14T06:39:55Z</time>
      </trkpt>
      <trkpt lat="44.80142" lon="0.42598">
        <ele>86.3</ele>
        <time>2022-07-14T06:39:56Z</time>
      </trkpt>
      <trkpt lat="44.80142" lon="0.42593">
        <ele>86.5</ele>
        <time>2022-07-14T06:39:57Z</time>
      </trkpt>
      <trkpt lat="44.8014" lon="0.42582">
        <ele>86.8</ele>
        <time>2022-07-14T06:39:59Z</time>
      </trkpt>
      <trkpt lat="44.80139" lon="0.42572">
        <ele>87.1</ele>
        <time>2022-07-14T06:40:01Z</time>
      </trkpt>
      <trkpt lat="44.80142" lon="0.42563">
        <ele>87.2</ele>
        <time>2022-07-14T06:40:03Z</time>
      </trkpt>
      <trkpt lat="44.80147" lon="0.42554">
        <ele>87.2</ele>
        <time>2022-07-14T06:40:05Z</time>
      </trkpt>
      <trkpt lat="44.80151" lon="0.42545">
        <ele>87.1</ele>
        <time>2022-07-14T06:40:07Z</time>
      </trkpt>
      <trkpt lat="44.80153" lon="0.4254">
        <ele>87.1</ele>
        <time>2022-07-14T06:40:08Z</time>
      </trkpt>
      <trkpt lat="44.80155" lon="0.42536">
        <ele>87</ele>
        <time>2022-07-14T06:40:09Z</time>
      </trkpt>
      <trkpt lat="44.8016" lon="0.42527">
        <ele>86.8</ele>
        <time>2022-07-14T06:40:11Z</time>
      </trkpt>
      <trkpt lat="44.80164" lon="0.42518">
        <ele>86.6</ele>
        <time>2022-07-14T06:40:13Z</time>
      </trkpt>
      <trkpt lat="44.80169" lon="0.42509">
        <ele>86.4</ele>
        <time>2022-07-14T06:40:15Z</time>
      </trkpt>
      <trkpt lat="44.80171" lon="0.42504">
        <ele>86.3</ele>
        <time>2022-07-14T06:40:16Z</time>
      </trkpt>
      <trkpt lat="44.80173" lon="0.425">
        <ele>86.2</ele>
        <time>2022-07-14T06:40:17Z</time>
      </trkpt>
      <trkpt lat="44.80178" lon="0.42491">
        <ele>86.1</ele>
        <time>2022-07-14T06:40:19Z</time>
      </trkpt>
      <trkpt lat="44.80182" lon="0.42482">
        <ele>86</ele>
        <time>2022-07-14T06:40:21Z</time>
      </trkpt>
      <trkpt lat="44.80186" lon="0.42473">
        <ele>85.9</ele>
        <time>2022-07-14T06:40:23Z</time>
      </trkpt>
      <trkpt lat="44.80188" lon="0.42468">
        <ele>85.9</ele>
        <time>2022-07-14T06:40:24Z</time>
      </trkpt>
      <trkpt lat="44.80191" lon="0.42464">
        <ele>85.9</ele>
        <time>2022-07-14T06:40:25Z</time>
      </trkpt>
      <trkpt lat="44.80195" lon="0.42455">
        <ele>85.8</ele>
        <time>2022-07-14T06:40:27Z</time>
      </trkpt>
      <trkpt lat="44.80199" lon="0.42446">
        <ele>85.8</ele>
        <time>2022-07-14T06:40:29Z</time>
      </trkpt>
      <trkpt lat="44.80204" lon="0.42437">
        <ele>85.9</ele>
        <time>2022-07-14T06:40:31Z</time>
      </trkpt>
      <trkpt lat="44.80208" lon="0.42428">
        <ele>85.9</ele>
        <time>2022-07-14T06:40:33Z</time>
      </trkpt>
      <trkpt lat="44.8021" lon="0.42424">
        <ele>86</ele>
        <time>2022-07-14T06:40:34Z</time>
      </trkpt>
      <trkpt lat="44.80212" lon="0.42419">
        <ele>86.1</ele>
        <time>2022-07-14T06:40:35Z</time>
      </trkpt>
      <trkpt lat="44.80216" lon="0.42411">
        <ele>86.3</ele>
        <time>2022-07-14T06:40:37Z</time>
      </trkpt>
      <trkpt lat="44.8022" lon="0.42403">
        <ele>86.4</ele>
        <time>2022-07-14T06:40:39Z</time>
      </trkpt>
      <trkpt lat="44.80224" lon="0.42395">
        <ele>86.7</ele>
        <time>2022-07-14T06:40:41Z</time>
      </trkpt>
      <trkpt lat="44.80228" lon="0.42387">
        <ele>86.9</ele>
        <time>2022-07-14T06:40:43Z</time>
      </trkpt>
      <trkpt lat="44.80231" lon="0.4238">
        <ele>87.2</ele>
        <time>2022-07-14T06:40:45Z</time>
      </trkpt>
      <trkpt lat="44.80234" lon="0.42373">
        <ele>87.4</ele>
        <time>2022-07-14T06:40:47Z</time>
      </trkpt>
      <trkpt lat="44.80237" lon="0.42367">
        <ele>87.7</ele>
        <time>2022-07-14T06:40:49Z</time>
      </trkpt>
      <trkpt lat="44.80239" lon="0.4236">
        <ele>88</ele>
        <time>2022-07-14T06:40:51Z</time>
      </trkpt>
      <trkpt lat="44.80242" lon="0.42354">
        <ele>88.3</ele>
        <time>2022-07-14T06:40:53Z</time>
      </trkpt>
      <trkpt lat="44.80245" lon="0.42347">
        <ele>88.7</ele>
        <time>2022-07-14T06:40:55Z</time>
      </trkpt>
      <trkpt lat="44.80247" lon="0.42344">
        <ele>88.8</ele>
        <time>2022-07-14T06:40:56Z</time>
      </trkpt>
      <trkpt lat="44.80248" lon="0.42341">
        <ele>89</ele>
        <time>2022-07-14T06:40:57Z</time>
      </trkpt>
      <trkpt lat="44.80251" lon="0.42334">
        <ele>89.3</ele>
        <time>2022-07-14T06:40:59Z</time>
      </trkpt>
      <trkpt lat="44.80254" lon="0.42328">
        <ele>89.7</ele>
        <time>2022-07-14T06:41:01Z</time>
      </trkpt>
      <trkpt lat="44.80256" lon="0.42321">
        <ele>90</ele>
        <time>2022-07-14T06:41:03Z</time>
      </trkpt>
      <trkpt lat="44.80259" lon="0.42315">
        <ele>90.3</ele>
        <time>2022-07-14T06:41:05Z</time>
      </trkpt>
      <trkpt lat="44.80262" lon="0.42308">
        <ele>90.6</ele>
        <time>2022-07-14T06:41:07Z</time>
      </trkpt>
      <trkpt lat="44.80265" lon="0.42301">
        <ele>90.8</ele>
        <time>2022-07-14T06:41:09Z</time>
      </trkpt>
      <trkpt lat="44.80268" lon="0.42295">
        <ele>91</ele>
        <time>2022-07-14T06:41:11Z</time>
      </trkpt>
      <trkpt lat="44.80271" lon="0.42289">
        <ele>91.2</ele>
        <time>2022-07-14T06:41:13Z</time>
      </trkpt>
      <trkpt lat="44.80274" lon="0.42282">
        <ele>91.4</ele>
        <time>2022-07-14T06:41:15Z</time>
      </trkpt>
      <trkpt lat="44.80275" lon="0.42279">
        <ele>91.5</ele>
        <time>2022-07-14T06:41:16Z</time>
      </trkpt>
      <trkpt lat="44.80276" lon="0.42275">
        <ele>91.6</ele>
        <time>2022-07-14T06:41:17Z</time>
      </trkpt>
      <trkpt lat="44.80279" lon="0.42269">
        <ele>91.9</ele>
        <time>2022-07-14T06:41:19Z</time>
      </trkpt>
      <trkpt lat="44.80282" lon="0.42262">
        <ele>92.1</ele>
        <time>2022-07-14T06:41:21Z</time>
      </trkpt>
      <trkpt lat="44.80285" lon="0.42256">
        <ele>92.4</ele>
        <time>2022-07-14T06:41:23Z</time>
      </trkpt>
      <trkpt lat="44.80288" lon="0.42249">
        <ele>92.7</ele>
        <time>2022-07-14T06:41:25Z</time>
      </trkpt>
      <trkpt lat="44.80291" lon="0.42243">
        <ele>92.9</ele>
        <time>2022-07-14T06:41:27Z</time>
      </trkpt>
      <trkpt lat="44.80293" lon="0.42236">
        <ele>93.2</ele>
        <time>2022-07-14T06:41:29Z</time>
      </trkpt>
      <trkpt lat="44.80296" lon="0.4223">
        <ele>93.4</ele>
        <time>2022-07-14T06:41:31Z</time>
      </trkpt>
      <trkpt lat="44.80299" lon="0.42223">
        <ele>93.7</ele>
        <time>2022-07-14T06:41:33Z</time>
      </trkpt>
      <trkpt lat="44.80301" lon="0.4222">
        <ele>93.8</ele>
        <time>2022-07-14T06:41:34Z</time>
      </trkpt>
      <trkpt lat="44.80302" lon="0.42217">
        <ele>94</ele>
        <time>2022-07-14T06:41:35Z</time>
      </trkpt>
      <trkpt lat="44.80305" lon="0.4221">
        <ele>94.3</ele>
        <time>2022-07-14T06:41:37Z</time>
      </trkpt>
      <trkpt lat="44.80308" lon="0.42204">
        <ele>94.5</ele>
        <time>2022-07-14T06:41:39Z</time>
      </trkpt>
      <trkpt lat="44.80311" lon="0.42197">
        <ele>94.8</ele>
        <time>2022-07-14T06:41:41Z</time>
      </trkpt>
      <trkpt lat="44.80312" lon="0.42194">
        <ele>94.9</ele>
        <time>2022-07-14T06:41:42Z</time>
      </trkpt>
      <trkpt lat="44.80313" lon="0.42191">
        <ele>95</ele>
        <time>2022-07-14T06:41:43Z</time>
      </trkpt>
      <trkpt lat="44.80313" lon="0.42186">
        <ele>95.2</ele>
        <time>2022-07-14T06:41:44Z</time>
      </trkpt>
      <trkpt lat="44.80312" lon="0.42184">
        <ele>95.3</ele>
        <time>2022-07-14T06:41:45Z</time>
      </trkpt>
      <trkpt lat="44.8031" lon="0.42182">
        <ele>95.3</ele>
        <time>2022-07-14T06:41:46Z</time>
      </trkpt>
      <trkpt lat="44.80305" lon="0.42176">
        <ele>95.9</ele>
        <time>2022-07-14T06:41:47Z</time>
      </trkpt>
      <trkpt lat="44.80301" lon="0.42172">
        <ele>96</ele>
        <time>2022-07-14T06:41:49Z</time>
      </trkpt>
      <trkpt lat="44.80297" lon="0.42169">
        <ele>96</ele>
        <time>2022-07-14T06:41:51Z</time>
      </trkpt>
      <trkpt lat="44.80295" lon="0.42169">
        <ele>96</ele>
        <time>2022-07-14T06:41:52Z</time>
      </trkpt>
      <trkpt lat="44.80292" lon="0.42169">
        <ele>96</ele>
        <time>2022-07-14T06:41:53Z</time>
      </trkpt>
      <trkpt lat="44.80287" lon="0.4217">
        <ele>95.9</ele>
        <time>2022-07-14T06:41:55Z</time>
      </trkpt>
      <trkpt lat="44.80281" lon="0.42167">
        <ele>95.9</ele>
        <time>2022-07-14T06:41:57Z</time>
      </trkpt>
      <trkpt lat="44.80278" lon="0.42164">
        <ele>95.8</ele>
        <time>2022-07-14T06:41:58Z</time>
      </trkpt>
      <trkpt lat="44.80275" lon="0.4216">
        <ele>95.8</ele>
        <time>2022-07-14T06:41:59Z</time>
      </trkpt>
      <trkpt lat="44.80268" lon="0.42153">
        <ele>95.6</ele>
        <time>2022-07-14T06:42:01Z</time>
      </trkpt>
      <trkpt lat="44.8026" lon="0.42144">
        <ele>95.4</ele>
        <time>2022-07-14T06:42:03Z</time>
      </trkpt>
      <trkpt lat="44.80251" lon="0.42133">
        <ele>94.8</ele>
        <time>2022-07-14T06:42:05Z</time>
      </trkpt>
      <trkpt lat="44.80239" lon="0.42121">
        <ele>94</ele>
        <time>2022-07-14T06:42:07Z</time>
      </trkpt>
      <trkpt lat="44.80228" lon="0.42106">
        <ele>92.7</ele>
        <time>2022-07-14T06:42:09Z</time>
      </trkpt>
      <trkpt lat="44.80215" lon="0.42091">
        <ele>91.4</ele>
        <time>2022-07-14T06:42:11Z</time>
      </trkpt>
      <trkpt lat="44.80209" lon="0.42084">
        <ele>91.4</ele>
        <time>2022-07-14T06:42:12Z</time>
      </trkpt>
      <trkpt lat="44.80203" lon="0.42076">
        <ele>91</ele>
        <time>2022-07-14T06:42:13Z</time>
      </trkpt>
      <trkpt lat="44.80191" lon="0.42063">
        <ele>89.5</ele>
        <time>2022-07-14T06:42:15Z</time>
      </trkpt>
      <trkpt lat="44.80179" lon="0.42052">
        <ele>87.9</ele>
        <time>2022-07-14T06:42:17Z</time>
      </trkpt>
      <trkpt lat="44.80174" lon="0.42046">
        <ele>87.9</ele>
        <time>2022-07-14T06:42:18Z</time>
      </trkpt>
      <trkpt lat="44.80169" lon="0.4204">
        <ele>87.4</ele>
        <time>2022-07-14T06:42:19Z</time>
      </trkpt>
      <trkpt lat="44.80159" lon="0.42027">
        <ele>86.3</ele>
        <time>2022-07-14T06:42:21Z</time>
      </trkpt>
      <trkpt lat="44.80149" lon="0.42013">
        <ele>84.9</ele>
        <time>2022-07-14T06:42:23Z</time>
      </trkpt>
      <trkpt lat="44.80143" lon="0.42007">
        <ele>84.5</ele>
        <time>2022-07-14T06:42:24Z</time>
      </trkpt>
      <trkpt lat="44.80138" lon="0.42">
        <ele>83.7</ele>
        <time>2022-07-14T06:42:25Z</time>
      </trkpt>
      <trkpt lat="44.80127" lon="0.41985">
        <ele>82.8</ele>
        <time>2022-07-14T06:42:27Z</time>
      </trkpt>
      <trkpt lat="44.80114" lon="0.41969">
        <ele>81.9</ele>
        <time>2022-07-14T06:42:29Z</time>
      </trkpt>
      <trkpt lat="44.80099" lon="0.41954">
        <ele>81.3</ele>
        <time>2022-07-14T06:42:31Z</time>
      </trkpt>
      <trkpt lat="44.80087" lon="0.41939">
        <ele>81.1</ele>
        <time>2022-07-14T06:42:33Z</time>
      </trkpt>
      <trkpt lat="44.80082" lon="0.41933">
        <ele>81.6</ele>
        <time>2022-07-14T06:42:34Z</time>
      </trkpt>
      <trkpt lat="44.80076" lon="0.41927">
        <ele>81.6</ele>
        <time>2022-07-14T06:42:35Z</time>
      </trkpt>
      <trkpt lat="44.80067" lon="0.41917">
        <ele>83</ele>
        <time>2022-07-14T06:42:37Z</time>
      </trkpt>
      <trkpt lat="44.80068" lon="0.41914">
        <ele>83</ele>
        <time>2022-07-14T06:42:38Z</time>
      </trkpt>
      <trkpt lat="44.80071" lon="0.4191">
        <ele>83</ele>
        <time>2022-07-14T06:42:39Z</time>
      </trkpt>
      <trkpt lat="44.80077" lon="0.41911">
        <ele>82.5</ele>
        <time>2022-07-14T06:42:41Z</time>
      </trkpt>
      <trkpt lat="44.80083" lon="0.41909">
        <ele>82.5</ele>
        <time>2022-07-14T06:42:43Z</time>
      </trkpt>
      <trkpt lat="44.80085" lon="0.419">
        <ele>83</ele>
        <time>2022-07-14T06:42:45Z</time>
      </trkpt>
      <trkpt lat="44.80085" lon="0.41892">
        <ele>83</ele>
        <time>2022-07-14T06:42:47Z</time>
      </trkpt>
      <trkpt lat="44.80083" lon="0.41883">
        <ele>85</ele>
        <time>2022-07-14T06:42:49Z</time>
      </trkpt>
      <trkpt lat="44.80081" lon="0.4188">
        <ele>85</ele>
        <time>2022-07-14T06:42:50Z</time>
      </trkpt>
      <trkpt lat="44.80078" lon="0.41877">
        <ele>85</ele>
        <time>2022-07-14T06:42:51Z</time>
      </trkpt>
      <trkpt lat="44.80076" lon="0.41874">
        <ele>85</ele>
        <time>2022-07-14T06:42:52Z</time>
      </trkpt>
      <trkpt lat="44.80073" lon="0.41873">
        <ele>85</ele>
        <time>2022-07-14T06:42:53Z</time>
      </trkpt>
      <trkpt lat="44.80072" lon="0.41871">
        <ele>85.7</ele>
        <time>2022-07-14T06:42:55Z</time>
      </trkpt>
      <trkpt lat="44.8007" lon="0.41869">
        <ele>85.7</ele>
        <time>2022-07-14T06:42:56Z</time>
      </trkpt>
      <trkpt lat="44.80069" lon="0.41867">
        <ele>87.1</ele>
        <time>2022-07-14T06:42:57Z</time>
      </trkpt>
      <trkpt lat="44.80069" lon="0.4186">
        <ele>87.1</ele>
        <time>2022-07-14T06:42:59Z</time>
      </trkpt>
      <trkpt lat="44.80068" lon="0.41853">
        <ele>87.1</ele>
        <time>2022-07-14T06:43:01Z</time>
      </trkpt>
      <trkpt lat="44.80066" lon="0.41847">
        <ele>88.6</ele>
        <time>2022-07-14T06:43:03Z</time>
      </trkpt>
      <trkpt lat="44.80064" lon="0.41844">
        <ele>88.6</ele>
        <time>2022-07-14T06:43:04Z</time>
      </trkpt>
      <trkpt lat="44.80063" lon="0.41842">
        <ele>88.6</ele>
        <time>2022-07-14T06:43:05Z</time>
      </trkpt>
      <trkpt lat="44.80062" lon="0.41836">
        <ele>88.6</ele>
        <time>2022-07-14T06:43:07Z</time>
      </trkpt>
      <trkpt lat="44.80062" lon="0.41834">
        <ele>88.6</ele>
        <time>2022-07-14T06:43:08Z</time>
      </trkpt>
      <trkpt lat="44.8006" lon="0.41832">
        <ele>90.2</ele>
        <time>2022-07-14T06:43:09Z</time>
      </trkpt>
      <trkpt lat="44.80058" lon="0.41827">
        <ele>91.3</ele>
        <time>2022-07-14T06:43:11Z</time>
      </trkpt>
      <trkpt lat="44.80056" lon="0.41824">
        <ele>91.3</ele>
        <time>2022-07-14T06:43:12Z</time>
      </trkpt>
      <trkpt lat="44.80056" lon="0.41822">
        <ele>91.3</ele>
        <time>2022-07-14T06:43:13Z</time>
      </trkpt>
      <trkpt lat="44.80053" lon="0.41817">
        <ele>92.6</ele>
        <time>2022-07-14T06:43:15Z</time>
      </trkpt>
      <trkpt lat="44.80052" lon="0.41813">
        <ele>92.6</ele>
        <time>2022-07-14T06:43:17Z</time>
      </trkpt>
      <trkpt lat="44.80051" lon="0.4181">
        <ele>92.6</ele>
        <time>2022-07-14T06:43:19Z</time>
      </trkpt>
      <trkpt lat="44.80048" lon="0.41806">
        <ele>92.6</ele>
        <time>2022-07-14T06:43:21Z</time>
      </trkpt>
      <trkpt lat="44.80048" lon="0.41805">
        <ele>92.6</ele>
        <time>2022-07-14T06:43:22Z</time>
      </trkpt>
      <trkpt lat="44.80047" lon="0.41805">
        <ele>93.5</ele>
        <time>2022-07-14T06:43:23Z</time>
      </trkpt>
      <trkpt lat="44.80046" lon="0.418">
        <ele>93.5</ele>
        <time>2022-07-14T06:43:25Z</time>
      </trkpt>
      <trkpt lat="44.80046" lon="0.41797">
        <ele>94.9</ele>
        <time>2022-07-14T06:43:26Z</time>
      </trkpt>
      <trkpt lat="44.80046" lon="0.41796">
        <ele>94.9</ele>
        <time>2022-07-14T06:43:27Z</time>
      </trkpt>
      <trkpt lat="44.80045" lon="0.41792">
        <ele>94.9</ele>
        <time>2022-07-14T06:43:29Z</time>
      </trkpt>
      <trkpt lat="44.80044" lon="0.41788">
        <ele>94.9</ele>
        <time>2022-07-14T06:43:31Z</time>
      </trkpt>
      <trkpt lat="44.80044" lon="0.41786">
        <ele>94.9</ele>
        <time>2022-07-14T06:43:33Z</time>
      </trkpt>
      <trkpt lat="44.80043" lon="0.41784">
        <ele>94.9</ele>
        <time>2022-07-14T06:43:35Z</time>
      </trkpt>
      <trkpt lat="44.80043" lon="0.41784">
        <ele>94.9</ele>
        <time>2022-07-14T06:43:36Z</time>
      </trkpt>
      <trkpt lat="44.80043" lon="0.41782">
        <ele>96.6</ele>
        <time>2022-07-14T06:43:37Z</time>
      </trkpt>
      <trkpt lat="44.80041" lon="0.41778">
        <ele>96.6</ele>
        <time>2022-07-14T06:43:39Z</time>
      </trkpt>
      <trkpt lat="44.8004" lon="0.41774">
        <ele>96.6</ele>
        <time>2022-07-14T06:43:41Z</time>
      </trkpt>
      <trkpt lat="44.80037" lon="0.41771">
        <ele>96.6</ele>
        <time>2022-07-14T06:43:43Z</time>
      </trkpt>
      <trkpt lat="44.80035" lon="0.41767">
        <ele>97.5</ele>
        <time>2022-07-14T06:43:45Z</time>
      </trkpt>
      <trkpt lat="44.80035" lon="0.41764">
        <ele>98.8</ele>
        <time>2022-07-14T06:43:46Z</time>
      </trkpt>
      <trkpt lat="44.80034" lon="0.41761">
        <ele>98.8</ele>
        <time>2022-07-14T06:43:47Z</time>
      </trkpt>
      <trkpt lat="44.80034" lon="0.41759">
        <ele>98.8</ele>
        <time>2022-07-14T06:43:48Z</time>
      </trkpt>
      <trkpt lat="44.80034" lon="0.41757">
        <ele>98.8</ele>
        <time>2022-07-14T06:43:49Z</time>
      </trkpt>
      <trkpt lat="44.80033" lon="0.41752">
        <ele>98.8</ele>
        <time>2022-07-14T06:43:51Z</time>
      </trkpt>
      <trkpt lat="44.80031" lon="0.41747">
        <ele>99.9</ele>
        <time>2022-07-14T06:43:53Z</time>
      </trkpt>
      <trkpt lat="44.80031" lon="0.41745">
        <ele>99.9</ele>
        <time>2022-07-14T06:43:54Z</time>
      </trkpt>
      <trkpt lat="44.8003" lon="0.41743">
        <ele>99.9</ele>
        <time>2022-07-14T06:43:55Z</time>
      </trkpt>
      <trkpt lat="44.8003" lon="0.41738">
        <ele>99.9</ele>
        <time>2022-07-14T06:43:57Z</time>
      </trkpt>
      <trkpt lat="44.8003" lon="0.41734">
        <ele>99.9</ele>
        <time>2022-07-14T06:43:59Z</time>
      </trkpt>
      <trkpt lat="44.8003" lon="0.4173">
        <ele>100.5</ele>
        <time>2022-07-14T06:44:01Z</time>
      </trkpt>
      <trkpt lat="44.8003" lon="0.41725">
        <ele>100.5</ele>
        <time>2022-07-14T06:44:03Z</time>
      </trkpt>
      <trkpt lat="44.80031" lon="0.41722">
        <ele>100.5</ele>
        <time>2022-07-14T06:44:05Z</time>
      </trkpt>
      <trkpt lat="44.80031" lon="0.41717">
        <ele>100.5</ele>
        <time>2022-07-14T06:44:07Z</time>
      </trkpt>
      <trkpt lat="44.80031" lon="0.41712">
        <ele>100.8</ele>
        <time>2022-07-14T06:44:09Z</time>
      </trkpt>
      <trkpt lat="44.80031" lon="0.41709">
        <ele>100.8</ele>
        <time>2022-07-14T06:44:10Z</time>
      </trkpt>
      <trkpt lat="44.80031" lon="0.41707">
        <ele>100.8</ele>
        <time>2022-07-14T06:44:11Z</time>
      </trkpt>
      <trkpt lat="44.80031" lon="0.41704">
        <ele>100.8</ele>
        <time>2022-07-14T06:44:13Z</time>
      </trkpt>
      <trkpt lat="44.80031" lon="0.417">
        <ele>100.8</ele>
        <time>2022-07-14T06:44:15Z</time>
      </trkpt>
      <trkpt lat="44.8003" lon="0.41697">
        <ele>100.8</ele>
        <time>2022-07-14T06:44:17Z</time>
      </trkpt>
      <trkpt lat="44.80029" lon="0.41692">
        <ele>100.9</ele>
        <time>2022-07-14T06:44:19Z</time>
      </trkpt>
      <trkpt lat="44.80029" lon="0.41683">
        <ele>100.9</ele>
        <time>2022-07-14T06:44:21Z</time>
      </trkpt>
      <trkpt lat="44.80029" lon="0.41678">
        <ele>100.7</ele>
        <time>2022-07-14T06:44:23Z</time>
      </trkpt>
      <trkpt lat="44.80028" lon="0.41675">
        <ele>100.7</ele>
        <time>2022-07-14T06:44:25Z</time>
      </trkpt>
      <trkpt lat="44.80027" lon="0.41672">
        <ele>100.7</ele>
        <time>2022-07-14T06:44:27Z</time>
      </trkpt>
      <trkpt lat="44.80026" lon="0.41668">
        <ele>100.7</ele>
        <time>2022-07-14T06:44:29Z</time>
      </trkpt>
      <trkpt lat="44.80026" lon="0.41665">
        <ele>100.7</ele>
        <time>2022-07-14T06:44:31Z</time>
      </trkpt>
      <trkpt lat="44.80026" lon="0.41663">
        <ele>100.7</ele>
        <time>2022-07-14T06:44:32Z</time>
      </trkpt>
      <trkpt lat="44.80025" lon="0.41661">
        <ele>100.3</ele>
        <time>2022-07-14T06:44:33Z</time>
      </trkpt>
      <trkpt lat="44.80025" lon="0.41656">
        <ele>100.3</ele>
        <time>2022-07-14T06:44:35Z</time>
      </trkpt>
      <trkpt lat="44.80025" lon="0.41652">
        <ele>100.3</ele>
        <time>2022-07-14T06:44:37Z</time>
      </trkpt>
      <trkpt lat="44.80025" lon="0.4165">
        <ele>100.3</ele>
        <time>2022-07-14T06:44:38Z</time>
      </trkpt>
      <trkpt lat="44.80025" lon="0.41647">
        <ele>100.3</ele>
        <time>2022-07-14T06:44:39Z</time>
      </trkpt>
      <trkpt lat="44.80025" lon="0.41643">
        <ele>99.9</ele>
        <time>2022-07-14T06:44:41Z</time>
      </trkpt>
      <trkpt lat="44.80026" lon="0.41635">
        <ele>99.9</ele>
        <time>2022-07-14T06:44:43Z</time>
      </trkpt>
      <trkpt lat="44.80025" lon="0.41632">
        <ele>99.9</ele>
        <time>2022-07-14T06:44:44Z</time>
      </trkpt>
      <trkpt lat="44.80025" lon="0.41629">
        <ele>99.9</ele>
        <time>2022-07-14T06:44:45Z</time>
      </trkpt>
      <trkpt lat="44.80027" lon="0.41623">
        <ele>99.6</ele>
        <time>2022-07-14T06:44:47Z</time>
      </trkpt>
      <trkpt lat="44.80029" lon="0.4162">
        <ele>99.6</ele>
        <time>2022-07-14T06:44:48Z</time>
      </trkpt>
      <trkpt lat="44.80032" lon="0.41619">
        <ele>99.6</ele>
        <time>2022-07-14T06:44:49Z</time>
      </trkpt>
      <trkpt lat="44.80037" lon="0.4162">
        <ele>99.3</ele>
        <time>2022-07-14T06:44:51Z</time>
      </trkpt>
      <trkpt lat="44.80039" lon="0.4162">
        <ele>99.3</ele>
        <time>2022-07-14T06:44:52Z</time>
      </trkpt>
      <trkpt lat="44.80042" lon="0.4162">
        <ele>99.3</ele>
        <time>2022-07-14T06:44:53Z</time>
      </trkpt>
      <trkpt lat="44.80048" lon="0.41619">
        <ele>98.7</ele>
        <time>2022-07-14T06:44:55Z</time>
      </trkpt>
      <trkpt lat="44.80053" lon="0.41618">
        <ele>98.7</ele>
        <time>2022-07-14T06:44:57Z</time>
      </trkpt>
      <trkpt lat="44.80059" lon="0.41615">
        <ele>98.7</ele>
        <time>2022-07-14T06:44:59Z</time>
      </trkpt>
      <trkpt lat="44.80064" lon="0.41614">
        <ele>97.8</ele>
        <time>2022-07-14T06:45:00Z</time>
      </trkpt>
      <trkpt lat="44.80069" lon="0.41613">
        <ele>97.8</ele>
        <time>2022-07-14T06:45:01Z</time>
      </trkpt>
      <trkpt lat="44.80079" lon="0.41612">
        <ele>96.9</ele>
        <time>2022-07-14T06:45:03Z</time>
      </trkpt>
      <trkpt lat="44.80083" lon="0.4161">
        <ele>96.6</ele>
        <time>2022-07-14T06:45:04Z</time>
      </trkpt>
      <trkpt lat="44.80088" lon="0.41608">
        <ele>95.6</ele>
        <time>2022-07-14T06:45:05Z</time>
      </trkpt>
      <trkpt lat="44.80098" lon="0.41604">
        <ele>94.8</ele>
        <time>2022-07-14T06:45:07Z</time>
      </trkpt>
      <trkpt lat="44.80108" lon="0.416">
        <ele>94.8</ele>
        <time>2022-07-14T06:45:09Z</time>
      </trkpt>
      <trkpt lat="44.80119" lon="0.41598">
        <ele>93.8</ele>
        <time>2022-07-14T06:45:11Z</time>
      </trkpt>
      <trkpt lat="44.80129" lon="0.41594">
        <ele>92.9</ele>
        <time>2022-07-14T06:45:13Z</time>
      </trkpt>
      <trkpt lat="44.8014" lon="0.41591">
        <ele>92.7</ele>
        <time>2022-07-14T06:45:15Z</time>
      </trkpt>
      <trkpt lat="44.80149" lon="0.41586">
        <ele>92.4</ele>
        <time>2022-07-14T06:45:17Z</time>
      </trkpt>
      <trkpt lat="44.80159" lon="0.4158">
        <ele>92.1</ele>
        <time>2022-07-14T06:45:19Z</time>
      </trkpt>
      <trkpt lat="44.80169" lon="0.41575">
        <ele>92.4</ele>
        <time>2022-07-14T06:45:21Z</time>
      </trkpt>
      <trkpt lat="44.80179" lon="0.41571">
        <ele>92.2</ele>
        <time>2022-07-14T06:45:23Z</time>
      </trkpt>
      <trkpt lat="44.80184" lon="0.4157">
        <ele>92.1</ele>
        <time>2022-07-14T06:45:24Z</time>
      </trkpt>
      <trkpt lat="44.80189" lon="0.41568">
        <ele>92.1</ele>
        <time>2022-07-14T06:45:25Z</time>
      </trkpt>
      <trkpt lat="44.80199" lon="0.41564">
        <ele>91.7</ele>
        <time>2022-07-14T06:45:27Z</time>
      </trkpt>
      <trkpt lat="44.80209" lon="0.41561">
        <ele>91.1</ele>
        <time>2022-07-14T06:45:29Z</time>
      </trkpt>
      <trkpt lat="44.80219" lon="0.41558">
        <ele>90.1</ele>
        <time>2022-07-14T06:45:31Z</time>
      </trkpt>
      <trkpt lat="44.8023" lon="0.41553">
        <ele>90.1</ele>
        <time>2022-07-14T06:45:33Z</time>
      </trkpt>
      <trkpt lat="44.80235" lon="0.4155">
        <ele>89.2</ele>
        <time>2022-07-14T06:45:34Z</time>
      </trkpt>
      <trkpt lat="44.80239" lon="0.41545">
        <ele>89.2</ele>
        <time>2022-07-14T06:45:35Z</time>
      </trkpt>
      <trkpt lat="44.80241" lon="0.41539">
        <ele>88.8</ele>
        <time>2022-07-14T06:45:36Z</time>
      </trkpt>
      <trkpt lat="44.80244" lon="0.41534">
        <ele>88.2</ele>
        <time>2022-07-14T06:45:37Z</time>
      </trkpt>
      <trkpt lat="44.80248" lon="0.41532">
        <ele>88.2</ele>
        <time>2022-07-14T06:45:38Z</time>
      </trkpt>
      <trkpt lat="44.80252" lon="0.41533">
        <ele>88.2</ele>
        <time>2022-07-14T06:45:39Z</time>
      </trkpt>
      <trkpt lat="44.80256" lon="0.41531">
        <ele>87.8</ele>
        <time>2022-07-14T06:45:40Z</time>
      </trkpt>
      <trkpt lat="44.80261" lon="0.41529">
        <ele>87.8</ele>
        <time>2022-07-14T06:45:41Z</time>
      </trkpt>
      <trkpt lat="44.80273" lon="0.41525">
        <ele>86.9</ele>
        <time>2022-07-14T06:45:43Z</time>
      </trkpt>
      <trkpt lat="44.8028" lon="0.41522">
        <ele>86.6</ele>
        <time>2022-07-14T06:45:44Z</time>
      </trkpt>
      <trkpt lat="44.80287" lon="0.41518">
        <ele>86.6</ele>
        <time>2022-07-14T06:45:45Z</time>
      </trkpt>
      <trkpt lat="44.80302" lon="0.41512">
        <ele>86.1</ele>
        <time>2022-07-14T06:45:47Z</time>
      </trkpt>
      <trkpt lat="44.80314" lon="0.41507">
        <ele>84</ele>
        <time>2022-07-14T06:45:49Z</time>
      </trkpt>
      <trkpt lat="44.80317" lon="0.41504">
        <ele>82.9</ele>
        <time>2022-07-14T06:45:50Z</time>
      </trkpt>
      <trkpt lat="44.80319" lon="0.41498">
        <ele>82.9</ele>
        <time>2022-07-14T06:45:51Z</time>
      </trkpt>
      <trkpt lat="44.80319" lon="0.41492">
        <ele>82.9</ele>
        <time>2022-07-14T06:45:52Z</time>
      </trkpt>
      <trkpt lat="44.80318" lon="0.41488">
        <ele>81.8</ele>
        <time>2022-07-14T06:45:53Z</time>
      </trkpt>
      <trkpt lat="44.80315" lon="0.41479">
        <ele>82.7</ele>
        <time>2022-07-14T06:45:55Z</time>
      </trkpt>
      <trkpt lat="44.80312" lon="0.41471">
        <ele>81</ele>
        <time>2022-07-14T06:45:57Z</time>
      </trkpt>
      <trkpt lat="44.8031" lon="0.41462">
        <ele>81</ele>
        <time>2022-07-14T06:45:59Z</time>
      </trkpt>
      <trkpt lat="44.80308" lon="0.41453">
        <ele>79.2</ele>
        <time>2022-07-14T06:46:01Z</time>
      </trkpt>
      <trkpt lat="44.80307" lon="0.41444">
        <ele>79.2</ele>
        <time>2022-07-14T06:46:03Z</time>
      </trkpt>
      <trkpt lat="44.80306" lon="0.41439">
        <ele>77.2</ele>
        <time>2022-07-14T06:46:04Z</time>
      </trkpt>
      <trkpt lat="44.80305" lon="0.41434">
        <ele>77.2</ele>
        <time>2022-07-14T06:46:05Z</time>
      </trkpt>
      <trkpt lat="44.80303" lon="0.41424">
        <ele>77.3</ele>
        <time>2022-07-14T06:46:07Z</time>
      </trkpt>
      <trkpt lat="44.80301" lon="0.41413">
        <ele>75.4</ele>
        <time>2022-07-14T06:46:09Z</time>
      </trkpt>
      <trkpt lat="44.80298" lon="0.41402">
        <ele>73.9</ele>
        <time>2022-07-14T06:46:11Z</time>
      </trkpt>
      <trkpt lat="44.80297" lon="0.41396">
        <ele>73.9</ele>
        <time>2022-07-14T06:46:12Z</time>
      </trkpt>
      <trkpt lat="44.80295" lon="0.4139">
        <ele>73.9</ele>
        <time>2022-07-14T06:46:13Z</time>
      </trkpt>
      <trkpt lat="44.80292" lon="0.41378">
        <ele>72.5</ele>
        <time>2022-07-14T06:46:15Z</time>
      </trkpt>
      <trkpt lat="44.80297" lon="0.41365">
        <ele>71.7</ele>
        <time>2022-07-14T06:46:17Z</time>
      </trkpt>
      <trkpt lat="44.80308" lon="0.41355">
        <ele>71.1</ele>
        <time>2022-07-14T06:46:19Z</time>
      </trkpt>
      <trkpt lat="44.80314" lon="0.41351">
        <ele>70.5</ele>
        <time>2022-07-14T06:46:20Z</time>
      </trkpt>
      <trkpt lat="44.8032" lon="0.41345">
        <ele>70.1</ele>
        <time>2022-07-14T06:46:21Z</time>
      </trkpt>
      <trkpt lat="44.80328" lon="0.41341">
        <ele>69.8</ele>
        <time>2022-07-14T06:46:22Z</time>
      </trkpt>
      <trkpt lat="44.80335" lon="0.41338">
        <ele>69.8</ele>
        <time>2022-07-14T06:46:23Z</time>
      </trkpt>
      <trkpt lat="44.8035" lon="0.41331">
        <ele>68.3</ele>
        <time>2022-07-14T06:46:25Z</time>
      </trkpt>
      <trkpt lat="44.80367" lon="0.41326">
        <ele>67</ele>
        <time>2022-07-14T06:46:27Z</time>
      </trkpt>
      <trkpt lat="44.80377" lon="0.41324">
        <ele>66.8</ele>
        <time>2022-07-14T06:46:28Z</time>
      </trkpt>
      <trkpt lat="44.80387" lon="0.41322">
        <ele>66.8</ele>
        <time>2022-07-14T06:46:29Z</time>
      </trkpt>
      <trkpt lat="44.80406" lon="0.41315">
        <ele>66</ele>
        <time>2022-07-14T06:46:31Z</time>
      </trkpt>
      <trkpt lat="44.8042" lon="0.41312">
        <ele>65.3</ele>
        <time>2022-07-14T06:46:33Z</time>
      </trkpt>
      <trkpt lat="44.80424" lon="0.41307">
        <ele>65.3</ele>
        <time>2022-07-14T06:46:35Z</time>
      </trkpt>
      <trkpt lat="44.80421" lon="0.41298">
        <ele>64.5</ele>
        <time>2022-07-14T06:46:37Z</time>
      </trkpt>
      <trkpt lat="44.80419" lon="0.41293">
        <ele>64.5</ele>
        <time>2022-07-14T06:46:38Z</time>
      </trkpt>
      <trkpt lat="44.80417" lon="0.41287">
        <ele>64.5</ele>
        <time>2022-07-14T06:46:39Z</time>
      </trkpt>
      <trkpt lat="44.80413" lon="0.41275">
        <ele>63.8</ele>
        <time>2022-07-14T06:46:41Z</time>
      </trkpt>
      <trkpt lat="44.80408" lon="0.41261">
        <ele>63.8</ele>
        <time>2022-07-14T06:46:43Z</time>
      </trkpt>
      <trkpt lat="44.80403" lon="0.41243">
        <ele>63.3</ele>
        <time>2022-07-14T06:46:45Z</time>
      </trkpt>
      <trkpt lat="44.80397" lon="0.41222">
        <ele>63.4</ele>
        <time>2022-07-14T06:46:47Z</time>
      </trkpt>
      <trkpt lat="44.80395" lon="0.41206">
        <ele>63.3</ele>
        <time>2022-07-14T06:46:49Z</time>
      </trkpt>
      <trkpt lat="44.8039" lon="0.41205">
        <ele>63.7</ele>
        <time>2022-07-14T06:46:50Z</time>
      </trkpt>
      <trkpt lat="44.80387" lon="0.41203">
        <ele>63.9</ele>
        <time>2022-07-14T06:46:51Z</time>
      </trkpt>
      <trkpt lat="44.80378" lon="0.412">
        <ele>64.5</ele>
        <time>2022-07-14T06:46:53Z</time>
      </trkpt>
      <trkpt lat="44.80371" lon="0.412">
        <ele>65.1</ele>
        <time>2022-07-14T06:46:55Z</time>
      </trkpt>
      <trkpt lat="44.80365" lon="0.41199">
        <ele>65.5</ele>
        <time>2022-07-14T06:46:57Z</time>
      </trkpt>
      <trkpt lat="44.80364" lon="0.41199">
        <ele>65.6</ele>
        <time>2022-07-14T06:46:59Z</time>
      </trkpt>
      <trkpt lat="44.80364" lon="0.41198">
        <ele>65.7</ele>
        <time>2022-07-14T06:47:00Z</time>
      </trkpt>
      <trkpt lat="44.80362" lon="0.41196">
        <ele>65.8</ele>
        <time>2022-07-14T06:47:01Z</time>
      </trkpt>
      <trkpt lat="44.8036" lon="0.41193">
        <ele>66.1</ele>
        <time>2022-07-14T06:47:03Z</time>
      </trkpt>
      <trkpt lat="44.80357" lon="0.41189">
        <ele>66.5</ele>
        <time>2022-07-14T06:47:05Z</time>
      </trkpt>
      <trkpt lat="44.80356" lon="0.41186">
        <ele>66.7</ele>
        <time>2022-07-14T06:47:06Z</time>
      </trkpt>
      <trkpt lat="44.80356" lon="0.41183">
        <ele>66.9</ele>
        <time>2022-07-14T06:47:07Z</time>
      </trkpt>
      <trkpt lat="44.80354" lon="0.41177">
        <ele>67.3</ele>
        <time>2022-07-14T06:47:09Z</time>
      </trkpt>
      <trkpt lat="44.80353" lon="0.4117">
        <ele>67.7</ele>
        <time>2022-07-14T06:47:11Z</time>
      </trkpt>
      <trkpt lat="44.80352" lon="0.41164">
        <ele>68</ele>
        <time>2022-07-14T06:47:13Z</time>
      </trkpt>
      <trkpt lat="44.80351" lon="0.41157">
        <ele>68.3</ele>
        <time>2022-07-14T06:47:15Z</time>
      </trkpt>
      <trkpt lat="44.80352" lon="0.4115">
        <ele>68.5</ele>
        <time>2022-07-14T06:47:17Z</time>
      </trkpt>
      <trkpt lat="44.80353" lon="0.41144">
        <ele>68.6</ele>
        <time>2022-07-14T06:47:19Z</time>
      </trkpt>
      <trkpt lat="44.80355" lon="0.41136">
        <ele>68.7</ele>
        <time>2022-07-14T06:47:21Z</time>
      </trkpt>
      <trkpt lat="44.80355" lon="0.41132">
        <ele>68.7</ele>
        <time>2022-07-14T06:47:22Z</time>
      </trkpt>
      <trkpt lat="44.80356" lon="0.41128">
        <ele>68.7</ele>
        <time>2022-07-14T06:47:23Z</time>
      </trkpt>
      <trkpt lat="44.80357" lon="0.4112">
        <ele>68.6</ele>
        <time>2022-07-14T06:47:25Z</time>
      </trkpt>
      <trkpt lat="44.80359" lon="0.41111">
        <ele>68.4</ele>
        <time>2022-07-14T06:47:27Z</time>
      </trkpt>
      <trkpt lat="44.80361" lon="0.41101">
        <ele>68.1</ele>
        <time>2022-07-14T06:47:29Z</time>
      </trkpt>
      <trkpt lat="44.80362" lon="0.41095">
        <ele>67.9</ele>
        <time>2022-07-14T06:47:30Z</time>
      </trkpt>
      <trkpt lat="44.80363" lon="0.4109">
        <ele>67.7</ele>
        <time>2022-07-14T06:47:31Z</time>
      </trkpt>
      <trkpt lat="44.80364" lon="0.41078">
        <ele>67.3</ele>
        <time>2022-07-14T06:47:33Z</time>
      </trkpt>
      <trkpt lat="44.80367" lon="0.41065">
        <ele>66.8</ele>
        <time>2022-07-14T06:47:35Z</time>
      </trkpt>
      <trkpt lat="44.80369" lon="0.41052">
        <ele>66.3</ele>
        <time>2022-07-14T06:47:37Z</time>
      </trkpt>
      <trkpt lat="44.80372" lon="0.41038">
        <ele>65.7</ele>
        <time>2022-07-14T06:47:39Z</time>
      </trkpt>
      <trkpt lat="44.80375" lon="0.41023">
        <ele>65.2</ele>
        <time>2022-07-14T06:47:41Z</time>
      </trkpt>
      <trkpt lat="44.80377" lon="0.41016">
        <ele>64.9</ele>
        <time>2022-07-14T06:47:42Z</time>
      </trkpt>
      <trkpt lat="44.80378" lon="0.41009">
        <ele>64.7</ele>
        <time>2022-07-14T06:47:43Z</time>
      </trkpt>
      <trkpt lat="44.8038" lon="0.40992">
        <ele>64.4</ele>
        <time>2022-07-14T06:47:45Z</time>
      </trkpt>
      <trkpt lat="44.80381" lon="0.40977">
        <ele>64.2</ele>
        <time>2022-07-14T06:47:47Z</time>
      </trkpt>
      <trkpt lat="44.80381" lon="0.4097">
        <ele>64.2</ele>
        <time>2022-07-14T06:47:48Z</time>
      </trkpt>
      <trkpt lat="44.80381" lon="0.40962">
        <ele>64.1</ele>
        <time>2022-07-14T06:47:49Z</time>
      </trkpt>
      <trkpt lat="44.8038" lon="0.40949">
        <ele>64.1</ele>
        <time>2022-07-14T06:47:51Z</time>
      </trkpt>
      <trkpt lat="44.80378" lon="0.40942">
        <ele>64.1</ele>
        <time>2022-07-14T06:47:52Z</time>
      </trkpt>
      <trkpt lat="44.80377" lon="0.40935">
        <ele>64.1</ele>
        <time>2022-07-14T06:47:53Z</time>
      </trkpt>
      <trkpt lat="44.80374" lon="0.40922">
        <ele>64</ele>
        <time>2022-07-14T06:47:55Z</time>
      </trkpt>
      <trkpt lat="44.80371" lon="0.40909">
        <ele>64</ele>
        <time>2022-07-14T06:47:57Z</time>
      </trkpt>
      <trkpt lat="44.80365" lon="0.40897">
        <ele>64</ele>
        <time>2022-07-14T06:47:59Z</time>
      </trkpt>
      <trkpt lat="44.80361" lon="0.40882">
        <ele>64.2</ele>
        <time>2022-07-14T06:48:01Z</time>
      </trkpt>
      <trkpt lat="44.80358" lon="0.40868">
        <ele>64.3</ele>
        <time>2022-07-14T06:48:03Z</time>
      </trkpt>
      <trkpt lat="44.80356" lon="0.40853">
        <ele>64.5</ele>
        <time>2022-07-14T06:48:05Z</time>
      </trkpt>
      <trkpt lat="44.80355" lon="0.40845">
        <ele>65.1</ele>
        <time>2022-07-14T06:48:06Z</time>
      </trkpt>
      <trkpt lat="44.80354" lon="0.40838">
        <ele>65.8</ele>
        <time>2022-07-14T06:48:07Z</time>
      </trkpt>
      <trkpt lat="44.80352" lon="0.40823">
        <ele>67.1</ele>
        <time>2022-07-14T06:48:09Z</time>
      </trkpt>
      <trkpt lat="44.80349" lon="0.40807">
        <ele>67.5</ele>
        <time>2022-07-14T06:48:11Z</time>
      </trkpt>
      <trkpt lat="44.80348" lon="0.40799">
        <ele>67.5</ele>
        <time>2022-07-14T06:48:12Z</time>
      </trkpt>
      <trkpt lat="44.80347" lon="0.40791">
        <ele>67.5</ele>
        <time>2022-07-14T06:48:13Z</time>
      </trkpt>
      <trkpt lat="44.80344" lon="0.40776">
        <ele>64.2</ele>
        <time>2022-07-14T06:48:15Z</time>
      </trkpt>
      <trkpt lat="44.80343" lon="0.40772">
        <ele>63</ele>
        <time>2022-07-14T06:48:16Z</time>
      </trkpt>
      <trkpt lat="44.80348" lon="0.40768">
        <ele>61.6</ele>
        <time>2022-07-14T06:48:17Z</time>
      </trkpt>
      <trkpt lat="44.80358" lon="0.40769">
        <ele>60.8</ele>
        <time>2022-07-14T06:48:19Z</time>
      </trkpt>
      <trkpt lat="44.80371" lon="0.4077">
        <ele>59.7</ele>
        <time>2022-07-14T06:48:21Z</time>
      </trkpt>
      <trkpt lat="44.80384" lon="0.40771">
        <ele>58.5</ele>
        <time>2022-07-14T06:48:23Z</time>
      </trkpt>
      <trkpt lat="44.80391" lon="0.40772">
        <ele>57.9</ele>
        <time>2022-07-14T06:48:24Z</time>
      </trkpt>
      <trkpt lat="44.80398" lon="0.40773">
        <ele>57.3</ele>
        <time>2022-07-14T06:48:25Z</time>
      </trkpt>
      <trkpt lat="44.80414" lon="0.40774">
        <ele>56</ele>
        <time>2022-07-14T06:48:27Z</time>
      </trkpt>
      <trkpt lat="44.8043" lon="0.40774">
        <ele>55.7</ele>
        <time>2022-07-14T06:48:29Z</time>
      </trkpt>
      <trkpt lat="44.80439" lon="0.40774">
        <ele>55.3</ele>
        <time>2022-07-14T06:48:30Z</time>
      </trkpt>
      <trkpt lat="44.80447" lon="0.40775">
        <ele>54.9</ele>
        <time>2022-07-14T06:48:31Z</time>
      </trkpt>
      <trkpt lat="44.80464" lon="0.40777">
        <ele>54.2</ele>
        <time>2022-07-14T06:48:33Z</time>
      </trkpt>
      <trkpt lat="44.80481" lon="0.40778">
        <ele>53.7</ele>
        <time>2022-07-14T06:48:35Z</time>
      </trkpt>
      <trkpt lat="44.80496" lon="0.4078">
        <ele>53.4</ele>
        <time>2022-07-14T06:48:37Z</time>
      </trkpt>
      <trkpt lat="44.80511" lon="0.40779">
        <ele>53.3</ele>
        <time>2022-07-14T06:48:39Z</time>
      </trkpt>
      <trkpt lat="44.80518" lon="0.40779">
        <ele>53.2</ele>
        <time>2022-07-14T06:48:40Z</time>
      </trkpt>
      <trkpt lat="44.80525" lon="0.40776">
        <ele>53.2</ele>
        <time>2022-07-14T06:48:41Z</time>
      </trkpt>
      <trkpt lat="44.80538" lon="0.40771">
        <ele>53.2</ele>
        <time>2022-07-14T06:48:43Z</time>
      </trkpt>
      <trkpt lat="44.80551" lon="0.40766">
        <ele>53.3</ele>
        <time>2022-07-14T06:48:45Z</time>
      </trkpt>
      <trkpt lat="44.80565" lon="0.40765">
        <ele>53.4</ele>
        <time>2022-07-14T06:48:47Z</time>
      </trkpt>
      <trkpt lat="44.80572" lon="0.40765">
        <ele>53.4</ele>
        <time>2022-07-14T06:48:48Z</time>
      </trkpt>
      <trkpt lat="44.80578" lon="0.40765">
        <ele>53.4</ele>
        <time>2022-07-14T06:48:49Z</time>
      </trkpt>
      <trkpt lat="44.8059" lon="0.40767">
        <ele>53.4</ele>
        <time>2022-07-14T06:48:51Z</time>
      </trkpt>
      <trkpt lat="44.80603" lon="0.40768">
        <ele>53.3</ele>
        <time>2022-07-14T06:48:53Z</time>
      </trkpt>
      <trkpt lat="44.80617" lon="0.40769">
        <ele>53.2</ele>
        <time>2022-07-14T06:48:55Z</time>
      </trkpt>
      <trkpt lat="44.80629" lon="0.40767">
        <ele>53.2</ele>
        <time>2022-07-14T06:48:57Z</time>
      </trkpt>
      <trkpt lat="44.80642" lon="0.4076">
        <ele>53</ele>
        <time>2022-07-14T06:48:59Z</time>
      </trkpt>
      <trkpt lat="44.80652" lon="0.40746">
        <ele>52.8</ele>
        <time>2022-07-14T06:49:01Z</time>
      </trkpt>
      <trkpt lat="44.80659" lon="0.40729">
        <ele>52.6</ele>
        <time>2022-07-14T06:49:03Z</time>
      </trkpt>
      <trkpt lat="44.80666" lon="0.40713">
        <ele>52.3</ele>
        <time>2022-07-14T06:49:05Z</time>
      </trkpt>
      <trkpt lat="44.80675" lon="0.40695">
        <ele>52.1</ele>
        <time>2022-07-14T06:49:07Z</time>
      </trkpt>
      <trkpt lat="44.80686" lon="0.40683">
        <ele>51.8</ele>
        <time>2022-07-14T06:49:09Z</time>
      </trkpt>
      <trkpt lat="44.80698" lon="0.40673">
        <ele>51.7</ele>
        <time>2022-07-14T06:49:11Z</time>
      </trkpt>
      <trkpt lat="44.80704" lon="0.40669">
        <ele>51.6</ele>
        <time>2022-07-14T06:49:12Z</time>
      </trkpt>
      <trkpt lat="44.80711" lon="0.40666">
        <ele>51.6</ele>
        <time>2022-07-14T06:49:13Z</time>
      </trkpt>
      <trkpt lat="44.80714" lon="0.40647">
        <ele>51.3</ele>
        <time>2022-07-14T06:49:14Z</time>
      </trkpt>
      <trkpt lat="44.80717" lon="0.40638">
        <ele>51.2</ele>
        <time>2022-07-14T06:49:15Z</time>
      </trkpt>
      <trkpt lat="44.80723" lon="0.40616">
        <ele>51</ele>
        <time>2022-07-14T06:49:17Z</time>
      </trkpt>
      <trkpt lat="44.8073" lon="0.40595">
        <ele>50.7</ele>
        <time>2022-07-14T06:49:19Z</time>
      </trkpt>
      <trkpt lat="44.80736" lon="0.40575">
        <ele>50.5</ele>
        <time>2022-07-14T06:49:21Z</time>
      </trkpt>
      <trkpt lat="44.80739" lon="0.40565">
        <ele>50.3</ele>
        <time>2022-07-14T06:49:22Z</time>
      </trkpt>
      <trkpt lat="44.80742" lon="0.40555">
        <ele>50.2</ele>
        <time>2022-07-14T06:49:23Z</time>
      </trkpt>
      <trkpt lat="44.80748" lon="0.40535">
        <ele>50</ele>
        <time>2022-07-14T06:49:25Z</time>
      </trkpt>
      <trkpt lat="44.80754" lon="0.40515">
        <ele>49.7</ele>
        <time>2022-07-14T06:49:27Z</time>
      </trkpt>
      <trkpt lat="44.80759" lon="0.40497">
        <ele>49.5</ele>
        <time>2022-07-14T06:49:29Z</time>
      </trkpt>
      <trkpt lat="44.80761" lon="0.40488">
        <ele>49.4</ele>
        <time>2022-07-14T06:49:30Z</time>
      </trkpt>
      <trkpt lat="44.80761" lon="0.40479">
        <ele>49.3</ele>
        <time>2022-07-14T06:49:31Z</time>
      </trkpt>
      <trkpt lat="44.8076" lon="0.4047">
        <ele>49.2</ele>
        <time>2022-07-14T06:49:32Z</time>
      </trkpt>
      <trkpt lat="44.80759" lon="0.4046">
        <ele>49.1</ele>
        <time>2022-07-14T06:49:33Z</time>
      </trkpt>
      <trkpt lat="44.80759" lon="0.40451">
        <ele>49</ele>
        <time>2022-07-14T06:49:34Z</time>
      </trkpt>
      <trkpt lat="44.80758" lon="0.40442">
        <ele>48.9</ele>
        <time>2022-07-14T06:49:35Z</time>
      </trkpt>
      <trkpt lat="44.80757" lon="0.40425">
        <ele>48.8</ele>
        <time>2022-07-14T06:49:37Z</time>
      </trkpt>
      <trkpt lat="44.80759" lon="0.40417">
        <ele>48.7</ele>
        <time>2022-07-14T06:49:38Z</time>
      </trkpt>
      <trkpt lat="44.80761" lon="0.40408">
        <ele>48.7</ele>
        <time>2022-07-14T06:49:39Z</time>
      </trkpt>
      <trkpt lat="44.80764" lon="0.40392">
        <ele>48.6</ele>
        <time>2022-07-14T06:49:41Z</time>
      </trkpt>
      <trkpt lat="44.80768" lon="0.40375">
        <ele>48.5</ele>
        <time>2022-07-14T06:49:43Z</time>
      </trkpt>
      <trkpt lat="44.80771" lon="0.40359">
        <ele>48.4</ele>
        <time>2022-07-14T06:49:45Z</time>
      </trkpt>
      <trkpt lat="44.80775" lon="0.40342">
        <ele>48.4</ele>
        <time>2022-07-14T06:49:47Z</time>
      </trkpt>
      <trkpt lat="44.80778" lon="0.40326">
        <ele>48.3</ele>
        <time>2022-07-14T06:49:49Z</time>
      </trkpt>
      <trkpt lat="44.80781" lon="0.4031">
        <ele>48.2</ele>
        <time>2022-07-14T06:49:51Z</time>
      </trkpt>
      <trkpt lat="44.80784" lon="0.40295">
        <ele>48.2</ele>
        <time>2022-07-14T06:49:53Z</time>
      </trkpt>
      <trkpt lat="44.80787" lon="0.4028">
        <ele>48.1</ele>
        <time>2022-07-14T06:49:55Z</time>
      </trkpt>
      <trkpt lat="44.8079" lon="0.40265">
        <ele>48.1</ele>
        <time>2022-07-14T06:49:57Z</time>
      </trkpt>
      <trkpt lat="44.80792" lon="0.4025">
        <ele>48</ele>
        <time>2022-07-14T06:49:59Z</time>
      </trkpt>
      <trkpt lat="44.80795" lon="0.40235">
        <ele>48</ele>
        <time>2022-07-14T06:50:01Z</time>
      </trkpt>
      <trkpt lat="44.80797" lon="0.40228">
        <ele>48</ele>
        <time>2022-07-14T06:50:02Z</time>
      </trkpt>
      <trkpt lat="44.80798" lon="0.4022">
        <ele>47.9</ele>
        <time>2022-07-14T06:50:03Z</time>
      </trkpt>
      <trkpt lat="44.80801" lon="0.40205">
        <ele>47.9</ele>
        <time>2022-07-14T06:50:05Z</time>
      </trkpt>
      <trkpt lat="44.80804" lon="0.40191">
        <ele>47.8</ele>
        <time>2022-07-14T06:50:07Z</time>
      </trkpt>
      <trkpt lat="44.80806" lon="0.40176">
        <ele>47.8</ele>
        <time>2022-07-14T06:50:09Z</time>
      </trkpt>
      <trkpt lat="44.80808" lon="0.40169">
        <ele>47.8</ele>
        <time>2022-07-14T06:50:10Z</time>
      </trkpt>
      <trkpt lat="44.80809" lon="0.40162">
        <ele>47.8</ele>
        <time>2022-07-14T06:50:11Z</time>
      </trkpt>
      <trkpt lat="44.80812" lon="0.40148">
        <ele>47.7</ele>
        <time>2022-07-14T06:50:13Z</time>
      </trkpt>
      <trkpt lat="44.80814" lon="0.40134">
        <ele>47.7</ele>
        <time>2022-07-14T06:50:15Z</time>
      </trkpt>
      <trkpt lat="44.80817" lon="0.40121">
        <ele>47.6</ele>
        <time>2022-07-14T06:50:17Z</time>
      </trkpt>
      <trkpt lat="44.80819" lon="0.40107">
        <ele>47.6</ele>
        <time>2022-07-14T06:50:19Z</time>
      </trkpt>
      <trkpt lat="44.80822" lon="0.40094">
        <ele>47.5</ele>
        <time>2022-07-14T06:50:21Z</time>
      </trkpt>
      <trkpt lat="44.80825" lon="0.40081">
        <ele>47.5</ele>
        <time>2022-07-14T06:50:23Z</time>
      </trkpt>
      <trkpt lat="44.80828" lon="0.40068">
        <ele>47.5</ele>
        <time>2022-07-14T06:50:25Z</time>
      </trkpt>
      <trkpt lat="44.80829" lon="0.40061">
        <ele>47.4</ele>
        <time>2022-07-14T06:50:26Z</time>
      </trkpt>
      <trkpt lat="44.80831" lon="0.40055">
        <ele>47.4</ele>
        <time>2022-07-14T06:50:27Z</time>
      </trkpt>
      <trkpt lat="44.80834" lon="0.40042">
        <ele>47.4</ele>
        <time>2022-07-14T06:50:29Z</time>
      </trkpt>
      <trkpt lat="44.80837" lon="0.40028">
        <ele>47.3</ele>
        <time>2022-07-14T06:50:31Z</time>
      </trkpt>
      <trkpt lat="44.80838" lon="0.40022">
        <ele>47.3</ele>
        <time>2022-07-14T06:50:32Z</time>
      </trkpt>
      <trkpt lat="44.80839" lon="0.40015">
        <ele>47.3</ele>
        <time>2022-07-14T06:50:33Z</time>
      </trkpt>
      <trkpt lat="44.80842" lon="0.40002">
        <ele>47.2</ele>
        <time>2022-07-14T06:50:35Z</time>
      </trkpt>
      <trkpt lat="44.80845" lon="0.39988">
        <ele>47.2</ele>
        <time>2022-07-14T06:50:37Z</time>
      </trkpt>
      <trkpt lat="44.80849" lon="0.39975">
        <ele>47.2</ele>
        <time>2022-07-14T06:50:39Z</time>
      </trkpt>
      <trkpt lat="44.80852" lon="0.39962">
        <ele>47.1</ele>
        <time>2022-07-14T06:50:41Z</time>
      </trkpt>
      <trkpt lat="44.80856" lon="0.39948">
        <ele>47.1</ele>
        <time>2022-07-14T06:50:43Z</time>
      </trkpt>
      <trkpt lat="44.80859" lon="0.39935">
        <ele>47</ele>
        <time>2022-07-14T06:50:45Z</time>
      </trkpt>
      <trkpt lat="44.80862" lon="0.39922">
        <ele>47</ele>
        <time>2022-07-14T06:50:47Z</time>
      </trkpt>
      <trkpt lat="44.80866" lon="0.39909">
        <ele>46.9</ele>
        <time>2022-07-14T06:50:49Z</time>
      </trkpt>
      <trkpt lat="44.80866" lon="0.39902">
        <ele>46.9</ele>
        <time>2022-07-14T06:50:50Z</time>
      </trkpt>
      <trkpt lat="44.80867" lon="0.39895">
        <ele>46.9</ele>
        <time>2022-07-14T06:50:51Z</time>
      </trkpt>
      <trkpt lat="44.80867" lon="0.39883">
        <ele>46.9</ele>
        <time>2022-07-14T06:50:53Z</time>
      </trkpt>
      <trkpt lat="44.80868" lon="0.39871">
        <ele>46.8</ele>
        <time>2022-07-14T06:50:55Z</time>
      </trkpt>
      <trkpt lat="44.80868" lon="0.39859">
        <ele>46.8</ele>
        <time>2022-07-14T06:50:57Z</time>
      </trkpt>
      <trkpt lat="44.80869" lon="0.39853">
        <ele>46.8</ele>
        <time>2022-07-14T06:50:58Z</time>
      </trkpt>
      <trkpt lat="44.80869" lon="0.39847">
        <ele>46.7</ele>
        <time>2022-07-14T06:50:59Z</time>
      </trkpt>
      <trkpt lat="44.80869" lon="0.39835">
        <ele>46.7</ele>
        <time>2022-07-14T06:51:01Z</time>
      </trkpt>
      <trkpt lat="44.8087" lon="0.39829">
        <ele>46.7</ele>
        <time>2022-07-14T06:51:02Z</time>
      </trkpt>
      <trkpt lat="44.8087" lon="0.39822">
        <ele>46.7</ele>
        <time>2022-07-14T06:51:03Z</time>
      </trkpt>
      <trkpt lat="44.8087" lon="0.3981">
        <ele>46.6</ele>
        <time>2022-07-14T06:51:05Z</time>
      </trkpt>
      <trkpt lat="44.80874" lon="0.39797">
        <ele>46.6</ele>
        <time>2022-07-14T06:51:07Z</time>
      </trkpt>
      <trkpt lat="44.80875" lon="0.39791">
        <ele>46.6</ele>
        <time>2022-07-14T06:51:08Z</time>
      </trkpt>
      <trkpt lat="44.80877" lon="0.39784">
        <ele>46.5</ele>
        <time>2022-07-14T06:51:09Z</time>
      </trkpt>
      <trkpt lat="44.80881" lon="0.39772">
        <ele>46.5</ele>
        <time>2022-07-14T06:51:11Z</time>
      </trkpt>
      <trkpt lat="44.80884" lon="0.39758">
        <ele>46.5</ele>
        <time>2022-07-14T06:51:13Z</time>
      </trkpt>
      <trkpt lat="44.80888" lon="0.39744">
        <ele>46.4</ele>
        <time>2022-07-14T06:51:15Z</time>
      </trkpt>
      <trkpt lat="44.8089" lon="0.39738">
        <ele>46.4</ele>
        <time>2022-07-14T06:51:16Z</time>
      </trkpt>
      <trkpt lat="44.80892" lon="0.39731">
        <ele>46.4</ele>
        <time>2022-07-14T06:51:17Z</time>
      </trkpt>
      <trkpt lat="44.80896" lon="0.39718">
        <ele>46.3</ele>
        <time>2022-07-14T06:51:19Z</time>
      </trkpt>
      <trkpt lat="44.80899" lon="0.39706">
        <ele>46.3</ele>
        <time>2022-07-14T06:51:21Z</time>
      </trkpt>
      <trkpt lat="44.80887" lon="0.39696">
        <ele>46.3</ele>
        <time>2022-07-14T06:51:23Z</time>
      </trkpt>
      <trkpt lat="44.80882" lon="0.39693">
        <ele>46.2</ele>
        <time>2022-07-14T06:51:24Z</time>
      </trkpt>
      <trkpt lat="44.80877" lon="0.39691">
        <ele>46.2</ele>
        <time>2022-07-14T06:51:25Z</time>
      </trkpt>
      <trkpt lat="44.80869" lon="0.39686">
        <ele>46.2</ele>
        <time>2022-07-14T06:51:27Z</time>
      </trkpt>
      <trkpt lat="44.8086" lon="0.3968">
        <ele>46.2</ele>
        <time>2022-07-14T06:51:29Z</time>
      </trkpt>
      <trkpt lat="44.8085" lon="0.39674">
        <ele>46.2</ele>
        <time>2022-07-14T06:51:31Z</time>
      </trkpt>
      <trkpt lat="44.80842" lon="0.3967">
        <ele>46.2</ele>
        <time>2022-07-14T06:51:33Z</time>
      </trkpt>
      <trkpt lat="44.80837" lon="0.39668">
        <ele>46.3</ele>
        <time>2022-07-14T06:51:34Z</time>
      </trkpt>
      <trkpt lat="44.80834" lon="0.39666">
        <ele>46.3</ele>
        <time>2022-07-14T06:51:35Z</time>
      </trkpt>
      <trkpt lat="44.80826" lon="0.39662">
        <ele>46.6</ele>
        <time>2022-07-14T06:51:37Z</time>
      </trkpt>
      <trkpt lat="44.80823" lon="0.39659">
        <ele>46.6</ele>
        <time>2022-07-14T06:51:38Z</time>
      </trkpt>
      <trkpt lat="44.80819" lon="0.39657">
        <ele>46.6</ele>
        <time>2022-07-14T06:51:39Z</time>
      </trkpt>
      <trkpt lat="44.80811" lon="0.39657">
        <ele>47</ele>
        <time>2022-07-14T06:51:41Z</time>
      </trkpt>
      <trkpt lat="44.80808" lon="0.3966">
        <ele>47</ele>
        <time>2022-07-14T06:51:42Z</time>
      </trkpt>
      <trkpt lat="44.80804" lon="0.39664">
        <ele>47</ele>
        <time>2022-07-14T06:51:43Z</time>
      </trkpt>
      <trkpt lat="44.80797" lon="0.39669">
        <ele>47.6</ele>
        <time>2022-07-14T06:51:45Z</time>
      </trkpt>
      <trkpt lat="44.80792" lon="0.3967">
        <ele>47.6</ele>
        <time>2022-07-14T06:51:47Z</time>
      </trkpt>
      <trkpt lat="44.80784" lon="0.39672">
        <ele>48.2</ele>
        <time>2022-07-14T06:51:49Z</time>
      </trkpt>
      <trkpt lat="44.80776" lon="0.39676">
        <ele>48.8</ele>
        <time>2022-07-14T06:51:51Z</time>
      </trkpt>
      <trkpt lat="44.80772" lon="0.39682">
        <ele>48.8</ele>
        <time>2022-07-14T06:51:53Z</time>
      </trkpt>
      <trkpt lat="44.80769" lon="0.39687">
        <ele>48.8</ele>
        <time>2022-07-14T06:51:54Z</time>
      </trkpt>
      <trkpt lat="44.80768" lon="0.39692">
        <ele>48.7</ele>
        <time>2022-07-14T06:51:55Z</time>
      </trkpt>
      <trkpt lat="44.80766" lon="0.39703">
        <ele>49.2</ele>
        <time>2022-07-14T06:51:57Z</time>
      </trkpt>
      <trkpt lat="44.80762" lon="0.39713">
        <ele>48.9</ele>
        <time>2022-07-14T06:51:59Z</time>
      </trkpt>
      <trkpt lat="44.80757" lon="0.39723">
        <ele>48.5</ele>
        <time>2022-07-14T06:52:01Z</time>
      </trkpt>
      <trkpt lat="44.80753" lon="0.39725">
        <ele>49.1</ele>
        <time>2022-07-14T06:52:02Z</time>
      </trkpt>
      <trkpt lat="44.80749" lon="0.39725">
        <ele>49.1</ele>
        <time>2022-07-14T06:52:03Z</time>
      </trkpt>
      <trkpt lat="44.80742" lon="0.39725">
        <ele>49.1</ele>
        <time>2022-07-14T06:52:05Z</time>
      </trkpt>
      <trkpt lat="44.80736" lon="0.39723">
        <ele>49.6</ele>
        <time>2022-07-14T06:52:07Z</time>
      </trkpt>
      <trkpt lat="44.80733" lon="0.39722">
        <ele>50</ele>
        <time>2022-07-14T06:52:08Z</time>
      </trkpt>
      <trkpt lat="44.8073" lon="0.39722">
        <ele>50</ele>
        <time>2022-07-14T06:52:09Z</time>
      </trkpt>
      <trkpt lat="44.80724" lon="0.39721">
        <ele>50.4</ele>
        <time>2022-07-14T06:52:11Z</time>
      </trkpt>
      <trkpt lat="44.80717" lon="0.39721">
        <ele>50.8</ele>
        <time>2022-07-14T06:52:13Z</time>
      </trkpt>
      <trkpt lat="44.80715" lon="0.3972">
        <ele>50.8</ele>
        <time>2022-07-14T06:52:14Z</time>
      </trkpt>
      <trkpt lat="44.80712" lon="0.39719">
        <ele>50.8</ele>
        <time>2022-07-14T06:52:15Z</time>
      </trkpt>
      <trkpt lat="44.80706" lon="0.39718">
        <ele>50.8</ele>
        <time>2022-07-14T06:52:17Z</time>
      </trkpt>
      <trkpt lat="44.807" lon="0.39717">
        <ele>51.2</ele>
        <time>2022-07-14T06:52:19Z</time>
      </trkpt>
      <trkpt lat="44.80694" lon="0.39716">
        <ele>51.2</ele>
        <time>2022-07-14T06:52:21Z</time>
      </trkpt>
      <trkpt lat="44.80688" lon="0.39716">
        <ele>51.6</ele>
        <time>2022-07-14T06:52:23Z</time>
      </trkpt>
      <trkpt lat="44.80682" lon="0.39714">
        <ele>51.6</ele>
        <time>2022-07-14T06:52:25Z</time>
      </trkpt>
      <trkpt lat="44.80678" lon="0.39714">
        <ele>51.9</ele>
        <time>2022-07-14T06:52:26Z</time>
      </trkpt>
      <trkpt lat="44.80676" lon="0.39713">
        <ele>51.9</ele>
        <time>2022-07-14T06:52:27Z</time>
      </trkpt>
      <trkpt lat="44.80669" lon="0.39712">
        <ele>51.9</ele>
        <time>2022-07-14T06:52:29Z</time>
      </trkpt>
      <trkpt lat="44.80663" lon="0.39712">
        <ele>52.4</ele>
        <time>2022-07-14T06:52:31Z</time>
      </trkpt>
      <trkpt lat="44.8066" lon="0.39712">
        <ele>52.4</ele>
        <time>2022-07-14T06:52:32Z</time>
      </trkpt>
      <trkpt lat="44.80657" lon="0.39711">
        <ele>52.4</ele>
        <time>2022-07-14T06:52:33Z</time>
      </trkpt>
      <trkpt lat="44.80651" lon="0.39708">
        <ele>52.7</ele>
        <time>2022-07-14T06:52:35Z</time>
      </trkpt>
      <trkpt lat="44.80648" lon="0.39699">
        <ele>52.9</ele>
        <time>2022-07-14T06:52:37Z</time>
      </trkpt>
      <trkpt lat="44.80649" lon="0.39688">
        <ele>52.9</ele>
        <time>2022-07-14T06:52:39Z</time>
      </trkpt>
      <trkpt lat="44.8065" lon="0.39682">
        <ele>52.9</ele>
        <time>2022-07-14T06:52:40Z</time>
      </trkpt>
      <trkpt lat="44.80651" lon="0.39679">
        <ele>52.9</ele>
        <time>2022-07-14T06:52:41Z</time>
      </trkpt>
      <trkpt lat="44.80652" lon="0.3967">
        <ele>52.8</ele>
        <time>2022-07-14T06:52:43Z</time>
      </trkpt>
      <trkpt lat="44.80652" lon="0.39666">
        <ele>52.8</ele>
        <time>2022-07-14T06:52:44Z</time>
      </trkpt>
      <trkpt lat="44.80653" lon="0.39662">
        <ele>52.8</ele>
        <time>2022-07-14T06:52:45Z</time>
      </trkpt>
      <trkpt lat="44.80654" lon="0.39652">
        <ele>52.6</ele>
        <time>2022-07-14T06:52:47Z</time>
      </trkpt>
      <trkpt lat="44.80656" lon="0.39645">
        <ele>52.5</ele>
        <time>2022-07-14T06:52:49Z</time>
      </trkpt>
      <trkpt lat="44.80659" lon="0.39633">
        <ele>52</ele>
        <time>2022-07-14T06:52:51Z</time>
      </trkpt>
      <trkpt lat="44.8066" lon="0.39621">
        <ele>52</ele>
        <time>2022-07-14T06:52:53Z</time>
      </trkpt>
      <trkpt lat="44.8066" lon="0.39616">
        <ele>52</ele>
        <time>2022-07-14T06:52:54Z</time>
      </trkpt>
      <trkpt lat="44.80659" lon="0.39613">
        <ele>52</ele>
        <time>2022-07-14T06:52:55Z</time>
      </trkpt>
      <trkpt lat="44.80655" lon="0.39613">
        <ele>52.3</ele>
        <time>2022-07-14T06:52:57Z</time>
      </trkpt>
      <trkpt lat="44.80649" lon="0.39613">
        <ele>52.3</ele>
        <time>2022-07-14T06:52:59Z</time>
      </trkpt>
      <trkpt lat="44.80643" lon="0.39612">
        <ele>52.5</ele>
        <time>2022-07-14T06:53:01Z</time>
      </trkpt>
      <trkpt lat="44.80637" lon="0.39612">
        <ele>52.5</ele>
        <time>2022-07-14T06:53:03Z</time>
      </trkpt>
      <trkpt lat="44.80632" lon="0.39612">
        <ele>52.8</ele>
        <time>2022-07-14T06:53:05Z</time>
      </trkpt>
      <trkpt lat="44.80625" lon="0.3961">
        <ele>52.8</ele>
        <time>2022-07-14T06:53:07Z</time>
      </trkpt>
      <trkpt lat="44.80622" lon="0.39611">
        <ele>52.8</ele>
        <time>2022-07-14T06:53:08Z</time>
      </trkpt>
      <trkpt lat="44.80619" lon="0.39611">
        <ele>53.1</ele>
        <time>2022-07-14T06:53:09Z</time>
      </trkpt>
      <trkpt lat="44.80612" lon="0.3961">
        <ele>53.1</ele>
        <time>2022-07-14T06:53:11Z</time>
      </trkpt>
      <trkpt lat="44.80607" lon="0.39609">
        <ele>53.5</ele>
        <time>2022-07-14T06:53:13Z</time>
      </trkpt>
      <trkpt lat="44.80601" lon="0.39608">
        <ele>53.5</ele>
        <time>2022-07-14T06:53:15Z</time>
      </trkpt>
      <trkpt lat="44.80595" lon="0.39608">
        <ele>53.8</ele>
        <time>2022-07-14T06:53:17Z</time>
      </trkpt>
      <trkpt lat="44.8059" lon="0.39608">
        <ele>53.8</ele>
        <time>2022-07-14T06:53:19Z</time>
      </trkpt>
      <trkpt lat="44.80585" lon="0.39606">
        <ele>53.8</ele>
        <time>2022-07-14T06:53:21Z</time>
      </trkpt>
      <trkpt lat="44.80581" lon="0.39607">
        <ele>54.2</ele>
        <time>2022-07-14T06:53:23Z</time>
      </trkpt>
      <trkpt lat="44.80575" lon="0.39607">
        <ele>54.2</ele>
        <time>2022-07-14T06:53:25Z</time>
      </trkpt>
      <trkpt lat="44.8057" lon="0.39607">
        <ele>54.4</ele>
        <time>2022-07-14T06:53:27Z</time>
      </trkpt>
      <trkpt lat="44.80565" lon="0.39606">
        <ele>54.4</ele>
        <time>2022-07-14T06:53:29Z</time>
      </trkpt>
      <trkpt lat="44.8056" lon="0.39604">
        <ele>54.4</ele>
        <time>2022-07-14T06:53:31Z</time>
      </trkpt>
      <trkpt lat="44.80555" lon="0.39604">
        <ele>54.6</ele>
        <time>2022-07-14T06:53:33Z</time>
      </trkpt>
      <trkpt lat="44.8055" lon="0.39604">
        <ele>54.6</ele>
        <time>2022-07-14T06:53:35Z</time>
      </trkpt>
      <trkpt lat="44.80545" lon="0.39603">
        <ele>54.9</ele>
        <time>2022-07-14T06:53:37Z</time>
      </trkpt>
      <trkpt lat="44.8054" lon="0.39601">
        <ele>55</ele>
        <time>2022-07-14T06:53:39Z</time>
      </trkpt>
      <trkpt lat="44.80536" lon="0.396">
        <ele>55</ele>
        <time>2022-07-14T06:53:41Z</time>
      </trkpt>
      <trkpt lat="44.80531" lon="0.39599">
        <ele>55.4</ele>
        <time>2022-07-14T06:53:43Z</time>
      </trkpt>
      <trkpt lat="44.80526" lon="0.39597">
        <ele>55.4</ele>
        <time>2022-07-14T06:53:45Z</time>
      </trkpt>
      <trkpt lat="44.80522" lon="0.39596">
        <ele>56.2</ele>
        <time>2022-07-14T06:53:47Z</time>
      </trkpt>
      <trkpt lat="44.80517" lon="0.39595">
        <ele>56.2</ele>
        <time>2022-07-14T06:53:49Z</time>
      </trkpt>
      <trkpt lat="44.80513" lon="0.39594">
        <ele>56.1</ele>
        <time>2022-07-14T06:53:51Z</time>
      </trkpt>
      <trkpt lat="44.80508" lon="0.39593">
        <ele>57</ele>
        <time>2022-07-14T06:53:53Z</time>
      </trkpt>
      <trkpt lat="44.80504" lon="0.39592">
        <ele>57</ele>
        <time>2022-07-14T06:53:55Z</time>
      </trkpt>
      <trkpt lat="44.805" lon="0.39592">
        <ele>57</ele>
        <time>2022-07-14T06:53:57Z</time>
      </trkpt>
      <trkpt lat="44.80496" lon="0.39591">
        <ele>58.1</ele>
        <time>2022-07-14T06:53:59Z</time>
      </trkpt>
      <trkpt lat="44.80491" lon="0.3959">
        <ele>58.1</ele>
        <time>2022-07-14T06:54:01Z</time>
      </trkpt>
      <trkpt lat="44.80487" lon="0.39589">
        <ele>58.1</ele>
        <time>2022-07-14T06:54:03Z</time>
      </trkpt>
      <trkpt lat="44.80485" lon="0.39589">
        <ele>59.1</ele>
        <time>2022-07-14T06:54:04Z</time>
      </trkpt>
      <trkpt lat="44.80483" lon="0.39588">
        <ele>59.1</ele>
        <time>2022-07-14T06:54:05Z</time>
      </trkpt>
      <trkpt lat="44.80479" lon="0.39587">
        <ele>59.1</ele>
        <time>2022-07-14T06:54:07Z</time>
      </trkpt>
      <trkpt lat="44.80475" lon="0.39587">
        <ele>59.1</ele>
        <time>2022-07-14T06:54:09Z</time>
      </trkpt>
      <trkpt lat="44.80471" lon="0.39586">
        <ele>60.4</ele>
        <time>2022-07-14T06:54:11Z</time>
      </trkpt>
      <trkpt lat="44.80467" lon="0.39584">
        <ele>60.5</ele>
        <time>2022-07-14T06:54:13Z</time>
      </trkpt>
      <trkpt lat="44.80466" lon="0.39583">
        <ele>60.5</ele>
        <time>2022-07-14T06:54:14Z</time>
      </trkpt>
      <trkpt lat="44.80464" lon="0.39581">
        <ele>60.5</ele>
        <time>2022-07-14T06:54:15Z</time>
      </trkpt>
      <trkpt lat="44.80463" lon="0.39578">
        <ele>60.5</ele>
        <time>2022-07-14T06:54:16Z</time>
      </trkpt>
      <trkpt lat="44.80463" lon="0.39575">
        <ele>60.5</ele>
        <time>2022-07-14T06:54:17Z</time>
      </trkpt>
      <trkpt lat="44.80464" lon="0.39572">
        <ele>60.5</ele>
        <time>2022-07-14T06:54:18Z</time>
      </trkpt>
      <trkpt lat="44.80464" lon="0.39569">
        <ele>60.5</ele>
        <time>2022-07-14T06:54:19Z</time>
      </trkpt>
      <trkpt lat="44.80464" lon="0.39563">
        <ele>60.6</ele>
        <time>2022-07-14T06:54:21Z</time>
      </trkpt>
      <trkpt lat="44.80464" lon="0.39557">
        <ele>60.6</ele>
        <time>2022-07-14T06:54:23Z</time>
      </trkpt>
      <trkpt lat="44.80464" lon="0.3955">
        <ele>61.1</ele>
        <time>2022-07-14T06:54:25Z</time>
      </trkpt>
      <trkpt lat="44.80463" lon="0.39547">
        <ele>61.1</ele>
        <time>2022-07-14T06:54:26Z</time>
      </trkpt>
      <trkpt lat="44.80462" lon="0.39544">
        <ele>61.1</ele>
        <time>2022-07-14T06:54:27Z</time>
      </trkpt>
      <trkpt lat="44.80463" lon="0.39536">
        <ele>61.1</ele>
        <time>2022-07-14T06:54:29Z</time>
      </trkpt>
      <trkpt lat="44.80464" lon="0.39528">
        <ele>61.7</ele>
        <time>2022-07-14T06:54:31Z</time>
      </trkpt>
      <trkpt lat="44.80465" lon="0.3952">
        <ele>61.7</ele>
        <time>2022-07-14T06:54:33Z</time>
      </trkpt>
      <trkpt lat="44.80465" lon="0.39511">
        <ele>62.6</ele>
        <time>2022-07-14T06:54:35Z</time>
      </trkpt>
      <trkpt lat="44.80465" lon="0.39502">
        <ele>62.6</ele>
        <time>2022-07-14T06:54:37Z</time>
      </trkpt>
      <trkpt lat="44.80465" lon="0.39497">
        <ele>63.3</ele>
        <time>2022-07-14T06:54:38Z</time>
      </trkpt>
      <trkpt lat="44.80466" lon="0.39491">
        <ele>63.3</ele>
        <time>2022-07-14T06:54:39Z</time>
      </trkpt>
      <trkpt lat="44.80468" lon="0.39481">
        <ele>63.9</ele>
        <time>2022-07-14T06:54:41Z</time>
      </trkpt>
      <trkpt lat="44.80469" lon="0.3947">
        <ele>63.9</ele>
        <time>2022-07-14T06:54:43Z</time>
      </trkpt>
      <trkpt lat="44.80469" lon="0.39465">
        <ele>63.9</ele>
        <time>2022-07-14T06:54:44Z</time>
      </trkpt>
      <trkpt lat="44.80469" lon="0.3946">
        <ele>64.1</ele>
        <time>2022-07-14T06:54:45Z</time>
      </trkpt>
      <trkpt lat="44.80469" lon="0.39448">
        <ele>64.1</ele>
        <time>2022-07-14T06:54:47Z</time>
      </trkpt>
      <trkpt lat="44.8047" lon="0.39436">
        <ele>63.9</ele>
        <time>2022-07-14T06:54:49Z</time>
      </trkpt>
      <trkpt lat="44.8047" lon="0.3943">
        <ele>63.5</ele>
        <time>2022-07-14T06:54:50Z</time>
      </trkpt>
      <trkpt lat="44.80471" lon="0.39424">
        <ele>63.5</ele>
        <time>2022-07-14T06:54:51Z</time>
      </trkpt>
      <trkpt lat="44.80471" lon="0.39412">
        <ele>62.8</ele>
        <time>2022-07-14T06:54:53Z</time>
      </trkpt>
      <trkpt lat="44.80469" lon="0.394">
        <ele>62.8</ele>
        <time>2022-07-14T06:54:55Z</time>
      </trkpt>
      <trkpt lat="44.80467" lon="0.39394">
        <ele>62.1</ele>
        <time>2022-07-14T06:54:56Z</time>
      </trkpt>
      <trkpt lat="44.80465" lon="0.39389">
        <ele>62.1</ele>
        <time>2022-07-14T06:54:57Z</time>
      </trkpt>
      <trkpt lat="44.80463" lon="0.39384">
        <ele>62.1</ele>
        <time>2022-07-14T06:54:58Z</time>
      </trkpt>
      <trkpt lat="44.80461" lon="0.39379">
        <ele>61.8</ele>
        <time>2022-07-14T06:54:59Z</time>
      </trkpt>
      <trkpt lat="44.80456" lon="0.39369">
        <ele>61.8</ele>
        <time>2022-07-14T06:55:01Z</time>
      </trkpt>
      <trkpt lat="44.80453" lon="0.39364">
        <ele>61.8</ele>
        <time>2022-07-14T06:55:02Z</time>
      </trkpt>
      <trkpt lat="44.80451" lon="0.39359">
        <ele>61</ele>
        <time>2022-07-14T06:55:03Z</time>
      </trkpt>
      <trkpt lat="44.80446" lon="0.3935">
        <ele>61.4</ele>
        <time>2022-07-14T06:55:05Z</time>
      </trkpt>
      <trkpt lat="44.80441" lon="0.3934">
        <ele>60.8</ele>
        <time>2022-07-14T06:55:07Z</time>
      </trkpt>
      <trkpt lat="44.80436" lon="0.3933">
        <ele>61.2</ele>
        <time>2022-07-14T06:55:09Z</time>
      </trkpt>
      <trkpt lat="44.80433" lon="0.39325">
        <ele>60.7</ele>
        <time>2022-07-14T06:55:10Z</time>
      </trkpt>
      <trkpt lat="44.80431" lon="0.3932">
        <ele>60.7</ele>
        <time>2022-07-14T06:55:11Z</time>
      </trkpt>
      <trkpt lat="44.80428" lon="0.3931">
        <ele>60.4</ele>
        <time>2022-07-14T06:55:13Z</time>
      </trkpt>
      <trkpt lat="44.80427" lon="0.393">
        <ele>60.4</ele>
        <time>2022-07-14T06:55:15Z</time>
      </trkpt>
      <trkpt lat="44.80426" lon="0.39294">
        <ele>60.4</ele>
        <time>2022-07-14T06:55:16Z</time>
      </trkpt>
      <trkpt lat="44.80425" lon="0.3929">
        <ele>61.1</ele>
        <time>2022-07-14T06:55:17Z</time>
      </trkpt>
      <trkpt lat="44.80424" lon="0.3928">
        <ele>61.1</ele>
        <time>2022-07-14T06:55:19Z</time>
      </trkpt>
      <trkpt lat="44.80423" lon="0.39269">
        <ele>60.8</ele>
        <time>2022-07-14T06:55:21Z</time>
      </trkpt>
      <trkpt lat="44.80423" lon="0.39259">
        <ele>60.7</ele>
        <time>2022-07-14T06:55:23Z</time>
      </trkpt>
      <trkpt lat="44.80423" lon="0.39249">
        <ele>60.5</ele>
        <time>2022-07-14T06:55:25Z</time>
      </trkpt>
      <trkpt lat="44.80424" lon="0.39239">
        <ele>60.3</ele>
        <time>2022-07-14T06:55:27Z</time>
      </trkpt>
      <trkpt lat="44.80424" lon="0.39229">
        <ele>60.3</ele>
        <time>2022-07-14T06:55:29Z</time>
      </trkpt>
      <trkpt lat="44.80424" lon="0.39218">
        <ele>60.2</ele>
        <time>2022-07-14T06:55:31Z</time>
      </trkpt>
      <trkpt lat="44.80424" lon="0.39207">
        <ele>60.2</ele>
        <time>2022-07-14T06:55:33Z</time>
      </trkpt>
      <trkpt lat="44.80425" lon="0.39195">
        <ele>59</ele>
        <time>2022-07-14T06:55:35Z</time>
      </trkpt>
      <trkpt lat="44.80426" lon="0.39189">
        <ele>58.7</ele>
        <time>2022-07-14T06:55:36Z</time>
      </trkpt>
      <trkpt lat="44.80426" lon="0.39181">
        <ele>58.7</ele>
        <time>2022-07-14T06:55:37Z</time>
      </trkpt>
      <trkpt lat="44.80427" lon="0.39166">
        <ele>58.2</ele>
        <time>2022-07-14T06:55:39Z</time>
      </trkpt>
      <trkpt lat="44.80428" lon="0.39149">
        <ele>57.7</ele>
        <time>2022-07-14T06:55:41Z</time>
      </trkpt>
      <trkpt lat="44.8043" lon="0.39131">
        <ele>57.1</ele>
        <time>2022-07-14T06:55:43Z</time>
      </trkpt>
      <trkpt lat="44.80431" lon="0.39113">
        <ele>56.6</ele>
        <time>2022-07-14T06:55:45Z</time>
      </trkpt>
      <trkpt lat="44.80433" lon="0.39096">
        <ele>56.2</ele>
        <time>2022-07-14T06:55:47Z</time>
      </trkpt>
      <trkpt lat="44.80433" lon="0.39087">
        <ele>56</ele>
        <time>2022-07-14T06:55:48Z</time>
      </trkpt>
      <trkpt lat="44.80434" lon="0.39078">
        <ele>56</ele>
        <time>2022-07-14T06:55:49Z</time>
      </trkpt>
      <trkpt lat="44.80435" lon="0.3906">
        <ele>55.8</ele>
        <time>2022-07-14T06:55:51Z</time>
      </trkpt>
      <trkpt lat="44.80438" lon="0.39046">
        <ele>54.8</ele>
        <time>2022-07-14T06:55:53Z</time>
      </trkpt>
      <trkpt lat="44.80438" lon="0.39039">
        <ele>54.8</ele>
        <time>2022-07-14T06:55:54Z</time>
      </trkpt>
      <trkpt lat="44.80439" lon="0.39033">
        <ele>54.7</ele>
        <time>2022-07-14T06:55:55Z</time>
      </trkpt>
      <trkpt lat="44.8044" lon="0.39021">
        <ele>54.7</ele>
        <time>2022-07-14T06:55:57Z</time>
      </trkpt>
      <trkpt lat="44.8044" lon="0.3901">
        <ele>54.8</ele>
        <time>2022-07-14T06:55:59Z</time>
      </trkpt>
      <trkpt lat="44.80439" lon="0.39">
        <ele>55</ele>
        <time>2022-07-14T06:56:01Z</time>
      </trkpt>
      <trkpt lat="44.80439" lon="0.3899">
        <ele>55</ele>
        <time>2022-07-14T06:56:03Z</time>
      </trkpt>
      <trkpt lat="44.80439" lon="0.38981">
        <ele>55.3</ele>
        <time>2022-07-14T06:56:05Z</time>
      </trkpt>
      <trkpt lat="44.80439" lon="0.38971">
        <ele>55.3</ele>
        <time>2022-07-14T06:56:07Z</time>
      </trkpt>
      <trkpt lat="44.8044" lon="0.38959">
        <ele>55.6</ele>
        <time>2022-07-14T06:56:09Z</time>
      </trkpt>
      <trkpt lat="44.80443" lon="0.38959">
        <ele>55.6</ele>
        <time>2022-07-14T06:56:10Z</time>
      </trkpt>
      <trkpt lat="44.80447" lon="0.38959">
        <ele>55.6</ele>
        <time>2022-07-14T06:56:11Z</time>
      </trkpt>
      <trkpt lat="44.80451" lon="0.38959">
        <ele>54.8</ele>
        <time>2022-07-14T06:56:12Z</time>
      </trkpt>
      <trkpt lat="44.80455" lon="0.38959">
        <ele>54.8</ele>
        <time>2022-07-14T06:56:13Z</time>
      </trkpt>
      <trkpt lat="44.80466" lon="0.3896">
        <ele>54.1</ele>
        <time>2022-07-14T06:56:15Z</time>
      </trkpt>
      <trkpt lat="44.80472" lon="0.3896">
        <ele>54.1</ele>
        <time>2022-07-14T06:56:16Z</time>
      </trkpt>
      <trkpt lat="44.80478" lon="0.3896">
        <ele>53.7</ele>
        <time>2022-07-14T06:56:17Z</time>
      </trkpt>
      <trkpt lat="44.80483" lon="0.3896">
        <ele>53.7</ele>
        <time>2022-07-14T06:56:18Z</time>
      </trkpt>
      <trkpt lat="44.80486" lon="0.3896">
        <ele>53.5</ele>
        <time>2022-07-14T06:56:19Z</time>
      </trkpt>
      <trkpt lat="44.80487" lon="0.38946">
        <ele>53.6</ele>
        <time>2022-07-14T06:56:21Z</time>
      </trkpt>
      <trkpt lat="44.80482" lon="0.38938">
        <ele>53.9</ele>
        <time>2022-07-14T06:56:23Z</time>
      </trkpt>
      <trkpt lat="44.80476" lon="0.3893">
        <ele>54</ele>
        <time>2022-07-14T06:56:25Z</time>
      </trkpt>
      <trkpt lat="44.80474" lon="0.38925">
        <ele>54</ele>
        <time>2022-07-14T06:56:26Z</time>
      </trkpt>
      <trkpt lat="44.80472" lon="0.3892">
        <ele>54.6</ele>
        <time>2022-07-14T06:56:27Z</time>
      </trkpt>
      <trkpt lat="44.80467" lon="0.3891">
        <ele>54.7</ele>
        <time>2022-07-14T06:56:29Z</time>
      </trkpt>
      <trkpt lat="44.80463" lon="0.389">
        <ele>54.7</ele>
        <time>2022-07-14T06:56:31Z</time>
      </trkpt>
      <trkpt lat="44.80462" lon="0.38895">
        <ele>54.7</ele>
        <time>2022-07-14T06:56:32Z</time>
      </trkpt>
      <trkpt lat="44.80461" lon="0.3889">
        <ele>55.4</ele>
        <time>2022-07-14T06:56:33Z</time>
      </trkpt>
      <trkpt lat="44.80462" lon="0.38885">
        <ele>54.7</ele>
        <time>2022-07-14T06:56:35Z</time>
      </trkpt>
      <trkpt lat="44.80463" lon="0.3888">
        <ele>54.7</ele>
        <time>2022-07-14T06:56:36Z</time>
      </trkpt>
      <trkpt lat="44.80464" lon="0.38874">
        <ele>54.7</ele>
        <time>2022-07-14T06:56:37Z</time>
      </trkpt>
      <trkpt lat="44.80465" lon="0.38869">
        <ele>54.7</ele>
        <time>2022-07-14T06:56:38Z</time>
      </trkpt>
      <trkpt lat="44.80455" lon="0.38858">
        <ele>55</ele>
        <time>2022-07-14T06:56:39Z</time>
      </trkpt>
      <trkpt lat="44.80435" lon="0.38837">
        <ele>56.2</ele>
        <time>2022-07-14T06:56:41Z</time>
      </trkpt>
      <trkpt lat="44.8043" lon="0.38824">
        <ele>55.6</ele>
        <time>2022-07-14T06:56:43Z</time>
      </trkpt>
      <trkpt lat="44.80425" lon="0.38812">
        <ele>55.6</ele>
        <time>2022-07-14T06:56:45Z</time>
      </trkpt>
      <trkpt lat="44.80419" lon="0.388">
        <ele>55.6</ele>
        <time>2022-07-14T06:56:47Z</time>
      </trkpt>
      <trkpt lat="44.80415" lon="0.38788">
        <ele>55</ele>
        <time>2022-07-14T06:56:49Z</time>
      </trkpt>
      <trkpt lat="44.80409" lon="0.38777">
        <ele>55.1</ele>
        <time>2022-07-14T06:56:51Z</time>
      </trkpt>
      <trkpt lat="44.80407" lon="0.38771">
        <ele>55.1</ele>
        <time>2022-07-14T06:56:52Z</time>
      </trkpt>
      <trkpt lat="44.80404" lon="0.38765">
        <ele>55.1</ele>
        <time>2022-07-14T06:56:53Z</time>
      </trkpt>
      <trkpt lat="44.80398" lon="0.38753">
        <ele>55.2</ele>
        <time>2022-07-14T06:56:55Z</time>
      </trkpt>
      <trkpt lat="44.80393" lon="0.38741">
        <ele>55</ele>
        <time>2022-07-14T06:56:57Z</time>
      </trkpt>
      <trkpt lat="44.80389" lon="0.38729">
        <ele>55</ele>
        <time>2022-07-14T06:56:59Z</time>
      </trkpt>
      <trkpt lat="44.80386" lon="0.38722">
        <ele>55.6</ele>
        <time>2022-07-14T06:57:00Z</time>
      </trkpt>
      <trkpt lat="44.80384" lon="0.38717">
        <ele>55.6</ele>
        <time>2022-07-14T06:57:01Z</time>
      </trkpt>
      <trkpt lat="44.80379" lon="0.38705">
        <ele>55.9</ele>
        <time>2022-07-14T06:57:03Z</time>
      </trkpt>
      <trkpt lat="44.80374" lon="0.38694">
        <ele>56.6</ele>
        <time>2022-07-14T06:57:05Z</time>
      </trkpt>
      <trkpt lat="44.8037" lon="0.38682">
        <ele>57.1</ele>
        <time>2022-07-14T06:57:07Z</time>
      </trkpt>
      <trkpt lat="44.80368" lon="0.38677">
        <ele>57.1</ele>
        <time>2022-07-14T06:57:08Z</time>
      </trkpt>
      <trkpt lat="44.80366" lon="0.38673">
        <ele>57.6</ele>
        <time>2022-07-14T06:57:09Z</time>
      </trkpt>
      <trkpt lat="44.80363" lon="0.38663">
        <ele>58.2</ele>
        <time>2022-07-14T06:57:11Z</time>
      </trkpt>
      <trkpt lat="44.80359" lon="0.38654">
        <ele>58.8</ele>
        <time>2022-07-14T06:57:13Z</time>
      </trkpt>
      <trkpt lat="44.80356" lon="0.38646">
        <ele>58.8</ele>
        <time>2022-07-14T06:57:15Z</time>
      </trkpt>
      <trkpt lat="44.80354" lon="0.38641">
        <ele>58.8</ele>
        <time>2022-07-14T06:57:16Z</time>
      </trkpt>
      <trkpt lat="44.80352" lon="0.38637">
        <ele>59.5</ele>
        <time>2022-07-14T06:57:17Z</time>
      </trkpt>
      <trkpt lat="44.80348" lon="0.38629">
        <ele>60.4</ele>
        <time>2022-07-14T06:57:19Z</time>
      </trkpt>
      <trkpt lat="44.80345" lon="0.38621">
        <ele>61.2</ele>
        <time>2022-07-14T06:57:21Z</time>
      </trkpt>
      <trkpt lat="44.80341" lon="0.38613">
        <ele>61.2</ele>
        <time>2022-07-14T06:57:23Z</time>
      </trkpt>
      <trkpt lat="44.80338" lon="0.38609">
        <ele>62.5</ele>
        <time>2022-07-14T06:57:24Z</time>
      </trkpt>
      <trkpt lat="44.80337" lon="0.38605">
        <ele>63.4</ele>
        <time>2022-07-14T06:57:25Z</time>
      </trkpt>
      <trkpt lat="44.80333" lon="0.38596">
        <ele>63.4</ele>
        <time>2022-07-14T06:57:27Z</time>
      </trkpt>
      <trkpt lat="44.80329" lon="0.38588">
        <ele>64.2</ele>
        <time>2022-07-14T06:57:29Z</time>
      </trkpt>
      <trkpt lat="44.80326" lon="0.3858">
        <ele>65.7</ele>
        <time>2022-07-14T06:57:31Z</time>
      </trkpt>
      <trkpt lat="44.80324" lon="0.38576">
        <ele>65.7</ele>
        <time>2022-07-14T06:57:32Z</time>
      </trkpt>
      <trkpt lat="44.80322" lon="0.38572">
        <ele>66.3</ele>
        <time>2022-07-14T06:57:33Z</time>
      </trkpt>
      <trkpt lat="44.80319" lon="0.38563">
        <ele>66.3</ele>
        <time>2022-07-14T06:57:35Z</time>
      </trkpt>
      <trkpt lat="44.80316" lon="0.38556">
        <ele>66.3</ele>
        <time>2022-07-14T06:57:37Z</time>
      </trkpt>
      <trkpt lat="44.80313" lon="0.38548">
        <ele>68.1</ele>
        <time>2022-07-14T06:57:39Z</time>
      </trkpt>
      <trkpt lat="44.8031" lon="0.3854">
        <ele>68.1</ele>
        <time>2022-07-14T06:57:41Z</time>
      </trkpt>
      <trkpt lat="44.80308" lon="0.38533">
        <ele>67.9</ele>
        <time>2022-07-14T06:57:43Z</time>
      </trkpt>
      <trkpt lat="44.80305" lon="0.38525">
        <ele>67.9</ele>
        <time>2022-07-14T06:57:45Z</time>
      </trkpt>
      <trkpt lat="44.80302" lon="0.38517">
        <ele>68.7</ele>
        <time>2022-07-14T06:57:47Z</time>
      </trkpt>
      <trkpt lat="44.80298" lon="0.3851">
        <ele>68.7</ele>
        <time>2022-07-14T06:57:49Z</time>
      </trkpt>
      <trkpt lat="44.80295" lon="0.38503">
        <ele>68</ele>
        <time>2022-07-14T06:57:51Z</time>
      </trkpt>
      <trkpt lat="44.80292" lon="0.38495">
        <ele>68</ele>
        <time>2022-07-14T06:57:53Z</time>
      </trkpt>
      <trkpt lat="44.8029" lon="0.38488">
        <ele>68.7</ele>
        <time>2022-07-14T06:57:55Z</time>
      </trkpt>
      <trkpt lat="44.80289" lon="0.38484">
        <ele>68.1</ele>
        <time>2022-07-14T06:57:56Z</time>
      </trkpt>
      <trkpt lat="44.80288" lon="0.38481">
        <ele>68.1</ele>
        <time>2022-07-14T06:57:57Z</time>
      </trkpt>
      <trkpt lat="44.80285" lon="0.38475">
        <ele>68.1</ele>
        <time>2022-07-14T06:57:59Z</time>
      </trkpt>
      <trkpt lat="44.80282" lon="0.38468">
        <ele>68.1</ele>
        <time>2022-07-14T06:58:01Z</time>
      </trkpt>
      <trkpt lat="44.8028" lon="0.38462">
        <ele>68.1</ele>
        <time>2022-07-14T06:58:03Z</time>
      </trkpt>
      <trkpt lat="44.80276" lon="0.38456">
        <ele>68.6</ele>
        <time>2022-07-14T06:58:05Z</time>
      </trkpt>
      <trkpt lat="44.80273" lon="0.3845">
        <ele>68.8</ele>
        <time>2022-07-14T06:58:07Z</time>
      </trkpt>
      <trkpt lat="44.8027" lon="0.38444">
        <ele>68.8</ele>
        <time>2022-07-14T06:58:09Z</time>
      </trkpt>
      <trkpt lat="44.80268" lon="0.38439">
        <ele>68.8</ele>
        <time>2022-07-14T06:58:11Z</time>
      </trkpt>
      <trkpt lat="44.80265" lon="0.38433">
        <ele>69.5</ele>
        <time>2022-07-14T06:58:13Z</time>
      </trkpt>
      <trkpt lat="44.80262" lon="0.38427">
        <ele>69.5</ele>
        <time>2022-07-14T06:58:15Z</time>
      </trkpt>
      <trkpt lat="44.80259" lon="0.3842">
        <ele>69.5</ele>
        <time>2022-07-14T06:58:17Z</time>
      </trkpt>
      <trkpt lat="44.80256" lon="0.38414">
        <ele>69.7</ele>
        <time>2022-07-14T06:58:19Z</time>
      </trkpt>
      <trkpt lat="44.80252" lon="0.38407">
        <ele>70.1</ele>
        <time>2022-07-14T06:58:21Z</time>
      </trkpt>
      <trkpt lat="44.80248" lon="0.38402">
        <ele>70.1</ele>
        <time>2022-07-14T06:58:23Z</time>
      </trkpt>
      <trkpt lat="44.80247" lon="0.38399">
        <ele>70.2</ele>
        <time>2022-07-14T06:58:24Z</time>
      </trkpt>
      <trkpt lat="44.80245" lon="0.38396">
        <ele>70.2</ele>
        <time>2022-07-14T06:58:25Z</time>
      </trkpt>
      <trkpt lat="44.80241" lon="0.3839">
        <ele>70.8</ele>
        <time>2022-07-14T06:58:27Z</time>
      </trkpt>
      <trkpt lat="44.80237" lon="0.38384">
        <ele>70.8</ele>
        <time>2022-07-14T06:58:29Z</time>
      </trkpt>
      <trkpt lat="44.80233" lon="0.38377">
        <ele>70.9</ele>
        <time>2022-07-14T06:58:31Z</time>
      </trkpt>
      <trkpt lat="44.80232" lon="0.38374">
        <ele>70.9</ele>
        <time>2022-07-14T06:58:32Z</time>
      </trkpt>
      <trkpt lat="44.8023" lon="0.38371">
        <ele>71.9</ele>
        <time>2022-07-14T06:58:33Z</time>
      </trkpt>
      <trkpt lat="44.80226" lon="0.38363">
        <ele>71.9</ele>
        <time>2022-07-14T06:58:35Z</time>
      </trkpt>
      <trkpt lat="44.80222" lon="0.38356">
        <ele>71.9</ele>
        <time>2022-07-14T06:58:37Z</time>
      </trkpt>
      <trkpt lat="44.80218" lon="0.3835">
        <ele>73.1</ele>
        <time>2022-07-14T06:58:39Z</time>
      </trkpt>
      <trkpt lat="44.80216" lon="0.38347">
        <ele>73</ele>
        <time>2022-07-14T06:58:40Z</time>
      </trkpt>
      <trkpt lat="44.80215" lon="0.38343">
        <ele>73</ele>
        <time>2022-07-14T06:58:41Z</time>
      </trkpt>
      <trkpt lat="44.80213" lon="0.38337">
        <ele>73</ele>
        <time>2022-07-14T06:58:43Z</time>
      </trkpt>
      <trkpt lat="44.80212" lon="0.3833">
        <ele>73.1</ele>
        <time>2022-07-14T06:58:45Z</time>
      </trkpt>
      <trkpt lat="44.8021" lon="0.38324">
        <ele>73.1</ele>
        <time>2022-07-14T06:58:47Z</time>
      </trkpt>
      <trkpt lat="44.80207" lon="0.38319">
        <ele>73.1</ele>
        <time>2022-07-14T06:58:49Z</time>
      </trkpt>
      <trkpt lat="44.80205" lon="0.38317">
        <ele>73.7</ele>
        <time>2022-07-14T06:58:50Z</time>
      </trkpt>
      <trkpt lat="44.80205" lon="0.38314">
        <ele>73.7</ele>
        <time>2022-07-14T06:58:51Z</time>
      </trkpt>
      <trkpt lat="44.80203" lon="0.38308">
        <ele>73.7</ele>
        <time>2022-07-14T06:58:53Z</time>
      </trkpt>
      <trkpt lat="44.80202" lon="0.38306">
        <ele>73.7</ele>
        <time>2022-07-14T06:58:54Z</time>
      </trkpt>
      <trkpt lat="44.80202" lon="0.38302">
        <ele>73.7</ele>
        <time>2022-07-14T06:58:55Z</time>
      </trkpt>
      <trkpt lat="44.802" lon="0.38297">
        <ele>74.2</ele>
        <time>2022-07-14T06:58:57Z</time>
      </trkpt>
      <trkpt lat="44.80196" lon="0.38292">
        <ele>74.2</ele>
        <time>2022-07-14T06:58:59Z</time>
      </trkpt>
      <trkpt lat="44.80195" lon="0.38289">
        <ele>74.2</ele>
        <time>2022-07-14T06:59:01Z</time>
      </trkpt>
      <trkpt lat="44.80191" lon="0.38283">
        <ele>75</ele>
        <time>2022-07-14T06:59:03Z</time>
      </trkpt>
      <trkpt lat="44.80189" lon="0.38278">
        <ele>75.4</ele>
        <time>2022-07-14T06:59:05Z</time>
      </trkpt>
      <trkpt lat="44.80187" lon="0.38274">
        <ele>75.4</ele>
        <time>2022-07-14T06:59:07Z</time>
      </trkpt>
      <trkpt lat="44.80186" lon="0.38272">
        <ele>75.4</ele>
        <time>2022-07-14T06:59:08Z</time>
      </trkpt>
      <trkpt lat="44.80184" lon="0.38269">
        <ele>75.4</ele>
        <time>2022-07-14T06:59:09Z</time>
      </trkpt>
      <trkpt lat="44.8018" lon="0.38265">
        <ele>76.2</ele>
        <time>2022-07-14T06:59:11Z</time>
      </trkpt>
      <trkpt lat="44.80177" lon="0.38261">
        <ele>76.7</ele>
        <time>2022-07-14T06:59:13Z</time>
      </trkpt>
      <trkpt lat="44.80176" lon="0.38259">
        <ele>76.7</ele>
        <time>2022-07-14T06:59:14Z</time>
      </trkpt>
      <trkpt lat="44.80174" lon="0.38256">
        <ele>76.7</ele>
        <time>2022-07-14T06:59:15Z</time>
      </trkpt>
      <trkpt lat="44.8017" lon="0.38252">
        <ele>76.7</ele>
        <time>2022-07-14T06:59:17Z</time>
      </trkpt>
      <trkpt lat="44.80166" lon="0.38247">
        <ele>77.9</ele>
        <time>2022-07-14T06:59:19Z</time>
      </trkpt>
      <trkpt lat="44.80163" lon="0.38243">
        <ele>78.7</ele>
        <time>2022-07-14T06:59:21Z</time>
      </trkpt>
      <trkpt lat="44.80157" lon="0.38237">
        <ele>78.6</ele>
        <time>2022-07-14T06:59:23Z</time>
      </trkpt>
      <trkpt lat="44.80155" lon="0.38236">
        <ele>79.8</ele>
        <time>2022-07-14T06:59:24Z</time>
      </trkpt>
      <trkpt lat="44.80153" lon="0.38234">
        <ele>79.8</ele>
        <time>2022-07-14T06:59:25Z</time>
      </trkpt>
      <trkpt lat="44.8015" lon="0.38231">
        <ele>79.8</ele>
        <time>2022-07-14T06:59:27Z</time>
      </trkpt>
      <trkpt lat="44.80148" lon="0.38229">
        <ele>80.5</ele>
        <time>2022-07-14T06:59:28Z</time>
      </trkpt>
      <trkpt lat="44.80146" lon="0.38227">
        <ele>80.5</ele>
        <time>2022-07-14T06:59:29Z</time>
      </trkpt>
      <trkpt lat="44.80143" lon="0.38223">
        <ele>81.5</ele>
        <time>2022-07-14T06:59:31Z</time>
      </trkpt>
      <trkpt lat="44.80141" lon="0.3822">
        <ele>81.5</ele>
        <time>2022-07-14T06:59:33Z</time>
      </trkpt>
      <trkpt lat="44.80137" lon="0.38217">
        <ele>81.5</ele>
        <time>2022-07-14T06:59:35Z</time>
      </trkpt>
      <trkpt lat="44.80135" lon="0.38215">
        <ele>81.5</ele>
        <time>2022-07-14T06:59:37Z</time>
      </trkpt>
      <trkpt lat="44.80131" lon="0.38211">
        <ele>82.5</ele>
        <time>2022-07-14T06:59:39Z</time>
      </trkpt>
      <trkpt lat="44.8013" lon="0.3821">
        <ele>82.5</ele>
        <time>2022-07-14T06:59:40Z</time>
      </trkpt>
      <trkpt lat="44.8013" lon="0.38208">
        <ele>82.5</ele>
        <time>2022-07-14T06:59:41Z</time>
      </trkpt>
      <trkpt lat="44.80128" lon="0.38208">
        <ele>82.5</ele>
        <time>2022-07-14T06:59:43Z</time>
      </trkpt>
      <trkpt lat="44.80125" lon="0.38204">
        <ele>82.5</ele>
        <time>2022-07-14T06:59:45Z</time>
      </trkpt>
      <trkpt lat="44.80122" lon="0.382">
        <ele>82.5</ele>
        <time>2022-07-14T06:59:47Z</time>
      </trkpt>
      <trkpt lat="44.80119" lon="0.38196">
        <ele>83.2</ele>
        <time>2022-07-14T06:59:49Z</time>
      </trkpt>
      <trkpt lat="44.80116" lon="0.38194">
        <ele>82.6</ele>
        <time>2022-07-14T06:59:50Z</time>
      </trkpt>
      <trkpt lat="44.80114" lon="0.38192">
        <ele>82.6</ele>
        <time>2022-07-14T06:59:51Z</time>
      </trkpt>
      <trkpt lat="44.8011" lon="0.38188">
        <ele>82.6</ele>
        <time>2022-07-14T06:59:53Z</time>
      </trkpt>
      <trkpt lat="44.80106" lon="0.38184">
        <ele>83</ele>
        <time>2022-07-14T06:59:55Z</time>
      </trkpt>
      <trkpt lat="44.80105" lon="0.38182">
        <ele>83</ele>
        <time>2022-07-14T06:59:56Z</time>
      </trkpt>
      <trkpt lat="44.80102" lon="0.38179">
        <ele>83</ele>
        <time>2022-07-14T06:59:57Z</time>
      </trkpt>
      <trkpt lat="44.80096" lon="0.38173">
        <ele>82.2</ele>
        <time>2022-07-14T06:59:59Z</time>
      </trkpt>
      <trkpt lat="44.80092" lon="0.38169">
        <ele>82.4</ele>
        <time>2022-07-14T07:00:01Z</time>
      </trkpt>
      <trkpt lat="44.80086" lon="0.38163">
        <ele>82.4</ele>
        <time>2022-07-14T07:00:03Z</time>
      </trkpt>
      <trkpt lat="44.80082" lon="0.38153">
        <ele>81.2</ele>
        <time>2022-07-14T07:00:05Z</time>
      </trkpt>
      <trkpt lat="44.80079" lon="0.38149">
        <ele>81.1</ele>
        <time>2022-07-14T07:00:06Z</time>
      </trkpt>
      <trkpt lat="44.80076" lon="0.38143">
        <ele>80</ele>
        <time>2022-07-14T07:00:07Z</time>
      </trkpt>
      <trkpt lat="44.8007" lon="0.38135">
        <ele>79.5</ele>
        <time>2022-07-14T07:00:09Z</time>
      </trkpt>
      <trkpt lat="44.80066" lon="0.38125">
        <ele>78.6</ele>
        <time>2022-07-14T07:00:11Z</time>
      </trkpt>
      <trkpt lat="44.80063" lon="0.38119">
        <ele>78.6</ele>
        <time>2022-07-14T07:00:12Z</time>
      </trkpt>
      <trkpt lat="44.80061" lon="0.38114">
        <ele>78.5</ele>
        <time>2022-07-14T07:00:13Z</time>
      </trkpt>
      <trkpt lat="44.80058" lon="0.38109">
        <ele>78</ele>
        <time>2022-07-14T07:00:14Z</time>
      </trkpt>
      <trkpt lat="44.80055" lon="0.38104">
        <ele>77.3</ele>
        <time>2022-07-14T07:00:15Z</time>
      </trkpt>
      <trkpt lat="44.8005" lon="0.38094">
        <ele>77.3</ele>
        <time>2022-07-14T07:00:17Z</time>
      </trkpt>
      <trkpt lat="44.80047" lon="0.38089">
        <ele>76.4</ele>
        <time>2022-07-14T07:00:18Z</time>
      </trkpt>
      <trkpt lat="44.80044" lon="0.38083">
        <ele>76.4</ele>
        <time>2022-07-14T07:00:19Z</time>
      </trkpt>
      <trkpt lat="44.80037" lon="0.38073">
        <ele>76.1</ele>
        <time>2022-07-14T07:00:21Z</time>
      </trkpt>
      <trkpt lat="44.80028" lon="0.38062">
        <ele>75.8</ele>
        <time>2022-07-14T07:00:23Z</time>
      </trkpt>
      <trkpt lat="44.80024" lon="0.38056">
        <ele>75.6</ele>
        <time>2022-07-14T07:00:24Z</time>
      </trkpt>
      <trkpt lat="44.80019" lon="0.3805">
        <ele>75.3</ele>
        <time>2022-07-14T07:00:25Z</time>
      </trkpt>
      <trkpt lat="44.80009" lon="0.38038">
        <ele>74.9</ele>
        <time>2022-07-14T07:00:27Z</time>
      </trkpt>
      <trkpt lat="44.8" lon="0.38024">
        <ele>74.9</ele>
        <time>2022-07-14T07:00:29Z</time>
      </trkpt>
      <trkpt lat="44.79996" lon="0.38017">
        <ele>74.6</ele>
        <time>2022-07-14T07:00:30Z</time>
      </trkpt>
      <trkpt lat="44.79992" lon="0.38012">
        <ele>74.5</ele>
        <time>2022-07-14T07:00:31Z</time>
      </trkpt>
      <trkpt lat="44.79983" lon="0.38001">
        <ele>74.3</ele>
        <time>2022-07-14T07:00:33Z</time>
      </trkpt>
      <trkpt lat="44.79975" lon="0.37989">
        <ele>74.3</ele>
        <time>2022-07-14T07:00:35Z</time>
      </trkpt>
      <trkpt lat="44.79965" lon="0.37978">
        <ele>74</ele>
        <time>2022-07-14T07:00:37Z</time>
      </trkpt>
      <trkpt lat="44.79956" lon="0.37967">
        <ele>74.4</ele>
        <time>2022-07-14T07:00:39Z</time>
      </trkpt>
      <trkpt lat="44.79947" lon="0.37955">
        <ele>74</ele>
        <time>2022-07-14T07:00:41Z</time>
      </trkpt>
      <trkpt lat="44.79943" lon="0.37949">
        <ele>75.1</ele>
        <time>2022-07-14T07:00:42Z</time>
      </trkpt>
      <trkpt lat="44.7994" lon="0.37943">
        <ele>75.1</ele>
        <time>2022-07-14T07:00:43Z</time>
      </trkpt>
      <trkpt lat="44.79938" lon="0.37938">
        <ele>74.8</ele>
        <time>2022-07-14T07:00:44Z</time>
      </trkpt>
      <trkpt lat="44.79934" lon="0.37932">
        <ele>76.1</ele>
        <time>2022-07-14T07:00:45Z</time>
      </trkpt>
      <trkpt lat="44.7993" lon="0.37928">
        <ele>76.1</ele>
        <time>2022-07-14T07:00:46Z</time>
      </trkpt>
      <trkpt lat="44.79927" lon="0.37921">
        <ele>76.1</ele>
        <time>2022-07-14T07:00:47Z</time>
      </trkpt>
      <trkpt lat="44.79926" lon="0.37914">
        <ele>77.5</ele>
        <time>2022-07-14T07:00:48Z</time>
      </trkpt>
      <trkpt lat="44.79924" lon="0.37908">
        <ele>76.7</ele>
        <time>2022-07-14T07:00:49Z</time>
      </trkpt>
      <trkpt lat="44.79921" lon="0.37903">
        <ele>76.7</ele>
        <time>2022-07-14T07:00:50Z</time>
      </trkpt>
      <trkpt lat="44.79919" lon="0.37901">
        <ele>77.6</ele>
        <time>2022-07-14T07:00:51Z</time>
      </trkpt>
      <trkpt lat="44.79918" lon="0.37895">
        <ele>77.6</ele>
        <time>2022-07-14T07:00:52Z</time>
      </trkpt>
      <trkpt lat="44.79917" lon="0.37888">
        <ele>77.6</ele>
        <time>2022-07-14T07:00:53Z</time>
      </trkpt>
      <trkpt lat="44.79914" lon="0.37877">
        <ele>78.4</ele>
        <time>2022-07-14T07:00:55Z</time>
      </trkpt>
      <trkpt lat="44.79912" lon="0.37871">
        <ele>77.4</ele>
        <time>2022-07-14T07:00:56Z</time>
      </trkpt>
      <trkpt lat="44.79909" lon="0.37865">
        <ele>78.2</ele>
        <time>2022-07-14T07:00:57Z</time>
      </trkpt>
      <trkpt lat="44.79902" lon="0.37853">
        <ele>78.2</ele>
        <time>2022-07-14T07:00:59Z</time>
      </trkpt>
      <trkpt lat="44.79897" lon="0.37848">
        <ele>77.9</ele>
        <time>2022-07-14T07:01:00Z</time>
      </trkpt>
      <trkpt lat="44.79893" lon="0.37842">
        <ele>77.9</ele>
        <time>2022-07-14T07:01:01Z</time>
      </trkpt>
      <trkpt lat="44.79889" lon="0.37838">
        <ele>76.9</ele>
        <time>2022-07-14T07:01:02Z</time>
      </trkpt>
      <trkpt lat="44.79885" lon="0.37836">
        <ele>76.9</ele>
        <time>2022-07-14T07:01:03Z</time>
      </trkpt>
      <trkpt lat="44.79876" lon="0.37833">
        <ele>76.9</ele>
        <time>2022-07-14T07:01:05Z</time>
      </trkpt>
      <trkpt lat="44.7987" lon="0.37827">
        <ele>76.9</ele>
        <time>2022-07-14T07:01:07Z</time>
      </trkpt>
      <trkpt lat="44.79861" lon="0.37824">
        <ele>76.2</ele>
        <time>2022-07-14T07:01:09Z</time>
      </trkpt>
      <trkpt lat="44.79855" lon="0.37823">
        <ele>76.2</ele>
        <time>2022-07-14T07:01:11Z</time>
      </trkpt>
      <trkpt lat="44.79852" lon="0.3782">
        <ele>75.7</ele>
        <time>2022-07-14T07:01:12Z</time>
      </trkpt>
      <trkpt lat="44.7985" lon="0.37817">
        <ele>75.6</ele>
        <time>2022-07-14T07:01:13Z</time>
      </trkpt>
      <trkpt lat="44.79849" lon="0.37813">
        <ele>76.9</ele>
        <time>2022-07-14T07:01:14Z</time>
      </trkpt>
      <trkpt lat="44.79847" lon="0.37809">
        <ele>76.9</ele>
        <time>2022-07-14T07:01:15Z</time>
      </trkpt>
      <trkpt lat="44.79846" lon="0.37805">
        <ele>76.9</ele>
        <time>2022-07-14T07:01:16Z</time>
      </trkpt>
      <trkpt lat="44.79846" lon="0.37803">
        <ele>76.9</ele>
        <time>2022-07-14T07:01:17Z</time>
      </trkpt>
      <trkpt lat="44.79842" lon="0.37796">
        <ele>78.5</ele>
        <time>2022-07-14T07:01:19Z</time>
      </trkpt>
      <trkpt lat="44.79838" lon="0.37793">
        <ele>77.7</ele>
        <time>2022-07-14T07:01:20Z</time>
      </trkpt>
      <trkpt lat="44.79834" lon="0.37791">
        <ele>77.7</ele>
        <time>2022-07-14T07:01:21Z</time>
      </trkpt>
      <trkpt lat="44.79826" lon="0.37784">
        <ele>76.5</ele>
        <time>2022-07-14T07:01:23Z</time>
      </trkpt>
      <trkpt lat="44.79821" lon="0.3778">
        <ele>78.3</ele>
        <time>2022-07-14T07:01:24Z</time>
      </trkpt>
      <trkpt lat="44.79816" lon="0.37776">
        <ele>77</ele>
        <time>2022-07-14T07:01:25Z</time>
      </trkpt>
      <trkpt lat="44.7981" lon="0.37771">
        <ele>77</ele>
        <time>2022-07-14T07:01:26Z</time>
      </trkpt>
      <trkpt lat="44.79806" lon="0.37767">
        <ele>77</ele>
        <time>2022-07-14T07:01:27Z</time>
      </trkpt>
      <trkpt lat="44.79801" lon="0.37762">
        <ele>77.4</ele>
        <time>2022-07-14T07:01:28Z</time>
      </trkpt>
      <trkpt lat="44.79796" lon="0.37757">
        <ele>77.4</ele>
        <time>2022-07-14T07:01:29Z</time>
      </trkpt>
      <trkpt lat="44.79787" lon="0.37747">
        <ele>78.4</ele>
        <time>2022-07-14T07:01:31Z</time>
      </trkpt>
      <trkpt lat="44.79783" lon="0.3774">
        <ele>78.4</ele>
        <time>2022-07-14T07:01:32Z</time>
      </trkpt>
      <trkpt lat="44.79779" lon="0.37734">
        <ele>77.4</ele>
        <time>2022-07-14T07:01:33Z</time>
      </trkpt>
      <trkpt lat="44.79772" lon="0.37721">
        <ele>79</ele>
        <time>2022-07-14T07:01:35Z</time>
      </trkpt>
      <trkpt lat="44.79767" lon="0.37708">
        <ele>79.6</ele>
        <time>2022-07-14T07:01:37Z</time>
      </trkpt>
      <trkpt lat="44.79763" lon="0.377">
        <ele>79.6</ele>
        <time>2022-07-14T07:01:39Z</time>
      </trkpt>
      <trkpt lat="44.7976" lon="0.37692">
        <ele>81.8</ele>
        <time>2022-07-14T07:01:41Z</time>
      </trkpt>
      <trkpt lat="44.79756" lon="0.37684">
        <ele>81.8</ele>
        <time>2022-07-14T07:01:43Z</time>
      </trkpt>
      <trkpt lat="44.7975" lon="0.37677">
        <ele>82.9</ele>
        <time>2022-07-14T07:01:45Z</time>
      </trkpt>
      <trkpt lat="44.79748" lon="0.37672">
        <ele>82.9</ele>
        <time>2022-07-14T07:01:47Z</time>
      </trkpt>
      <trkpt lat="44.79744" lon="0.37667">
        <ele>82.9</ele>
        <time>2022-07-14T07:01:49Z</time>
      </trkpt>
      <trkpt lat="44.79739" lon="0.37664">
        <ele>81.4</ele>
        <time>2022-07-14T07:01:50Z</time>
      </trkpt>
      <trkpt lat="44.79735" lon="0.37661">
        <ele>84.2</ele>
        <time>2022-07-14T07:01:51Z</time>
      </trkpt>
      <trkpt lat="44.79731" lon="0.37655">
        <ele>82.5</ele>
        <time>2022-07-14T07:01:53Z</time>
      </trkpt>
      <trkpt lat="44.79722" lon="0.37645">
        <ele>84.9</ele>
        <time>2022-07-14T07:01:55Z</time>
      </trkpt>
      <trkpt lat="44.79715" lon="0.37638">
        <ele>82.3</ele>
        <time>2022-07-14T07:01:57Z</time>
      </trkpt>
      <trkpt lat="44.79707" lon="0.37628">
        <ele>82.3</ele>
        <time>2022-07-14T07:01:59Z</time>
      </trkpt>
      <trkpt lat="44.79701" lon="0.37621">
        <ele>81</ele>
        <time>2022-07-14T07:02:01Z</time>
      </trkpt>
      <trkpt lat="44.79695" lon="0.37616">
        <ele>81</ele>
        <time>2022-07-14T07:02:03Z</time>
      </trkpt>
      <trkpt lat="44.79689" lon="0.37606">
        <ele>78.7</ele>
        <time>2022-07-14T07:02:05Z</time>
      </trkpt>
      <trkpt lat="44.79683" lon="0.37593">
        <ele>79.6</ele>
        <time>2022-07-14T07:02:07Z</time>
      </trkpt>
      <trkpt lat="44.79679" lon="0.37583">
        <ele>76.3</ele>
        <time>2022-07-14T07:02:09Z</time>
      </trkpt>
      <trkpt lat="44.79673" lon="0.37571">
        <ele>77.2</ele>
        <time>2022-07-14T07:02:11Z</time>
      </trkpt>
      <trkpt lat="44.79667" lon="0.37562">
        <ele>73.5</ele>
        <time>2022-07-14T07:02:13Z</time>
      </trkpt>
      <trkpt lat="44.79662" lon="0.37554">
        <ele>74.8</ele>
        <time>2022-07-14T07:02:15Z</time>
      </trkpt>
      <trkpt lat="44.79658" lon="0.37543">
        <ele>71.6</ele>
        <time>2022-07-14T07:02:17Z</time>
      </trkpt>
      <trkpt lat="44.79653" lon="0.37532">
        <ele>72.9</ele>
        <time>2022-07-14T07:02:19Z</time>
      </trkpt>
      <trkpt lat="44.79648" lon="0.37524">
        <ele>74.2</ele>
        <time>2022-07-14T07:02:21Z</time>
      </trkpt>
      <trkpt lat="44.79645" lon="0.37521">
        <ele>70.7</ele>
        <time>2022-07-14T07:02:23Z</time>
      </trkpt>
      <trkpt lat="44.7964" lon="0.37513">
        <ele>70.7</ele>
        <time>2022-07-14T07:02:25Z</time>
      </trkpt>
      <trkpt lat="44.79637" lon="0.37506">
        <ele>72.1</ele>
        <time>2022-07-14T07:02:27Z</time>
      </trkpt>
      <trkpt lat="44.79634" lon="0.37504">
        <ele>72.1</ele>
        <time>2022-07-14T07:02:28Z</time>
      </trkpt>
      <trkpt lat="44.79631" lon="0.375">
        <ele>68.5</ele>
        <time>2022-07-14T07:02:29Z</time>
      </trkpt>
      <trkpt lat="44.79628" lon="0.37494">
        <ele>68.5</ele>
        <time>2022-07-14T07:02:31Z</time>
      </trkpt>
      <trkpt lat="44.79625" lon="0.37488">
        <ele>69.9</ele>
        <time>2022-07-14T07:02:33Z</time>
      </trkpt>
      <trkpt lat="44.79619" lon="0.37478">
        <ele>66.8</ele>
        <time>2022-07-14T07:02:35Z</time>
      </trkpt>
      <trkpt lat="44.79613" lon="0.37467">
        <ele>68</ele>
        <time>2022-07-14T07:02:37Z</time>
      </trkpt>
      <trkpt lat="44.7961" lon="0.37461">
        <ele>68</ele>
        <time>2022-07-14T07:02:38Z</time>
      </trkpt>
      <trkpt lat="44.79606" lon="0.37458">
        <ele>64.9</ele>
        <time>2022-07-14T07:02:39Z</time>
      </trkpt>
      <trkpt lat="44.79599" lon="0.37456">
        <ele>65.7</ele>
        <time>2022-07-14T07:02:41Z</time>
      </trkpt>
      <trkpt lat="44.79593" lon="0.37453">
        <ele>62.9</ele>
        <time>2022-07-14T07:02:43Z</time>
      </trkpt>
      <trkpt lat="44.79589" lon="0.37455">
        <ele>62.9</ele>
        <time>2022-07-14T07:02:44Z</time>
      </trkpt>
      <trkpt lat="44.79585" lon="0.37456">
        <ele>62.9</ele>
        <time>2022-07-14T07:02:45Z</time>
      </trkpt>
      <trkpt lat="44.7958" lon="0.37456">
        <ele>59.8</ele>
        <time>2022-07-14T07:02:47Z</time>
      </trkpt>
      <trkpt lat="44.79576" lon="0.37458">
        <ele>59.5</ele>
        <time>2022-07-14T07:02:49Z</time>
      </trkpt>
      <trkpt lat="44.79574" lon="0.37457">
        <ele>59.5</ele>
        <time>2022-07-14T07:02:50Z</time>
      </trkpt>
      <trkpt lat="44.79572" lon="0.37457">
        <ele>57.4</ele>
        <time>2022-07-14T07:02:51Z</time>
      </trkpt>
      <trkpt lat="44.79562" lon="0.37457">
        <ele>57.4</ele>
        <time>2022-07-14T07:02:53Z</time>
      </trkpt>
      <trkpt lat="44.79558" lon="0.37454">
        <ele>55.2</ele>
        <time>2022-07-14T07:02:54Z</time>
      </trkpt>
      <trkpt lat="44.79553" lon="0.37452">
        <ele>55.2</ele>
        <time>2022-07-14T07:02:55Z</time>
      </trkpt>
      <trkpt lat="44.79552" lon="0.37454">
        <ele>55</ele>
        <time>2022-07-14T07:02:56Z</time>
      </trkpt>
      <trkpt lat="44.79551" lon="0.37458">
        <ele>54.6</ele>
        <time>2022-07-14T07:02:57Z</time>
      </trkpt>
      <trkpt lat="44.79547" lon="0.37469">
        <ele>53.5</ele>
        <time>2022-07-14T07:02:59Z</time>
      </trkpt>
      <trkpt lat="44.79543" lon="0.37481">
        <ele>52.5</ele>
        <time>2022-07-14T07:03:01Z</time>
      </trkpt>
      <trkpt lat="44.7954" lon="0.37488">
        <ele>51.9</ele>
        <time>2022-07-14T07:03:02Z</time>
      </trkpt>
      <trkpt lat="44.79537" lon="0.37496">
        <ele>51.4</ele>
        <time>2022-07-14T07:03:03Z</time>
      </trkpt>
      <trkpt lat="44.79534" lon="0.37504">
        <ele>50.8</ele>
        <time>2022-07-14T07:03:04Z</time>
      </trkpt>
      <trkpt lat="44.79531" lon="0.37511">
        <ele>50.3</ele>
        <time>2022-07-14T07:03:05Z</time>
      </trkpt>
      <trkpt lat="44.79526" lon="0.37526">
        <ele>49.2</ele>
        <time>2022-07-14T07:03:07Z</time>
      </trkpt>
      <trkpt lat="44.7952" lon="0.37534">
        <ele>48.6</ele>
        <time>2022-07-14T07:03:09Z</time>
      </trkpt>
      <trkpt lat="44.79514" lon="0.37534">
        <ele>48.4</ele>
        <time>2022-07-14T07:03:11Z</time>
      </trkpt>
      <trkpt lat="44.7951" lon="0.37534">
        <ele>48.3</ele>
        <time>2022-07-14T07:03:12Z</time>
      </trkpt>
      <trkpt lat="44.79505" lon="0.37534">
        <ele>48.2</ele>
        <time>2022-07-14T07:03:13Z</time>
      </trkpt>
      <trkpt lat="44.79495" lon="0.37534">
        <ele>48</ele>
        <time>2022-07-14T07:03:15Z</time>
      </trkpt>
      <trkpt lat="44.79483" lon="0.37534">
        <ele>48</ele>
        <time>2022-07-14T07:03:17Z</time>
      </trkpt>
      <trkpt lat="44.79472" lon="0.37534">
        <ele>48.2</ele>
        <time>2022-07-14T07:03:19Z</time>
      </trkpt>
      <trkpt lat="44.7946" lon="0.37534">
        <ele>48</ele>
        <time>2022-07-14T07:03:21Z</time>
      </trkpt>
      <trkpt lat="44.79454" lon="0.37535">
        <ele>47.8</ele>
        <time>2022-07-14T07:03:22Z</time>
      </trkpt>
      <trkpt lat="44.79448" lon="0.37535">
        <ele>47.6</ele>
        <time>2022-07-14T07:03:23Z</time>
      </trkpt>
      <trkpt lat="44.79437" lon="0.37536">
        <ele>47.3</ele>
        <time>2022-07-14T07:03:25Z</time>
      </trkpt>
      <trkpt lat="44.79425" lon="0.37537">
        <ele>46.9</ele>
        <time>2022-07-14T07:03:27Z</time>
      </trkpt>
      <trkpt lat="44.79414" lon="0.37538">
        <ele>46.6</ele>
        <time>2022-07-14T07:03:29Z</time>
      </trkpt>
      <trkpt lat="44.79402" lon="0.3754">
        <ele>46.4</ele>
        <time>2022-07-14T07:03:31Z</time>
      </trkpt>
      <trkpt lat="44.79391" lon="0.37542">
        <ele>46.1</ele>
        <time>2022-07-14T07:03:33Z</time>
      </trkpt>
      <trkpt lat="44.79379" lon="0.37544">
        <ele>45.9</ele>
        <time>2022-07-14T07:03:35Z</time>
      </trkpt>
      <trkpt lat="44.79368" lon="0.37547">
        <ele>45.6</ele>
        <time>2022-07-14T07:03:37Z</time>
      </trkpt>
      <trkpt lat="44.79358" lon="0.37555">
        <ele>45.4</ele>
        <time>2022-07-14T07:03:39Z</time>
      </trkpt>
      <trkpt lat="44.79354" lon="0.37558">
        <ele>45.3</ele>
        <time>2022-07-14T07:03:40Z</time>
      </trkpt>
      <trkpt lat="44.7935" lon="0.37561">
        <ele>45.3</ele>
        <time>2022-07-14T07:03:41Z</time>
      </trkpt>
      <trkpt lat="44.7934" lon="0.37569">
        <ele>45.1</ele>
        <time>2022-07-14T07:03:43Z</time>
      </trkpt>
      <trkpt lat="44.79335" lon="0.37573">
        <ele>45.1</ele>
        <time>2022-07-14T07:03:44Z</time>
      </trkpt>
      <trkpt lat="44.79331" lon="0.37576">
        <ele>45</ele>
        <time>2022-07-14T07:03:45Z</time>
      </trkpt>
      <trkpt lat="44.79322" lon="0.37583">
        <ele>44.8</ele>
        <time>2022-07-14T07:03:47Z</time>
      </trkpt>
      <trkpt lat="44.79312" lon="0.37591">
        <ele>44.6</ele>
        <time>2022-07-14T07:03:49Z</time>
      </trkpt>
      <trkpt lat="44.79302" lon="0.37599">
        <ele>44.5</ele>
        <time>2022-07-14T07:03:51Z</time>
      </trkpt>
      <trkpt lat="44.79293" lon="0.37606">
        <ele>44.5</ele>
        <time>2022-07-14T07:03:53Z</time>
      </trkpt>
      <trkpt lat="44.79284" lon="0.37612">
        <ele>44.4</ele>
        <time>2022-07-14T07:03:55Z</time>
      </trkpt>
      <trkpt lat="44.79274" lon="0.3762">
        <ele>44.4</ele>
        <time>2022-07-14T07:03:57Z</time>
      </trkpt>
      <trkpt lat="44.79271" lon="0.37624">
        <ele>44.4</ele>
        <time>2022-07-14T07:03:58Z</time>
      </trkpt>
      <trkpt lat="44.79267" lon="0.37629">
        <ele>44.3</ele>
        <time>2022-07-14T07:03:59Z</time>
      </trkpt>
      <trkpt lat="44.79261" lon="0.3764">
        <ele>44.3</ele>
        <time>2022-07-14T07:04:01Z</time>
      </trkpt>
      <trkpt lat="44.79258" lon="0.37645">
        <ele>44.3</ele>
        <time>2022-07-14T07:04:02Z</time>
      </trkpt>
      <trkpt lat="44.79255" lon="0.37651">
        <ele>44.3</ele>
        <time>2022-07-14T07:04:03Z</time>
      </trkpt>
      <trkpt lat="44.79248" lon="0.37662">
        <ele>44.4</ele>
        <time>2022-07-14T07:04:05Z</time>
      </trkpt>
      <trkpt lat="44.79243" lon="0.37671">
        <ele>44.4</ele>
        <time>2022-07-14T07:04:07Z</time>
      </trkpt>
      <trkpt lat="44.7924" lon="0.37676">
        <ele>44.4</ele>
        <time>2022-07-14T07:04:08Z</time>
      </trkpt>
      <trkpt lat="44.79237" lon="0.37681">
        <ele>44.4</ele>
        <time>2022-07-14T07:04:09Z</time>
      </trkpt>
      <trkpt lat="44.79231" lon="0.37691">
        <ele>44.4</ele>
        <time>2022-07-14T07:04:11Z</time>
      </trkpt>
      <trkpt lat="44.79228" lon="0.37695">
        <ele>44.3</ele>
        <time>2022-07-14T07:04:12Z</time>
      </trkpt>
      <trkpt lat="44.79225" lon="0.377">
        <ele>44.3</ele>
        <time>2022-07-14T07:04:13Z</time>
      </trkpt>
      <trkpt lat="44.79222" lon="0.37706">
        <ele>44.3</ele>
        <time>2022-07-14T07:04:14Z</time>
      </trkpt>
      <trkpt lat="44.79219" lon="0.3771">
        <ele>44.3</ele>
        <time>2022-07-14T07:04:15Z</time>
      </trkpt>
      <trkpt lat="44.79214" lon="0.37718">
        <ele>44.3</ele>
        <time>2022-07-14T07:04:17Z</time>
      </trkpt>
      <trkpt lat="44.79211" lon="0.37724">
        <ele>44.3</ele>
        <time>2022-07-14T07:04:18Z</time>
      </trkpt>
      <trkpt lat="44.79208" lon="0.37729">
        <ele>44.3</ele>
        <time>2022-07-14T07:04:19Z</time>
      </trkpt>
      <trkpt lat="44.79204" lon="0.37735">
        <ele>44.3</ele>
        <time>2022-07-14T07:04:20Z</time>
      </trkpt>
      <trkpt lat="44.792" lon="0.37741">
        <ele>44.4</ele>
        <time>2022-07-14T07:04:21Z</time>
      </trkpt>
      <trkpt lat="44.79194" lon="0.37754">
        <ele>44.6</ele>
        <time>2022-07-14T07:04:23Z</time>
      </trkpt>
      <trkpt lat="44.79188" lon="0.37766">
        <ele>44.8</ele>
        <time>2022-07-14T07:04:25Z</time>
      </trkpt>
      <trkpt lat="44.79185" lon="0.37772">
        <ele>44.8</ele>
        <time>2022-07-14T07:04:26Z</time>
      </trkpt>
      <trkpt lat="44.79182" lon="0.37777">
        <ele>44.9</ele>
        <time>2022-07-14T07:04:27Z</time>
      </trkpt>
      <trkpt lat="44.79179" lon="0.37783">
        <ele>45</ele>
        <time>2022-07-14T07:04:28Z</time>
      </trkpt>
      <trkpt lat="44.79176" lon="0.37789">
        <ele>45.1</ele>
        <time>2022-07-14T07:04:29Z</time>
      </trkpt>
      <trkpt lat="44.79173" lon="0.37795">
        <ele>45.2</ele>
        <time>2022-07-14T07:04:30Z</time>
      </trkpt>
      <trkpt lat="44.7917" lon="0.378">
        <ele>45.3</ele>
        <time>2022-07-14T07:04:31Z</time>
      </trkpt>
      <trkpt lat="44.79165" lon="0.37812">
        <ele>45.7</ele>
        <time>2022-07-14T07:04:33Z</time>
      </trkpt>
      <trkpt lat="44.79161" lon="0.37821">
        <ele>45.9</ele>
        <time>2022-07-14T07:04:35Z</time>
      </trkpt>
      <trkpt lat="44.79159" lon="0.37826">
        <ele>46</ele>
        <time>2022-07-14T07:04:36Z</time>
      </trkpt>
      <trkpt lat="44.79157" lon="0.37831">
        <ele>46</ele>
        <time>2022-07-14T07:04:37Z</time>
      </trkpt>
      <trkpt lat="44.79155" lon="0.37837">
        <ele>46</ele>
        <time>2022-07-14T07:04:38Z</time>
      </trkpt>
      <trkpt lat="44.79153" lon="0.37842">
        <ele>46.1</ele>
        <time>2022-07-14T07:04:39Z</time>
      </trkpt>
      <trkpt lat="44.79149" lon="0.37853">
        <ele>46.2</ele>
        <time>2022-07-14T07:04:41Z</time>
      </trkpt>
      <trkpt lat="44.79145" lon="0.37863">
        <ele>46.4</ele>
        <time>2022-07-14T07:04:43Z</time>
      </trkpt>
      <trkpt lat="44.79143" lon="0.37872">
        <ele>46.6</ele>
        <time>2022-07-14T07:04:45Z</time>
      </trkpt>
      <trkpt lat="44.79141" lon="0.37882">
        <ele>46.8</ele>
        <time>2022-07-14T07:04:47Z</time>
      </trkpt>
      <trkpt lat="44.79139" lon="0.37888">
        <ele>47</ele>
        <time>2022-07-14T07:04:48Z</time>
      </trkpt>
      <trkpt lat="44.79138" lon="0.37894">
        <ele>47.2</ele>
        <time>2022-07-14T07:04:49Z</time>
      </trkpt>
      <trkpt lat="44.79134" lon="0.37905">
        <ele>47.4</ele>
        <time>2022-07-14T07:04:51Z</time>
      </trkpt>
      <trkpt lat="44.79129" lon="0.37916">
        <ele>47.6</ele>
        <time>2022-07-14T07:04:53Z</time>
      </trkpt>
      <trkpt lat="44.79125" lon="0.37927">
        <ele>47.8</ele>
        <time>2022-07-14T07:04:55Z</time>
      </trkpt>
      <trkpt lat="44.79119" lon="0.37936">
        <ele>48.1</ele>
        <time>2022-07-14T07:04:57Z</time>
      </trkpt>
      <trkpt lat="44.79116" lon="0.3794">
        <ele>48.2</ele>
        <time>2022-07-14T07:04:58Z</time>
      </trkpt>
      <trkpt lat="44.79113" lon="0.37945">
        <ele>48.4</ele>
        <time>2022-07-14T07:04:59Z</time>
      </trkpt>
      <trkpt lat="44.79107" lon="0.37954">
        <ele>48.6</ele>
        <time>2022-07-14T07:05:01Z</time>
      </trkpt>
      <trkpt lat="44.79101" lon="0.37963">
        <ele>48.9</ele>
        <time>2022-07-14T07:05:03Z</time>
      </trkpt>
      <trkpt lat="44.79098" lon="0.37968">
        <ele>49</ele>
        <time>2022-07-14T07:05:04Z</time>
      </trkpt>
      <trkpt lat="44.79094" lon="0.37973">
        <ele>49.1</ele>
        <time>2022-07-14T07:05:05Z</time>
      </trkpt>
      <trkpt lat="44.79091" lon="0.37978">
        <ele>49.2</ele>
        <time>2022-07-14T07:05:06Z</time>
      </trkpt>
      <trkpt lat="44.79088" lon="0.37982">
        <ele>49.3</ele>
        <time>2022-07-14T07:05:07Z</time>
      </trkpt>
      <trkpt lat="44.79085" lon="0.37987">
        <ele>49.3</ele>
        <time>2022-07-14T07:05:08Z</time>
      </trkpt>
      <trkpt lat="44.79082" lon="0.37991">
        <ele>49.4</ele>
        <time>2022-07-14T07:05:09Z</time>
      </trkpt>
      <trkpt lat="44.79076" lon="0.38001">
        <ele>49.3</ele>
        <time>2022-07-14T07:05:11Z</time>
      </trkpt>
      <trkpt lat="44.79069" lon="0.38011">
        <ele>49.3</ele>
        <time>2022-07-14T07:05:13Z</time>
      </trkpt>
      <trkpt lat="44.79062" lon="0.38021">
        <ele>49.2</ele>
        <time>2022-07-14T07:05:15Z</time>
      </trkpt>
      <trkpt lat="44.79056" lon="0.3803">
        <ele>49.1</ele>
        <time>2022-07-14T07:05:17Z</time>
      </trkpt>
      <trkpt lat="44.79048" lon="0.38038">
        <ele>49</ele>
        <time>2022-07-14T07:05:19Z</time>
      </trkpt>
      <trkpt lat="44.79045" lon="0.38041">
        <ele>48.9</ele>
        <time>2022-07-14T07:05:20Z</time>
      </trkpt>
      <trkpt lat="44.79041" lon="0.38045">
        <ele>48.8</ele>
        <time>2022-07-14T07:05:21Z</time>
      </trkpt>
      <trkpt lat="44.79033" lon="0.38053">
        <ele>48.6</ele>
        <time>2022-07-14T07:05:23Z</time>
      </trkpt>
      <trkpt lat="44.79025" lon="0.3806">
        <ele>48.4</ele>
        <time>2022-07-14T07:05:25Z</time>
      </trkpt>
      <trkpt lat="44.79017" lon="0.38068">
        <ele>48.3</ele>
        <time>2022-07-14T07:05:27Z</time>
      </trkpt>
      <trkpt lat="44.79008" lon="0.38075">
        <ele>48.3</ele>
        <time>2022-07-14T07:05:29Z</time>
      </trkpt>
      <trkpt lat="44.79001" lon="0.38082">
        <ele>48.3</ele>
        <time>2022-07-14T07:05:31Z</time>
      </trkpt>
      <trkpt lat="44.78996" lon="0.38086">
        <ele>48.3</ele>
        <time>2022-07-14T07:05:32Z</time>
      </trkpt>
      <trkpt lat="44.78992" lon="0.3809">
        <ele>48.3</ele>
        <time>2022-07-14T07:05:33Z</time>
      </trkpt>
      <trkpt lat="44.78984" lon="0.38097">
        <ele>48.4</ele>
        <time>2022-07-14T07:05:35Z</time>
      </trkpt>
      <trkpt lat="44.78976" lon="0.38105">
        <ele>48.5</ele>
        <time>2022-07-14T07:05:37Z</time>
      </trkpt>
      <trkpt lat="44.78968" lon="0.38113">
        <ele>48.7</ele>
        <time>2022-07-14T07:05:39Z</time>
      </trkpt>
      <trkpt lat="44.78961" lon="0.38123">
        <ele>49</ele>
        <time>2022-07-14T07:05:41Z</time>
      </trkpt>
      <trkpt lat="44.78955" lon="0.38134">
        <ele>49.3</ele>
        <time>2022-07-14T07:05:43Z</time>
      </trkpt>
      <trkpt lat="44.78952" lon="0.38139">
        <ele>49.3</ele>
        <time>2022-07-14T07:05:44Z</time>
      </trkpt>
      <trkpt lat="44.78949" lon="0.38145">
        <ele>49.4</ele>
        <time>2022-07-14T07:05:45Z</time>
      </trkpt>
      <trkpt lat="44.78944" lon="0.38156">
        <ele>49.5</ele>
        <time>2022-07-14T07:05:47Z</time>
      </trkpt>
      <trkpt lat="44.78939" lon="0.38169">
        <ele>49.6</ele>
        <time>2022-07-14T07:05:49Z</time>
      </trkpt>
      <trkpt lat="44.78937" lon="0.38175">
        <ele>49.6</ele>
        <time>2022-07-14T07:05:50Z</time>
      </trkpt>
      <trkpt lat="44.78935" lon="0.38181">
        <ele>49.8</ele>
        <time>2022-07-14T07:05:51Z</time>
      </trkpt>
      <trkpt lat="44.78931" lon="0.38191">
        <ele>49.9</ele>
        <time>2022-07-14T07:05:53Z</time>
      </trkpt>
      <trkpt lat="44.78928" lon="0.38197">
        <ele>50</ele>
        <time>2022-07-14T07:05:54Z</time>
      </trkpt>
      <trkpt lat="44.78926" lon="0.38203">
        <ele>50.1</ele>
        <time>2022-07-14T07:05:55Z</time>
      </trkpt>
      <trkpt lat="44.78922" lon="0.38214">
        <ele>50.3</ele>
        <time>2022-07-14T07:05:57Z</time>
      </trkpt>
      <trkpt lat="44.78917" lon="0.38225">
        <ele>50.4</ele>
        <time>2022-07-14T07:05:59Z</time>
      </trkpt>
      <trkpt lat="44.78913" lon="0.38236">
        <ele>50.6</ele>
        <time>2022-07-14T07:06:01Z</time>
      </trkpt>
      <trkpt lat="44.78911" lon="0.38242">
        <ele>50.7</ele>
        <time>2022-07-14T07:06:02Z</time>
      </trkpt>
      <trkpt lat="44.78908" lon="0.38248">
        <ele>50.8</ele>
        <time>2022-07-14T07:06:03Z</time>
      </trkpt>
      <trkpt lat="44.78904" lon="0.38259">
        <ele>50.9</ele>
        <time>2022-07-14T07:06:05Z</time>
      </trkpt>
      <trkpt lat="44.78899" lon="0.38271">
        <ele>50.9</ele>
        <time>2022-07-14T07:06:07Z</time>
      </trkpt>
      <trkpt lat="44.78895" lon="0.38282">
        <ele>50.9</ele>
        <time>2022-07-14T07:06:09Z</time>
      </trkpt>
      <trkpt lat="44.78893" lon="0.38288">
        <ele>51</ele>
        <time>2022-07-14T07:06:10Z</time>
      </trkpt>
      <trkpt lat="44.7889" lon="0.38294">
        <ele>51.1</ele>
        <time>2022-07-14T07:06:11Z</time>
      </trkpt>
      <trkpt lat="44.78886" lon="0.38305">
        <ele>51.3</ele>
        <time>2022-07-14T07:06:13Z</time>
      </trkpt>
      <trkpt lat="44.78881" lon="0.38316">
        <ele>51.5</ele>
        <time>2022-07-14T07:06:15Z</time>
      </trkpt>
      <trkpt lat="44.78878" lon="0.38322">
        <ele>51.6</ele>
        <time>2022-07-14T07:06:16Z</time>
      </trkpt>
      <trkpt lat="44.78875" lon="0.38327">
        <ele>51.6</ele>
        <time>2022-07-14T07:06:17Z</time>
      </trkpt>
      <trkpt lat="44.78869" lon="0.38338">
        <ele>51.6</ele>
        <time>2022-07-14T07:06:19Z</time>
      </trkpt>
      <trkpt lat="44.78866" lon="0.38343">
        <ele>51.6</ele>
        <time>2022-07-14T07:06:20Z</time>
      </trkpt>
      <trkpt lat="44.78864" lon="0.38349">
        <ele>51.6</ele>
        <time>2022-07-14T07:06:21Z</time>
      </trkpt>
      <trkpt lat="44.78861" lon="0.38354">
        <ele>51.6</ele>
        <time>2022-07-14T07:06:22Z</time>
      </trkpt>
      <trkpt lat="44.78858" lon="0.3836">
        <ele>51.6</ele>
        <time>2022-07-14T07:06:23Z</time>
      </trkpt>
      <trkpt lat="44.78853" lon="0.3837">
        <ele>51.6</ele>
        <time>2022-07-14T07:06:25Z</time>
      </trkpt>
      <trkpt lat="44.78847" lon="0.3838">
        <ele>51.6</ele>
        <time>2022-07-14T07:06:27Z</time>
      </trkpt>
      <trkpt lat="44.78842" lon="0.38391">
        <ele>51.6</ele>
        <time>2022-07-14T07:06:29Z</time>
      </trkpt>
      <trkpt lat="44.78836" lon="0.38402">
        <ele>51.6</ele>
        <time>2022-07-14T07:06:31Z</time>
      </trkpt>
      <trkpt lat="44.7883" lon="0.38413">
        <ele>51.6</ele>
        <time>2022-07-14T07:06:33Z</time>
      </trkpt>
      <trkpt lat="44.78825" lon="0.38424">
        <ele>51.6</ele>
        <time>2022-07-14T07:06:35Z</time>
      </trkpt>
      <trkpt lat="44.78819" lon="0.38435">
        <ele>51.6</ele>
        <time>2022-07-14T07:06:37Z</time>
      </trkpt>
      <trkpt lat="44.78816" lon="0.3844">
        <ele>51.6</ele>
        <time>2022-07-14T07:06:38Z</time>
      </trkpt>
      <trkpt lat="44.78813" lon="0.38446">
        <ele>51.6</ele>
        <time>2022-07-14T07:06:39Z</time>
      </trkpt>
      <trkpt lat="44.78808" lon="0.38456">
        <ele>51.7</ele>
        <time>2022-07-14T07:06:41Z</time>
      </trkpt>
      <trkpt lat="44.78802" lon="0.38468">
        <ele>51.8</ele>
        <time>2022-07-14T07:06:43Z</time>
      </trkpt>
      <trkpt lat="44.78796" lon="0.3848">
        <ele>51.9</ele>
        <time>2022-07-14T07:06:45Z</time>
      </trkpt>
      <trkpt lat="44.78791" lon="0.38491">
        <ele>52</ele>
        <time>2022-07-14T07:06:47Z</time>
      </trkpt>
      <trkpt lat="44.78786" lon="0.38502">
        <ele>52</ele>
        <time>2022-07-14T07:06:49Z</time>
      </trkpt>
      <trkpt lat="44.78782" lon="0.38512">
        <ele>52</ele>
        <time>2022-07-14T07:06:51Z</time>
      </trkpt>
      <trkpt lat="44.78779" lon="0.38518">
        <ele>52</ele>
        <time>2022-07-14T07:06:52Z</time>
      </trkpt>
      <trkpt lat="44.78776" lon="0.38524">
        <ele>52.1</ele>
        <time>2022-07-14T07:06:53Z</time>
      </trkpt>
      <trkpt lat="44.78771" lon="0.38537">
        <ele>52.2</ele>
        <time>2022-07-14T07:06:55Z</time>
      </trkpt>
      <trkpt lat="44.78769" lon="0.3855">
        <ele>52.4</ele>
        <time>2022-07-14T07:06:57Z</time>
      </trkpt>
      <trkpt lat="44.78767" lon="0.38563">
        <ele>52.7</ele>
        <time>2022-07-14T07:06:59Z</time>
      </trkpt>
      <trkpt lat="44.78765" lon="0.38576">
        <ele>52.8</ele>
        <time>2022-07-14T07:07:01Z</time>
      </trkpt>
      <trkpt lat="44.78762" lon="0.38588">
        <ele>52.9</ele>
        <time>2022-07-14T07:07:03Z</time>
      </trkpt>
      <trkpt lat="44.78761" lon="0.38595">
        <ele>53</ele>
        <time>2022-07-14T07:07:04Z</time>
      </trkpt>
      <trkpt lat="44.7876" lon="0.38601">
        <ele>53.1</ele>
        <time>2022-07-14T07:07:05Z</time>
      </trkpt>
      <trkpt lat="44.78758" lon="0.38614">
        <ele>53.2</ele>
        <time>2022-07-14T07:07:07Z</time>
      </trkpt>
      <trkpt lat="44.78756" lon="0.38627">
        <ele>53.3</ele>
        <time>2022-07-14T07:07:09Z</time>
      </trkpt>
      <trkpt lat="44.78754" lon="0.38639">
        <ele>53.4</ele>
        <time>2022-07-14T07:07:11Z</time>
      </trkpt>
      <trkpt lat="44.78751" lon="0.38652">
        <ele>53.4</ele>
        <time>2022-07-14T07:07:13Z</time>
      </trkpt>
      <trkpt lat="44.78749" lon="0.38664">
        <ele>53.4</ele>
        <time>2022-07-14T07:07:15Z</time>
      </trkpt>
      <trkpt lat="44.78747" lon="0.38677">
        <ele>53.6</ele>
        <time>2022-07-14T07:07:17Z</time>
      </trkpt>
      <trkpt lat="44.78746" lon="0.38683">
        <ele>53.7</ele>
        <time>2022-07-14T07:07:18Z</time>
      </trkpt>
      <trkpt lat="44.78743" lon="0.38689">
        <ele>53.8</ele>
        <time>2022-07-14T07:07:19Z</time>
      </trkpt>
      <trkpt lat="44.7874" lon="0.38695">
        <ele>54</ele>
        <time>2022-07-14T07:07:20Z</time>
      </trkpt>
      <trkpt lat="44.78736" lon="0.38698">
        <ele>54.1</ele>
        <time>2022-07-14T07:07:21Z</time>
      </trkpt>
      <trkpt lat="44.78731" lon="0.38702">
        <ele>54.2</ele>
        <time>2022-07-14T07:07:22Z</time>
      </trkpt>
      <trkpt lat="44.78726" lon="0.38702">
        <ele>54.3</ele>
        <time>2022-07-14T07:07:23Z</time>
      </trkpt>
      <trkpt lat="44.78721" lon="0.38703">
        <ele>54.3</ele>
        <time>2022-07-14T07:07:24Z</time>
      </trkpt>
      <trkpt lat="44.78717" lon="0.38704">
        <ele>54.4</ele>
        <time>2022-07-14T07:07:25Z</time>
      </trkpt>
      <trkpt lat="44.78708" lon="0.38706">
        <ele>54.4</ele>
        <time>2022-07-14T07:07:27Z</time>
      </trkpt>
      <trkpt lat="44.78697" lon="0.38708">
        <ele>54.4</ele>
        <time>2022-07-14T07:07:29Z</time>
      </trkpt>
      <trkpt lat="44.78692" lon="0.38709">
        <ele>54.4</ele>
        <time>2022-07-14T07:07:30Z</time>
      </trkpt>
      <trkpt lat="44.78687" lon="0.3871">
        <ele>54.3</ele>
        <time>2022-07-14T07:07:31Z</time>
      </trkpt>
      <trkpt lat="44.78675" lon="0.38713">
        <ele>54</ele>
        <time>2022-07-14T07:07:33Z</time>
      </trkpt>
      <trkpt lat="44.78664" lon="0.38717">
        <ele>53.4</ele>
        <time>2022-07-14T07:07:35Z</time>
      </trkpt>
      <trkpt lat="44.78653" lon="0.38723">
        <ele>52.6</ele>
        <time>2022-07-14T07:07:37Z</time>
      </trkpt>
      <trkpt lat="44.78644" lon="0.38732">
        <ele>52.1</ele>
        <time>2022-07-14T07:07:39Z</time>
      </trkpt>
      <trkpt lat="44.7864" lon="0.38737">
        <ele>52</ele>
        <time>2022-07-14T07:07:40Z</time>
      </trkpt>
      <trkpt lat="44.78636" lon="0.38742">
        <ele>51.9</ele>
        <time>2022-07-14T07:07:41Z</time>
      </trkpt>
      <trkpt lat="44.78628" lon="0.38753">
        <ele>51.8</ele>
        <time>2022-07-14T07:07:43Z</time>
      </trkpt>
      <trkpt lat="44.7862" lon="0.38763">
        <ele>51.7</ele>
        <time>2022-07-14T07:07:45Z</time>
      </trkpt>
      <trkpt lat="44.78612" lon="0.38774">
        <ele>51.7</ele>
        <time>2022-07-14T07:07:47Z</time>
      </trkpt>
      <trkpt lat="44.78604" lon="0.38784">
        <ele>51.7</ele>
        <time>2022-07-14T07:07:49Z</time>
      </trkpt>
      <trkpt lat="44.786" lon="0.38789">
        <ele>51.7</ele>
        <time>2022-07-14T07:07:50Z</time>
      </trkpt>
      <trkpt lat="44.78596" lon="0.38794">
        <ele>51.7</ele>
        <time>2022-07-14T07:07:51Z</time>
      </trkpt>
      <trkpt lat="44.78588" lon="0.38804">
        <ele>51.7</ele>
        <time>2022-07-14T07:07:53Z</time>
      </trkpt>
      <trkpt lat="44.78581" lon="0.38814">
        <ele>51.8</ele>
        <time>2022-07-14T07:07:55Z</time>
      </trkpt>
      <trkpt lat="44.78573" lon="0.38824">
        <ele>51.9</ele>
        <time>2022-07-14T07:07:57Z</time>
      </trkpt>
      <trkpt lat="44.78565" lon="0.38835">
        <ele>51.8</ele>
        <time>2022-07-14T07:07:59Z</time>
      </trkpt>
      <trkpt lat="44.78557" lon="0.38845">
        <ele>51.7</ele>
        <time>2022-07-14T07:08:01Z</time>
      </trkpt>
      <trkpt lat="44.78549" lon="0.38855">
        <ele>51.7</ele>
        <time>2022-07-14T07:08:03Z</time>
      </trkpt>
      <trkpt lat="44.78541" lon="0.38865">
        <ele>51.8</ele>
        <time>2022-07-14T07:08:05Z</time>
      </trkpt>
      <trkpt lat="44.78533" lon="0.38876">
        <ele>52</ele>
        <time>2022-07-14T07:08:07Z</time>
      </trkpt>
      <trkpt lat="44.78529" lon="0.38881">
        <ele>52.1</ele>
        <time>2022-07-14T07:08:08Z</time>
      </trkpt>
      <trkpt lat="44.78525" lon="0.38886">
        <ele>52.2</ele>
        <time>2022-07-14T07:08:09Z</time>
      </trkpt>
      <trkpt lat="44.78518" lon="0.38896">
        <ele>52.4</ele>
        <time>2022-07-14T07:08:11Z</time>
      </trkpt>
      <trkpt lat="44.78511" lon="0.38907">
        <ele>52.5</ele>
        <time>2022-07-14T07:08:13Z</time>
      </trkpt>
      <trkpt lat="44.78504" lon="0.38918">
        <ele>52.6</ele>
        <time>2022-07-14T07:08:15Z</time>
      </trkpt>
      <trkpt lat="44.78497" lon="0.38929">
        <ele>52.7</ele>
        <time>2022-07-14T07:08:17Z</time>
      </trkpt>
      <trkpt lat="44.78491" lon="0.3894">
        <ele>52.8</ele>
        <time>2022-07-14T07:08:19Z</time>
      </trkpt>
      <trkpt lat="44.78489" lon="0.38947">
        <ele>52.9</ele>
        <time>2022-07-14T07:08:20Z</time>
      </trkpt>
      <trkpt lat="44.78487" lon="0.38954">
        <ele>52.9</ele>
        <time>2022-07-14T07:08:21Z</time>
      </trkpt>
      <trkpt lat="44.78483" lon="0.38968">
        <ele>53.2</ele>
        <time>2022-07-14T07:08:23Z</time>
      </trkpt>
      <trkpt lat="44.78481" lon="0.38982">
        <ele>53.4</ele>
        <time>2022-07-14T07:08:25Z</time>
      </trkpt>
      <trkpt lat="44.78478" lon="0.38995">
        <ele>53.6</ele>
        <time>2022-07-14T07:08:27Z</time>
      </trkpt>
      <trkpt lat="44.78475" lon="0.39008">
        <ele>53.8</ele>
        <time>2022-07-14T07:08:29Z</time>
      </trkpt>
      <trkpt lat="44.78474" lon="0.39014">
        <ele>53.8</ele>
        <time>2022-07-14T07:08:30Z</time>
      </trkpt>
      <trkpt lat="44.78473" lon="0.39021">
        <ele>53.9</ele>
        <time>2022-07-14T07:08:31Z</time>
      </trkpt>
      <trkpt lat="44.7847" lon="0.39033">
        <ele>54</ele>
        <time>2022-07-14T07:08:33Z</time>
      </trkpt>
      <trkpt lat="44.78466" lon="0.39044">
        <ele>54.2</ele>
        <time>2022-07-14T07:08:35Z</time>
      </trkpt>
      <trkpt lat="44.78463" lon="0.3905">
        <ele>54.2</ele>
        <time>2022-07-14T07:08:36Z</time>
      </trkpt>
      <trkpt lat="44.78459" lon="0.39054">
        <ele>54.4</ele>
        <time>2022-07-14T07:08:37Z</time>
      </trkpt>
      <trkpt lat="44.78449" lon="0.39058">
        <ele>54.7</ele>
        <time>2022-07-14T07:08:39Z</time>
      </trkpt>
      <trkpt lat="44.78444" lon="0.3906">
        <ele>54.8</ele>
        <time>2022-07-14T07:08:40Z</time>
      </trkpt>
      <trkpt lat="44.7844" lon="0.39062">
        <ele>54.9</ele>
        <time>2022-07-14T07:08:41Z</time>
      </trkpt>
      <trkpt lat="44.7843" lon="0.39066">
        <ele>55.1</ele>
        <time>2022-07-14T07:08:43Z</time>
      </trkpt>
      <trkpt lat="44.7842" lon="0.3907">
        <ele>55.2</ele>
        <time>2022-07-14T07:08:45Z</time>
      </trkpt>
      <trkpt lat="44.7841" lon="0.39074">
        <ele>55.2</ele>
        <time>2022-07-14T07:08:47Z</time>
      </trkpt>
      <trkpt lat="44.78405" lon="0.39077">
        <ele>55.2</ele>
        <time>2022-07-14T07:08:48Z</time>
      </trkpt>
      <trkpt lat="44.78399" lon="0.39079">
        <ele>55.1</ele>
        <time>2022-07-14T07:08:49Z</time>
      </trkpt>
      <trkpt lat="44.78388" lon="0.39083">
        <ele>54.9</ele>
        <time>2022-07-14T07:08:51Z</time>
      </trkpt>
      <trkpt lat="44.78377" lon="0.39088">
        <ele>54.6</ele>
        <time>2022-07-14T07:08:53Z</time>
      </trkpt>
      <trkpt lat="44.78366" lon="0.39092">
        <ele>54.3</ele>
        <time>2022-07-14T07:08:55Z</time>
      </trkpt>
      <trkpt lat="44.78355" lon="0.39096">
        <ele>53.9</ele>
        <time>2022-07-14T07:08:57Z</time>
      </trkpt>
      <trkpt lat="44.78344" lon="0.39101">
        <ele>53.7</ele>
        <time>2022-07-14T07:08:59Z</time>
      </trkpt>
      <trkpt lat="44.78335" lon="0.39104">
        <ele>53.6</ele>
        <time>2022-07-14T07:09:01Z</time>
      </trkpt>
      <trkpt lat="44.7833" lon="0.39106">
        <ele>53.6</ele>
        <time>2022-07-14T07:09:02Z</time>
      </trkpt>
      <trkpt lat="44.78326" lon="0.39108">
        <ele>53.6</ele>
        <time>2022-07-14T07:09:03Z</time>
      </trkpt>
      <trkpt lat="44.78316" lon="0.39099">
        <ele>53.2</ele>
        <time>2022-07-14T07:09:05Z</time>
      </trkpt>
      <trkpt lat="44.78307" lon="0.39088">
        <ele>52.6</ele>
        <time>2022-07-14T07:09:07Z</time>
      </trkpt>
      <trkpt lat="44.78299" lon="0.39074">
        <ele>52.2</ele>
        <time>2022-07-14T07:09:09Z</time>
      </trkpt>
      <trkpt lat="44.78295" lon="0.39067">
        <ele>52</ele>
        <time>2022-07-14T07:09:10Z</time>
      </trkpt>
      <trkpt lat="44.78291" lon="0.3906">
        <ele>51.8</ele>
        <time>2022-07-14T07:09:11Z</time>
      </trkpt>
      <trkpt lat="44.78283" lon="0.39047">
        <ele>51.5</ele>
        <time>2022-07-14T07:09:13Z</time>
      </trkpt>
      <trkpt lat="44.78276" lon="0.39034">
        <ele>51.3</ele>
        <time>2022-07-14T07:09:15Z</time>
      </trkpt>
      <trkpt lat="44.78269" lon="0.39021">
        <ele>51.2</ele>
        <time>2022-07-14T07:09:17Z</time>
      </trkpt>
      <trkpt lat="44.78263" lon="0.39009">
        <ele>51.1</ele>
        <time>2022-07-14T07:09:19Z</time>
      </trkpt>
      <trkpt lat="44.78256" lon="0.38998">
        <ele>51.1</ele>
        <time>2022-07-14T07:09:21Z</time>
      </trkpt>
      <trkpt lat="44.78253" lon="0.38992">
        <ele>51.1</ele>
        <time>2022-07-14T07:09:22Z</time>
      </trkpt>
      <trkpt lat="44.7825" lon="0.38986">
        <ele>51.2</ele>
        <time>2022-07-14T07:09:23Z</time>
      </trkpt>
      <trkpt lat="44.78244" lon="0.38975">
        <ele>51.3</ele>
        <time>2022-07-14T07:09:25Z</time>
      </trkpt>
      <trkpt lat="44.78238" lon="0.38963">
        <ele>51.4</ele>
        <time>2022-07-14T07:09:27Z</time>
      </trkpt>
      <trkpt lat="44.78231" lon="0.38952">
        <ele>51.3</ele>
        <time>2022-07-14T07:09:29Z</time>
      </trkpt>
      <trkpt lat="44.78225" lon="0.3894">
        <ele>51.2</ele>
        <time>2022-07-14T07:09:31Z</time>
      </trkpt>
      <trkpt lat="44.78218" lon="0.38927">
        <ele>51.1</ele>
        <time>2022-07-14T07:09:33Z</time>
      </trkpt>
      <trkpt lat="44.78212" lon="0.38915">
        <ele>51.2</ele>
        <time>2022-07-14T07:09:35Z</time>
      </trkpt>
      <trkpt lat="44.78207" lon="0.38902">
        <ele>51.2</ele>
        <time>2022-07-14T07:09:37Z</time>
      </trkpt>
      <trkpt lat="44.78202" lon="0.3889">
        <ele>51.4</ele>
        <time>2022-07-14T07:09:39Z</time>
      </trkpt>
      <trkpt lat="44.78201" lon="0.38876">
        <ele>51.6</ele>
        <time>2022-07-14T07:09:41Z</time>
      </trkpt>
      <trkpt lat="44.78203" lon="0.38864">
        <ele>51.8</ele>
        <time>2022-07-14T07:09:43Z</time>
      </trkpt>
      <trkpt lat="44.78205" lon="0.38852">
        <ele>52</ele>
        <time>2022-07-14T07:09:45Z</time>
      </trkpt>
      <trkpt lat="44.78208" lon="0.38842">
        <ele>52.3</ele>
        <time>2022-07-14T07:09:47Z</time>
      </trkpt>
      <trkpt lat="44.78211" lon="0.38832">
        <ele>52.5</ele>
        <time>2022-07-14T07:09:49Z</time>
      </trkpt>
      <trkpt lat="44.78213" lon="0.38823">
        <ele>52.8</ele>
        <time>2022-07-14T07:09:51Z</time>
      </trkpt>
      <trkpt lat="44.78216" lon="0.38815">
        <ele>53</ele>
        <time>2022-07-14T07:09:53Z</time>
      </trkpt>
      <trkpt lat="44.78219" lon="0.38806">
        <ele>53.3</ele>
        <time>2022-07-14T07:09:55Z</time>
      </trkpt>
      <trkpt lat="44.78221" lon="0.38797">
        <ele>53.5</ele>
        <time>2022-07-14T07:09:57Z</time>
      </trkpt>
      <trkpt lat="44.78224" lon="0.38789">
        <ele>53.8</ele>
        <time>2022-07-14T07:09:59Z</time>
      </trkpt>
      <trkpt lat="44.78227" lon="0.3878">
        <ele>54.1</ele>
        <time>2022-07-14T07:10:01Z</time>
      </trkpt>
      <trkpt lat="44.78229" lon="0.38771">
        <ele>54.5</ele>
        <time>2022-07-14T07:10:03Z</time>
      </trkpt>
      <trkpt lat="44.7823" lon="0.38767">
        <ele>54.7</ele>
        <time>2022-07-14T07:10:04Z</time>
      </trkpt>
      <trkpt lat="44.78232" lon="0.38762">
        <ele>54.8</ele>
        <time>2022-07-14T07:10:05Z</time>
      </trkpt>
      <trkpt lat="44.78235" lon="0.38753">
        <ele>55.2</ele>
        <time>2022-07-14T07:10:07Z</time>
      </trkpt>
      <trkpt lat="44.78237" lon="0.38745">
        <ele>55.6</ele>
        <time>2022-07-14T07:10:09Z</time>
      </trkpt>
      <trkpt lat="44.7824" lon="0.38736">
        <ele>56</ele>
        <time>2022-07-14T07:10:11Z</time>
      </trkpt>
      <trkpt lat="44.78242" lon="0.38727">
        <ele>56.5</ele>
        <time>2022-07-14T07:10:13Z</time>
      </trkpt>
      <trkpt lat="44.78244" lon="0.38719">
        <ele>56.9</ele>
        <time>2022-07-14T07:10:15Z</time>
      </trkpt>
      <trkpt lat="44.78245" lon="0.38711">
        <ele>57.3</ele>
        <time>2022-07-14T07:10:17Z</time>
      </trkpt>
      <trkpt lat="44.78246" lon="0.38703">
        <ele>57.8</ele>
        <time>2022-07-14T07:10:19Z</time>
      </trkpt>
      <trkpt lat="44.78246" lon="0.38694">
        <ele>58.2</ele>
        <time>2022-07-14T07:10:21Z</time>
      </trkpt>
      <trkpt lat="44.78246" lon="0.38686">
        <ele>58.7</ele>
        <time>2022-07-14T07:10:23Z</time>
      </trkpt>
      <trkpt lat="44.78245" lon="0.38678">
        <ele>59.2</ele>
        <time>2022-07-14T07:10:25Z</time>
      </trkpt>
      <trkpt lat="44.78244" lon="0.38671">
        <ele>59.6</ele>
        <time>2022-07-14T07:10:27Z</time>
      </trkpt>
      <trkpt lat="44.78243" lon="0.38667">
        <ele>59.8</ele>
        <time>2022-07-14T07:10:28Z</time>
      </trkpt>
      <trkpt lat="44.78242" lon="0.38663">
        <ele>60</ele>
        <time>2022-07-14T07:10:29Z</time>
      </trkpt>
      <trkpt lat="44.78241" lon="0.38656">
        <ele>60.5</ele>
        <time>2022-07-14T07:10:31Z</time>
      </trkpt>
      <trkpt lat="44.78239" lon="0.38649">
        <ele>60.9</ele>
        <time>2022-07-14T07:10:33Z</time>
      </trkpt>
      <trkpt lat="44.78237" lon="0.38641">
        <ele>61.4</ele>
        <time>2022-07-14T07:10:35Z</time>
      </trkpt>
      <trkpt lat="44.78235" lon="0.38634">
        <ele>61.9</ele>
        <time>2022-07-14T07:10:37Z</time>
      </trkpt>
      <trkpt lat="44.78233" lon="0.38627">
        <ele>62.4</ele>
        <time>2022-07-14T07:10:39Z</time>
      </trkpt>
      <trkpt lat="44.7823" lon="0.3862">
        <ele>62.9</ele>
        <time>2022-07-14T07:10:41Z</time>
      </trkpt>
      <trkpt lat="44.78227" lon="0.38613">
        <ele>63.4</ele>
        <time>2022-07-14T07:10:43Z</time>
      </trkpt>
      <trkpt lat="44.78224" lon="0.38606">
        <ele>63.9</ele>
        <time>2022-07-14T07:10:45Z</time>
      </trkpt>
      <trkpt lat="44.78222" lon="0.38599">
        <ele>64.4</ele>
        <time>2022-07-14T07:10:47Z</time>
      </trkpt>
      <trkpt lat="44.78219" lon="0.38594">
        <ele>64.8</ele>
        <time>2022-07-14T07:10:49Z</time>
      </trkpt>
      <trkpt lat="44.78218" lon="0.38591">
        <ele>64.9</ele>
        <time>2022-07-14T07:10:50Z</time>
      </trkpt>
      <trkpt lat="44.78217" lon="0.38589">
        <ele>65.1</ele>
        <time>2022-07-14T07:10:51Z</time>
      </trkpt>
      <trkpt lat="44.78215" lon="0.38584">
        <ele>65.5</ele>
        <time>2022-07-14T07:10:53Z</time>
      </trkpt>
      <trkpt lat="44.78214" lon="0.38579">
        <ele>65.8</ele>
        <time>2022-07-14T07:10:55Z</time>
      </trkpt>
      <trkpt lat="44.78212" lon="0.38574">
        <ele>66.2</ele>
        <time>2022-07-14T07:10:57Z</time>
      </trkpt>
      <trkpt lat="44.7821" lon="0.38571">
        <ele>66.4</ele>
        <time>2022-07-14T07:10:58Z</time>
      </trkpt>
      <trkpt lat="44.78209" lon="0.38568">
        <ele>66.6</ele>
        <time>2022-07-14T07:10:59Z</time>
      </trkpt>
      <trkpt lat="44.78207" lon="0.38563">
        <ele>66.9</ele>
        <time>2022-07-14T07:11:01Z</time>
      </trkpt>
      <trkpt lat="44.78206" lon="0.38559">
        <ele>67.3</ele>
        <time>2022-07-14T07:11:03Z</time>
      </trkpt>
      <trkpt lat="44.78204" lon="0.38554">
        <ele>67.7</ele>
        <time>2022-07-14T07:11:05Z</time>
      </trkpt>
      <trkpt lat="44.78202" lon="0.38549">
        <ele>68.1</ele>
        <time>2022-07-14T07:11:07Z</time>
      </trkpt>
      <trkpt lat="44.782" lon="0.38544">
        <ele>68.5</ele>
        <time>2022-07-14T07:11:09Z</time>
      </trkpt>
      <trkpt lat="44.78198" lon="0.38539">
        <ele>68.9</ele>
        <time>2022-07-14T07:11:11Z</time>
      </trkpt>
      <trkpt lat="44.78196" lon="0.38534">
        <ele>69.3</ele>
        <time>2022-07-14T07:11:13Z</time>
      </trkpt>
      <trkpt lat="44.78195" lon="0.38532">
        <ele>69.5</ele>
        <time>2022-07-14T07:11:14Z</time>
      </trkpt>
      <trkpt lat="44.78194" lon="0.38529">
        <ele>69.7</ele>
        <time>2022-07-14T07:11:15Z</time>
      </trkpt>
      <trkpt lat="44.78192" lon="0.38525">
        <ele>70.1</ele>
        <time>2022-07-14T07:11:17Z</time>
      </trkpt>
      <trkpt lat="44.7819" lon="0.3852">
        <ele>70.5</ele>
        <time>2022-07-14T07:11:19Z</time>
      </trkpt>
      <trkpt lat="44.78189" lon="0.38515">
        <ele>70.9</ele>
        <time>2022-07-14T07:11:21Z</time>
      </trkpt>
      <trkpt lat="44.78188" lon="0.38513">
        <ele>71.1</ele>
        <time>2022-07-14T07:11:22Z</time>
      </trkpt>
      <trkpt lat="44.78187" lon="0.3851">
        <ele>71.4</ele>
        <time>2022-07-14T07:11:23Z</time>
      </trkpt>
      <trkpt lat="44.78185" lon="0.38506">
        <ele>71.8</ele>
        <time>2022-07-14T07:11:25Z</time>
      </trkpt>
      <trkpt lat="44.78183" lon="0.38501">
        <ele>72.2</ele>
        <time>2022-07-14T07:11:27Z</time>
      </trkpt>
      <trkpt lat="44.78181" lon="0.38496">
        <ele>72.6</ele>
        <time>2022-07-14T07:11:29Z</time>
      </trkpt>
      <trkpt lat="44.7818" lon="0.38494">
        <ele>72.8</ele>
        <time>2022-07-14T07:11:30Z</time>
      </trkpt>
      <trkpt lat="44.78179" lon="0.38492">
        <ele>73</ele>
        <time>2022-07-14T07:11:31Z</time>
      </trkpt>
      <trkpt lat="44.78177" lon="0.38487">
        <ele>73.5</ele>
        <time>2022-07-14T07:11:33Z</time>
      </trkpt>
      <trkpt lat="44.78175" lon="0.38482">
        <ele>73.9</ele>
        <time>2022-07-14T07:11:35Z</time>
      </trkpt>
      <trkpt lat="44.78173" lon="0.38477">
        <ele>74.4</ele>
        <time>2022-07-14T07:11:37Z</time>
      </trkpt>
      <trkpt lat="44.78171" lon="0.38472">
        <ele>74.9</ele>
        <time>2022-07-14T07:11:39Z</time>
      </trkpt>
      <trkpt lat="44.78169" lon="0.38467">
        <ele>75.4</ele>
        <time>2022-07-14T07:11:41Z</time>
      </trkpt>
      <trkpt lat="44.78167" lon="0.38462">
        <ele>75.9</ele>
        <time>2022-07-14T07:11:43Z</time>
      </trkpt>
      <trkpt lat="44.78166" lon="0.3846">
        <ele>76.1</ele>
        <time>2022-07-14T07:11:44Z</time>
      </trkpt>
      <trkpt lat="44.78165" lon="0.38458">
        <ele>76.3</ele>
        <time>2022-07-14T07:11:45Z</time>
      </trkpt>
      <trkpt lat="44.78164" lon="0.38455">
        <ele>76.6</ele>
        <time>2022-07-14T07:11:46Z</time>
      </trkpt>
      <trkpt lat="44.78163" lon="0.38453">
        <ele>76.8</ele>
        <time>2022-07-14T07:11:47Z</time>
      </trkpt>
      <trkpt lat="44.78162" lon="0.38451">
        <ele>77</ele>
        <time>2022-07-14T07:11:48Z</time>
      </trkpt>
      <trkpt lat="44.78161" lon="0.38449">
        <ele>77.3</ele>
        <time>2022-07-14T07:11:49Z</time>
      </trkpt>
      <trkpt lat="44.78158" lon="0.38443">
        <ele>77.9</ele>
        <time>2022-07-14T07:11:51Z</time>
      </trkpt>
      <trkpt lat="44.78155" lon="0.38439">
        <ele>78.4</ele>
        <time>2022-07-14T07:11:53Z</time>
      </trkpt>
      <trkpt lat="44.78152" lon="0.38434">
        <ele>78.8</ele>
        <time>2022-07-14T07:11:55Z</time>
      </trkpt>
      <trkpt lat="44.78151" lon="0.38432">
        <ele>79.1</ele>
        <time>2022-07-14T07:11:56Z</time>
      </trkpt>
      <trkpt lat="44.7815" lon="0.3843">
        <ele>79.3</ele>
        <time>2022-07-14T07:11:57Z</time>
      </trkpt>
      <trkpt lat="44.78147" lon="0.38425">
        <ele>79.8</ele>
        <time>2022-07-14T07:11:59Z</time>
      </trkpt>
      <trkpt lat="44.78144" lon="0.38421">
        <ele>80.2</ele>
        <time>2022-07-14T07:12:01Z</time>
      </trkpt>
      <trkpt lat="44.78141" lon="0.38418">
        <ele>80.6</ele>
        <time>2022-07-14T07:12:03Z</time>
      </trkpt>
      <trkpt lat="44.7814" lon="0.38416">
        <ele>80.8</ele>
        <time>2022-07-14T07:12:04Z</time>
      </trkpt>
      <trkpt lat="44.78138" lon="0.38415">
        <ele>81</ele>
        <time>2022-07-14T07:12:05Z</time>
      </trkpt>
      <trkpt lat="44.78135" lon="0.38411">
        <ele>81.4</ele>
        <time>2022-07-14T07:12:07Z</time>
      </trkpt>
      <trkpt lat="44.78132" lon="0.38408">
        <ele>81.8</ele>
        <time>2022-07-14T07:12:09Z</time>
      </trkpt>
      <trkpt lat="44.78129" lon="0.38405">
        <ele>82.2</ele>
        <time>2022-07-14T07:12:11Z</time>
      </trkpt>
      <trkpt lat="44.78122" lon="0.3841">
        <ele>83.1</ele>
        <time>2022-07-14T07:12:13Z</time>
      </trkpt>
      <trkpt lat="44.7812" lon="0.38416">
        <ele>83.4</ele>
        <time>2022-07-14T07:12:15Z</time>
      </trkpt>
      <trkpt lat="44.78119" lon="0.38422">
        <ele>83.6</ele>
        <time>2022-07-14T07:12:17Z</time>
      </trkpt>
      <trkpt lat="44.78117" lon="0.38429">
        <ele>83.9</ele>
        <time>2022-07-14T07:12:19Z</time>
      </trkpt>
      <trkpt lat="44.78115" lon="0.38435">
        <ele>84.2</ele>
        <time>2022-07-14T07:12:21Z</time>
      </trkpt>
      <trkpt lat="44.78114" lon="0.38441">
        <ele>84.4</ele>
        <time>2022-07-14T07:12:23Z</time>
      </trkpt>
      <trkpt lat="44.78112" lon="0.38445">
        <ele>84.6</ele>
        <time>2022-07-14T07:12:25Z</time>
      </trkpt>
      <trkpt lat="44.7811" lon="0.38449">
        <ele>84.8</ele>
        <time>2022-07-14T07:12:27Z</time>
      </trkpt>
      <trkpt lat="44.78109" lon="0.38453">
        <ele>85</ele>
        <time>2022-07-14T07:12:29Z</time>
      </trkpt>
      <trkpt lat="44.78107" lon="0.38456">
        <ele>85.1</ele>
        <time>2022-07-14T07:12:31Z</time>
      </trkpt>
      <trkpt lat="44.78105" lon="0.38459">
        <ele>85.3</ele>
        <time>2022-07-14T07:12:33Z</time>
      </trkpt>
      <trkpt lat="44.78104" lon="0.38462">
        <ele>85.4</ele>
        <time>2022-07-14T07:12:35Z</time>
      </trkpt>
      <trkpt lat="44.78103" lon="0.38464">
        <ele>85.5</ele>
        <time>2022-07-14T07:12:36Z</time>
      </trkpt>
      <trkpt lat="44.78102" lon="0.38466">
        <ele>85.6</ele>
        <time>2022-07-14T07:12:37Z</time>
      </trkpt>
      <trkpt lat="44.781" lon="0.38469">
        <ele>85.8</ele>
        <time>2022-07-14T07:12:39Z</time>
      </trkpt>
      <trkpt lat="44.78099" lon="0.38472">
        <ele>85.9</ele>
        <time>2022-07-14T07:12:41Z</time>
      </trkpt>
      <trkpt lat="44.78098" lon="0.38473">
        <ele>85.9</ele>
        <time>2022-07-14T07:12:42Z</time>
      </trkpt>
      <trkpt lat="44.78097" lon="0.38475">
        <ele>86</ele>
        <time>2022-07-14T07:12:43Z</time>
      </trkpt>
      <trkpt lat="44.78097" lon="0.38475">
        <ele>86</ele>
        <time>2022-07-14T07:12:44Z</time>
      </trkpt>
      <trkpt lat="44.78093" lon="0.38483">
        <ele>86.4</ele>
        <time>2022-07-14T07:17:34Z</time>
      </trkpt>
      <trkpt lat="44.7809" lon="0.38486">
        <ele>86.5</ele>
        <time>2022-07-14T07:17:35Z</time>
      </trkpt>
      <trkpt lat="44.78087" lon="0.38489">
        <ele>86.5</ele>
        <time>2022-07-14T07:17:36Z</time>
      </trkpt>
      <trkpt lat="44.78085" lon="0.38491">
        <ele>86.6</ele>
        <time>2022-07-14T07:17:37Z</time>
      </trkpt>
      <trkpt lat="44.7808" lon="0.38495">
        <ele>86.7</ele>
        <time>2022-07-14T07:17:39Z</time>
      </trkpt>
      <trkpt lat="44.78075" lon="0.385">
        <ele>86.9</ele>
        <time>2022-07-14T07:17:41Z</time>
      </trkpt>
      <trkpt lat="44.78069" lon="0.38505">
        <ele>87.2</ele>
        <time>2022-07-14T07:17:43Z</time>
      </trkpt>
      <trkpt lat="44.78064" lon="0.38511">
        <ele>87.5</ele>
        <time>2022-07-14T07:17:45Z</time>
      </trkpt>
      <trkpt lat="44.78057" lon="0.38516">
        <ele>87.8</ele>
        <time>2022-07-14T07:17:47Z</time>
      </trkpt>
      <trkpt lat="44.78052" lon="0.38521">
        <ele>88.1</ele>
        <time>2022-07-14T07:17:49Z</time>
      </trkpt>
      <trkpt lat="44.78046" lon="0.38527">
        <ele>88.4</ele>
        <time>2022-07-14T07:17:51Z</time>
      </trkpt>
      <trkpt lat="44.7804" lon="0.38533">
        <ele>88.8</ele>
        <time>2022-07-14T07:17:53Z</time>
      </trkpt>
      <trkpt lat="44.78034" lon="0.38538">
        <ele>89.1</ele>
        <time>2022-07-14T07:17:55Z</time>
      </trkpt>
      <trkpt lat="44.78028" lon="0.38544">
        <ele>89.4</ele>
        <time>2022-07-14T07:17:57Z</time>
      </trkpt>
      <trkpt lat="44.78025" lon="0.38546">
        <ele>89.5</ele>
        <time>2022-07-14T07:17:58Z</time>
      </trkpt>
      <trkpt lat="44.78022" lon="0.38549">
        <ele>89.7</ele>
        <time>2022-07-14T07:17:59Z</time>
      </trkpt>
      <trkpt lat="44.78016" lon="0.38554">
        <ele>90</ele>
        <time>2022-07-14T07:18:01Z</time>
      </trkpt>
      <trkpt lat="44.78011" lon="0.38559">
        <ele>90.2</ele>
        <time>2022-07-14T07:18:03Z</time>
      </trkpt>
      <trkpt lat="44.78005" lon="0.38565">
        <ele>90.5</ele>
        <time>2022-07-14T07:18:05Z</time>
      </trkpt>
      <trkpt lat="44.78002" lon="0.38568">
        <ele>90.6</ele>
        <time>2022-07-14T07:18:06Z</time>
      </trkpt>
      <trkpt lat="44.77999" lon="0.3857">
        <ele>90.8</ele>
        <time>2022-07-14T07:18:07Z</time>
      </trkpt>
      <trkpt lat="44.77993" lon="0.38576">
        <ele>91</ele>
        <time>2022-07-14T07:18:09Z</time>
      </trkpt>
      <trkpt lat="44.77986" lon="0.38582">
        <ele>91.2</ele>
        <time>2022-07-14T07:18:11Z</time>
      </trkpt>
      <trkpt lat="44.7798" lon="0.38587">
        <ele>91.4</ele>
        <time>2022-07-14T07:18:13Z</time>
      </trkpt>
      <trkpt lat="44.77978" lon="0.3859">
        <ele>91.4</ele>
        <time>2022-07-14T07:18:14Z</time>
      </trkpt>
      <trkpt lat="44.77974" lon="0.38593">
        <ele>91.4</ele>
        <time>2022-07-14T07:18:15Z</time>
      </trkpt>
      <trkpt lat="44.77967" lon="0.38599">
        <ele>91.4</ele>
        <time>2022-07-14T07:18:17Z</time>
      </trkpt>
      <trkpt lat="44.7796" lon="0.38606">
        <ele>91.3</ele>
        <time>2022-07-14T07:18:19Z</time>
      </trkpt>
      <trkpt lat="44.77951" lon="0.38614">
        <ele>91.1</ele>
        <time>2022-07-14T07:18:21Z</time>
      </trkpt>
      <trkpt lat="44.77943" lon="0.38624">
        <ele>90.8</ele>
        <time>2022-07-14T07:18:23Z</time>
      </trkpt>
      <trkpt lat="44.77933" lon="0.38635">
        <ele>90.3</ele>
        <time>2022-07-14T07:18:25Z</time>
      </trkpt>
      <trkpt lat="44.77924" lon="0.38647">
        <ele>89.7</ele>
        <time>2022-07-14T07:18:27Z</time>
      </trkpt>
      <trkpt lat="44.77915" lon="0.38658">
        <ele>89.4</ele>
        <time>2022-07-14T07:18:29Z</time>
      </trkpt>
      <trkpt lat="44.77905" lon="0.38669">
        <ele>89</ele>
        <time>2022-07-14T07:18:31Z</time>
      </trkpt>
      <trkpt lat="44.77896" lon="0.3868">
        <ele>88.6</ele>
        <time>2022-07-14T07:18:33Z</time>
      </trkpt>
      <trkpt lat="44.77886" lon="0.38693">
        <ele>88.3</ele>
        <time>2022-07-14T07:18:35Z</time>
      </trkpt>
      <trkpt lat="44.77882" lon="0.38701">
        <ele>88.2</ele>
        <time>2022-07-14T07:18:36Z</time>
      </trkpt>
      <trkpt lat="44.77877" lon="0.38708">
        <ele>88</ele>
        <time>2022-07-14T07:18:37Z</time>
      </trkpt>
      <trkpt lat="44.77869" lon="0.38725">
        <ele>87.7</ele>
        <time>2022-07-14T07:18:39Z</time>
      </trkpt>
      <trkpt lat="44.77864" lon="0.38731">
        <ele>87.6</ele>
        <time>2022-07-14T07:18:40Z</time>
      </trkpt>
      <trkpt lat="44.77858" lon="0.38737">
        <ele>87.6</ele>
        <time>2022-07-14T07:18:41Z</time>
      </trkpt>
      <trkpt lat="44.77847" lon="0.38745">
        <ele>87.7</ele>
        <time>2022-07-14T07:18:43Z</time>
      </trkpt>
      <trkpt lat="44.77841" lon="0.38749">
        <ele>87.8</ele>
        <time>2022-07-14T07:18:44Z</time>
      </trkpt>
      <trkpt lat="44.77835" lon="0.38752">
        <ele>87.9</ele>
        <time>2022-07-14T07:18:45Z</time>
      </trkpt>
      <trkpt lat="44.77829" lon="0.38756">
        <ele>88.1</ele>
        <time>2022-07-14T07:18:46Z</time>
      </trkpt>
      <trkpt lat="44.77823" lon="0.38759">
        <ele>88.2</ele>
        <time>2022-07-14T07:18:47Z</time>
      </trkpt>
      <trkpt lat="44.77811" lon="0.38766">
        <ele>88.4</ele>
        <time>2022-07-14T07:18:49Z</time>
      </trkpt>
      <trkpt lat="44.77799" lon="0.38773">
        <ele>88.6</ele>
        <time>2022-07-14T07:18:51Z</time>
      </trkpt>
      <trkpt lat="44.77789" lon="0.38781">
        <ele>88.9</ele>
        <time>2022-07-14T07:18:53Z</time>
      </trkpt>
      <trkpt lat="44.77783" lon="0.38785">
        <ele>89.1</ele>
        <time>2022-07-14T07:18:54Z</time>
      </trkpt>
      <trkpt lat="44.77778" lon="0.38789">
        <ele>89.2</ele>
        <time>2022-07-14T07:18:55Z</time>
      </trkpt>
      <trkpt lat="44.77773" lon="0.38793">
        <ele>89.4</ele>
        <time>2022-07-14T07:18:56Z</time>
      </trkpt>
      <trkpt lat="44.77769" lon="0.38797">
        <ele>89.5</ele>
        <time>2022-07-14T07:18:57Z</time>
      </trkpt>
      <trkpt lat="44.77764" lon="0.38801">
        <ele>89.8</ele>
        <time>2022-07-14T07:18:58Z</time>
      </trkpt>
      <trkpt lat="44.77759" lon="0.38804">
        <ele>90</ele>
        <time>2022-07-14T07:18:59Z</time>
      </trkpt>
      <trkpt lat="44.7775" lon="0.38812">
        <ele>90.5</ele>
        <time>2022-07-14T07:19:01Z</time>
      </trkpt>
      <trkpt lat="44.77741" lon="0.38819">
        <ele>90.9</ele>
        <time>2022-07-14T07:19:03Z</time>
      </trkpt>
      <trkpt lat="44.77737" lon="0.38822">
        <ele>91.1</ele>
        <time>2022-07-14T07:19:04Z</time>
      </trkpt>
      <trkpt lat="44.77733" lon="0.38825">
        <ele>91.2</ele>
        <time>2022-07-14T07:19:05Z</time>
      </trkpt>
      <trkpt lat="44.77729" lon="0.38828">
        <ele>91.4</ele>
        <time>2022-07-14T07:19:06Z</time>
      </trkpt>
      <trkpt lat="44.77725" lon="0.38831">
        <ele>91.5</ele>
        <time>2022-07-14T07:19:07Z</time>
      </trkpt>
      <trkpt lat="44.77716" lon="0.38839">
        <ele>91.8</ele>
        <time>2022-07-14T07:19:09Z</time>
      </trkpt>
      <trkpt lat="44.77711" lon="0.38842">
        <ele>92</ele>
        <time>2022-07-14T07:19:10Z</time>
      </trkpt>
      <trkpt lat="44.77706" lon="0.38846">
        <ele>92.2</ele>
        <time>2022-07-14T07:19:11Z</time>
      </trkpt>
      <trkpt lat="44.77697" lon="0.38853">
        <ele>92.6</ele>
        <time>2022-07-14T07:19:13Z</time>
      </trkpt>
      <trkpt lat="44.77689" lon="0.38859">
        <ele>93.1</ele>
        <time>2022-07-14T07:19:15Z</time>
      </trkpt>
      <trkpt lat="44.77684" lon="0.38863">
        <ele>93.3</ele>
        <time>2022-07-14T07:19:16Z</time>
      </trkpt>
      <trkpt lat="44.7768" lon="0.38867">
        <ele>93.5</ele>
        <time>2022-07-14T07:19:17Z</time>
      </trkpt>
      <trkpt lat="44.77671" lon="0.38874">
        <ele>94</ele>
        <time>2022-07-14T07:19:19Z</time>
      </trkpt>
      <trkpt lat="44.77662" lon="0.38881">
        <ele>94.4</ele>
        <time>2022-07-14T07:19:21Z</time>
      </trkpt>
      <trkpt lat="44.77654" lon="0.38888">
        <ele>94.6</ele>
        <time>2022-07-14T07:19:23Z</time>
      </trkpt>
      <trkpt lat="44.77645" lon="0.38896">
        <ele>94.7</ele>
        <time>2022-07-14T07:19:25Z</time>
      </trkpt>
      <trkpt lat="44.77636" lon="0.38902">
        <ele>94.8</ele>
        <time>2022-07-14T07:19:27Z</time>
      </trkpt>
      <trkpt lat="44.77632" lon="0.38904">
        <ele>94.8</ele>
        <time>2022-07-14T07:19:28Z</time>
      </trkpt>
      <trkpt lat="44.77628" lon="0.38907">
        <ele>94.7</ele>
        <time>2022-07-14T07:19:29Z</time>
      </trkpt>
      <trkpt lat="44.77621" lon="0.38911">
        <ele>94.6</ele>
        <time>2022-07-14T07:19:31Z</time>
      </trkpt>
      <trkpt lat="44.77612" lon="0.38917">
        <ele>94.3</ele>
        <time>2022-07-14T07:19:33Z</time>
      </trkpt>
      <trkpt lat="44.77607" lon="0.38919">
        <ele>94</ele>
        <time>2022-07-14T07:19:34Z</time>
      </trkpt>
      <trkpt lat="44.77601" lon="0.38921">
        <ele>93.7</ele>
        <time>2022-07-14T07:19:35Z</time>
      </trkpt>
      <trkpt lat="44.77589" lon="0.38924">
        <ele>92.9</ele>
        <time>2022-07-14T07:19:37Z</time>
      </trkpt>
      <trkpt lat="44.77582" lon="0.38924">
        <ele>92.6</ele>
        <time>2022-07-14T07:19:38Z</time>
      </trkpt>
      <trkpt lat="44.77575" lon="0.38924">
        <ele>92.2</ele>
        <time>2022-07-14T07:19:39Z</time>
      </trkpt>
      <trkpt lat="44.7756" lon="0.38923">
        <ele>91.9</ele>
        <time>2022-07-14T07:19:41Z</time>
      </trkpt>
      <trkpt lat="44.77545" lon="0.38921">
        <ele>91.9</ele>
        <time>2022-07-14T07:19:43Z</time>
      </trkpt>
      <trkpt lat="44.77539" lon="0.3892">
        <ele>92.1</ele>
        <time>2022-07-14T07:19:44Z</time>
      </trkpt>
      <trkpt lat="44.77534" lon="0.38919">
        <ele>92.3</ele>
        <time>2022-07-14T07:19:45Z</time>
      </trkpt>
      <trkpt lat="44.77526" lon="0.38917">
        <ele>92.7</ele>
        <time>2022-07-14T07:19:47Z</time>
      </trkpt>
      <trkpt lat="44.77517" lon="0.38915">
        <ele>93.4</ele>
        <time>2022-07-14T07:19:49Z</time>
      </trkpt>
      <trkpt lat="44.77509" lon="0.38915">
        <ele>94</ele>
        <time>2022-07-14T07:19:51Z</time>
      </trkpt>
      <trkpt lat="44.77501" lon="0.38914">
        <ele>94.7</ele>
        <time>2022-07-14T07:19:53Z</time>
      </trkpt>
      <trkpt lat="44.77498" lon="0.38913">
        <ele>95.1</ele>
        <time>2022-07-14T07:19:54Z</time>
      </trkpt>
      <trkpt lat="44.77494" lon="0.38913">
        <ele>95.4</ele>
        <time>2022-07-14T07:19:55Z</time>
      </trkpt>
      <trkpt lat="44.77488" lon="0.38912">
        <ele>96.1</ele>
        <time>2022-07-14T07:19:57Z</time>
      </trkpt>
      <trkpt lat="44.77482" lon="0.38911">
        <ele>96.7</ele>
        <time>2022-07-14T07:19:59Z</time>
      </trkpt>
      <trkpt lat="44.77477" lon="0.38911">
        <ele>97.2</ele>
        <time>2022-07-14T07:20:01Z</time>
      </trkpt>
      <trkpt lat="44.77471" lon="0.3891">
        <ele>97.8</ele>
        <time>2022-07-14T07:20:03Z</time>
      </trkpt>
      <trkpt lat="44.77463" lon="0.3891">
        <ele>98.5</ele>
        <time>2022-07-14T07:20:05Z</time>
      </trkpt>
      <trkpt lat="44.77458" lon="0.38912">
        <ele>99</ele>
        <time>2022-07-14T07:20:07Z</time>
      </trkpt>
      <trkpt lat="44.77453" lon="0.38914">
        <ele>99.4</ele>
        <time>2022-07-14T07:20:09Z</time>
      </trkpt>
      <trkpt lat="44.77449" lon="0.38916">
        <ele>99.9</ele>
        <time>2022-07-14T07:20:11Z</time>
      </trkpt>
      <trkpt lat="44.77445" lon="0.38918">
        <ele>100.3</ele>
        <time>2022-07-14T07:20:13Z</time>
      </trkpt>
      <trkpt lat="44.77441" lon="0.38919">
        <ele>100.7</ele>
        <time>2022-07-14T07:20:15Z</time>
      </trkpt>
      <trkpt lat="44.77438" lon="0.38921">
        <ele>101</ele>
        <time>2022-07-14T07:20:17Z</time>
      </trkpt>
      <trkpt lat="44.77435" lon="0.38924">
        <ele>101.4</ele>
        <time>2022-07-14T07:20:19Z</time>
      </trkpt>
      <trkpt lat="44.77433" lon="0.38925">
        <ele>101.6</ele>
        <time>2022-07-14T07:20:20Z</time>
      </trkpt>
      <trkpt lat="44.77431" lon="0.38927">
        <ele>101.8</ele>
        <time>2022-07-14T07:20:21Z</time>
      </trkpt>
      <trkpt lat="44.77427" lon="0.3893">
        <ele>102.1</ele>
        <time>2022-07-14T07:20:23Z</time>
      </trkpt>
      <trkpt lat="44.77424" lon="0.38932">
        <ele>102.4</ele>
        <time>2022-07-14T07:20:25Z</time>
      </trkpt>
      <trkpt lat="44.77421" lon="0.38935">
        <ele>102.6</ele>
        <time>2022-07-14T07:20:27Z</time>
      </trkpt>
      <trkpt lat="44.77419" lon="0.38936">
        <ele>102.8</ele>
        <time>2022-07-14T07:20:29Z</time>
      </trkpt>
      <trkpt lat="44.77418" lon="0.38937">
        <ele>102.8</ele>
        <time>2022-07-14T07:20:31Z</time>
      </trkpt>
      <trkpt lat="44.77416" lon="0.38939">
        <ele>102.9</ele>
        <time>2022-07-14T07:20:32Z</time>
      </trkpt>
      <trkpt lat="44.77414" lon="0.38942">
        <ele>103</ele>
        <time>2022-07-14T07:20:33Z</time>
      </trkpt>
      <trkpt lat="44.77409" lon="0.38947">
        <ele>103.1</ele>
        <time>2022-07-14T07:20:35Z</time>
      </trkpt>
      <trkpt lat="44.77404" lon="0.38953">
        <ele>103.2</ele>
        <time>2022-07-14T07:20:37Z</time>
      </trkpt>
      <trkpt lat="44.77397" lon="0.38957">
        <ele>103</ele>
        <time>2022-07-14T07:20:39Z</time>
      </trkpt>
      <trkpt lat="44.77393" lon="0.38958">
        <ele>102.9</ele>
        <time>2022-07-14T07:20:40Z</time>
      </trkpt>
      <trkpt lat="44.77388" lon="0.38959">
        <ele>102.6</ele>
        <time>2022-07-14T07:20:41Z</time>
      </trkpt>
      <trkpt lat="44.77383" lon="0.3896">
        <ele>102.2</ele>
        <time>2022-07-14T07:20:42Z</time>
      </trkpt>
      <trkpt lat="44.77378" lon="0.38961">
        <ele>101.8</ele>
        <time>2022-07-14T07:20:43Z</time>
      </trkpt>
      <trkpt lat="44.77371" lon="0.38958">
        <ele>101.2</ele>
        <time>2022-07-14T07:20:44Z</time>
      </trkpt>
      <trkpt lat="44.77365" lon="0.38955">
        <ele>100.7</ele>
        <time>2022-07-14T07:20:45Z</time>
      </trkpt>
      <trkpt lat="44.77355" lon="0.38951">
        <ele>99.9</ele>
        <time>2022-07-14T07:20:47Z</time>
      </trkpt>
      <trkpt lat="44.77344" lon="0.38946">
        <ele>99.1</ele>
        <time>2022-07-14T07:20:49Z</time>
      </trkpt>
      <trkpt lat="44.77332" lon="0.38941">
        <ele>98.2</ele>
        <time>2022-07-14T07:20:51Z</time>
      </trkpt>
      <trkpt lat="44.77319" lon="0.38935">
        <ele>97.4</ele>
        <time>2022-07-14T07:20:53Z</time>
      </trkpt>
      <trkpt lat="44.77306" lon="0.38929">
        <ele>96.7</ele>
        <time>2022-07-14T07:20:55Z</time>
      </trkpt>
      <trkpt lat="44.77292" lon="0.38923">
        <ele>96.3</ele>
        <time>2022-07-14T07:20:57Z</time>
      </trkpt>
      <trkpt lat="44.77287" lon="0.3892">
        <ele>96.2</ele>
        <time>2022-07-14T07:20:58Z</time>
      </trkpt>
      <trkpt lat="44.77281" lon="0.38918">
        <ele>96.2</ele>
        <time>2022-07-14T07:20:59Z</time>
      </trkpt>
      <trkpt lat="44.77271" lon="0.38913">
        <ele>96</ele>
        <time>2022-07-14T07:21:01Z</time>
      </trkpt>
      <trkpt lat="44.77266" lon="0.38911">
        <ele>96</ele>
        <time>2022-07-14T07:21:02Z</time>
      </trkpt>
      <trkpt lat="44.77261" lon="0.38909">
        <ele>95.8</ele>
        <time>2022-07-14T07:21:03Z</time>
      </trkpt>
      <trkpt lat="44.77255" lon="0.38906">
        <ele>95.7</ele>
        <time>2022-07-14T07:21:04Z</time>
      </trkpt>
      <trkpt lat="44.77249" lon="0.38904">
        <ele>95.5</ele>
        <time>2022-07-14T07:21:05Z</time>
      </trkpt>
      <trkpt lat="44.77239" lon="0.38899">
        <ele>95.2</ele>
        <time>2022-07-14T07:21:07Z</time>
      </trkpt>
      <trkpt lat="44.77229" lon="0.38894">
        <ele>95</ele>
        <time>2022-07-14T07:21:09Z</time>
      </trkpt>
      <trkpt lat="44.77218" lon="0.3889">
        <ele>95.1</ele>
        <time>2022-07-14T07:21:11Z</time>
      </trkpt>
      <trkpt lat="44.77208" lon="0.38885">
        <ele>95.2</ele>
        <time>2022-07-14T07:21:13Z</time>
      </trkpt>
      <trkpt lat="44.77202" lon="0.38883">
        <ele>95.3</ele>
        <time>2022-07-14T07:21:14Z</time>
      </trkpt>
      <trkpt lat="44.77197" lon="0.3888">
        <ele>95.5</ele>
        <time>2022-07-14T07:21:15Z</time>
      </trkpt>
      <trkpt lat="44.77185" lon="0.38876">
        <ele>96</ele>
        <time>2022-07-14T07:21:17Z</time>
      </trkpt>
      <trkpt lat="44.77175" lon="0.38872">
        <ele>96.4</ele>
        <time>2022-07-14T07:21:19Z</time>
      </trkpt>
      <trkpt lat="44.77171" lon="0.3887">
        <ele>96.5</ele>
        <time>2022-07-14T07:21:20Z</time>
      </trkpt>
      <trkpt lat="44.77167" lon="0.38869">
        <ele>96.7</ele>
        <time>2022-07-14T07:21:21Z</time>
      </trkpt>
      <trkpt lat="44.77158" lon="0.38865">
        <ele>97</ele>
        <time>2022-07-14T07:21:23Z</time>
      </trkpt>
      <trkpt lat="44.77153" lon="0.38863">
        <ele>97.1</ele>
        <time>2022-07-14T07:21:24Z</time>
      </trkpt>
      <trkpt lat="44.77147" lon="0.38861">
        <ele>97.1</ele>
        <time>2022-07-14T07:21:25Z</time>
      </trkpt>
      <trkpt lat="44.77142" lon="0.38859">
        <ele>97</ele>
        <time>2022-07-14T07:21:26Z</time>
      </trkpt>
      <trkpt lat="44.77137" lon="0.38857">
        <ele>96.9</ele>
        <time>2022-07-14T07:21:27Z</time>
      </trkpt>
      <trkpt lat="44.77129" lon="0.38854">
        <ele>96.7</ele>
        <time>2022-07-14T07:21:29Z</time>
      </trkpt>
      <trkpt lat="44.77124" lon="0.38853">
        <ele>96.5</ele>
        <time>2022-07-14T07:21:30Z</time>
      </trkpt>
      <trkpt lat="44.77119" lon="0.38851">
        <ele>96.3</ele>
        <time>2022-07-14T07:21:31Z</time>
      </trkpt>
      <trkpt lat="44.77114" lon="0.38849">
        <ele>95.8</ele>
        <time>2022-07-14T07:21:32Z</time>
      </trkpt>
      <trkpt lat="44.77108" lon="0.3885">
        <ele>95.3</ele>
        <time>2022-07-14T07:21:33Z</time>
      </trkpt>
      <trkpt lat="44.77104" lon="0.38851">
        <ele>94.9</ele>
        <time>2022-07-14T07:21:34Z</time>
      </trkpt>
      <trkpt lat="44.77098" lon="0.38852">
        <ele>94.1</ele>
        <time>2022-07-14T07:21:35Z</time>
      </trkpt>
      <trkpt lat="44.77087" lon="0.38855">
        <ele>92.5</ele>
        <time>2022-07-14T07:21:37Z</time>
      </trkpt>
      <trkpt lat="44.77075" lon="0.38869">
        <ele>91</ele>
        <time>2022-07-14T07:21:39Z</time>
      </trkpt>
      <trkpt lat="44.77066" lon="0.38885">
        <ele>90.4</ele>
        <time>2022-07-14T07:21:41Z</time>
      </trkpt>
      <trkpt lat="44.77056" lon="0.389">
        <ele>90.1</ele>
        <time>2022-07-14T07:21:43Z</time>
      </trkpt>
      <trkpt lat="44.77048" lon="0.38915">
        <ele>90.1</ele>
        <time>2022-07-14T07:21:45Z</time>
      </trkpt>
      <trkpt lat="44.77044" lon="0.38922">
        <ele>90.2</ele>
        <time>2022-07-14T07:21:46Z</time>
      </trkpt>
      <trkpt lat="44.7704" lon="0.38928">
        <ele>90.4</ele>
        <time>2022-07-14T07:21:47Z</time>
      </trkpt>
      <trkpt lat="44.77034" lon="0.38938">
        <ele>90.9</ele>
        <time>2022-07-14T07:21:49Z</time>
      </trkpt>
      <trkpt lat="44.77032" lon="0.38941">
        <ele>91</ele>
        <time>2022-07-14T07:21:51Z</time>
      </trkpt>
      <trkpt lat="44.77022" lon="0.38944">
        <ele>91.8</ele>
        <time>2022-07-14T07:21:53Z</time>
      </trkpt>
      <trkpt lat="44.77015" lon="0.38946">
        <ele>92.4</ele>
        <time>2022-07-14T07:21:55Z</time>
      </trkpt>
      <trkpt lat="44.77011" lon="0.38947">
        <ele>92.6</ele>
        <time>2022-07-14T07:21:56Z</time>
      </trkpt>
      <trkpt lat="44.77008" lon="0.38948">
        <ele>92.9</ele>
        <time>2022-07-14T07:21:57Z</time>
      </trkpt>
      <trkpt lat="44.77001" lon="0.38948">
        <ele>93.3</ele>
        <time>2022-07-14T07:21:59Z</time>
      </trkpt>
      <trkpt lat="44.76994" lon="0.38949">
        <ele>93.8</ele>
        <time>2022-07-14T07:22:01Z</time>
      </trkpt>
      <trkpt lat="44.76991" lon="0.38949">
        <ele>94.1</ele>
        <time>2022-07-14T07:22:02Z</time>
      </trkpt>
      <trkpt lat="44.76987" lon="0.38949">
        <ele>94.3</ele>
        <time>2022-07-14T07:22:03Z</time>
      </trkpt>
      <trkpt lat="44.76981" lon="0.38949">
        <ele>94.7</ele>
        <time>2022-07-14T07:22:05Z</time>
      </trkpt>
      <trkpt lat="44.76976" lon="0.3895">
        <ele>95.1</ele>
        <time>2022-07-14T07:22:07Z</time>
      </trkpt>
      <trkpt lat="44.7697" lon="0.3895">
        <ele>95.5</ele>
        <time>2022-07-14T07:22:09Z</time>
      </trkpt>
      <trkpt lat="44.76965" lon="0.38951">
        <ele>95.9</ele>
        <time>2022-07-14T07:22:11Z</time>
      </trkpt>
      <trkpt lat="44.76961" lon="0.38953">
        <ele>96.3</ele>
        <time>2022-07-14T07:22:13Z</time>
      </trkpt>
      <trkpt lat="44.76956" lon="0.38955">
        <ele>96.8</ele>
        <time>2022-07-14T07:22:15Z</time>
      </trkpt>
      <trkpt lat="44.76954" lon="0.38956">
        <ele>97</ele>
        <time>2022-07-14T07:22:16Z</time>
      </trkpt>
      <trkpt lat="44.76952" lon="0.38957">
        <ele>97.2</ele>
        <time>2022-07-14T07:22:17Z</time>
      </trkpt>
      <trkpt lat="44.76947" lon="0.38959">
        <ele>97.6</ele>
        <time>2022-07-14T07:22:19Z</time>
      </trkpt>
      <trkpt lat="44.76941" lon="0.38961">
        <ele>98.2</ele>
        <time>2022-07-14T07:22:21Z</time>
      </trkpt>
      <trkpt lat="44.76936" lon="0.38963">
        <ele>98.7</ele>
        <time>2022-07-14T07:22:23Z</time>
      </trkpt>
      <trkpt lat="44.76931" lon="0.38963">
        <ele>99.2</ele>
        <time>2022-07-14T07:22:25Z</time>
      </trkpt>
      <trkpt lat="44.76926" lon="0.38964">
        <ele>99.6</ele>
        <time>2022-07-14T07:22:27Z</time>
      </trkpt>
      <trkpt lat="44.76921" lon="0.38964">
        <ele>100.2</ele>
        <time>2022-07-14T07:22:29Z</time>
      </trkpt>
      <trkpt lat="44.76918" lon="0.38965">
        <ele>100.5</ele>
        <time>2022-07-14T07:22:31Z</time>
      </trkpt>
      <trkpt lat="44.76914" lon="0.38965">
        <ele>100.8</ele>
        <time>2022-07-14T07:22:33Z</time>
      </trkpt>
      <trkpt lat="44.76912" lon="0.38964">
        <ele>101</ele>
        <time>2022-07-14T07:22:35Z</time>
      </trkpt>
      <trkpt lat="44.76909" lon="0.38961">
        <ele>101.3</ele>
        <time>2022-07-14T07:22:37Z</time>
      </trkpt>
      <trkpt lat="44.76906" lon="0.38959">
        <ele>101.6</ele>
        <time>2022-07-14T07:22:39Z</time>
      </trkpt>
      <trkpt lat="44.76905" lon="0.38958">
        <ele>101.7</ele>
        <time>2022-07-14T07:22:40Z</time>
      </trkpt>
      <trkpt lat="44.76904" lon="0.38956">
        <ele>101.9</ele>
        <time>2022-07-14T07:22:41Z</time>
      </trkpt>
      <trkpt lat="44.76901" lon="0.38954">
        <ele>102.1</ele>
        <time>2022-07-14T07:22:43Z</time>
      </trkpt>
      <trkpt lat="44.76897" lon="0.38951">
        <ele>102.5</ele>
        <time>2022-07-14T07:22:45Z</time>
      </trkpt>
      <trkpt lat="44.76896" lon="0.3895">
        <ele>102.6</ele>
        <time>2022-07-14T07:22:46Z</time>
      </trkpt>
      <trkpt lat="44.76894" lon="0.38949">
        <ele>102.7</ele>
        <time>2022-07-14T07:22:47Z</time>
      </trkpt>
      <trkpt lat="44.76893" lon="0.38948">
        <ele>102.9</ele>
        <time>2022-07-14T07:22:49Z</time>
      </trkpt>
      <trkpt lat="44.76889" lon="0.38944">
        <ele>103.3</ele>
        <time>2022-07-14T07:22:51Z</time>
      </trkpt>
      <trkpt lat="44.76888" lon="0.38943">
        <ele>103.4</ele>
        <time>2022-07-14T07:22:52Z</time>
      </trkpt>
      <trkpt lat="44.76886" lon="0.38942">
        <ele>103.5</ele>
        <time>2022-07-14T07:22:53Z</time>
      </trkpt>
      <trkpt lat="44.76884" lon="0.38937">
        <ele>103.8</ele>
        <time>2022-07-14T07:22:55Z</time>
      </trkpt>
      <trkpt lat="44.76881" lon="0.38934">
        <ele>104.1</ele>
        <time>2022-07-14T07:22:57Z</time>
      </trkpt>
      <trkpt lat="44.76878" lon="0.38932">
        <ele>104.3</ele>
        <time>2022-07-14T07:22:59Z</time>
      </trkpt>
      <trkpt lat="44.76874" lon="0.38931">
        <ele>104.4</ele>
        <time>2022-07-14T07:23:01Z</time>
      </trkpt>
      <trkpt lat="44.76871" lon="0.38929">
        <ele>104.4</ele>
        <time>2022-07-14T07:23:03Z</time>
      </trkpt>
      <trkpt lat="44.76867" lon="0.38927">
        <ele>104.5</ele>
        <time>2022-07-14T07:23:05Z</time>
      </trkpt>
      <trkpt lat="44.76863" lon="0.38925">
        <ele>104.7</ele>
        <time>2022-07-14T07:23:07Z</time>
      </trkpt>
      <trkpt lat="44.76858" lon="0.38921">
        <ele>104.9</ele>
        <time>2022-07-14T07:23:09Z</time>
      </trkpt>
      <trkpt lat="44.76854" lon="0.38918">
        <ele>105.1</ele>
        <time>2022-07-14T07:23:11Z</time>
      </trkpt>
      <trkpt lat="44.76851" lon="0.38911">
        <ele>105.3</ele>
        <time>2022-07-14T07:23:13Z</time>
      </trkpt>
      <trkpt lat="44.7685" lon="0.38908">
        <ele>105.4</ele>
        <time>2022-07-14T07:23:14Z</time>
      </trkpt>
      <trkpt lat="44.76849" lon="0.38904">
        <ele>105.4</ele>
        <time>2022-07-14T07:23:15Z</time>
      </trkpt>
      <trkpt lat="44.76848" lon="0.38898">
        <ele>105.3</ele>
        <time>2022-07-14T07:23:16Z</time>
      </trkpt>
      <trkpt lat="44.76846" lon="0.38892">
        <ele>105.2</ele>
        <time>2022-07-14T07:23:17Z</time>
      </trkpt>
      <trkpt lat="44.76844" lon="0.38883">
        <ele>105</ele>
        <time>2022-07-14T07:23:18Z</time>
      </trkpt>
      <trkpt lat="44.76841" lon="0.38877">
        <ele>104.7</ele>
        <time>2022-07-14T07:23:19Z</time>
      </trkpt>
      <trkpt lat="44.76837" lon="0.38869">
        <ele>104.5</ele>
        <time>2022-07-14T07:23:20Z</time>
      </trkpt>
      <trkpt lat="44.76832" lon="0.3886">
        <ele>104.4</ele>
        <time>2022-07-14T07:23:21Z</time>
      </trkpt>
      <trkpt lat="44.76826" lon="0.38851">
        <ele>104.4</ele>
        <time>2022-07-14T07:23:22Z</time>
      </trkpt>
      <trkpt lat="44.7682" lon="0.38844">
        <ele>104.6</ele>
        <time>2022-07-14T07:23:23Z</time>
      </trkpt>
      <trkpt lat="44.76813" lon="0.38839">
        <ele>104.8</ele>
        <time>2022-07-14T07:23:24Z</time>
      </trkpt>
      <trkpt lat="44.76807" lon="0.38835">
        <ele>105</ele>
        <time>2022-07-14T07:23:25Z</time>
      </trkpt>
      <trkpt lat="44.76797" lon="0.38827">
        <ele>105.5</ele>
        <time>2022-07-14T07:23:27Z</time>
      </trkpt>
      <trkpt lat="44.76793" lon="0.38824">
        <ele>105.7</ele>
        <time>2022-07-14T07:23:28Z</time>
      </trkpt>
      <trkpt lat="44.76789" lon="0.38821">
        <ele>105.9</ele>
        <time>2022-07-14T07:23:29Z</time>
      </trkpt>
      <trkpt lat="44.76785" lon="0.38817">
        <ele>106.1</ele>
        <time>2022-07-14T07:23:30Z</time>
      </trkpt>
      <trkpt lat="44.76782" lon="0.38814">
        <ele>106.3</ele>
        <time>2022-07-14T07:23:31Z</time>
      </trkpt>
      <trkpt lat="44.76774" lon="0.38806">
        <ele>106.8</ele>
        <time>2022-07-14T07:23:33Z</time>
      </trkpt>
      <trkpt lat="44.76771" lon="0.38803">
        <ele>107</ele>
        <time>2022-07-14T07:23:34Z</time>
      </trkpt>
      <trkpt lat="44.76767" lon="0.38799">
        <ele>107.3</ele>
        <time>2022-07-14T07:23:35Z</time>
      </trkpt>
      <trkpt lat="44.76762" lon="0.38796">
        <ele>107.5</ele>
        <time>2022-07-14T07:23:36Z</time>
      </trkpt>
      <trkpt lat="44.76759" lon="0.38796">
        <ele>107.7</ele>
        <time>2022-07-14T07:23:37Z</time>
      </trkpt>
      <trkpt lat="44.76753" lon="0.38796">
        <ele>108</ele>
        <time>2022-07-14T07:23:39Z</time>
      </trkpt>
      <trkpt lat="44.76751" lon="0.38796">
        <ele>108.1</ele>
        <time>2022-07-14T07:23:41Z</time>
      </trkpt>
      <trkpt lat="44.76744" lon="0.38805">
        <ele>108.3</ele>
        <time>2022-07-14T07:23:43Z</time>
      </trkpt>
      <trkpt lat="44.7674" lon="0.38805">
        <ele>108.3</ele>
        <time>2022-07-14T07:23:45Z</time>
      </trkpt>
      <trkpt lat="44.76735" lon="0.38804">
        <ele>108.3</ele>
        <time>2022-07-14T07:23:47Z</time>
      </trkpt>
      <trkpt lat="44.7673" lon="0.38804">
        <ele>108.3</ele>
        <time>2022-07-14T07:23:49Z</time>
      </trkpt>
      <trkpt lat="44.76723" lon="0.38802">
        <ele>108.4</ele>
        <time>2022-07-14T07:23:51Z</time>
      </trkpt>
      <trkpt lat="44.76717" lon="0.388">
        <ele>108.5</ele>
        <time>2022-07-14T07:23:53Z</time>
      </trkpt>
      <trkpt lat="44.76714" lon="0.38799">
        <ele>108.6</ele>
        <time>2022-07-14T07:23:54Z</time>
      </trkpt>
      <trkpt lat="44.76711" lon="0.38798">
        <ele>108.7</ele>
        <time>2022-07-14T07:23:55Z</time>
      </trkpt>
      <trkpt lat="44.76705" lon="0.38795">
        <ele>108.9</ele>
        <time>2022-07-14T07:23:57Z</time>
      </trkpt>
      <trkpt lat="44.76699" lon="0.38792">
        <ele>109.1</ele>
        <time>2022-07-14T07:23:59Z</time>
      </trkpt>
      <trkpt lat="44.76696" lon="0.3879">
        <ele>109.2</ele>
        <time>2022-07-14T07:24:00Z</time>
      </trkpt>
      <trkpt lat="44.76694" lon="0.38788">
        <ele>109.3</ele>
        <time>2022-07-14T07:24:01Z</time>
      </trkpt>
      <trkpt lat="44.76688" lon="0.38785">
        <ele>109.6</ele>
        <time>2022-07-14T07:24:03Z</time>
      </trkpt>
      <trkpt lat="44.76683" lon="0.38782">
        <ele>109.7</ele>
        <time>2022-07-14T07:24:05Z</time>
      </trkpt>
      <trkpt lat="44.76678" lon="0.38779">
        <ele>109.9</ele>
        <time>2022-07-14T07:24:07Z</time>
      </trkpt>
      <trkpt lat="44.76672" lon="0.38776">
        <ele>110.1</ele>
        <time>2022-07-14T07:24:09Z</time>
      </trkpt>
      <trkpt lat="44.76669" lon="0.38774">
        <ele>110.2</ele>
        <time>2022-07-14T07:24:10Z</time>
      </trkpt>
      <trkpt lat="44.76667" lon="0.38773">
        <ele>110.3</ele>
        <time>2022-07-14T07:24:11Z</time>
      </trkpt>
      <trkpt lat="44.76661" lon="0.38769">
        <ele>110.5</ele>
        <time>2022-07-14T07:24:13Z</time>
      </trkpt>
      <trkpt lat="44.76655" lon="0.38766">
        <ele>110.7</ele>
        <time>2022-07-14T07:24:15Z</time>
      </trkpt>
      <trkpt lat="44.7665" lon="0.38763">
        <ele>110.9</ele>
        <time>2022-07-14T07:24:17Z</time>
      </trkpt>
      <trkpt lat="44.76645" lon="0.3876">
        <ele>111.1</ele>
        <time>2022-07-14T07:24:19Z</time>
      </trkpt>
      <trkpt lat="44.76639" lon="0.38756">
        <ele>111.3</ele>
        <time>2022-07-14T07:24:21Z</time>
      </trkpt>
      <trkpt lat="44.76634" lon="0.38753">
        <ele>111.5</ele>
        <time>2022-07-14T07:24:23Z</time>
      </trkpt>
      <trkpt lat="44.76629" lon="0.3875">
        <ele>111.7</ele>
        <time>2022-07-14T07:24:25Z</time>
      </trkpt>
      <trkpt lat="44.76626" lon="0.38748">
        <ele>111.8</ele>
        <time>2022-07-14T07:24:26Z</time>
      </trkpt>
      <trkpt lat="44.76623" lon="0.38747">
        <ele>111.9</ele>
        <time>2022-07-14T07:24:27Z</time>
      </trkpt>
      <trkpt lat="44.76618" lon="0.38744">
        <ele>112.1</ele>
        <time>2022-07-14T07:24:29Z</time>
      </trkpt>
      <trkpt lat="44.76613" lon="0.3874">
        <ele>112.4</ele>
        <time>2022-07-14T07:24:31Z</time>
      </trkpt>
      <trkpt lat="44.76608" lon="0.38737">
        <ele>112.5</ele>
        <time>2022-07-14T07:24:33Z</time>
      </trkpt>
      <trkpt lat="44.76602" lon="0.38734">
        <ele>112.8</ele>
        <time>2022-07-14T07:24:35Z</time>
      </trkpt>
      <trkpt lat="44.76597" lon="0.38731">
        <ele>113</ele>
        <time>2022-07-14T07:24:37Z</time>
      </trkpt>
      <trkpt lat="44.76591" lon="0.38727">
        <ele>113.2</ele>
        <time>2022-07-14T07:24:39Z</time>
      </trkpt>
      <trkpt lat="44.76589" lon="0.38726">
        <ele>113.3</ele>
        <time>2022-07-14T07:24:40Z</time>
      </trkpt>
      <trkpt lat="44.76586" lon="0.38724">
        <ele>113.5</ele>
        <time>2022-07-14T07:24:41Z</time>
      </trkpt>
      <trkpt lat="44.7658" lon="0.38721">
        <ele>113.8</ele>
        <time>2022-07-14T07:24:43Z</time>
      </trkpt>
      <trkpt lat="44.76574" lon="0.38719">
        <ele>114</ele>
        <time>2022-07-14T07:24:45Z</time>
      </trkpt>
      <trkpt lat="44.76569" lon="0.38717">
        <ele>114.2</ele>
        <time>2022-07-14T07:24:47Z</time>
      </trkpt>
      <trkpt lat="44.76566" lon="0.38716">
        <ele>114.3</ele>
        <time>2022-07-14T07:24:48Z</time>
      </trkpt>
      <trkpt lat="44.76563" lon="0.38714">
        <ele>114.5</ele>
        <time>2022-07-14T07:24:49Z</time>
      </trkpt>
      <trkpt lat="44.76557" lon="0.38712">
        <ele>114.7</ele>
        <time>2022-07-14T07:24:51Z</time>
      </trkpt>
      <trkpt lat="44.76551" lon="0.3871">
        <ele>115</ele>
        <time>2022-07-14T07:24:53Z</time>
      </trkpt>
      <trkpt lat="44.76548" lon="0.38709">
        <ele>115.2</ele>
        <time>2022-07-14T07:24:54Z</time>
      </trkpt>
      <trkpt lat="44.76545" lon="0.38708">
        <ele>115.3</ele>
        <time>2022-07-14T07:24:55Z</time>
      </trkpt>
      <trkpt lat="44.76539" lon="0.38707">
        <ele>115.6</ele>
        <time>2022-07-14T07:24:57Z</time>
      </trkpt>
      <trkpt lat="44.76533" lon="0.38706">
        <ele>115.8</ele>
        <time>2022-07-14T07:24:59Z</time>
      </trkpt>
      <trkpt lat="44.7653" lon="0.38706">
        <ele>115.9</ele>
        <time>2022-07-14T07:25:00Z</time>
      </trkpt>
      <trkpt lat="44.76527" lon="0.38705">
        <ele>116.1</ele>
        <time>2022-07-14T07:25:01Z</time>
      </trkpt>
      <trkpt lat="44.76521" lon="0.38703">
        <ele>116.4</ele>
        <time>2022-07-14T07:25:03Z</time>
      </trkpt>
      <trkpt lat="44.76515" lon="0.38701">
        <ele>116.8</ele>
        <time>2022-07-14T07:25:05Z</time>
      </trkpt>
      <trkpt lat="44.76509" lon="0.38699">
        <ele>117.3</ele>
        <time>2022-07-14T07:25:07Z</time>
      </trkpt>
      <trkpt lat="44.76506" lon="0.38698">
        <ele>117.5</ele>
        <time>2022-07-14T07:25:08Z</time>
      </trkpt>
      <trkpt lat="44.76503" lon="0.38697">
        <ele>117.7</ele>
        <time>2022-07-14T07:25:09Z</time>
      </trkpt>
      <trkpt lat="44.76498" lon="0.38694">
        <ele>118.1</ele>
        <time>2022-07-14T07:25:11Z</time>
      </trkpt>
      <trkpt lat="44.76492" lon="0.3869">
        <ele>118.6</ele>
        <time>2022-07-14T07:25:13Z</time>
      </trkpt>
      <trkpt lat="44.76487" lon="0.38687">
        <ele>119</ele>
        <time>2022-07-14T07:25:15Z</time>
      </trkpt>
      <trkpt lat="44.76481" lon="0.38683">
        <ele>119.4</ele>
        <time>2022-07-14T07:25:17Z</time>
      </trkpt>
      <trkpt lat="44.76476" lon="0.38679">
        <ele>119.8</ele>
        <time>2022-07-14T07:25:19Z</time>
      </trkpt>
      <trkpt lat="44.76471" lon="0.38675">
        <ele>120.1</ele>
        <time>2022-07-14T07:25:21Z</time>
      </trkpt>
      <trkpt lat="44.76466" lon="0.38671">
        <ele>120.4</ele>
        <time>2022-07-14T07:25:23Z</time>
      </trkpt>
      <trkpt lat="44.76462" lon="0.38666">
        <ele>120.7</ele>
        <time>2022-07-14T07:25:25Z</time>
      </trkpt>
      <trkpt lat="44.76458" lon="0.38661">
        <ele>121.1</ele>
        <time>2022-07-14T07:25:27Z</time>
      </trkpt>
      <trkpt lat="44.76454" lon="0.38656">
        <ele>121.5</ele>
        <time>2022-07-14T07:25:29Z</time>
      </trkpt>
      <trkpt lat="44.76451" lon="0.38651">
        <ele>121.8</ele>
        <time>2022-07-14T07:25:31Z</time>
      </trkpt>
      <trkpt lat="44.76449" lon="0.38649">
        <ele>122</ele>
        <time>2022-07-14T07:25:32Z</time>
      </trkpt>
      <trkpt lat="44.76447" lon="0.38646">
        <ele>122.2</ele>
        <time>2022-07-14T07:25:33Z</time>
      </trkpt>
      <trkpt lat="44.76443" lon="0.38641">
        <ele>122.7</ele>
        <time>2022-07-14T07:25:35Z</time>
      </trkpt>
      <trkpt lat="44.7644" lon="0.38637">
        <ele>123.1</ele>
        <time>2022-07-14T07:25:37Z</time>
      </trkpt>
      <trkpt lat="44.76436" lon="0.38632">
        <ele>123.7</ele>
        <time>2022-07-14T07:25:39Z</time>
      </trkpt>
      <trkpt lat="44.76434" lon="0.3863">
        <ele>123.9</ele>
        <time>2022-07-14T07:25:40Z</time>
      </trkpt>
      <trkpt lat="44.76433" lon="0.38628">
        <ele>124.1</ele>
        <time>2022-07-14T07:25:41Z</time>
      </trkpt>
      <trkpt lat="44.76429" lon="0.38623">
        <ele>124.6</ele>
        <time>2022-07-14T07:25:43Z</time>
      </trkpt>
      <trkpt lat="44.76426" lon="0.38619">
        <ele>125</ele>
        <time>2022-07-14T07:25:45Z</time>
      </trkpt>
      <trkpt lat="44.76423" lon="0.38615">
        <ele>125.4</ele>
        <time>2022-07-14T07:25:47Z</time>
      </trkpt>
      <trkpt lat="44.7642" lon="0.38611">
        <ele>125.9</ele>
        <time>2022-07-14T07:25:49Z</time>
      </trkpt>
      <trkpt lat="44.76418" lon="0.38608">
        <ele>126.3</ele>
        <time>2022-07-14T07:25:51Z</time>
      </trkpt>
      <trkpt lat="44.76415" lon="0.38605">
        <ele>126.7</ele>
        <time>2022-07-14T07:25:53Z</time>
      </trkpt>
      <trkpt lat="44.76413" lon="0.38601">
        <ele>127.2</ele>
        <time>2022-07-14T07:25:55Z</time>
      </trkpt>
      <trkpt lat="44.7641" lon="0.38598">
        <ele>127.6</ele>
        <time>2022-07-14T07:25:57Z</time>
      </trkpt>
      <trkpt lat="44.76407" lon="0.38594">
        <ele>128.1</ele>
        <time>2022-07-14T07:25:59Z</time>
      </trkpt>
      <trkpt lat="44.76405" lon="0.38591">
        <ele>128.5</ele>
        <time>2022-07-14T07:26:01Z</time>
      </trkpt>
      <trkpt lat="44.76402" lon="0.38587">
        <ele>129.1</ele>
        <time>2022-07-14T07:26:03Z</time>
      </trkpt>
      <trkpt lat="44.76399" lon="0.38583">
        <ele>129.6</ele>
        <time>2022-07-14T07:26:05Z</time>
      </trkpt>
      <trkpt lat="44.76396" lon="0.3858">
        <ele>130.1</ele>
        <time>2022-07-14T07:26:07Z</time>
      </trkpt>
      <trkpt lat="44.76394" lon="0.38577">
        <ele>130.5</ele>
        <time>2022-07-14T07:26:09Z</time>
      </trkpt>
      <trkpt lat="44.76393" lon="0.38575">
        <ele>130.8</ele>
        <time>2022-07-14T07:26:10Z</time>
      </trkpt>
      <trkpt lat="44.76391" lon="0.38572">
        <ele>131.1</ele>
        <time>2022-07-14T07:26:11Z</time>
      </trkpt>
      <trkpt lat="44.76388" lon="0.38568">
        <ele>131.7</ele>
        <time>2022-07-14T07:26:13Z</time>
      </trkpt>
      <trkpt lat="44.76385" lon="0.38565">
        <ele>132.3</ele>
        <time>2022-07-14T07:26:15Z</time>
      </trkpt>
      <trkpt lat="44.76382" lon="0.38563">
        <ele>132.7</ele>
        <time>2022-07-14T07:26:17Z</time>
      </trkpt>
      <trkpt lat="44.76379" lon="0.38561">
        <ele>133.2</ele>
        <time>2022-07-14T07:26:19Z</time>
      </trkpt>
      <trkpt lat="44.76376" lon="0.38558">
        <ele>133.8</ele>
        <time>2022-07-14T07:26:21Z</time>
      </trkpt>
      <trkpt lat="44.76373" lon="0.38556">
        <ele>134.4</ele>
        <time>2022-07-14T07:26:23Z</time>
      </trkpt>
      <trkpt lat="44.7637" lon="0.38554">
        <ele>134.8</ele>
        <time>2022-07-14T07:26:25Z</time>
      </trkpt>
      <trkpt lat="44.76369" lon="0.38553">
        <ele>135.1</ele>
        <time>2022-07-14T07:26:26Z</time>
      </trkpt>
      <trkpt lat="44.76367" lon="0.38551">
        <ele>135.4</ele>
        <time>2022-07-14T07:26:27Z</time>
      </trkpt>
      <trkpt lat="44.76364" lon="0.38549">
        <ele>135.9</ele>
        <time>2022-07-14T07:26:29Z</time>
      </trkpt>
      <trkpt lat="44.76361" lon="0.38547">
        <ele>136.4</ele>
        <time>2022-07-14T07:26:31Z</time>
      </trkpt>
      <trkpt lat="44.76359" lon="0.38545">
        <ele>136.6</ele>
        <time>2022-07-14T07:26:32Z</time>
      </trkpt>
      <trkpt lat="44.76357" lon="0.38544">
        <ele>136.9</ele>
        <time>2022-07-14T07:26:33Z</time>
      </trkpt>
      <trkpt lat="44.76354" lon="0.38542">
        <ele>137.3</ele>
        <time>2022-07-14T07:26:35Z</time>
      </trkpt>
      <trkpt lat="44.76351" lon="0.3854">
        <ele>137.7</ele>
        <time>2022-07-14T07:26:37Z</time>
      </trkpt>
      <trkpt lat="44.76348" lon="0.38537">
        <ele>138.1</ele>
        <time>2022-07-14T07:26:39Z</time>
      </trkpt>
      <trkpt lat="44.76345" lon="0.38535">
        <ele>138.6</ele>
        <time>2022-07-14T07:26:41Z</time>
      </trkpt>
      <trkpt lat="44.76342" lon="0.38532">
        <ele>138.9</ele>
        <time>2022-07-14T07:26:43Z</time>
      </trkpt>
      <trkpt lat="44.76339" lon="0.3853">
        <ele>139.2</ele>
        <time>2022-07-14T07:26:45Z</time>
      </trkpt>
      <trkpt lat="44.76336" lon="0.38528">
        <ele>139.6</ele>
        <time>2022-07-14T07:26:47Z</time>
      </trkpt>
      <trkpt lat="44.76333" lon="0.38526">
        <ele>140</ele>
        <time>2022-07-14T07:26:49Z</time>
      </trkpt>
      <trkpt lat="44.76329" lon="0.38523">
        <ele>140.4</ele>
        <time>2022-07-14T07:26:51Z</time>
      </trkpt>
      <trkpt lat="44.76326" lon="0.3852">
        <ele>140.7</ele>
        <time>2022-07-14T07:26:53Z</time>
      </trkpt>
      <trkpt lat="44.76322" lon="0.38517">
        <ele>141</ele>
        <time>2022-07-14T07:26:55Z</time>
      </trkpt>
      <trkpt lat="44.7632" lon="0.38516">
        <ele>141.2</ele>
        <time>2022-07-14T07:26:57Z</time>
      </trkpt>
      <trkpt lat="44.76316" lon="0.38513">
        <ele>141.5</ele>
        <time>2022-07-14T07:26:59Z</time>
      </trkpt>
      <trkpt lat="44.76312" lon="0.3851">
        <ele>141.7</ele>
        <time>2022-07-14T07:27:01Z</time>
      </trkpt>
      <trkpt lat="44.76308" lon="0.38506">
        <ele>142</ele>
        <time>2022-07-14T07:27:03Z</time>
      </trkpt>
      <trkpt lat="44.76304" lon="0.38503">
        <ele>142.2</ele>
        <time>2022-07-14T07:27:05Z</time>
      </trkpt>
      <trkpt lat="44.76299" lon="0.38501">
        <ele>142.4</ele>
        <time>2022-07-14T07:27:07Z</time>
      </trkpt>
      <trkpt lat="44.76295" lon="0.38498">
        <ele>142.7</ele>
        <time>2022-07-14T07:27:09Z</time>
      </trkpt>
      <trkpt lat="44.76291" lon="0.38495">
        <ele>142.9</ele>
        <time>2022-07-14T07:27:11Z</time>
      </trkpt>
      <trkpt lat="44.76286" lon="0.38493">
        <ele>143.1</ele>
        <time>2022-07-14T07:27:13Z</time>
      </trkpt>
      <trkpt lat="44.76282" lon="0.3849">
        <ele>143.3</ele>
        <time>2022-07-14T07:27:15Z</time>
      </trkpt>
      <trkpt lat="44.76278" lon="0.38487">
        <ele>143.4</ele>
        <time>2022-07-14T07:27:17Z</time>
      </trkpt>
      <trkpt lat="44.76274" lon="0.38485">
        <ele>143.6</ele>
        <time>2022-07-14T07:27:19Z</time>
      </trkpt>
      <trkpt lat="44.76269" lon="0.38482">
        <ele>143.8</ele>
        <time>2022-07-14T07:27:21Z</time>
      </trkpt>
      <trkpt lat="44.76264" lon="0.38479">
        <ele>144</ele>
        <time>2022-07-14T07:27:23Z</time>
      </trkpt>
      <trkpt lat="44.76261" lon="0.38477">
        <ele>144.2</ele>
        <time>2022-07-14T07:27:24Z</time>
      </trkpt>
      <trkpt lat="44.76259" lon="0.38476">
        <ele>144.3</ele>
        <time>2022-07-14T07:27:25Z</time>
      </trkpt>
      <trkpt lat="44.76254" lon="0.38476">
        <ele>144.6</ele>
        <time>2022-07-14T07:27:27Z</time>
      </trkpt>
      <trkpt lat="44.76249" lon="0.38476">
        <ele>144.9</ele>
        <time>2022-07-14T07:27:29Z</time>
      </trkpt>
      <trkpt lat="44.76246" lon="0.38478">
        <ele>145.1</ele>
        <time>2022-07-14T07:27:30Z</time>
      </trkpt>
      <trkpt lat="44.76244" lon="0.38479">
        <ele>145.2</ele>
        <time>2022-07-14T07:27:31Z</time>
      </trkpt>
      <trkpt lat="44.76239" lon="0.38483">
        <ele>145.4</ele>
        <time>2022-07-14T07:27:33Z</time>
      </trkpt>
      <trkpt lat="44.76235" lon="0.38487">
        <ele>145.5</ele>
        <time>2022-07-14T07:27:35Z</time>
      </trkpt>
      <trkpt lat="44.76232" lon="0.38488">
        <ele>145.6</ele>
        <time>2022-07-14T07:27:36Z</time>
      </trkpt>
      <trkpt lat="44.7623" lon="0.3849">
        <ele>145.7</ele>
        <time>2022-07-14T07:27:37Z</time>
      </trkpt>
      <trkpt lat="44.76226" lon="0.38494">
        <ele>145.8</ele>
        <time>2022-07-14T07:27:39Z</time>
      </trkpt>
      <trkpt lat="44.76221" lon="0.38498">
        <ele>145.9</ele>
        <time>2022-07-14T07:27:41Z</time>
      </trkpt>
      <trkpt lat="44.76216" lon="0.38501">
        <ele>146</ele>
        <time>2022-07-14T07:27:43Z</time>
      </trkpt>
      <trkpt lat="44.76213" lon="0.38508">
        <ele>146.1</ele>
        <time>2022-07-14T07:27:45Z</time>
      </trkpt>
      <trkpt lat="44.76209" lon="0.38515">
        <ele>146.3</ele>
        <time>2022-07-14T07:27:47Z</time>
      </trkpt>
      <trkpt lat="44.76206" lon="0.38521">
        <ele>146.4</ele>
        <time>2022-07-14T07:27:49Z</time>
      </trkpt>
      <trkpt lat="44.76203" lon="0.38527">
        <ele>146.4</ele>
        <time>2022-07-14T07:27:51Z</time>
      </trkpt>
      <trkpt lat="44.76199" lon="0.38534">
        <ele>146.5</ele>
        <time>2022-07-14T07:27:53Z</time>
      </trkpt>
      <trkpt lat="44.76196" lon="0.38541">
        <ele>146.5</ele>
        <time>2022-07-14T07:27:55Z</time>
      </trkpt>
      <trkpt lat="44.76193" lon="0.38548">
        <ele>146.5</ele>
        <time>2022-07-14T07:27:57Z</time>
      </trkpt>
      <trkpt lat="44.76191" lon="0.38551">
        <ele>146.5</ele>
        <time>2022-07-14T07:27:58Z</time>
      </trkpt>
      <trkpt lat="44.7619" lon="0.38555">
        <ele>146.6</ele>
        <time>2022-07-14T07:27:59Z</time>
      </trkpt>
      <trkpt lat="44.76186" lon="0.38562">
        <ele>146.6</ele>
        <time>2022-07-14T07:28:01Z</time>
      </trkpt>
      <trkpt lat="44.76183" lon="0.3857">
        <ele>146.6</ele>
        <time>2022-07-14T07:28:03Z</time>
      </trkpt>
      <trkpt lat="44.76181" lon="0.38574">
        <ele>146.6</ele>
        <time>2022-07-14T07:28:04Z</time>
      </trkpt>
      <trkpt lat="44.76179" lon="0.38578">
        <ele>146.6</ele>
        <time>2022-07-14T07:28:05Z</time>
      </trkpt>
      <trkpt lat="44.76175" lon="0.38586">
        <ele>146.7</ele>
        <time>2022-07-14T07:28:07Z</time>
      </trkpt>
      <trkpt lat="44.76172" lon="0.38594">
        <ele>146.8</ele>
        <time>2022-07-14T07:28:09Z</time>
      </trkpt>
      <trkpt lat="44.76168" lon="0.38602">
        <ele>146.9</ele>
        <time>2022-07-14T07:28:11Z</time>
      </trkpt>
      <trkpt lat="44.76166" lon="0.38607">
        <ele>147</ele>
        <time>2022-07-14T07:28:12Z</time>
      </trkpt>
      <trkpt lat="44.76164" lon="0.38611">
        <ele>147</ele>
        <time>2022-07-14T07:28:13Z</time>
      </trkpt>
      <trkpt lat="44.7616" lon="0.38619">
        <ele>147.2</ele>
        <time>2022-07-14T07:28:15Z</time>
      </trkpt>
      <trkpt lat="44.76156" lon="0.38628">
        <ele>147.4</ele>
        <time>2022-07-14T07:28:17Z</time>
      </trkpt>
      <trkpt lat="44.76152" lon="0.38635">
        <ele>147.6</ele>
        <time>2022-07-14T07:28:19Z</time>
      </trkpt>
      <trkpt lat="44.76148" lon="0.38643">
        <ele>147.8</ele>
        <time>2022-07-14T07:28:21Z</time>
      </trkpt>
      <trkpt lat="44.76144" lon="0.38651">
        <ele>148.1</ele>
        <time>2022-07-14T07:28:23Z</time>
      </trkpt>
      <trkpt lat="44.76139" lon="0.38659">
        <ele>148.4</ele>
        <time>2022-07-14T07:28:25Z</time>
      </trkpt>
      <trkpt lat="44.76135" lon="0.38667">
        <ele>148.8</ele>
        <time>2022-07-14T07:28:27Z</time>
      </trkpt>
      <trkpt lat="44.76131" lon="0.38674">
        <ele>149.2</ele>
        <time>2022-07-14T07:28:29Z</time>
      </trkpt>
      <trkpt lat="44.76128" lon="0.3868">
        <ele>149.5</ele>
        <time>2022-07-14T07:28:31Z</time>
      </trkpt>
      <trkpt lat="44.76125" lon="0.38685">
        <ele>149.7</ele>
        <time>2022-07-14T07:28:33Z</time>
      </trkpt>
      <trkpt lat="44.76122" lon="0.38691">
        <ele>149.9</ele>
        <time>2022-07-14T07:28:35Z</time>
      </trkpt>
      <trkpt lat="44.76119" lon="0.38696">
        <ele>150.2</ele>
        <time>2022-07-14T07:28:37Z</time>
      </trkpt>
      <trkpt lat="44.76116" lon="0.38702">
        <ele>150.5</ele>
        <time>2022-07-14T07:28:39Z</time>
      </trkpt>
      <trkpt lat="44.76113" lon="0.38707">
        <ele>150.9</ele>
        <time>2022-07-14T07:28:41Z</time>
      </trkpt>
      <trkpt lat="44.76112" lon="0.38709">
        <ele>151.1</ele>
        <time>2022-07-14T07:28:42Z</time>
      </trkpt>
      <trkpt lat="44.7611" lon="0.38712">
        <ele>151.3</ele>
        <time>2022-07-14T07:28:43Z</time>
      </trkpt>
      <trkpt lat="44.76108" lon="0.38717">
        <ele>151.7</ele>
        <time>2022-07-14T07:28:45Z</time>
      </trkpt>
      <trkpt lat="44.76105" lon="0.38722">
        <ele>152.2</ele>
        <time>2022-07-14T07:28:47Z</time>
      </trkpt>
      <trkpt lat="44.76104" lon="0.38725">
        <ele>152.4</ele>
        <time>2022-07-14T07:28:48Z</time>
      </trkpt>
      <trkpt lat="44.76102" lon="0.38727">
        <ele>152.6</ele>
        <time>2022-07-14T07:28:49Z</time>
      </trkpt>
      <trkpt lat="44.761" lon="0.38731">
        <ele>153</ele>
        <time>2022-07-14T07:28:51Z</time>
      </trkpt>
      <trkpt lat="44.76097" lon="0.38736">
        <ele>153.4</ele>
        <time>2022-07-14T07:28:53Z</time>
      </trkpt>
      <trkpt lat="44.76095" lon="0.38741">
        <ele>153.7</ele>
        <time>2022-07-14T07:28:55Z</time>
      </trkpt>
      <trkpt lat="44.76092" lon="0.38745">
        <ele>154</ele>
        <time>2022-07-14T07:28:57Z</time>
      </trkpt>
      <trkpt lat="44.76089" lon="0.3875">
        <ele>154.2</ele>
        <time>2022-07-14T07:28:59Z</time>
      </trkpt>
      <trkpt lat="44.76085" lon="0.38748">
        <ele>154.3</ele>
        <time>2022-07-14T07:29:01Z</time>
      </trkpt>
      <trkpt lat="44.76079" lon="0.38745">
        <ele>154.4</ele>
        <time>2022-07-14T07:29:03Z</time>
      </trkpt>
      <trkpt lat="44.76075" lon="0.38743">
        <ele>154.4</ele>
        <time>2022-07-14T07:29:05Z</time>
      </trkpt>
      <trkpt lat="44.7607" lon="0.38741">
        <ele>154.5</ele>
        <time>2022-07-14T07:29:07Z</time>
      </trkpt>
      <trkpt lat="44.76067" lon="0.38739">
        <ele>154.6</ele>
        <time>2022-07-14T07:29:08Z</time>
      </trkpt>
      <trkpt lat="44.76065" lon="0.38738">
        <ele>154.6</ele>
        <time>2022-07-14T07:29:09Z</time>
      </trkpt>
      <trkpt lat="44.7606" lon="0.38735">
        <ele>154.8</ele>
        <time>2022-07-14T07:29:11Z</time>
      </trkpt>
      <trkpt lat="44.76057" lon="0.38734">
        <ele>154.8</ele>
        <time>2022-07-14T07:29:12Z</time>
      </trkpt>
      <trkpt lat="44.76054" lon="0.38733">
        <ele>154.9</ele>
        <time>2022-07-14T07:29:13Z</time>
      </trkpt>
      <trkpt lat="44.76048" lon="0.3873">
        <ele>155</ele>
        <time>2022-07-14T07:29:15Z</time>
      </trkpt>
      <trkpt lat="44.76042" lon="0.38726">
        <ele>155.1</ele>
        <time>2022-07-14T07:29:17Z</time>
      </trkpt>
      <trkpt lat="44.76035" lon="0.38722">
        <ele>155.3</ele>
        <time>2022-07-14T07:29:19Z</time>
      </trkpt>
      <trkpt lat="44.76029" lon="0.38717">
        <ele>155.4</ele>
        <time>2022-07-14T07:29:21Z</time>
      </trkpt>
      <trkpt lat="44.76023" lon="0.38712">
        <ele>155.6</ele>
        <time>2022-07-14T07:29:23Z</time>
      </trkpt>
      <trkpt lat="44.76017" lon="0.38707">
        <ele>155.7</ele>
        <time>2022-07-14T07:29:25Z</time>
      </trkpt>
      <trkpt lat="44.76011" lon="0.38702">
        <ele>155.8</ele>
        <time>2022-07-14T07:29:27Z</time>
      </trkpt>
      <trkpt lat="44.76008" lon="0.38699">
        <ele>155.9</ele>
        <time>2022-07-14T07:29:28Z</time>
      </trkpt>
      <trkpt lat="44.76006" lon="0.38697">
        <ele>155.9</ele>
        <time>2022-07-14T07:29:29Z</time>
      </trkpt>
      <trkpt lat="44.76" lon="0.38692">
        <ele>156</ele>
        <time>2022-07-14T07:29:31Z</time>
      </trkpt>
      <trkpt lat="44.75994" lon="0.38688">
        <ele>156.1</ele>
        <time>2022-07-14T07:29:33Z</time>
      </trkpt>
      <trkpt lat="44.75989" lon="0.38683">
        <ele>156.1</ele>
        <time>2022-07-14T07:29:35Z</time>
      </trkpt>
      <trkpt lat="44.75983" lon="0.38679">
        <ele>156.1</ele>
        <time>2022-07-14T07:29:37Z</time>
      </trkpt>
      <trkpt lat="44.75977" lon="0.38674">
        <ele>156.1</ele>
        <time>2022-07-14T07:29:39Z</time>
      </trkpt>
      <trkpt lat="44.75971" lon="0.38668">
        <ele>155.9</ele>
        <time>2022-07-14T07:29:41Z</time>
      </trkpt>
      <trkpt lat="44.75964" lon="0.38662">
        <ele>155.7</ele>
        <time>2022-07-14T07:29:43Z</time>
      </trkpt>
      <trkpt lat="44.75955" lon="0.38657">
        <ele>155.4</ele>
        <time>2022-07-14T07:29:45Z</time>
      </trkpt>
      <trkpt lat="44.75946" lon="0.38656">
        <ele>155.1</ele>
        <time>2022-07-14T07:29:47Z</time>
      </trkpt>
      <trkpt lat="44.75937" lon="0.38654">
        <ele>154.9</ele>
        <time>2022-07-14T07:29:49Z</time>
      </trkpt>
      <trkpt lat="44.75927" lon="0.38653">
        <ele>154.8</ele>
        <time>2022-07-14T07:29:51Z</time>
      </trkpt>
      <trkpt lat="44.75923" lon="0.38652">
        <ele>154.8</ele>
        <time>2022-07-14T07:29:52Z</time>
      </trkpt>
      <trkpt lat="44.75919" lon="0.38651">
        <ele>154.8</ele>
        <time>2022-07-14T07:29:53Z</time>
      </trkpt>
      <trkpt lat="44.75915" lon="0.38651">
        <ele>154.8</ele>
        <time>2022-07-14T07:29:54Z</time>
      </trkpt>
      <trkpt lat="44.75911" lon="0.3865">
        <ele>154.9</ele>
        <time>2022-07-14T07:29:55Z</time>
      </trkpt>
      <trkpt lat="44.75904" lon="0.38649">
        <ele>155</ele>
        <time>2022-07-14T07:29:57Z</time>
      </trkpt>
      <trkpt lat="44.75896" lon="0.38647">
        <ele>155.1</ele>
        <time>2022-07-14T07:29:59Z</time>
      </trkpt>
      <trkpt lat="44.75888" lon="0.38646">
        <ele>155.2</ele>
        <time>2022-07-14T07:30:01Z</time>
      </trkpt>
      <trkpt lat="44.75881" lon="0.38645">
        <ele>155.4</ele>
        <time>2022-07-14T07:30:03Z</time>
      </trkpt>
      <trkpt lat="44.75874" lon="0.38644">
        <ele>155.6</ele>
        <time>2022-07-14T07:30:05Z</time>
      </trkpt>
      <trkpt lat="44.75866" lon="0.38642">
        <ele>155.8</ele>
        <time>2022-07-14T07:30:07Z</time>
      </trkpt>
      <trkpt lat="44.75858" lon="0.38641">
        <ele>156</ele>
        <time>2022-07-14T07:30:09Z</time>
      </trkpt>
      <trkpt lat="44.75851" lon="0.3864">
        <ele>156.2</ele>
        <time>2022-07-14T07:30:11Z</time>
      </trkpt>
      <trkpt lat="44.75844" lon="0.38639">
        <ele>156.3</ele>
        <time>2022-07-14T07:30:13Z</time>
      </trkpt>
      <trkpt lat="44.75837" lon="0.38637">
        <ele>156.5</ele>
        <time>2022-07-14T07:30:15Z</time>
      </trkpt>
      <trkpt lat="44.75829" lon="0.38636">
        <ele>156.6</ele>
        <time>2022-07-14T07:30:17Z</time>
      </trkpt>
      <trkpt lat="44.75822" lon="0.38635">
        <ele>156.7</ele>
        <time>2022-07-14T07:30:19Z</time>
      </trkpt>
      <trkpt lat="44.75815" lon="0.38634">
        <ele>156.7</ele>
        <time>2022-07-14T07:30:21Z</time>
      </trkpt>
      <trkpt lat="44.75808" lon="0.38632">
        <ele>156.7</ele>
        <time>2022-07-14T07:30:23Z</time>
      </trkpt>
      <trkpt lat="44.758" lon="0.38631">
        <ele>156.6</ele>
        <time>2022-07-14T07:30:25Z</time>
      </trkpt>
      <trkpt lat="44.75792" lon="0.3863">
        <ele>156.3</ele>
        <time>2022-07-14T07:30:27Z</time>
      </trkpt>
      <trkpt lat="44.75782" lon="0.38628">
        <ele>155.8</ele>
        <time>2022-07-14T07:30:29Z</time>
      </trkpt>
      <trkpt lat="44.75771" lon="0.38626">
        <ele>155</ele>
        <time>2022-07-14T07:30:31Z</time>
      </trkpt>
      <trkpt lat="44.75758" lon="0.38624">
        <ele>153.9</ele>
        <time>2022-07-14T07:30:33Z</time>
      </trkpt>
      <trkpt lat="44.75751" lon="0.38624">
        <ele>153.4</ele>
        <time>2022-07-14T07:30:34Z</time>
      </trkpt>
      <trkpt lat="44.75744" lon="0.38625">
        <ele>152.8</ele>
        <time>2022-07-14T07:30:35Z</time>
      </trkpt>
      <trkpt lat="44.75729" lon="0.38626">
        <ele>151.6</ele>
        <time>2022-07-14T07:30:37Z</time>
      </trkpt>
      <trkpt lat="44.75713" lon="0.38627">
        <ele>150.4</ele>
        <time>2022-07-14T07:30:39Z</time>
      </trkpt>
      <trkpt lat="44.75705" lon="0.38628">
        <ele>149.9</ele>
        <time>2022-07-14T07:30:40Z</time>
      </trkpt>
      <trkpt lat="44.75697" lon="0.38627">
        <ele>149.6</ele>
        <time>2022-07-14T07:30:41Z</time>
      </trkpt>
      <trkpt lat="44.7568" lon="0.38624">
        <ele>148.9</ele>
        <time>2022-07-14T07:30:43Z</time>
      </trkpt>
      <trkpt lat="44.75672" lon="0.38625">
        <ele>148.7</ele>
        <time>2022-07-14T07:30:44Z</time>
      </trkpt>
      <trkpt lat="44.75665" lon="0.38627">
        <ele>148.5</ele>
        <time>2022-07-14T07:30:45Z</time>
      </trkpt>
      <trkpt lat="44.75651" lon="0.3863">
        <ele>148.2</ele>
        <time>2022-07-14T07:30:47Z</time>
      </trkpt>
      <trkpt lat="44.75643" lon="0.38632">
        <ele>148</ele>
        <time>2022-07-14T07:30:48Z</time>
      </trkpt>
      <trkpt lat="44.75636" lon="0.38633">
        <ele>147.8</ele>
        <time>2022-07-14T07:30:49Z</time>
      </trkpt>
      <trkpt lat="44.75628" lon="0.38635">
        <ele>147.7</ele>
        <time>2022-07-14T07:30:50Z</time>
      </trkpt>
      <trkpt lat="44.75621" lon="0.38636">
        <ele>147.6</ele>
        <time>2022-07-14T07:30:51Z</time>
      </trkpt>
      <trkpt lat="44.75607" lon="0.38638">
        <ele>147.5</ele>
        <time>2022-07-14T07:30:53Z</time>
      </trkpt>
      <trkpt lat="44.75594" lon="0.38639">
        <ele>147.5</ele>
        <time>2022-07-14T07:30:55Z</time>
      </trkpt>
      <trkpt lat="44.75582" lon="0.38639">
        <ele>147.5</ele>
        <time>2022-07-14T07:30:57Z</time>
      </trkpt>
      <trkpt lat="44.75569" lon="0.3864">
        <ele>147.5</ele>
        <time>2022-07-14T07:30:59Z</time>
      </trkpt>
      <trkpt lat="44.75556" lon="0.3864">
        <ele>147.6</ele>
        <time>2022-07-14T07:31:01Z</time>
      </trkpt>
      <trkpt lat="44.75543" lon="0.38639">
        <ele>147.7</ele>
        <time>2022-07-14T07:31:03Z</time>
      </trkpt>
      <trkpt lat="44.75532" lon="0.38637">
        <ele>147.8</ele>
        <time>2022-07-14T07:31:05Z</time>
      </trkpt>
      <trkpt lat="44.7552" lon="0.38635">
        <ele>147.9</ele>
        <time>2022-07-14T07:31:07Z</time>
      </trkpt>
      <trkpt lat="44.75512" lon="0.38635">
        <ele>148</ele>
        <time>2022-07-14T07:31:09Z</time>
      </trkpt>
      <trkpt lat="44.75508" lon="0.38635">
        <ele>148</ele>
        <time>2022-07-14T07:31:10Z</time>
      </trkpt>
      <trkpt lat="44.75503" lon="0.38636">
        <ele>148.1</ele>
        <time>2022-07-14T07:31:11Z</time>
      </trkpt>
      <trkpt lat="44.75498" lon="0.38636">
        <ele>148.2</ele>
        <time>2022-07-14T07:31:12Z</time>
      </trkpt>
      <trkpt lat="44.75493" lon="0.38636">
        <ele>148.3</ele>
        <time>2022-07-14T07:31:13Z</time>
      </trkpt>
      <trkpt lat="44.75481" lon="0.38637">
        <ele>148.5</ele>
        <time>2022-07-14T07:31:15Z</time>
      </trkpt>
      <trkpt lat="44.75469" lon="0.38638">
        <ele>148.7</ele>
        <time>2022-07-14T07:31:17Z</time>
      </trkpt>
      <trkpt lat="44.75463" lon="0.38639">
        <ele>148.8</ele>
        <time>2022-07-14T07:31:18Z</time>
      </trkpt>
      <trkpt lat="44.75457" lon="0.3864">
        <ele>149</ele>
        <time>2022-07-14T07:31:19Z</time>
      </trkpt>
      <trkpt lat="44.75446" lon="0.38645">
        <ele>149.3</ele>
        <time>2022-07-14T07:31:21Z</time>
      </trkpt>
      <trkpt lat="44.7544" lon="0.38647">
        <ele>149.4</ele>
        <time>2022-07-14T07:31:22Z</time>
      </trkpt>
      <trkpt lat="44.75435" lon="0.38648">
        <ele>149.5</ele>
        <time>2022-07-14T07:31:23Z</time>
      </trkpt>
      <trkpt lat="44.75431" lon="0.3865">
        <ele>149.6</ele>
        <time>2022-07-14T07:31:24Z</time>
      </trkpt>
      <trkpt lat="44.75426" lon="0.38653">
        <ele>149.7</ele>
        <time>2022-07-14T07:31:25Z</time>
      </trkpt>
      <trkpt lat="44.75422" lon="0.38658">
        <ele>149.7</ele>
        <time>2022-07-14T07:31:26Z</time>
      </trkpt>
      <trkpt lat="44.75418" lon="0.38664">
        <ele>149.7</ele>
        <time>2022-07-14T07:31:27Z</time>
      </trkpt>
      <trkpt lat="44.75414" lon="0.38669">
        <ele>149.7</ele>
        <time>2022-07-14T07:31:28Z</time>
      </trkpt>
      <trkpt lat="44.7541" lon="0.38675">
        <ele>149.6</ele>
        <time>2022-07-14T07:31:29Z</time>
      </trkpt>
      <trkpt lat="44.75406" lon="0.38681">
        <ele>149.6</ele>
        <time>2022-07-14T07:31:30Z</time>
      </trkpt>
      <trkpt lat="44.75402" lon="0.38686">
        <ele>149.5</ele>
        <time>2022-07-14T07:31:31Z</time>
      </trkpt>
      <trkpt lat="44.75398" lon="0.38691">
        <ele>149.4</ele>
        <time>2022-07-14T07:31:32Z</time>
      </trkpt>
      <trkpt lat="44.75392" lon="0.38699">
        <ele>149.3</ele>
        <time>2022-07-14T07:31:33Z</time>
      </trkpt>
      <trkpt lat="44.75387" lon="0.38699">
        <ele>149.2</ele>
        <time>2022-07-14T07:31:34Z</time>
      </trkpt>
      <trkpt lat="44.75381" lon="0.38698">
        <ele>149</ele>
        <time>2022-07-14T07:31:35Z</time>
      </trkpt>
      <trkpt lat="44.75366" lon="0.38697">
        <ele>148.7</ele>
        <time>2022-07-14T07:31:37Z</time>
      </trkpt>
      <trkpt lat="44.75354" lon="0.38696">
        <ele>148.3</ele>
        <time>2022-07-14T07:31:39Z</time>
      </trkpt>
      <trkpt lat="44.75342" lon="0.38695">
        <ele>147.9</ele>
        <time>2022-07-14T07:31:41Z</time>
      </trkpt>
      <trkpt lat="44.7533" lon="0.38694">
        <ele>147.5</ele>
        <time>2022-07-14T07:31:43Z</time>
      </trkpt>
      <trkpt lat="44.75316" lon="0.38693">
        <ele>147.1</ele>
        <time>2022-07-14T07:31:45Z</time>
      </trkpt>
      <trkpt lat="44.75303" lon="0.38691">
        <ele>146.7</ele>
        <time>2022-07-14T07:31:47Z</time>
      </trkpt>
      <trkpt lat="44.7529" lon="0.38689">
        <ele>146.3</ele>
        <time>2022-07-14T07:31:49Z</time>
      </trkpt>
      <trkpt lat="44.75278" lon="0.38687">
        <ele>146</ele>
        <time>2022-07-14T07:31:51Z</time>
      </trkpt>
      <trkpt lat="44.75266" lon="0.38686">
        <ele>145.8</ele>
        <time>2022-07-14T07:31:53Z</time>
      </trkpt>
      <trkpt lat="44.75254" lon="0.38685">
        <ele>145.7</ele>
        <time>2022-07-14T07:31:55Z</time>
      </trkpt>
      <trkpt lat="44.75243" lon="0.38684">
        <ele>145.6</ele>
        <time>2022-07-14T07:31:57Z</time>
      </trkpt>
      <trkpt lat="44.75232" lon="0.38683">
        <ele>145.4</ele>
        <time>2022-07-14T07:31:59Z</time>
      </trkpt>
      <trkpt lat="44.7522" lon="0.38682">
        <ele>145.2</ele>
        <time>2022-07-14T07:32:01Z</time>
      </trkpt>
      <trkpt lat="44.75215" lon="0.38682">
        <ele>145.1</ele>
        <time>2022-07-14T07:32:02Z</time>
      </trkpt>
      <trkpt lat="44.75209" lon="0.38683">
        <ele>145</ele>
        <time>2022-07-14T07:32:03Z</time>
      </trkpt>
      <trkpt lat="44.75197" lon="0.38687">
        <ele>144.7</ele>
        <time>2022-07-14T07:32:05Z</time>
      </trkpt>
      <trkpt lat="44.75186" lon="0.38692">
        <ele>144.4</ele>
        <time>2022-07-14T07:32:07Z</time>
      </trkpt>
      <trkpt lat="44.75175" lon="0.38697">
        <ele>144.1</ele>
        <time>2022-07-14T07:32:09Z</time>
      </trkpt>
      <trkpt lat="44.7517" lon="0.387">
        <ele>143.9</ele>
        <time>2022-07-14T07:32:10Z</time>
      </trkpt>
      <trkpt lat="44.75168" lon="0.38703">
        <ele>143.9</ele>
        <time>2022-07-14T07:32:11Z</time>
      </trkpt>
      <trkpt lat="44.75174" lon="0.38714">
        <ele>143.2</ele>
        <time>2022-07-14T07:32:13Z</time>
      </trkpt>
      <trkpt lat="44.75178" lon="0.38719">
        <ele>142.9</ele>
        <time>2022-07-14T07:32:14Z</time>
      </trkpt>
      <trkpt lat="44.75182" lon="0.38724">
        <ele>142.6</ele>
        <time>2022-07-14T07:32:15Z</time>
      </trkpt>
      <trkpt lat="44.75189" lon="0.38737">
        <ele>141.8</ele>
        <time>2022-07-14T07:32:17Z</time>
      </trkpt>
      <trkpt lat="44.75196" lon="0.38753">
        <ele>141</ele>
        <time>2022-07-14T07:32:19Z</time>
      </trkpt>
      <trkpt lat="44.75203" lon="0.38771">
        <ele>140.1</ele>
        <time>2022-07-14T07:32:21Z</time>
      </trkpt>
      <trkpt lat="44.75206" lon="0.3878">
        <ele>139.6</ele>
        <time>2022-07-14T07:32:22Z</time>
      </trkpt>
      <trkpt lat="44.7521" lon="0.38789">
        <ele>139.1</ele>
        <time>2022-07-14T07:32:23Z</time>
      </trkpt>
      <trkpt lat="44.75212" lon="0.38796">
        <ele>138.6</ele>
        <time>2022-07-14T07:32:24Z</time>
      </trkpt>
      <trkpt lat="44.75209" lon="0.38816">
        <ele>136.8</ele>
        <time>2022-07-14T07:32:25Z</time>
      </trkpt>
      <trkpt lat="44.75206" lon="0.38837">
        <ele>134.6</ele>
        <time>2022-07-14T07:32:27Z</time>
      </trkpt>
      <trkpt lat="44.75207" lon="0.38863">
        <ele>132.2</ele>
        <time>2022-07-14T07:32:29Z</time>
      </trkpt>
      <trkpt lat="44.75209" lon="0.38893">
        <ele>129.5</ele>
        <time>2022-07-14T07:32:31Z</time>
      </trkpt>
      <trkpt lat="44.75211" lon="0.38927">
        <ele>126.6</ele>
        <time>2022-07-14T07:32:33Z</time>
      </trkpt>
      <trkpt lat="44.75213" lon="0.38962">
        <ele>124</ele>
        <time>2022-07-14T07:32:35Z</time>
      </trkpt>
      <trkpt lat="44.75214" lon="0.38979">
        <ele>123.1</ele>
        <time>2022-07-14T07:32:36Z</time>
      </trkpt>
      <trkpt lat="44.75215" lon="0.38996">
        <ele>122.2</ele>
        <time>2022-07-14T07:32:37Z</time>
      </trkpt>
      <trkpt lat="44.75217" lon="0.3903">
        <ele>120.9</ele>
        <time>2022-07-14T07:32:39Z</time>
      </trkpt>
      <trkpt lat="44.75219" lon="0.39061">
        <ele>119.6</ele>
        <time>2022-07-14T07:32:41Z</time>
      </trkpt>
      <trkpt lat="44.7522" lon="0.39075">
        <ele>119.2</ele>
        <time>2022-07-14T07:32:42Z</time>
      </trkpt>
      <trkpt lat="44.75221" lon="0.39087">
        <ele>118.9</ele>
        <time>2022-07-14T07:32:43Z</time>
      </trkpt>
      <trkpt lat="44.75223" lon="0.39107">
        <ele>118.5</ele>
        <time>2022-07-14T07:32:45Z</time>
      </trkpt>
      <trkpt lat="44.75225" lon="0.39126">
        <ele>118</ele>
        <time>2022-07-14T07:32:47Z</time>
      </trkpt>
      <trkpt lat="44.75228" lon="0.39146">
        <ele>117.4</ele>
        <time>2022-07-14T07:32:49Z</time>
      </trkpt>
      <trkpt lat="44.7523" lon="0.39156">
        <ele>117.2</ele>
        <time>2022-07-14T07:32:50Z</time>
      </trkpt>
      <trkpt lat="44.75232" lon="0.39166">
        <ele>116.9</ele>
        <time>2022-07-14T07:32:51Z</time>
      </trkpt>
      <trkpt lat="44.75235" lon="0.39187">
        <ele>116.2</ele>
        <time>2022-07-14T07:32:53Z</time>
      </trkpt>
      <trkpt lat="44.75238" lon="0.39198">
        <ele>115.9</ele>
        <time>2022-07-14T07:32:54Z</time>
      </trkpt>
      <trkpt lat="44.7524" lon="0.39209">
        <ele>115.7</ele>
        <time>2022-07-14T07:32:55Z</time>
      </trkpt>
      <trkpt lat="44.75245" lon="0.3923">
        <ele>115.2</ele>
        <time>2022-07-14T07:32:57Z</time>
      </trkpt>
      <trkpt lat="44.75251" lon="0.39252">
        <ele>114.8</ele>
        <time>2022-07-14T07:32:59Z</time>
      </trkpt>
      <trkpt lat="44.75254" lon="0.39263">
        <ele>114.6</ele>
        <time>2022-07-14T07:33:00Z</time>
      </trkpt>
      <trkpt lat="44.75257" lon="0.39273">
        <ele>114.5</ele>
        <time>2022-07-14T07:33:01Z</time>
      </trkpt>
      <trkpt lat="44.75263" lon="0.39293">
        <ele>114.3</ele>
        <time>2022-07-14T07:33:03Z</time>
      </trkpt>
      <trkpt lat="44.75269" lon="0.39312">
        <ele>114.2</ele>
        <time>2022-07-14T07:33:05Z</time>
      </trkpt>
      <trkpt lat="44.75271" lon="0.39321">
        <ele>114.2</ele>
        <time>2022-07-14T07:33:06Z</time>
      </trkpt>
      <trkpt lat="44.75273" lon="0.39331">
        <ele>114.1</ele>
        <time>2022-07-14T07:33:07Z</time>
      </trkpt>
      <trkpt lat="44.75276" lon="0.3935">
        <ele>114.1</ele>
        <time>2022-07-14T07:33:09Z</time>
      </trkpt>
      <trkpt lat="44.75279" lon="0.39368">
        <ele>114</ele>
        <time>2022-07-14T07:33:11Z</time>
      </trkpt>
      <trkpt lat="44.75283" lon="0.39386">
        <ele>114.1</ele>
        <time>2022-07-14T07:33:13Z</time>
      </trkpt>
      <trkpt lat="44.75286" lon="0.39403">
        <ele>114.1</ele>
        <time>2022-07-14T07:33:15Z</time>
      </trkpt>
      <trkpt lat="44.75288" lon="0.39421">
        <ele>114.1</ele>
        <time>2022-07-14T07:33:17Z</time>
      </trkpt>
      <trkpt lat="44.75289" lon="0.39438">
        <ele>114.2</ele>
        <time>2022-07-14T07:33:19Z</time>
      </trkpt>
      <trkpt lat="44.7529" lon="0.39455">
        <ele>114.4</ele>
        <time>2022-07-14T07:33:21Z</time>
      </trkpt>
      <trkpt lat="44.75292" lon="0.39472">
        <ele>114.6</ele>
        <time>2022-07-14T07:33:23Z</time>
      </trkpt>
      <trkpt lat="44.75292" lon="0.39488">
        <ele>114.8</ele>
        <time>2022-07-14T07:33:25Z</time>
      </trkpt>
      <trkpt lat="44.75292" lon="0.39496">
        <ele>115</ele>
        <time>2022-07-14T07:33:26Z</time>
      </trkpt>
      <trkpt lat="44.75291" lon="0.39503">
        <ele>115.1</ele>
        <time>2022-07-14T07:33:27Z</time>
      </trkpt>
      <trkpt lat="44.7529" lon="0.3951">
        <ele>115.3</ele>
        <time>2022-07-14T07:33:28Z</time>
      </trkpt>
      <trkpt lat="44.75289" lon="0.39516">
        <ele>115.4</ele>
        <time>2022-07-14T07:33:29Z</time>
      </trkpt>
      <trkpt lat="44.75287" lon="0.39527">
        <ele>115.6</ele>
        <time>2022-07-14T07:33:31Z</time>
      </trkpt>
      <trkpt lat="44.75284" lon="0.3953">
        <ele>115.7</ele>
        <time>2022-07-14T07:33:32Z</time>
      </trkpt>
      <trkpt lat="44.75281" lon="0.39534">
        <ele>115.8</ele>
        <time>2022-07-14T07:33:33Z</time>
      </trkpt>
      <trkpt lat="44.75276" lon="0.3954">
        <ele>116</ele>
        <time>2022-07-14T07:33:35Z</time>
      </trkpt>
      <trkpt lat="44.75273" lon="0.39544">
        <ele>116.1</ele>
        <time>2022-07-14T07:33:37Z</time>
      </trkpt>
      <trkpt lat="44.75269" lon="0.39547">
        <ele>116.2</ele>
        <time>2022-07-14T07:33:39Z</time>
      </trkpt>
      <trkpt lat="44.75264" lon="0.39551">
        <ele>116.4</ele>
        <time>2022-07-14T07:33:41Z</time>
      </trkpt>
      <trkpt lat="44.75261" lon="0.39552">
        <ele>116.6</ele>
        <time>2022-07-14T07:33:42Z</time>
      </trkpt>
      <trkpt lat="44.75257" lon="0.39554">
        <ele>116.8</ele>
        <time>2022-07-14T07:33:43Z</time>
      </trkpt>
      <trkpt lat="44.75251" lon="0.39558">
        <ele>117.1</ele>
        <time>2022-07-14T07:33:45Z</time>
      </trkpt>
      <trkpt lat="44.75246" lon="0.39563">
        <ele>117.5</ele>
        <time>2022-07-14T07:33:47Z</time>
      </trkpt>
      <trkpt lat="44.75241" lon="0.39567">
        <ele>117.8</ele>
        <time>2022-07-14T07:33:49Z</time>
      </trkpt>
      <trkpt lat="44.75235" lon="0.39571">
        <ele>118.1</ele>
        <time>2022-07-14T07:33:51Z</time>
      </trkpt>
      <trkpt lat="44.7523" lon="0.39576">
        <ele>118.3</ele>
        <time>2022-07-14T07:33:53Z</time>
      </trkpt>
      <trkpt lat="44.75224" lon="0.3958">
        <ele>118.4</ele>
        <time>2022-07-14T07:33:55Z</time>
      </trkpt>
      <trkpt lat="44.75219" lon="0.39584">
        <ele>118.6</ele>
        <time>2022-07-14T07:33:57Z</time>
      </trkpt>
      <trkpt lat="44.75217" lon="0.39587">
        <ele>118.8</ele>
        <time>2022-07-14T07:33:58Z</time>
      </trkpt>
      <trkpt lat="44.75214" lon="0.39589">
        <ele>119</ele>
        <time>2022-07-14T07:33:59Z</time>
      </trkpt>
      <trkpt lat="44.75209" lon="0.39594">
        <ele>119.4</ele>
        <time>2022-07-14T07:34:01Z</time>
      </trkpt>
      <trkpt lat="44.75204" lon="0.39599">
        <ele>119.7</ele>
        <time>2022-07-14T07:34:03Z</time>
      </trkpt>
      <trkpt lat="44.752" lon="0.39604">
        <ele>120</ele>
        <time>2022-07-14T07:34:05Z</time>
      </trkpt>
      <trkpt lat="44.75195" lon="0.39609">
        <ele>120.3</ele>
        <time>2022-07-14T07:34:07Z</time>
      </trkpt>
      <trkpt lat="44.7519" lon="0.39614">
        <ele>120.6</ele>
        <time>2022-07-14T07:34:09Z</time>
      </trkpt>
      <trkpt lat="44.75187" lon="0.39617">
        <ele>120.8</ele>
        <time>2022-07-14T07:34:10Z</time>
      </trkpt>
      <trkpt lat="44.75184" lon="0.3962">
        <ele>120.9</ele>
        <time>2022-07-14T07:34:11Z</time>
      </trkpt>
      <trkpt lat="44.75179" lon="0.39625">
        <ele>121.1</ele>
        <time>2022-07-14T07:34:13Z</time>
      </trkpt>
      <trkpt lat="44.75174" lon="0.3963">
        <ele>121.3</ele>
        <time>2022-07-14T07:34:15Z</time>
      </trkpt>
      <trkpt lat="44.75168" lon="0.39636">
        <ele>121.4</ele>
        <time>2022-07-14T07:34:17Z</time>
      </trkpt>
      <trkpt lat="44.75165" lon="0.39639">
        <ele>121.4</ele>
        <time>2022-07-14T07:34:18Z</time>
      </trkpt>
      <trkpt lat="44.75162" lon="0.39641">
        <ele>121.5</ele>
        <time>2022-07-14T07:34:19Z</time>
      </trkpt>
      <trkpt lat="44.75157" lon="0.39647">
        <ele>121.6</ele>
        <time>2022-07-14T07:34:21Z</time>
      </trkpt>
      <trkpt lat="44.75152" lon="0.39654">
        <ele>121.7</ele>
        <time>2022-07-14T07:34:23Z</time>
      </trkpt>
      <trkpt lat="44.75147" lon="0.3966">
        <ele>121.8</ele>
        <time>2022-07-14T07:34:25Z</time>
      </trkpt>
      <trkpt lat="44.75145" lon="0.39664">
        <ele>121.8</ele>
        <time>2022-07-14T07:34:26Z</time>
      </trkpt>
      <trkpt lat="44.75142" lon="0.39667">
        <ele>121.9</ele>
        <time>2022-07-14T07:34:27Z</time>
      </trkpt>
      <trkpt lat="44.75137" lon="0.39673">
        <ele>121.9</ele>
        <time>2022-07-14T07:34:29Z</time>
      </trkpt>
      <trkpt lat="44.75132" lon="0.3968">
        <ele>122</ele>
        <time>2022-07-14T07:34:31Z</time>
      </trkpt>
      <trkpt lat="44.75126" lon="0.39687">
        <ele>122</ele>
        <time>2022-07-14T07:34:33Z</time>
      </trkpt>
      <trkpt lat="44.75121" lon="0.39694">
        <ele>122</ele>
        <time>2022-07-14T07:34:35Z</time>
      </trkpt>
      <trkpt lat="44.75115" lon="0.39701">
        <ele>122</ele>
        <time>2022-07-14T07:34:37Z</time>
      </trkpt>
      <trkpt lat="44.75109" lon="0.39708">
        <ele>122.2</ele>
        <time>2022-07-14T07:34:39Z</time>
      </trkpt>
      <trkpt lat="44.75106" lon="0.39711">
        <ele>122.3</ele>
        <time>2022-07-14T07:34:40Z</time>
      </trkpt>
      <trkpt lat="44.75103" lon="0.39715">
        <ele>122.3</ele>
        <time>2022-07-14T07:34:41Z</time>
      </trkpt>
      <trkpt lat="44.75097" lon="0.39722">
        <ele>122.5</ele>
        <time>2022-07-14T07:34:43Z</time>
      </trkpt>
      <trkpt lat="44.75091" lon="0.39728">
        <ele>122.6</ele>
        <time>2022-07-14T07:34:45Z</time>
      </trkpt>
      <trkpt lat="44.75085" lon="0.39734">
        <ele>122.8</ele>
        <time>2022-07-14T07:34:47Z</time>
      </trkpt>
      <trkpt lat="44.75078" lon="0.3974">
        <ele>122.9</ele>
        <time>2022-07-14T07:34:49Z</time>
      </trkpt>
      <trkpt lat="44.75073" lon="0.39748">
        <ele>123</ele>
        <time>2022-07-14T07:34:51Z</time>
      </trkpt>
      <trkpt lat="44.75066" lon="0.39753">
        <ele>123.1</ele>
        <time>2022-07-14T07:34:53Z</time>
      </trkpt>
      <trkpt lat="44.75062" lon="0.39757">
        <ele>123.2</ele>
        <time>2022-07-14T07:34:55Z</time>
      </trkpt>
      <trkpt lat="44.75054" lon="0.39765">
        <ele>123.4</ele>
        <time>2022-07-14T07:34:57Z</time>
      </trkpt>
      <trkpt lat="44.7505" lon="0.39773">
        <ele>123.5</ele>
        <time>2022-07-14T07:34:59Z</time>
      </trkpt>
      <trkpt lat="44.75045" lon="0.39781">
        <ele>123.4</ele>
        <time>2022-07-14T07:35:01Z</time>
      </trkpt>
      <trkpt lat="44.75039" lon="0.39788">
        <ele>123.4</ele>
        <time>2022-07-14T07:35:03Z</time>
      </trkpt>
      <trkpt lat="44.75034" lon="0.39796">
        <ele>123.3</ele>
        <time>2022-07-14T07:35:05Z</time>
      </trkpt>
      <trkpt lat="44.75032" lon="0.39801">
        <ele>123.2</ele>
        <time>2022-07-14T07:35:06Z</time>
      </trkpt>
      <trkpt lat="44.75029" lon="0.39806">
        <ele>123.1</ele>
        <time>2022-07-14T07:35:07Z</time>
      </trkpt>
      <trkpt lat="44.75025" lon="0.39816">
        <ele>122.9</ele>
        <time>2022-07-14T07:35:09Z</time>
      </trkpt>
      <trkpt lat="44.75021" lon="0.39826">
        <ele>122.6</ele>
        <time>2022-07-14T07:35:11Z</time>
      </trkpt>
      <trkpt lat="44.75017" lon="0.39837">
        <ele>122.3</ele>
        <time>2022-07-14T07:35:13Z</time>
      </trkpt>
      <trkpt lat="44.75015" lon="0.39842">
        <ele>122.2</ele>
        <time>2022-07-14T07:35:14Z</time>
      </trkpt>
      <trkpt lat="44.75012" lon="0.39848">
        <ele>122.2</ele>
        <time>2022-07-14T07:35:15Z</time>
      </trkpt>
      <trkpt lat="44.75008" lon="0.3986">
        <ele>122.2</ele>
        <time>2022-07-14T07:35:17Z</time>
      </trkpt>
      <trkpt lat="44.75005" lon="0.39865">
        <ele>122.2</ele>
        <time>2022-07-14T07:35:18Z</time>
      </trkpt>
      <trkpt lat="44.75003" lon="0.3987">
        <ele>122.2</ele>
        <time>2022-07-14T07:35:19Z</time>
      </trkpt>
      <trkpt lat="44.74999" lon="0.3988">
        <ele>122.2</ele>
        <time>2022-07-14T07:35:21Z</time>
      </trkpt>
      <trkpt lat="44.74995" lon="0.39891">
        <ele>122.1</ele>
        <time>2022-07-14T07:35:23Z</time>
      </trkpt>
      <trkpt lat="44.7499" lon="0.399">
        <ele>121.9</ele>
        <time>2022-07-14T07:35:25Z</time>
      </trkpt>
      <trkpt lat="44.74987" lon="0.39905">
        <ele>121.9</ele>
        <time>2022-07-14T07:35:26Z</time>
      </trkpt>
      <trkpt lat="44.74984" lon="0.3991">
        <ele>121.8</ele>
        <time>2022-07-14T07:35:27Z</time>
      </trkpt>
      <trkpt lat="44.74982" lon="0.39915">
        <ele>121.8</ele>
        <time>2022-07-14T07:35:28Z</time>
      </trkpt>
      <trkpt lat="44.74979" lon="0.3992">
        <ele>121.7</ele>
        <time>2022-07-14T07:35:29Z</time>
      </trkpt>
      <trkpt lat="44.74976" lon="0.39925">
        <ele>121.8</ele>
        <time>2022-07-14T07:35:30Z</time>
      </trkpt>
      <trkpt lat="44.74974" lon="0.39932">
        <ele>121.9</ele>
        <time>2022-07-14T07:35:31Z</time>
      </trkpt>
      <trkpt lat="44.74971" lon="0.39942">
        <ele>122.1</ele>
        <time>2022-07-14T07:35:33Z</time>
      </trkpt>
      <trkpt lat="44.74969" lon="0.39947">
        <ele>122.2</ele>
        <time>2022-07-14T07:35:34Z</time>
      </trkpt>
      <trkpt lat="44.74968" lon="0.3995">
        <ele>122.3</ele>
        <time>2022-07-14T07:35:35Z</time>
      </trkpt>
      <trkpt lat="44.7497" lon="0.39956">
        <ele>122.4</ele>
        <time>2022-07-14T07:35:37Z</time>
      </trkpt>
      <trkpt lat="44.74975" lon="0.39964">
        <ele>122.4</ele>
        <time>2022-07-14T07:35:39Z</time>
      </trkpt>
      <trkpt lat="44.7498" lon="0.39972">
        <ele>122.5</ele>
        <time>2022-07-14T07:35:41Z</time>
      </trkpt>
      <trkpt lat="44.74986" lon="0.39981">
        <ele>122.6</ele>
        <time>2022-07-14T07:35:43Z</time>
      </trkpt>
      <trkpt lat="44.74991" lon="0.39989">
        <ele>122.7</ele>
        <time>2022-07-14T07:35:45Z</time>
      </trkpt>
      <trkpt lat="44.74995" lon="0.39996">
        <ele>122.8</ele>
        <time>2022-07-14T07:35:47Z</time>
      </trkpt>
      <trkpt lat="44.75" lon="0.40004">
        <ele>122.9</ele>
        <time>2022-07-14T07:35:49Z</time>
      </trkpt>
      <trkpt lat="44.75005" lon="0.40012">
        <ele>123.1</ele>
        <time>2022-07-14T07:35:51Z</time>
      </trkpt>
      <trkpt lat="44.7501" lon="0.40019">
        <ele>123.4</ele>
        <time>2022-07-14T07:35:53Z</time>
      </trkpt>
      <trkpt lat="44.75015" lon="0.40027">
        <ele>123.6</ele>
        <time>2022-07-14T07:35:55Z</time>
      </trkpt>
      <trkpt lat="44.75018" lon="0.40032">
        <ele>123.8</ele>
        <time>2022-07-14T07:35:56Z</time>
      </trkpt>
      <trkpt lat="44.75021" lon="0.40036">
        <ele>123.9</ele>
        <time>2022-07-14T07:35:57Z</time>
      </trkpt>
      <trkpt lat="44.75026" lon="0.40043">
        <ele>124.3</ele>
        <time>2022-07-14T07:35:59Z</time>
      </trkpt>
      <trkpt lat="44.75031" lon="0.40051">
        <ele>124.6</ele>
        <time>2022-07-14T07:36:01Z</time>
      </trkpt>
      <trkpt lat="44.75036" lon="0.40059">
        <ele>124.9</ele>
        <time>2022-07-14T07:36:03Z</time>
      </trkpt>
      <trkpt lat="44.7504" lon="0.40067">
        <ele>125.2</ele>
        <time>2022-07-14T07:36:05Z</time>
      </trkpt>
      <trkpt lat="44.75045" lon="0.40075">
        <ele>125.4</ele>
        <time>2022-07-14T07:36:07Z</time>
      </trkpt>
      <trkpt lat="44.7505" lon="0.40082">
        <ele>125.6</ele>
        <time>2022-07-14T07:36:09Z</time>
      </trkpt>
      <trkpt lat="44.75052" lon="0.40086">
        <ele>125.7</ele>
        <time>2022-07-14T07:36:10Z</time>
      </trkpt>
      <trkpt lat="44.75055" lon="0.40089">
        <ele>125.8</ele>
        <time>2022-07-14T07:36:11Z</time>
      </trkpt>
      <trkpt lat="44.7506" lon="0.40097">
        <ele>125.9</ele>
        <time>2022-07-14T07:36:13Z</time>
      </trkpt>
      <trkpt lat="44.75065" lon="0.40105">
        <ele>126.1</ele>
        <time>2022-07-14T07:36:15Z</time>
      </trkpt>
      <trkpt lat="44.7507" lon="0.40113">
        <ele>126.3</ele>
        <time>2022-07-14T07:36:17Z</time>
      </trkpt>
      <trkpt lat="44.75075" lon="0.40121">
        <ele>126.3</ele>
        <time>2022-07-14T07:36:19Z</time>
      </trkpt>
      <trkpt lat="44.7508" lon="0.40129">
        <ele>126.3</ele>
        <time>2022-07-14T07:36:21Z</time>
      </trkpt>
      <trkpt lat="44.75085" lon="0.40137">
        <ele>126.2</ele>
        <time>2022-07-14T07:36:23Z</time>
      </trkpt>
      <trkpt lat="44.7509" lon="0.40143">
        <ele>126.2</ele>
        <time>2022-07-14T07:36:25Z</time>
      </trkpt>
      <trkpt lat="44.75092" lon="0.40147">
        <ele>126.2</ele>
        <time>2022-07-14T07:36:26Z</time>
      </trkpt>
      <trkpt lat="44.75095" lon="0.40151">
        <ele>126.2</ele>
        <time>2022-07-14T07:36:27Z</time>
      </trkpt>
      <trkpt lat="44.75102" lon="0.4016">
        <ele>126.1</ele>
        <time>2022-07-14T07:36:29Z</time>
      </trkpt>
      <trkpt lat="44.75109" lon="0.4017">
        <ele>125.7</ele>
        <time>2022-07-14T07:36:31Z</time>
      </trkpt>
      <trkpt lat="44.75113" lon="0.40176">
        <ele>125.3</ele>
        <time>2022-07-14T07:36:32Z</time>
      </trkpt>
      <trkpt lat="44.75118" lon="0.40182">
        <ele>124.9</ele>
        <time>2022-07-14T07:36:33Z</time>
      </trkpt>
      <trkpt lat="44.75127" lon="0.40194">
        <ele>123.9</ele>
        <time>2022-07-14T07:36:35Z</time>
      </trkpt>
      <trkpt lat="44.75139" lon="0.40206">
        <ele>122.7</ele>
        <time>2022-07-14T07:36:37Z</time>
      </trkpt>
      <trkpt lat="44.75152" lon="0.40219">
        <ele>120.8</ele>
        <time>2022-07-14T07:36:39Z</time>
      </trkpt>
      <trkpt lat="44.7516" lon="0.40226">
        <ele>119.6</ele>
        <time>2022-07-14T07:36:40Z</time>
      </trkpt>
      <trkpt lat="44.75168" lon="0.40233">
        <ele>118.6</ele>
        <time>2022-07-14T07:36:41Z</time>
      </trkpt>
      <trkpt lat="44.75184" lon="0.40248">
        <ele>117.3</ele>
        <time>2022-07-14T07:36:43Z</time>
      </trkpt>
      <trkpt lat="44.752" lon="0.40263">
        <ele>116.7</ele>
        <time>2022-07-14T07:36:45Z</time>
      </trkpt>
      <trkpt lat="44.75216" lon="0.40277">
        <ele>116.3</ele>
        <time>2022-07-14T07:36:47Z</time>
      </trkpt>
      <trkpt lat="44.75223" lon="0.40284">
        <ele>116</ele>
        <time>2022-07-14T07:36:48Z</time>
      </trkpt>
      <trkpt lat="44.75231" lon="0.40291">
        <ele>115.8</ele>
        <time>2022-07-14T07:36:49Z</time>
      </trkpt>
      <trkpt lat="44.75245" lon="0.40304">
        <ele>115.6</ele>
        <time>2022-07-14T07:36:51Z</time>
      </trkpt>
      <trkpt lat="44.75258" lon="0.40316">
        <ele>115.4</ele>
        <time>2022-07-14T07:36:53Z</time>
      </trkpt>
      <trkpt lat="44.75264" lon="0.40322">
        <ele>115.3</ele>
        <time>2022-07-14T07:36:54Z</time>
      </trkpt>
      <trkpt lat="44.75271" lon="0.40328">
        <ele>115.2</ele>
        <time>2022-07-14T07:36:55Z</time>
      </trkpt>
      <trkpt lat="44.75283" lon="0.4034">
        <ele>115.2</ele>
        <time>2022-07-14T07:36:57Z</time>
      </trkpt>
      <trkpt lat="44.75294" lon="0.40351">
        <ele>115.2</ele>
        <time>2022-07-14T07:36:59Z</time>
      </trkpt>
      <trkpt lat="44.75305" lon="0.40361">
        <ele>115.2</ele>
        <time>2022-07-14T07:37:01Z</time>
      </trkpt>
      <trkpt lat="44.75316" lon="0.40371">
        <ele>115.1</ele>
        <time>2022-07-14T07:37:03Z</time>
      </trkpt>
      <trkpt lat="44.75327" lon="0.40381">
        <ele>115.1</ele>
        <time>2022-07-14T07:37:05Z</time>
      </trkpt>
      <trkpt lat="44.75337" lon="0.4039">
        <ele>114.9</ele>
        <time>2022-07-14T07:37:07Z</time>
      </trkpt>
      <trkpt lat="44.75347" lon="0.40399">
        <ele>114.7</ele>
        <time>2022-07-14T07:37:09Z</time>
      </trkpt>
      <trkpt lat="44.75358" lon="0.40408">
        <ele>114.5</ele>
        <time>2022-07-14T07:37:11Z</time>
      </trkpt>
      <trkpt lat="44.75369" lon="0.40418">
        <ele>114.2</ele>
        <time>2022-07-14T07:37:13Z</time>
      </trkpt>
      <trkpt lat="44.7538" lon="0.40427">
        <ele>114</ele>
        <time>2022-07-14T07:37:15Z</time>
      </trkpt>
      <trkpt lat="44.75391" lon="0.40437">
        <ele>113.8</ele>
        <time>2022-07-14T07:37:17Z</time>
      </trkpt>
      <trkpt lat="44.75402" lon="0.40447">
        <ele>113.7</ele>
        <time>2022-07-14T07:37:19Z</time>
      </trkpt>
      <trkpt lat="44.75414" lon="0.40456">
        <ele>113.7</ele>
        <time>2022-07-14T07:37:21Z</time>
      </trkpt>
      <trkpt lat="44.75425" lon="0.40465">
        <ele>113.7</ele>
        <time>2022-07-14T07:37:23Z</time>
      </trkpt>
      <trkpt lat="44.75435" lon="0.40474">
        <ele>113.7</ele>
        <time>2022-07-14T07:37:25Z</time>
      </trkpt>
      <trkpt lat="44.75441" lon="0.40479">
        <ele>113.7</ele>
        <time>2022-07-14T07:37:26Z</time>
      </trkpt>
      <trkpt lat="44.75446" lon="0.40483">
        <ele>113.7</ele>
        <time>2022-07-14T07:37:27Z</time>
      </trkpt>
      <trkpt lat="44.75457" lon="0.40492">
        <ele>113.7</ele>
        <time>2022-07-14T07:37:29Z</time>
      </trkpt>
      <trkpt lat="44.75467" lon="0.40501">
        <ele>113.7</ele>
        <time>2022-07-14T07:37:31Z</time>
      </trkpt>
      <trkpt lat="44.75478" lon="0.4051">
        <ele>113.6</ele>
        <time>2022-07-14T07:37:33Z</time>
      </trkpt>
      <trkpt lat="44.75489" lon="0.40519">
        <ele>113.4</ele>
        <time>2022-07-14T07:37:35Z</time>
      </trkpt>
      <trkpt lat="44.755" lon="0.40527">
        <ele>113.2</ele>
        <time>2022-07-14T07:37:37Z</time>
      </trkpt>
      <trkpt lat="44.75513" lon="0.40534">
        <ele>113.1</ele>
        <time>2022-07-14T07:37:39Z</time>
      </trkpt>
      <trkpt lat="44.75519" lon="0.40538">
        <ele>113.1</ele>
        <time>2022-07-14T07:37:40Z</time>
      </trkpt>
      <trkpt lat="44.75525" lon="0.40541">
        <ele>113.1</ele>
        <time>2022-07-14T07:37:41Z</time>
      </trkpt>
      <trkpt lat="44.75537" lon="0.40548">
        <ele>113</ele>
        <time>2022-07-14T07:37:43Z</time>
      </trkpt>
      <trkpt lat="44.7555" lon="0.40555">
        <ele>112.7</ele>
        <time>2022-07-14T07:37:45Z</time>
      </trkpt>
      <trkpt lat="44.75556" lon="0.40558">
        <ele>112.6</ele>
        <time>2022-07-14T07:37:46Z</time>
      </trkpt>
      <trkpt lat="44.75562" lon="0.4056">
        <ele>112.4</ele>
        <time>2022-07-14T07:37:47Z</time>
      </trkpt>
      <trkpt lat="44.75568" lon="0.40567">
        <ele>112.2</ele>
        <time>2022-07-14T07:37:49Z</time>
      </trkpt>
      <trkpt lat="44.75572" lon="0.40577">
        <ele>112.1</ele>
        <time>2022-07-14T07:37:51Z</time>
      </trkpt>
      <trkpt lat="44.75575" lon="0.40583">
        <ele>112.1</ele>
        <time>2022-07-14T07:37:52Z</time>
      </trkpt>
      <trkpt lat="44.75579" lon="0.40588">
        <ele>112</ele>
        <time>2022-07-14T07:37:53Z</time>
      </trkpt>
      <trkpt lat="44.75586" lon="0.40599">
        <ele>111.9</ele>
        <time>2022-07-14T07:37:55Z</time>
      </trkpt>
      <trkpt lat="44.75594" lon="0.4061">
        <ele>111.8</ele>
        <time>2022-07-14T07:37:57Z</time>
      </trkpt>
      <trkpt lat="44.75601" lon="0.4062">
        <ele>111.7</ele>
        <time>2022-07-14T07:37:59Z</time>
      </trkpt>
      <trkpt lat="44.75604" lon="0.40625">
        <ele>111.6</ele>
        <time>2022-07-14T07:38:00Z</time>
      </trkpt>
      <trkpt lat="44.75608" lon="0.4063">
        <ele>111.6</ele>
        <time>2022-07-14T07:38:01Z</time>
      </trkpt>
      <trkpt lat="44.75615" lon="0.4064">
        <ele>111.4</ele>
        <time>2022-07-14T07:38:03Z</time>
      </trkpt>
      <trkpt lat="44.75618" lon="0.40646">
        <ele>111.4</ele>
        <time>2022-07-14T07:38:04Z</time>
      </trkpt>
      <trkpt lat="44.75622" lon="0.40651">
        <ele>111.3</ele>
        <time>2022-07-14T07:38:05Z</time>
      </trkpt>
      <trkpt lat="44.75629" lon="0.40662">
        <ele>111.1</ele>
        <time>2022-07-14T07:38:07Z</time>
      </trkpt>
      <trkpt lat="44.75636" lon="0.40672">
        <ele>111</ele>
        <time>2022-07-14T07:38:09Z</time>
      </trkpt>
      <trkpt lat="44.75653" lon="0.40666">
        <ele>110.7</ele>
        <time>2022-07-14T07:38:11Z</time>
      </trkpt>
      <trkpt lat="44.75662" lon="0.40657">
        <ele>110.5</ele>
        <time>2022-07-14T07:38:13Z</time>
      </trkpt>
      <trkpt lat="44.75672" lon="0.40645">
        <ele>110.1</ele>
        <time>2022-07-14T07:38:15Z</time>
      </trkpt>
      <trkpt lat="44.75683" lon="0.40633">
        <ele>109.4</ele>
        <time>2022-07-14T07:38:17Z</time>
      </trkpt>
      <trkpt lat="44.75687" lon="0.40626">
        <ele>109.1</ele>
        <time>2022-07-14T07:38:18Z</time>
      </trkpt>
      <trkpt lat="44.75689" lon="0.40617">
        <ele>108.8</ele>
        <time>2022-07-14T07:38:19Z</time>
      </trkpt>
      <trkpt lat="44.75688" lon="0.40608">
        <ele>108.6</ele>
        <time>2022-07-14T07:38:20Z</time>
      </trkpt>
      <trkpt lat="44.75686" lon="0.40599">
        <ele>108.4</ele>
        <time>2022-07-14T07:38:21Z</time>
      </trkpt>
      <trkpt lat="44.75683" lon="0.4058">
        <ele>108.3</ele>
        <time>2022-07-14T07:38:23Z</time>
      </trkpt>
      <trkpt lat="44.7568" lon="0.40561">
        <ele>108.2</ele>
        <time>2022-07-14T07:38:25Z</time>
      </trkpt>
      <trkpt lat="44.75679" lon="0.40552">
        <ele>108.2</ele>
        <time>2022-07-14T07:38:26Z</time>
      </trkpt>
      <trkpt lat="44.75678" lon="0.40542">
        <ele>108.2</ele>
        <time>2022-07-14T07:38:27Z</time>
      </trkpt>
      <trkpt lat="44.75676" lon="0.40533">
        <ele>108.3</ele>
        <time>2022-07-14T07:38:28Z</time>
      </trkpt>
      <trkpt lat="44.75675" lon="0.40523">
        <ele>108.4</ele>
        <time>2022-07-14T07:38:29Z</time>
      </trkpt>
      <trkpt lat="44.75673" lon="0.40515">
        <ele>108.5</ele>
        <time>2022-07-14T07:38:30Z</time>
      </trkpt>
      <trkpt lat="44.75672" lon="0.40507">
        <ele>108.7</ele>
        <time>2022-07-14T07:38:31Z</time>
      </trkpt>
      <trkpt lat="44.7567" lon="0.40491">
        <ele>108.9</ele>
        <time>2022-07-14T07:38:33Z</time>
      </trkpt>
      <trkpt lat="44.75669" lon="0.40483">
        <ele>109.1</ele>
        <time>2022-07-14T07:38:34Z</time>
      </trkpt>
      <trkpt lat="44.75668" lon="0.40475">
        <ele>109.2</ele>
        <time>2022-07-14T07:38:35Z</time>
      </trkpt>
      <trkpt lat="44.75667" lon="0.40467">
        <ele>109.3</ele>
        <time>2022-07-14T07:38:36Z</time>
      </trkpt>
      <trkpt lat="44.75667" lon="0.40458">
        <ele>109.5</ele>
        <time>2022-07-14T07:38:37Z</time>
      </trkpt>
      <trkpt lat="44.75667" lon="0.4045">
        <ele>109.6</ele>
        <time>2022-07-14T07:38:38Z</time>
      </trkpt>
      <trkpt lat="44.75667" lon="0.40442">
        <ele>109.6</ele>
        <time>2022-07-14T07:38:39Z</time>
      </trkpt>
      <trkpt lat="44.75668" lon="0.40433">
        <ele>109.6</ele>
        <time>2022-07-14T07:38:40Z</time>
      </trkpt>
      <trkpt lat="44.75669" lon="0.40425">
        <ele>109.6</ele>
        <time>2022-07-14T07:38:41Z</time>
      </trkpt>
      <trkpt lat="44.7567" lon="0.40417">
        <ele>109.6</ele>
        <time>2022-07-14T07:38:42Z</time>
      </trkpt>
      <trkpt lat="44.75671" lon="0.40408">
        <ele>109.5</ele>
        <time>2022-07-14T07:38:43Z</time>
      </trkpt>
      <trkpt lat="44.75674" lon="0.40398">
        <ele>109.3</ele>
        <time>2022-07-14T07:38:44Z</time>
      </trkpt>
      <trkpt lat="44.75678" lon="0.4039">
        <ele>109</ele>
        <time>2022-07-14T07:38:45Z</time>
      </trkpt>
      <trkpt lat="44.7568" lon="0.4038">
        <ele>108.5</ele>
        <time>2022-07-14T07:38:46Z</time>
      </trkpt>
      <trkpt lat="44.75682" lon="0.40369">
        <ele>107.8</ele>
        <time>2022-07-14T07:38:47Z</time>
      </trkpt>
      <trkpt lat="44.75684" lon="0.40358">
        <ele>107.2</ele>
        <time>2022-07-14T07:38:48Z</time>
      </trkpt>
      <trkpt lat="44.75683" lon="0.40348">
        <ele>106.7</ele>
        <time>2022-07-14T07:38:49Z</time>
      </trkpt>
      <trkpt lat="44.7568" lon="0.40334">
        <ele>106</ele>
        <time>2022-07-14T07:38:51Z</time>
      </trkpt>
      <trkpt lat="44.75686" lon="0.40323">
        <ele>104.7</ele>
        <time>2022-07-14T07:38:53Z</time>
      </trkpt>
      <trkpt lat="44.75698" lon="0.40315">
        <ele>103.7</ele>
        <time>2022-07-14T07:38:55Z</time>
      </trkpt>
      <trkpt lat="44.75711" lon="0.40305">
        <ele>102.6</ele>
        <time>2022-07-14T07:38:57Z</time>
      </trkpt>
      <trkpt lat="44.75718" lon="0.40299">
        <ele>101.9</ele>
        <time>2022-07-14T07:38:58Z</time>
      </trkpt>
      <trkpt lat="44.75725" lon="0.40293">
        <ele>101.2</ele>
        <time>2022-07-14T07:38:59Z</time>
      </trkpt>
      <trkpt lat="44.75738" lon="0.40278">
        <ele>99.5</ele>
        <time>2022-07-14T07:39:01Z</time>
      </trkpt>
      <trkpt lat="44.75751" lon="0.40259">
        <ele>98.2</ele>
        <time>2022-07-14T07:39:03Z</time>
      </trkpt>
      <trkpt lat="44.75765" lon="0.40242">
        <ele>96.7</ele>
        <time>2022-07-14T07:39:05Z</time>
      </trkpt>
      <trkpt lat="44.75782" lon="0.40231">
        <ele>95.4</ele>
        <time>2022-07-14T07:39:07Z</time>
      </trkpt>
      <trkpt lat="44.75791" lon="0.40226">
        <ele>95</ele>
        <time>2022-07-14T07:39:08Z</time>
      </trkpt>
      <trkpt lat="44.758" lon="0.40223">
        <ele>94.9</ele>
        <time>2022-07-14T07:39:09Z</time>
      </trkpt>
      <trkpt lat="44.75815" lon="0.40219">
        <ele>95</ele>
        <time>2022-07-14T07:39:11Z</time>
      </trkpt>
      <trkpt lat="44.75828" lon="0.40215">
        <ele>95.6</ele>
        <time>2022-07-14T07:39:13Z</time>
      </trkpt>
      <trkpt lat="44.75839" lon="0.40212">
        <ele>96.3</ele>
        <time>2022-07-14T07:39:15Z</time>
      </trkpt>
      <trkpt lat="44.75848" lon="0.40213">
        <ele>97.2</ele>
        <time>2022-07-14T07:39:17Z</time>
      </trkpt>
      <trkpt lat="44.75855" lon="0.40215">
        <ele>97.9</ele>
        <time>2022-07-14T07:39:19Z</time>
      </trkpt>
      <trkpt lat="44.75861" lon="0.40216">
        <ele>98.4</ele>
        <time>2022-07-14T07:39:21Z</time>
      </trkpt>
      <trkpt lat="44.75867" lon="0.40218">
        <ele>99.1</ele>
        <time>2022-07-14T07:39:23Z</time>
      </trkpt>
      <trkpt lat="44.7587" lon="0.40218">
        <ele>99.5</ele>
        <time>2022-07-14T07:39:24Z</time>
      </trkpt>
      <trkpt lat="44.75872" lon="0.40218">
        <ele>99.7</ele>
        <time>2022-07-14T07:39:25Z</time>
      </trkpt>
      <trkpt lat="44.75878" lon="0.40218">
        <ele>100.4</ele>
        <time>2022-07-14T07:39:27Z</time>
      </trkpt>
      <trkpt lat="44.75884" lon="0.40218">
        <ele>101</ele>
        <time>2022-07-14T07:39:29Z</time>
      </trkpt>
      <trkpt lat="44.7589" lon="0.40218">
        <ele>101.7</ele>
        <time>2022-07-14T07:39:31Z</time>
      </trkpt>
      <trkpt lat="44.75896" lon="0.40218">
        <ele>102.3</ele>
        <time>2022-07-14T07:39:33Z</time>
      </trkpt>
      <trkpt lat="44.75902" lon="0.40218">
        <ele>102.9</ele>
        <time>2022-07-14T07:39:35Z</time>
      </trkpt>
      <trkpt lat="44.75908" lon="0.40217">
        <ele>103.4</ele>
        <time>2022-07-14T07:39:37Z</time>
      </trkpt>
      <trkpt lat="44.75914" lon="0.40216">
        <ele>104</ele>
        <time>2022-07-14T07:39:39Z</time>
      </trkpt>
      <trkpt lat="44.75919" lon="0.40215">
        <ele>104.6</ele>
        <time>2022-07-14T07:39:41Z</time>
      </trkpt>
      <trkpt lat="44.75923" lon="0.40214">
        <ele>105</ele>
        <time>2022-07-14T07:39:43Z</time>
      </trkpt>
      <trkpt lat="44.75926" lon="0.40213">
        <ele>105.5</ele>
        <time>2022-07-14T07:39:45Z</time>
      </trkpt>
      <trkpt lat="44.7593" lon="0.40211">
        <ele>106</ele>
        <time>2022-07-14T07:39:47Z</time>
      </trkpt>
      <trkpt lat="44.75934" lon="0.4021">
        <ele>106.5</ele>
        <time>2022-07-14T07:39:49Z</time>
      </trkpt>
      <trkpt lat="44.75938" lon="0.40209">
        <ele>106.7</ele>
        <time>2022-07-14T07:39:51Z</time>
      </trkpt>
      <trkpt lat="44.75945" lon="0.40214">
        <ele>106.4</ele>
        <time>2022-07-14T07:39:52Z</time>
      </trkpt>
      <trkpt lat="44.75945" lon="0.40217">
        <ele>106.3</ele>
        <time>2022-07-14T07:39:53Z</time>
      </trkpt>
      <trkpt lat="44.75945" lon="0.4022">
        <ele>106.1</ele>
        <time>2022-07-14T07:39:54Z</time>
      </trkpt>
      <trkpt lat="44.75944" lon="0.40225">
        <ele>105.8</ele>
        <time>2022-07-14T07:39:55Z</time>
      </trkpt>
      <trkpt lat="44.75944" lon="0.4023">
        <ele>105.6</ele>
        <time>2022-07-14T07:39:56Z</time>
      </trkpt>
      <trkpt lat="44.75943" lon="0.40235">
        <ele>105.2</ele>
        <time>2022-07-14T07:39:57Z</time>
      </trkpt>
      <trkpt lat="44.75942" lon="0.40241">
        <ele>104.9</ele>
        <time>2022-07-14T07:39:58Z</time>
      </trkpt>
      <trkpt lat="44.75942" lon="0.40248">
        <ele>104.6</ele>
        <time>2022-07-14T07:39:59Z</time>
      </trkpt>
      <trkpt lat="44.7594" lon="0.4026">
        <ele>103.9</ele>
        <time>2022-07-14T07:40:01Z</time>
      </trkpt>
      <trkpt lat="44.75939" lon="0.40271">
        <ele>103.3</ele>
        <time>2022-07-14T07:40:03Z</time>
      </trkpt>
      <trkpt lat="44.75938" lon="0.40281">
        <ele>102.4</ele>
        <time>2022-07-14T07:40:05Z</time>
      </trkpt>
      <trkpt lat="44.75942" lon="0.40284">
        <ele>103</ele>
        <time>2022-07-14T07:40:06Z</time>
      </trkpt>
      <trkpt lat="44.75947" lon="0.40287">
        <ele>103.6</ele>
        <time>2022-07-14T07:40:07Z</time>
      </trkpt>
      <trkpt lat="44.75957" lon="0.40288">
        <ele>105</ele>
        <time>2022-07-14T07:40:09Z</time>
      </trkpt>
      <trkpt lat="44.75967" lon="0.40289">
        <ele>106.4</ele>
        <time>2022-07-14T07:40:11Z</time>
      </trkpt>
      <trkpt lat="44.75972" lon="0.40287">
        <ele>107.1</ele>
        <time>2022-07-14T07:40:12Z</time>
      </trkpt>
      <trkpt lat="44.75972" lon="0.40278">
        <ele>107.3</ele>
        <time>2022-07-14T07:40:13Z</time>
      </trkpt>
      <trkpt lat="44.75971" lon="0.40268">
        <ele>107.7</ele>
        <time>2022-07-14T07:40:15Z</time>
      </trkpt>
      <trkpt lat="44.75971" lon="0.40258">
        <ele>108</ele>
        <time>2022-07-14T07:40:17Z</time>
      </trkpt>
      <trkpt lat="44.7597" lon="0.40249">
        <ele>108.3</ele>
        <time>2022-07-14T07:40:19Z</time>
      </trkpt>
      <trkpt lat="44.75969" lon="0.4024">
        <ele>108.7</ele>
        <time>2022-07-14T07:40:21Z</time>
      </trkpt>
      <trkpt lat="44.75966" lon="0.40233">
        <ele>109.1</ele>
        <time>2022-07-14T07:40:23Z</time>
      </trkpt>
      <trkpt lat="44.75963" lon="0.40226">
        <ele>109.6</ele>
        <time>2022-07-14T07:40:25Z</time>
      </trkpt>
      <trkpt lat="44.75961" lon="0.40219">
        <ele>110.1</ele>
        <time>2022-07-14T07:40:27Z</time>
      </trkpt>
      <trkpt lat="44.75959" lon="0.40212">
        <ele>110.4</ele>
        <time>2022-07-14T07:40:29Z</time>
      </trkpt>
      <trkpt lat="44.75957" lon="0.40204">
        <ele>110.7</ele>
        <time>2022-07-14T07:40:31Z</time>
      </trkpt>
      <trkpt lat="44.75957" lon="0.40201">
        <ele>110.8</ele>
        <time>2022-07-14T07:40:32Z</time>
      </trkpt>
      <trkpt lat="44.75958" lon="0.40197">
        <ele>110.9</ele>
        <time>2022-07-14T07:40:33Z</time>
      </trkpt>
      <trkpt lat="44.75962" lon="0.40191">
        <ele>111.1</ele>
        <time>2022-07-14T07:40:35Z</time>
      </trkpt>
      <trkpt lat="44.75969" lon="0.40194">
        <ele>111.1</ele>
        <time>2022-07-14T07:40:37Z</time>
      </trkpt>
      <trkpt lat="44.75974" lon="0.40196">
        <ele>111.1</ele>
        <time>2022-07-14T07:40:39Z</time>
      </trkpt>
      <trkpt lat="44.75979" lon="0.40198">
        <ele>111.1</ele>
        <time>2022-07-14T07:40:41Z</time>
      </trkpt>
      <trkpt lat="44.75985" lon="0.40201">
        <ele>111.1</ele>
        <time>2022-07-14T07:40:43Z</time>
      </trkpt>
      <trkpt lat="44.75991" lon="0.40203">
        <ele>111</ele>
        <time>2022-07-14T07:40:45Z</time>
      </trkpt>
      <trkpt lat="44.75996" lon="0.40207">
        <ele>110.9</ele>
        <time>2022-07-14T07:40:47Z</time>
      </trkpt>
      <trkpt lat="44.76" lon="0.4021">
        <ele>110.8</ele>
        <time>2022-07-14T07:40:49Z</time>
      </trkpt>
      <trkpt lat="44.76005" lon="0.40214">
        <ele>110.7</ele>
        <time>2022-07-14T07:40:50Z</time>
      </trkpt>
      <trkpt lat="44.7601" lon="0.40218">
        <ele>110.8</ele>
        <time>2022-07-14T07:40:51Z</time>
      </trkpt>
      <trkpt lat="44.76015" lon="0.40222">
        <ele>110.4</ele>
        <time>2022-07-14T07:40:53Z</time>
      </trkpt>
      <trkpt lat="44.7602" lon="0.40226">
        <ele>110.5</ele>
        <time>2022-07-14T07:40:55Z</time>
      </trkpt>
      <trkpt lat="44.76024" lon="0.4023">
        <ele>110.7</ele>
        <time>2022-07-14T07:40:57Z</time>
      </trkpt>
      <trkpt lat="44.7603" lon="0.40235">
        <ele>110.8</ele>
        <time>2022-07-14T07:40:59Z</time>
      </trkpt>
      <trkpt lat="44.76036" lon="0.4024">
        <ele>110.6</ele>
        <time>2022-07-14T07:41:01Z</time>
      </trkpt>
      <trkpt lat="44.76041" lon="0.40246">
        <ele>110.9</ele>
        <time>2022-07-14T07:41:03Z</time>
      </trkpt>
      <trkpt lat="44.76046" lon="0.40252">
        <ele>111</ele>
        <time>2022-07-14T07:41:05Z</time>
      </trkpt>
      <trkpt lat="44.76052" lon="0.40258">
        <ele>111.2</ele>
        <time>2022-07-14T07:41:07Z</time>
      </trkpt>
      <trkpt lat="44.7606" lon="0.40268">
        <ele>111.3</ele>
        <time>2022-07-14T07:41:08Z</time>
      </trkpt>
      <trkpt lat="44.7606" lon="0.40268">
        <ele>111.3</ele>
        <time>2022-07-14T07:41:09Z</time>
      </trkpt>
      <trkpt lat="44.76064" lon="0.40272">
        <ele>111.4</ele>
        <time>2022-07-14T07:41:11Z</time>
      </trkpt>
      <trkpt lat="44.7607" lon="0.40278">
        <ele>111.5</ele>
        <time>2022-07-14T07:41:13Z</time>
      </trkpt>
      <trkpt lat="44.76076" lon="0.40284">
        <ele>111.6</ele>
        <time>2022-07-14T07:41:15Z</time>
      </trkpt>
      <trkpt lat="44.76082" lon="0.4029">
        <ele>111.7</ele>
        <time>2022-07-14T07:41:17Z</time>
      </trkpt>
      <trkpt lat="44.76089" lon="0.40296">
        <ele>111.8</ele>
        <time>2022-07-14T07:41:19Z</time>
      </trkpt>
      <trkpt lat="44.76096" lon="0.40301">
        <ele>111.9</ele>
        <time>2022-07-14T07:41:21Z</time>
      </trkpt>
      <trkpt lat="44.76103" lon="0.40304">
        <ele>112</ele>
        <time>2022-07-14T07:41:23Z</time>
      </trkpt>
      <trkpt lat="44.7611" lon="0.40305">
        <ele>112.2</ele>
        <time>2022-07-14T07:41:25Z</time>
      </trkpt>
      <trkpt lat="44.76117" lon="0.40307">
        <ele>112.3</ele>
        <time>2022-07-14T07:41:27Z</time>
      </trkpt>
      <trkpt lat="44.76124" lon="0.40308">
        <ele>112.5</ele>
        <time>2022-07-14T07:41:29Z</time>
      </trkpt>
      <trkpt lat="44.76128" lon="0.40309">
        <ele>112.6</ele>
        <time>2022-07-14T07:41:30Z</time>
      </trkpt>
      <trkpt lat="44.76132" lon="0.4031">
        <ele>112.7</ele>
        <time>2022-07-14T07:41:31Z</time>
      </trkpt>
      <trkpt lat="44.76138" lon="0.40313">
        <ele>112.8</ele>
        <time>2022-07-14T07:41:33Z</time>
      </trkpt>
      <trkpt lat="44.76145" lon="0.40317">
        <ele>113</ele>
        <time>2022-07-14T07:41:35Z</time>
      </trkpt>
      <trkpt lat="44.76152" lon="0.40321">
        <ele>113.1</ele>
        <time>2022-07-14T07:41:37Z</time>
      </trkpt>
      <trkpt lat="44.76157" lon="0.40327">
        <ele>113.2</ele>
        <time>2022-07-14T07:41:39Z</time>
      </trkpt>
      <trkpt lat="44.76159" lon="0.40335">
        <ele>113.2</ele>
        <time>2022-07-14T07:41:41Z</time>
      </trkpt>
      <trkpt lat="44.7616" lon="0.4034">
        <ele>113.2</ele>
        <time>2022-07-14T07:41:42Z</time>
      </trkpt>
      <trkpt lat="44.7616" lon="0.40346">
        <ele>113.1</ele>
        <time>2022-07-14T07:41:43Z</time>
      </trkpt>
      <trkpt lat="44.76163" lon="0.40358">
        <ele>113.1</ele>
        <time>2022-07-14T07:41:45Z</time>
      </trkpt>
      <trkpt lat="44.76166" lon="0.40369">
        <ele>113</ele>
        <time>2022-07-14T07:41:47Z</time>
      </trkpt>
      <trkpt lat="44.76167" lon="0.40374">
        <ele>112.9</ele>
        <time>2022-07-14T07:41:48Z</time>
      </trkpt>
      <trkpt lat="44.76168" lon="0.4038">
        <ele>112.9</ele>
        <time>2022-07-14T07:41:49Z</time>
      </trkpt>
      <trkpt lat="44.76171" lon="0.40391">
        <ele>112.8</ele>
        <time>2022-07-14T07:41:51Z</time>
      </trkpt>
      <trkpt lat="44.76174" lon="0.40403">
        <ele>112.7</ele>
        <time>2022-07-14T07:41:53Z</time>
      </trkpt>
      <trkpt lat="44.76177" lon="0.40416">
        <ele>112.6</ele>
        <time>2022-07-14T07:41:55Z</time>
      </trkpt>
      <trkpt lat="44.76178" lon="0.40422">
        <ele>112.5</ele>
        <time>2022-07-14T07:41:56Z</time>
      </trkpt>
      <trkpt lat="44.7618" lon="0.40428">
        <ele>112.5</ele>
        <time>2022-07-14T07:41:57Z</time>
      </trkpt>
      <trkpt lat="44.76183" lon="0.40441">
        <ele>112.6</ele>
        <time>2022-07-14T07:41:59Z</time>
      </trkpt>
      <trkpt lat="44.76186" lon="0.40453">
        <ele>112.6</ele>
        <time>2022-07-14T07:42:01Z</time>
      </trkpt>
      <trkpt lat="44.7619" lon="0.40466">
        <ele>112.6</ele>
        <time>2022-07-14T07:42:03Z</time>
      </trkpt>
      <trkpt lat="44.76191" lon="0.40472">
        <ele>112.6</ele>
        <time>2022-07-14T07:42:04Z</time>
      </trkpt>
      <trkpt lat="44.76193" lon="0.40478">
        <ele>112.6</ele>
        <time>2022-07-14T07:42:05Z</time>
      </trkpt>
      <trkpt lat="44.76196" lon="0.4049">
        <ele>112.6</ele>
        <time>2022-07-14T07:42:07Z</time>
      </trkpt>
      <trkpt lat="44.76201" lon="0.40502">
        <ele>112.6</ele>
        <time>2022-07-14T07:42:09Z</time>
      </trkpt>
      <trkpt lat="44.76206" lon="0.40514">
        <ele>112.7</ele>
        <time>2022-07-14T07:42:11Z</time>
      </trkpt>
      <trkpt lat="44.76211" lon="0.40525">
        <ele>112.8</ele>
        <time>2022-07-14T07:42:13Z</time>
      </trkpt>
      <trkpt lat="44.76216" lon="0.40537">
        <ele>112.9</ele>
        <time>2022-07-14T07:42:15Z</time>
      </trkpt>
      <trkpt lat="44.76221" lon="0.40549">
        <ele>112.9</ele>
        <time>2022-07-14T07:42:17Z</time>
      </trkpt>
      <trkpt lat="44.76226" lon="0.40561">
        <ele>113</ele>
        <time>2022-07-14T07:42:19Z</time>
      </trkpt>
      <trkpt lat="44.76229" lon="0.4057">
        <ele>113</ele>
        <time>2022-07-14T07:42:21Z</time>
      </trkpt>
      <trkpt lat="44.76238" lon="0.4058">
        <ele>112.7</ele>
        <time>2022-07-14T07:42:23Z</time>
      </trkpt>
      <trkpt lat="44.76245" lon="0.4059">
        <ele>112.5</ele>
        <time>2022-07-14T07:42:25Z</time>
      </trkpt>
      <trkpt lat="44.76249" lon="0.40593">
        <ele>112.5</ele>
        <time>2022-07-14T07:42:26Z</time>
      </trkpt>
      <trkpt lat="44.76253" lon="0.40597">
        <ele>112.3</ele>
        <time>2022-07-14T07:42:27Z</time>
      </trkpt>
      <trkpt lat="44.76258" lon="0.40601">
        <ele>112.2</ele>
        <time>2022-07-14T07:42:28Z</time>
      </trkpt>
      <trkpt lat="44.76262" lon="0.40605">
        <ele>112.1</ele>
        <time>2022-07-14T07:42:29Z</time>
      </trkpt>
      <trkpt lat="44.76272" lon="0.40613">
        <ele>111.7</ele>
        <time>2022-07-14T07:42:31Z</time>
      </trkpt>
      <trkpt lat="44.76282" lon="0.40622">
        <ele>111.3</ele>
        <time>2022-07-14T07:42:33Z</time>
      </trkpt>
      <trkpt lat="44.76294" lon="0.40632">
        <ele>110.8</ele>
        <time>2022-07-14T07:42:35Z</time>
      </trkpt>
      <trkpt lat="44.76305" lon="0.40642">
        <ele>110.4</ele>
        <time>2022-07-14T07:42:37Z</time>
      </trkpt>
      <trkpt lat="44.76317" lon="0.40651">
        <ele>109.9</ele>
        <time>2022-07-14T07:42:39Z</time>
      </trkpt>
      <trkpt lat="44.76328" lon="0.40661">
        <ele>109.5</ele>
        <time>2022-07-14T07:42:41Z</time>
      </trkpt>
      <trkpt lat="44.76334" lon="0.40666">
        <ele>109.2</ele>
        <time>2022-07-14T07:42:42Z</time>
      </trkpt>
      <trkpt lat="44.7634" lon="0.40671">
        <ele>109</ele>
        <time>2022-07-14T07:42:43Z</time>
      </trkpt>
      <trkpt lat="44.76351" lon="0.4068">
        <ele>108.6</ele>
        <time>2022-07-14T07:42:45Z</time>
      </trkpt>
      <trkpt lat="44.76362" lon="0.40689">
        <ele>108.2</ele>
        <time>2022-07-14T07:42:47Z</time>
      </trkpt>
      <trkpt lat="44.76373" lon="0.40699">
        <ele>107.7</ele>
        <time>2022-07-14T07:42:49Z</time>
      </trkpt>
      <trkpt lat="44.76385" lon="0.40709">
        <ele>107.1</ele>
        <time>2022-07-14T07:42:51Z</time>
      </trkpt>
      <trkpt lat="44.76396" lon="0.4072">
        <ele>106.4</ele>
        <time>2022-07-14T07:42:53Z</time>
      </trkpt>
      <trkpt lat="44.76407" lon="0.40732">
        <ele>105.7</ele>
        <time>2022-07-14T07:42:55Z</time>
      </trkpt>
      <trkpt lat="44.76417" lon="0.40746">
        <ele>104.9</ele>
        <time>2022-07-14T07:42:57Z</time>
      </trkpt>
      <trkpt lat="44.76427" lon="0.40763">
        <ele>104.1</ele>
        <time>2022-07-14T07:42:59Z</time>
      </trkpt>
      <trkpt lat="44.76437" lon="0.4078">
        <ele>103.2</ele>
        <time>2022-07-14T07:43:01Z</time>
      </trkpt>
      <trkpt lat="44.76442" lon="0.40788">
        <ele>102.7</ele>
        <time>2022-07-14T07:43:02Z</time>
      </trkpt>
      <trkpt lat="44.76448" lon="0.40796">
        <ele>102.2</ele>
        <time>2022-07-14T07:43:03Z</time>
      </trkpt>
      <trkpt lat="44.76455" lon="0.40802">
        <ele>101.8</ele>
        <time>2022-07-14T07:43:04Z</time>
      </trkpt>
      <trkpt lat="44.76462" lon="0.40808">
        <ele>101.2</ele>
        <time>2022-07-14T07:43:05Z</time>
      </trkpt>
      <trkpt lat="44.76478" lon="0.40817">
        <ele>100</ele>
        <time>2022-07-14T07:43:07Z</time>
      </trkpt>
      <trkpt lat="44.76494" lon="0.40827">
        <ele>98.5</ele>
        <time>2022-07-14T07:43:09Z</time>
      </trkpt>
      <trkpt lat="44.76511" lon="0.40837">
        <ele>97</ele>
        <time>2022-07-14T07:43:11Z</time>
      </trkpt>
      <trkpt lat="44.7653" lon="0.40848">
        <ele>95.8</ele>
        <time>2022-07-14T07:43:13Z</time>
      </trkpt>
      <trkpt lat="44.76548" lon="0.40859">
        <ele>95.3</ele>
        <time>2022-07-14T07:43:15Z</time>
      </trkpt>
      <trkpt lat="44.76566" lon="0.4087">
        <ele>94.8</ele>
        <time>2022-07-14T07:43:17Z</time>
      </trkpt>
      <trkpt lat="44.76583" lon="0.40878">
        <ele>94.2</ele>
        <time>2022-07-14T07:43:19Z</time>
      </trkpt>
      <trkpt lat="44.766" lon="0.40883">
        <ele>93.5</ele>
        <time>2022-07-14T07:43:21Z</time>
      </trkpt>
      <trkpt lat="44.76617" lon="0.40887">
        <ele>92.8</ele>
        <time>2022-07-14T07:43:23Z</time>
      </trkpt>
      <trkpt lat="44.76634" lon="0.40891">
        <ele>92.2</ele>
        <time>2022-07-14T07:43:25Z</time>
      </trkpt>
      <trkpt lat="44.7665" lon="0.40893">
        <ele>91.7</ele>
        <time>2022-07-14T07:43:27Z</time>
      </trkpt>
      <trkpt lat="44.76666" lon="0.40895">
        <ele>91.2</ele>
        <time>2022-07-14T07:43:29Z</time>
      </trkpt>
      <trkpt lat="44.76682" lon="0.40897">
        <ele>90.5</ele>
        <time>2022-07-14T07:43:31Z</time>
      </trkpt>
      <trkpt lat="44.7669" lon="0.40898">
        <ele>90.2</ele>
        <time>2022-07-14T07:43:32Z</time>
      </trkpt>
      <trkpt lat="44.76699" lon="0.40899">
        <ele>89.9</ele>
        <time>2022-07-14T07:43:33Z</time>
      </trkpt>
      <trkpt lat="44.76707" lon="0.40901">
        <ele>89.6</ele>
        <time>2022-07-14T07:43:34Z</time>
      </trkpt>
      <trkpt lat="44.76715" lon="0.40904">
        <ele>89.3</ele>
        <time>2022-07-14T07:43:35Z</time>
      </trkpt>
      <trkpt lat="44.76729" lon="0.40914">
        <ele>88.7</ele>
        <time>2022-07-14T07:43:37Z</time>
      </trkpt>
      <trkpt lat="44.76742" lon="0.40926">
        <ele>88.1</ele>
        <time>2022-07-14T07:43:39Z</time>
      </trkpt>
      <trkpt lat="44.76754" lon="0.40941">
        <ele>87.4</ele>
        <time>2022-07-14T07:43:41Z</time>
      </trkpt>
      <trkpt lat="44.76766" lon="0.40956">
        <ele>86.7</ele>
        <time>2022-07-14T07:43:43Z</time>
      </trkpt>
      <trkpt lat="44.76777" lon="0.40972">
        <ele>86.1</ele>
        <time>2022-07-14T07:43:45Z</time>
      </trkpt>
      <trkpt lat="44.76789" lon="0.40986">
        <ele>85.3</ele>
        <time>2022-07-14T07:43:47Z</time>
      </trkpt>
      <trkpt lat="44.76795" lon="0.40994">
        <ele>84.9</ele>
        <time>2022-07-14T07:43:48Z</time>
      </trkpt>
      <trkpt lat="44.76801" lon="0.41001">
        <ele>84.4</ele>
        <time>2022-07-14T07:43:49Z</time>
      </trkpt>
      <trkpt lat="44.76813" lon="0.41017">
        <ele>83.4</ele>
        <time>2022-07-14T07:43:51Z</time>
      </trkpt>
      <trkpt lat="44.76824" lon="0.41035">
        <ele>82.3</ele>
        <time>2022-07-14T07:43:53Z</time>
      </trkpt>
      <trkpt lat="44.7683" lon="0.41044">
        <ele>81.6</ele>
        <time>2022-07-14T07:43:54Z</time>
      </trkpt>
      <trkpt lat="44.76838" lon="0.41051">
        <ele>80.8</ele>
        <time>2022-07-14T07:43:55Z</time>
      </trkpt>
      <trkpt lat="44.76855" lon="0.41062">
        <ele>79.2</ele>
        <time>2022-07-14T07:43:57Z</time>
      </trkpt>
      <trkpt lat="44.76863" lon="0.41068">
        <ele>78.4</ele>
        <time>2022-07-14T07:43:58Z</time>
      </trkpt>
      <trkpt lat="44.76871" lon="0.41073">
        <ele>77.6</ele>
        <time>2022-07-14T07:43:59Z</time>
      </trkpt>
      <trkpt lat="44.76887" lon="0.41082">
        <ele>76.1</ele>
        <time>2022-07-14T07:44:01Z</time>
      </trkpt>
      <trkpt lat="44.76895" lon="0.41086">
        <ele>75.4</ele>
        <time>2022-07-14T07:44:02Z</time>
      </trkpt>
      <trkpt lat="44.76904" lon="0.41088">
        <ele>74.7</ele>
        <time>2022-07-14T07:44:03Z</time>
      </trkpt>
      <trkpt lat="44.76922" lon="0.41089">
        <ele>73.2</ele>
        <time>2022-07-14T07:44:05Z</time>
      </trkpt>
      <trkpt lat="44.76941" lon="0.41082">
        <ele>71.6</ele>
        <time>2022-07-14T07:44:07Z</time>
      </trkpt>
      <trkpt lat="44.7696" lon="0.41071">
        <ele>69.8</ele>
        <time>2022-07-14T07:44:09Z</time>
      </trkpt>
      <trkpt lat="44.76968" lon="0.41067">
        <ele>68.8</ele>
        <time>2022-07-14T07:44:10Z</time>
      </trkpt>
      <trkpt lat="44.76979" lon="0.41065">
        <ele>67.6</ele>
        <time>2022-07-14T07:44:11Z</time>
      </trkpt>
      <trkpt lat="44.76988" lon="0.41071">
        <ele>66.4</ele>
        <time>2022-07-14T07:44:12Z</time>
      </trkpt>
      <trkpt lat="44.76995" lon="0.4108">
        <ele>65.2</ele>
        <time>2022-07-14T07:44:13Z</time>
      </trkpt>
      <trkpt lat="44.77002" lon="0.4109">
        <ele>64</ele>
        <time>2022-07-14T07:44:14Z</time>
      </trkpt>
      <trkpt lat="44.7701" lon="0.41101">
        <ele>62.6</ele>
        <time>2022-07-14T07:44:15Z</time>
      </trkpt>
      <trkpt lat="44.77024" lon="0.4112">
        <ele>60.7</ele>
        <time>2022-07-14T07:44:17Z</time>
      </trkpt>
      <trkpt lat="44.77033" lon="0.41134">
        <ele>60</ele>
        <time>2022-07-14T07:44:19Z</time>
      </trkpt>
      <trkpt lat="44.77037" lon="0.41139">
        <ele>59.9</ele>
        <time>2022-07-14T07:44:20Z</time>
      </trkpt>
      <trkpt lat="44.77039" lon="0.41143">
        <ele>59.8</ele>
        <time>2022-07-14T07:44:21Z</time>
      </trkpt>
      <trkpt lat="44.77042" lon="0.41152">
        <ele>59.7</ele>
        <time>2022-07-14T07:44:23Z</time>
      </trkpt>
      <trkpt lat="44.77049" lon="0.41156">
        <ele>59.6</ele>
        <time>2022-07-14T07:44:25Z</time>
      </trkpt>
      <trkpt lat="44.77053" lon="0.41157">
        <ele>59.6</ele>
        <time>2022-07-14T07:44:26Z</time>
      </trkpt>
      <trkpt lat="44.77057" lon="0.41159">
        <ele>59.6</ele>
        <time>2022-07-14T07:44:27Z</time>
      </trkpt>
      <trkpt lat="44.77066" lon="0.41163">
        <ele>59.6</ele>
        <time>2022-07-14T07:44:29Z</time>
      </trkpt>
      <trkpt lat="44.77075" lon="0.41167">
        <ele>59.5</ele>
        <time>2022-07-14T07:44:31Z</time>
      </trkpt>
      <trkpt lat="44.77084" lon="0.41171">
        <ele>59.6</ele>
        <time>2022-07-14T07:44:33Z</time>
      </trkpt>
      <trkpt lat="44.77093" lon="0.41174">
        <ele>59.6</ele>
        <time>2022-07-14T07:44:35Z</time>
      </trkpt>
      <trkpt lat="44.77098" lon="0.41176">
        <ele>59.6</ele>
        <time>2022-07-14T07:44:36Z</time>
      </trkpt>
      <trkpt lat="44.77102" lon="0.41178">
        <ele>59.6</ele>
        <time>2022-07-14T07:44:37Z</time>
      </trkpt>
      <trkpt lat="44.77111" lon="0.41184">
        <ele>59.6</ele>
        <time>2022-07-14T07:44:39Z</time>
      </trkpt>
      <trkpt lat="44.77115" lon="0.41186">
        <ele>59.6</ele>
        <time>2022-07-14T07:44:40Z</time>
      </trkpt>
      <trkpt lat="44.7712" lon="0.41188">
        <ele>59.6</ele>
        <time>2022-07-14T07:44:41Z</time>
      </trkpt>
      <trkpt lat="44.77128" lon="0.41191">
        <ele>59.6</ele>
        <time>2022-07-14T07:44:43Z</time>
      </trkpt>
      <trkpt lat="44.77133" lon="0.41193">
        <ele>59.6</ele>
        <time>2022-07-14T07:44:44Z</time>
      </trkpt>
      <trkpt lat="44.77137" lon="0.41195">
        <ele>59.6</ele>
        <time>2022-07-14T07:44:45Z</time>
      </trkpt>
      <trkpt lat="44.77147" lon="0.412">
        <ele>59.7</ele>
        <time>2022-07-14T07:44:47Z</time>
      </trkpt>
      <trkpt lat="44.77155" lon="0.41205">
        <ele>59.8</ele>
        <time>2022-07-14T07:44:49Z</time>
      </trkpt>
      <trkpt lat="44.77165" lon="0.4121">
        <ele>59.9</ele>
        <time>2022-07-14T07:44:51Z</time>
      </trkpt>
      <trkpt lat="44.77174" lon="0.41214">
        <ele>60</ele>
        <time>2022-07-14T07:44:53Z</time>
      </trkpt>
      <trkpt lat="44.77184" lon="0.41217">
        <ele>60.2</ele>
        <time>2022-07-14T07:44:55Z</time>
      </trkpt>
      <trkpt lat="44.77189" lon="0.41217">
        <ele>60.3</ele>
        <time>2022-07-14T07:44:56Z</time>
      </trkpt>
      <trkpt lat="44.77193" lon="0.41218">
        <ele>60.4</ele>
        <time>2022-07-14T07:44:57Z</time>
      </trkpt>
      <trkpt lat="44.77199" lon="0.41217">
        <ele>60.4</ele>
        <time>2022-07-14T07:44:59Z</time>
      </trkpt>
      <trkpt lat="44.77206" lon="0.41216">
        <ele>60.5</ele>
        <time>2022-07-14T07:45:00Z</time>
      </trkpt>
      <trkpt lat="44.77206" lon="0.41216">
        <ele>60.6</ele>
        <time>2022-07-14T07:45:01Z</time>
      </trkpt>
      <trkpt lat="44.7721" lon="0.41217">
        <ele>61.5</ele>
        <time>2022-07-14T07:45:03Z</time>
      </trkpt>
      <trkpt lat="44.7721" lon="0.41217">
        <ele>61.5</ele>
        <time>2022-07-14T07:45:04Z</time>
      </trkpt>
      <trkpt lat="44.77212" lon="0.41218">
        <ele>62.1</ele>
        <time>2022-07-14T07:45:05Z</time>
      </trkpt>
      <trkpt lat="44.77212" lon="0.41218">
        <ele>62.1</ele>
        <time>2022-07-14T07:45:07Z</time>
      </trkpt>
      <trkpt lat="44.77329" lon="0.41226">
        <ele>89.2</ele>
        <time>2022-07-14T07:48:06Z</time>
      </trkpt>
      <trkpt lat="44.77329" lon="0.41227">
        <ele>89.4</ele>
        <time>2022-07-14T07:48:07Z</time>
      </trkpt>
      <trkpt lat="44.7733" lon="0.41232">
        <ele>89.9</ele>
        <time>2022-07-14T07:48:09Z</time>
      </trkpt>
      <trkpt lat="44.77326" lon="0.41238">
        <ele>90.4</ele>
        <time>2022-07-14T07:48:11Z</time>
      </trkpt>
      <trkpt lat="44.77322" lon="0.41241">
        <ele>90.5</ele>
        <time>2022-07-14T07:48:13Z</time>
      </trkpt>
      <trkpt lat="44.77318" lon="0.41243">
        <ele>90.6</ele>
        <time>2022-07-14T07:48:15Z</time>
      </trkpt>
      <trkpt lat="44.77315" lon="0.41246">
        <ele>90.6</ele>
        <time>2022-07-14T07:48:17Z</time>
      </trkpt>
      <trkpt lat="44.77311" lon="0.41248">
        <ele>90.5</ele>
        <time>2022-07-14T07:48:19Z</time>
      </trkpt>
      <trkpt lat="44.77307" lon="0.4125">
        <ele>90.5</ele>
        <time>2022-07-14T07:48:21Z</time>
      </trkpt>
      <trkpt lat="44.77302" lon="0.41253">
        <ele>90.5</ele>
        <time>2022-07-14T07:48:23Z</time>
      </trkpt>
      <trkpt lat="44.77297" lon="0.41256">
        <ele>90.5</ele>
        <time>2022-07-14T07:48:25Z</time>
      </trkpt>
      <trkpt lat="44.77292" lon="0.41259">
        <ele>90.4</ele>
        <time>2022-07-14T07:48:27Z</time>
      </trkpt>
      <trkpt lat="44.77287" lon="0.41264">
        <ele>90.4</ele>
        <time>2022-07-14T07:48:29Z</time>
      </trkpt>
      <trkpt lat="44.77281" lon="0.41271">
        <ele>90.5</ele>
        <time>2022-07-14T07:48:31Z</time>
      </trkpt>
      <trkpt lat="44.77277" lon="0.41277">
        <ele>90.6</ele>
        <time>2022-07-14T07:48:33Z</time>
      </trkpt>
      <trkpt lat="44.77274" lon="0.41281">
        <ele>90.6</ele>
        <time>2022-07-14T07:48:34Z</time>
      </trkpt>
      <trkpt lat="44.77272" lon="0.41284">
        <ele>90.7</ele>
        <time>2022-07-14T07:48:35Z</time>
      </trkpt>
      <trkpt lat="44.77267" lon="0.41293">
        <ele>90.8</ele>
        <time>2022-07-14T07:48:37Z</time>
      </trkpt>
      <trkpt lat="44.77263" lon="0.41301">
        <ele>90.7</ele>
        <time>2022-07-14T07:48:39Z</time>
      </trkpt>
      <trkpt lat="44.77258" lon="0.4131">
        <ele>90.6</ele>
        <time>2022-07-14T07:48:41Z</time>
      </trkpt>
      <trkpt lat="44.77252" lon="0.41321">
        <ele>90.2</ele>
        <time>2022-07-14T07:48:43Z</time>
      </trkpt>
      <trkpt lat="44.77246" lon="0.41332">
        <ele>89.8</ele>
        <time>2022-07-14T07:48:45Z</time>
      </trkpt>
      <trkpt lat="44.7724" lon="0.41342">
        <ele>89.5</ele>
        <time>2022-07-14T07:48:47Z</time>
      </trkpt>
      <trkpt lat="44.77237" lon="0.41347">
        <ele>89.3</ele>
        <time>2022-07-14T07:48:48Z</time>
      </trkpt>
      <trkpt lat="44.77234" lon="0.41352">
        <ele>89.1</ele>
        <time>2022-07-14T07:48:49Z</time>
      </trkpt>
      <trkpt lat="44.77229" lon="0.41361">
        <ele>88.9</ele>
        <time>2022-07-14T07:48:51Z</time>
      </trkpt>
      <trkpt lat="44.77226" lon="0.41367">
        <ele>88.7</ele>
        <time>2022-07-14T07:48:52Z</time>
      </trkpt>
      <trkpt lat="44.77223" lon="0.41373">
        <ele>88.6</ele>
        <time>2022-07-14T07:48:53Z</time>
      </trkpt>
      <trkpt lat="44.7722" lon="0.41379">
        <ele>88.6</ele>
        <time>2022-07-14T07:48:54Z</time>
      </trkpt>
      <trkpt lat="44.77217" lon="0.41385">
        <ele>88.5</ele>
        <time>2022-07-14T07:48:55Z</time>
      </trkpt>
      <trkpt lat="44.77212" lon="0.41399">
        <ele>88.4</ele>
        <time>2022-07-14T07:48:57Z</time>
      </trkpt>
      <trkpt lat="44.7721" lon="0.41407">
        <ele>88.4</ele>
        <time>2022-07-14T07:48:58Z</time>
      </trkpt>
      <trkpt lat="44.77208" lon="0.41415">
        <ele>88.4</ele>
        <time>2022-07-14T07:48:59Z</time>
      </trkpt>
      <trkpt lat="44.77205" lon="0.41429">
        <ele>88.3</ele>
        <time>2022-07-14T07:49:01Z</time>
      </trkpt>
      <trkpt lat="44.77203" lon="0.41444">
        <ele>88.3</ele>
        <time>2022-07-14T07:49:03Z</time>
      </trkpt>
      <trkpt lat="44.77202" lon="0.41452">
        <ele>88.3</ele>
        <time>2022-07-14T07:49:04Z</time>
      </trkpt>
      <trkpt lat="44.77201" lon="0.4146">
        <ele>88.4</ele>
        <time>2022-07-14T07:49:05Z</time>
      </trkpt>
      <trkpt lat="44.77202" lon="0.41475">
        <ele>88.5</ele>
        <time>2022-07-14T07:49:07Z</time>
      </trkpt>
      <trkpt lat="44.77204" lon="0.41488">
        <ele>88.6</ele>
        <time>2022-07-14T07:49:09Z</time>
      </trkpt>
      <trkpt lat="44.7721" lon="0.415">
        <ele>88.8</ele>
        <time>2022-07-14T07:49:11Z</time>
      </trkpt>
      <trkpt lat="44.77215" lon="0.41512">
        <ele>89.1</ele>
        <time>2022-07-14T07:49:13Z</time>
      </trkpt>
      <trkpt lat="44.77218" lon="0.41518">
        <ele>89.3</ele>
        <time>2022-07-14T07:49:14Z</time>
      </trkpt>
      <trkpt lat="44.7722" lon="0.41523">
        <ele>89.4</ele>
        <time>2022-07-14T07:49:15Z</time>
      </trkpt>
      <trkpt lat="44.77225" lon="0.41534">
        <ele>89.8</ele>
        <time>2022-07-14T07:49:17Z</time>
      </trkpt>
      <trkpt lat="44.7723" lon="0.41544">
        <ele>90.2</ele>
        <time>2022-07-14T07:49:19Z</time>
      </trkpt>
      <trkpt lat="44.77233" lon="0.41553">
        <ele>90.5</ele>
        <time>2022-07-14T07:49:21Z</time>
      </trkpt>
      <trkpt lat="44.77233" lon="0.4156">
        <ele>90.7</ele>
        <time>2022-07-14T07:49:22Z</time>
      </trkpt>
      <trkpt lat="44.77233" lon="0.41565">
        <ele>90.8</ele>
        <time>2022-07-14T07:49:23Z</time>
      </trkpt>
      <trkpt lat="44.77233" lon="0.41571">
        <ele>90.8</ele>
        <time>2022-07-14T07:49:24Z</time>
      </trkpt>
      <trkpt lat="44.77231" lon="0.41577">
        <ele>90.8</ele>
        <time>2022-07-14T07:49:25Z</time>
      </trkpt>
      <trkpt lat="44.77228" lon="0.41588">
        <ele>90.6</ele>
        <time>2022-07-14T07:49:27Z</time>
      </trkpt>
      <trkpt lat="44.77226" lon="0.41594">
        <ele>90.6</ele>
        <time>2022-07-14T07:49:28Z</time>
      </trkpt>
      <trkpt lat="44.77225" lon="0.41599">
        <ele>90.6</ele>
        <time>2022-07-14T07:49:29Z</time>
      </trkpt>
      <trkpt lat="44.77225" lon="0.41609">
        <ele>90.7</ele>
        <time>2022-07-14T07:49:31Z</time>
      </trkpt>
      <trkpt lat="44.77225" lon="0.41614">
        <ele>90.9</ele>
        <time>2022-07-14T07:49:32Z</time>
      </trkpt>
      <trkpt lat="44.77225" lon="0.4162">
        <ele>91.1</ele>
        <time>2022-07-14T07:49:33Z</time>
      </trkpt>
      <trkpt lat="44.77225" lon="0.41626">
        <ele>91.3</ele>
        <time>2022-07-14T07:49:34Z</time>
      </trkpt>
      <trkpt lat="44.77225" lon="0.41632">
        <ele>91.5</ele>
        <time>2022-07-14T07:49:35Z</time>
      </trkpt>
      <trkpt lat="44.77225" lon="0.41643">
        <ele>91.9</ele>
        <time>2022-07-14T07:49:37Z</time>
      </trkpt>
      <trkpt lat="44.77224" lon="0.41654">
        <ele>92.2</ele>
        <time>2022-07-14T07:49:39Z</time>
      </trkpt>
      <trkpt lat="44.77223" lon="0.41667">
        <ele>92.3</ele>
        <time>2022-07-14T07:49:41Z</time>
      </trkpt>
      <trkpt lat="44.77222" lon="0.41679">
        <ele>92.3</ele>
        <time>2022-07-14T07:49:43Z</time>
      </trkpt>
      <trkpt lat="44.77221" lon="0.41692">
        <ele>92.4</ele>
        <time>2022-07-14T07:49:45Z</time>
      </trkpt>
      <trkpt lat="44.7722" lon="0.41695">
        <ele>92.5</ele>
        <time>2022-07-14T07:49:46Z</time>
      </trkpt>
      <trkpt lat="44.7722" lon="0.41698">
        <ele>92.6</ele>
        <time>2022-07-14T07:49:47Z</time>
      </trkpt>
      <trkpt lat="44.77219" lon="0.41709">
        <ele>92.8</ele>
        <time>2022-07-14T07:49:49Z</time>
      </trkpt>
      <trkpt lat="44.77218" lon="0.41721">
        <ele>93</ele>
        <time>2022-07-14T07:49:51Z</time>
      </trkpt>
      <trkpt lat="44.77217" lon="0.41734">
        <ele>93.2</ele>
        <time>2022-07-14T07:49:53Z</time>
      </trkpt>
      <trkpt lat="44.77217" lon="0.4174">
        <ele>93.2</ele>
        <time>2022-07-14T07:49:54Z</time>
      </trkpt>
      <trkpt lat="44.77216" lon="0.41746">
        <ele>93.2</ele>
        <time>2022-07-14T07:49:55Z</time>
      </trkpt>
      <trkpt lat="44.77215" lon="0.41759">
        <ele>93.3</ele>
        <time>2022-07-14T07:49:57Z</time>
      </trkpt>
      <trkpt lat="44.77214" lon="0.41771">
        <ele>93.4</ele>
        <time>2022-07-14T07:49:59Z</time>
      </trkpt>
      <trkpt lat="44.77213" lon="0.41777">
        <ele>93.4</ele>
        <time>2022-07-14T07:50:00Z</time>
      </trkpt>
      <trkpt lat="44.77213" lon="0.41783">
        <ele>93.4</ele>
        <time>2022-07-14T07:50:01Z</time>
      </trkpt>
      <trkpt lat="44.77212" lon="0.41789">
        <ele>93.3</ele>
        <time>2022-07-14T07:50:02Z</time>
      </trkpt>
      <trkpt lat="44.77212" lon="0.41796">
        <ele>93.3</ele>
        <time>2022-07-14T07:50:03Z</time>
      </trkpt>
      <trkpt lat="44.77211" lon="0.41808">
        <ele>93.3</ele>
        <time>2022-07-14T07:50:05Z</time>
      </trkpt>
      <trkpt lat="44.7721" lon="0.41814">
        <ele>93.4</ele>
        <time>2022-07-14T07:50:06Z</time>
      </trkpt>
      <trkpt lat="44.77211" lon="0.41821">
        <ele>93.5</ele>
        <time>2022-07-14T07:50:07Z</time>
      </trkpt>
      <trkpt lat="44.77212" lon="0.41827">
        <ele>93.5</ele>
        <time>2022-07-14T07:50:08Z</time>
      </trkpt>
      <trkpt lat="44.77214" lon="0.41833">
        <ele>93.6</ele>
        <time>2022-07-14T07:50:09Z</time>
      </trkpt>
      <trkpt lat="44.77217" lon="0.4184">
        <ele>93.6</ele>
        <time>2022-07-14T07:50:10Z</time>
      </trkpt>
      <trkpt lat="44.77219" lon="0.41847">
        <ele>93.6</ele>
        <time>2022-07-14T07:50:11Z</time>
      </trkpt>
      <trkpt lat="44.77223" lon="0.41861">
        <ele>93.8</ele>
        <time>2022-07-14T07:50:13Z</time>
      </trkpt>
      <trkpt lat="44.77222" lon="0.41867">
        <ele>93.9</ele>
        <time>2022-07-14T07:50:14Z</time>
      </trkpt>
      <trkpt lat="44.77222" lon="0.41874">
        <ele>94.1</ele>
        <time>2022-07-14T07:50:15Z</time>
      </trkpt>
      <trkpt lat="44.77221" lon="0.41886">
        <ele>94.6</ele>
        <time>2022-07-14T07:50:17Z</time>
      </trkpt>
      <trkpt lat="44.7722" lon="0.41897">
        <ele>95.2</ele>
        <time>2022-07-14T07:50:19Z</time>
      </trkpt>
      <trkpt lat="44.77219" lon="0.41907">
        <ele>95.8</ele>
        <time>2022-07-14T07:50:21Z</time>
      </trkpt>
      <trkpt lat="44.77218" lon="0.41918">
        <ele>96.5</ele>
        <time>2022-07-14T07:50:23Z</time>
      </trkpt>
      <trkpt lat="44.77217" lon="0.41928">
        <ele>97.1</ele>
        <time>2022-07-14T07:50:25Z</time>
      </trkpt>
      <trkpt lat="44.77217" lon="0.41938">
        <ele>97.7</ele>
        <time>2022-07-14T07:50:27Z</time>
      </trkpt>
      <trkpt lat="44.77217" lon="0.41942">
        <ele>97.9</ele>
        <time>2022-07-14T07:50:28Z</time>
      </trkpt>
      <trkpt lat="44.77218" lon="0.41947">
        <ele>98.2</ele>
        <time>2022-07-14T07:50:29Z</time>
      </trkpt>
      <trkpt lat="44.7722" lon="0.41954">
        <ele>98.5</ele>
        <time>2022-07-14T07:50:31Z</time>
      </trkpt>
      <trkpt lat="44.7722" lon="0.41957">
        <ele>98.7</ele>
        <time>2022-07-14T07:50:32Z</time>
      </trkpt>
      <trkpt lat="44.77224" lon="0.41958">
        <ele>98.9</ele>
        <time>2022-07-14T07:50:33Z</time>
      </trkpt>
      <trkpt lat="44.77229" lon="0.41958">
        <ele>99.2</ele>
        <time>2022-07-14T07:50:35Z</time>
      </trkpt>
      <trkpt lat="44.77235" lon="0.41958">
        <ele>99.5</ele>
        <time>2022-07-14T07:50:37Z</time>
      </trkpt>
      <trkpt lat="44.7724" lon="0.41958">
        <ele>99.9</ele>
        <time>2022-07-14T07:50:39Z</time>
      </trkpt>
      <trkpt lat="44.77245" lon="0.41958">
        <ele>100.1</ele>
        <time>2022-07-14T07:50:41Z</time>
      </trkpt>
      <trkpt lat="44.7725" lon="0.41957">
        <ele>100.4</ele>
        <time>2022-07-14T07:50:43Z</time>
      </trkpt>
      <trkpt lat="44.77254" lon="0.41956">
        <ele>100.7</ele>
        <time>2022-07-14T07:50:45Z</time>
      </trkpt>
      <trkpt lat="44.77259" lon="0.41955">
        <ele>101</ele>
        <time>2022-07-14T07:50:47Z</time>
      </trkpt>
      <trkpt lat="44.77263" lon="0.41954">
        <ele>101.2</ele>
        <time>2022-07-14T07:50:49Z</time>
      </trkpt>
      <trkpt lat="44.77267" lon="0.41953">
        <ele>101.5</ele>
        <time>2022-07-14T07:50:51Z</time>
      </trkpt>
      <trkpt lat="44.77271" lon="0.41952">
        <ele>101.8</ele>
        <time>2022-07-14T07:50:53Z</time>
      </trkpt>
      <trkpt lat="44.77276" lon="0.41951">
        <ele>102</ele>
        <time>2022-07-14T07:50:55Z</time>
      </trkpt>
      <trkpt lat="44.7728" lon="0.4195">
        <ele>102.3</ele>
        <time>2022-07-14T07:50:57Z</time>
      </trkpt>
      <trkpt lat="44.77282" lon="0.41949">
        <ele>102.4</ele>
        <time>2022-07-14T07:50:58Z</time>
      </trkpt>
      <trkpt lat="44.77284" lon="0.41949">
        <ele>102.6</ele>
        <time>2022-07-14T07:50:59Z</time>
      </trkpt>
      <trkpt lat="44.77289" lon="0.41947">
        <ele>102.8</ele>
        <time>2022-07-14T07:51:01Z</time>
      </trkpt>
      <trkpt lat="44.77293" lon="0.41946">
        <ele>103.1</ele>
        <time>2022-07-14T07:51:03Z</time>
      </trkpt>
      <trkpt lat="44.77297" lon="0.41945">
        <ele>103.3</ele>
        <time>2022-07-14T07:51:05Z</time>
      </trkpt>
      <trkpt lat="44.77302" lon="0.41944">
        <ele>103.6</ele>
        <time>2022-07-14T07:51:07Z</time>
      </trkpt>
      <trkpt lat="44.77304" lon="0.41944">
        <ele>103.7</ele>
        <time>2022-07-14T07:51:08Z</time>
      </trkpt>
      <trkpt lat="44.77306" lon="0.41943">
        <ele>103.9</ele>
        <time>2022-07-14T07:51:09Z</time>
      </trkpt>
      <trkpt lat="44.7731" lon="0.41942">
        <ele>104.1</ele>
        <time>2022-07-14T07:51:11Z</time>
      </trkpt>
      <trkpt lat="44.77314" lon="0.41941">
        <ele>104.4</ele>
        <time>2022-07-14T07:51:13Z</time>
      </trkpt>
      <trkpt lat="44.77318" lon="0.4194">
        <ele>104.6</ele>
        <time>2022-07-14T07:51:15Z</time>
      </trkpt>
      <trkpt lat="44.77321" lon="0.4194">
        <ele>104.8</ele>
        <time>2022-07-14T07:51:16Z</time>
      </trkpt>
      <trkpt lat="44.77322" lon="0.41939">
        <ele>104.9</ele>
        <time>2022-07-14T07:51:17Z</time>
      </trkpt>
      <trkpt lat="44.77326" lon="0.41938">
        <ele>105.1</ele>
        <time>2022-07-14T07:51:19Z</time>
      </trkpt>
      <trkpt lat="44.7733" lon="0.41937">
        <ele>105.4</ele>
        <time>2022-07-14T07:51:21Z</time>
      </trkpt>
      <trkpt lat="44.77334" lon="0.41936">
        <ele>105.6</ele>
        <time>2022-07-14T07:51:23Z</time>
      </trkpt>
      <trkpt lat="44.77338" lon="0.41935">
        <ele>105.9</ele>
        <time>2022-07-14T07:51:25Z</time>
      </trkpt>
      <trkpt lat="44.77342" lon="0.41934">
        <ele>106.1</ele>
        <time>2022-07-14T07:51:27Z</time>
      </trkpt>
      <trkpt lat="44.77344" lon="0.41934">
        <ele>106.2</ele>
        <time>2022-07-14T07:51:28Z</time>
      </trkpt>
      <trkpt lat="44.77346" lon="0.41933">
        <ele>106.3</ele>
        <time>2022-07-14T07:51:29Z</time>
      </trkpt>
      <trkpt lat="44.7735" lon="0.41933">
        <ele>106.6</ele>
        <time>2022-07-14T07:51:31Z</time>
      </trkpt>
      <trkpt lat="44.77354" lon="0.41932">
        <ele>106.8</ele>
        <time>2022-07-14T07:51:33Z</time>
      </trkpt>
      <trkpt lat="44.77358" lon="0.41931">
        <ele>107.1</ele>
        <time>2022-07-14T07:51:35Z</time>
      </trkpt>
      <trkpt lat="44.7736" lon="0.41931">
        <ele>107.2</ele>
        <time>2022-07-14T07:51:36Z</time>
      </trkpt>
      <trkpt lat="44.77361" lon="0.4193">
        <ele>107.3</ele>
        <time>2022-07-14T07:51:37Z</time>
      </trkpt>
      <trkpt lat="44.77365" lon="0.4193">
        <ele>107.5</ele>
        <time>2022-07-14T07:51:39Z</time>
      </trkpt>
      <trkpt lat="44.77369" lon="0.41929">
        <ele>107.7</ele>
        <time>2022-07-14T07:51:41Z</time>
      </trkpt>
      <trkpt lat="44.77372" lon="0.41928">
        <ele>107.9</ele>
        <time>2022-07-14T07:51:43Z</time>
      </trkpt>
      <trkpt lat="44.77374" lon="0.41928">
        <ele>108</ele>
        <time>2022-07-14T07:51:44Z</time>
      </trkpt>
      <trkpt lat="44.77376" lon="0.41928">
        <ele>108.2</ele>
        <time>2022-07-14T07:51:45Z</time>
      </trkpt>
      <trkpt lat="44.77379" lon="0.41927">
        <ele>108.4</ele>
        <time>2022-07-14T07:51:47Z</time>
      </trkpt>
      <trkpt lat="44.77383" lon="0.41926">
        <ele>108.6</ele>
        <time>2022-07-14T07:51:49Z</time>
      </trkpt>
      <trkpt lat="44.77387" lon="0.41926">
        <ele>108.8</ele>
        <time>2022-07-14T07:51:51Z</time>
      </trkpt>
      <trkpt lat="44.7739" lon="0.41925">
        <ele>109</ele>
        <time>2022-07-14T07:51:53Z</time>
      </trkpt>
      <trkpt lat="44.77394" lon="0.41924">
        <ele>109.3</ele>
        <time>2022-07-14T07:51:55Z</time>
      </trkpt>
      <trkpt lat="44.77397" lon="0.41924">
        <ele>109.4</ele>
        <time>2022-07-14T07:51:57Z</time>
      </trkpt>
      <trkpt lat="44.77398" lon="0.41925">
        <ele>109.5</ele>
        <time>2022-07-14T07:51:58Z</time>
      </trkpt>
      <trkpt lat="44.77398" lon="0.41925">
        <ele>109.5</ele>
        <time>2022-07-14T07:51:59Z</time>
      </trkpt>
      <trkpt lat="44.77399" lon="0.41926">
        <ele>109.6</ele>
        <time>2022-07-14T07:52:01Z</time>
      </trkpt>
      <trkpt lat="44.77399" lon="0.41926">
        <ele>109.6</ele>
        <time>2022-07-14T07:52:03Z</time>
      </trkpt>
      <trkpt lat="44.77403" lon="0.41934">
        <ele>110</ele>
        <time>2022-07-14T07:52:21Z</time>
      </trkpt>
      <trkpt lat="44.77403" lon="0.41937">
        <ele>110.1</ele>
        <time>2022-07-14T07:52:22Z</time>
      </trkpt>
      <trkpt lat="44.77403" lon="0.41939">
        <ele>110.2</ele>
        <time>2022-07-14T07:52:23Z</time>
      </trkpt>
      <trkpt lat="44.77402" lon="0.41946">
        <ele>110.5</ele>
        <time>2022-07-14T07:52:25Z</time>
      </trkpt>
      <trkpt lat="44.77401" lon="0.41949">
        <ele>110.7</ele>
        <time>2022-07-14T07:52:26Z</time>
      </trkpt>
      <trkpt lat="44.774" lon="0.41951">
        <ele>110.8</ele>
        <time>2022-07-14T07:52:27Z</time>
      </trkpt>
      <trkpt lat="44.77398" lon="0.41956">
        <ele>111</ele>
        <time>2022-07-14T07:52:29Z</time>
      </trkpt>
      <trkpt lat="44.77397" lon="0.41958">
        <ele>111.1</ele>
        <time>2022-07-14T07:52:30Z</time>
      </trkpt>
      <trkpt lat="44.77396" lon="0.41961">
        <ele>111.3</ele>
        <time>2022-07-14T07:52:31Z</time>
      </trkpt>
      <trkpt lat="44.77394" lon="0.41965">
        <ele>111.5</ele>
        <time>2022-07-14T07:52:33Z</time>
      </trkpt>
      <trkpt lat="44.77392" lon="0.41969">
        <ele>111.7</ele>
        <time>2022-07-14T07:52:34Z</time>
      </trkpt>
      <trkpt lat="44.7739" lon="0.41974">
        <ele>111.9</ele>
        <time>2022-07-14T07:52:35Z</time>
      </trkpt>
      <trkpt lat="44.77385" lon="0.41984">
        <ele>112.4</ele>
        <time>2022-07-14T07:52:37Z</time>
      </trkpt>
      <trkpt lat="44.77381" lon="0.41994">
        <ele>112.9</ele>
        <time>2022-07-14T07:52:39Z</time>
      </trkpt>
      <trkpt lat="44.77377" lon="0.42004">
        <ele>113.4</ele>
        <time>2022-07-14T07:52:41Z</time>
      </trkpt>
      <trkpt lat="44.77371" lon="0.42015">
        <ele>114</ele>
        <time>2022-07-14T07:52:43Z</time>
      </trkpt>
      <trkpt lat="44.77366" lon="0.42025">
        <ele>114.6</ele>
        <time>2022-07-14T07:52:45Z</time>
      </trkpt>
      <trkpt lat="44.7736" lon="0.42035">
        <ele>115.1</ele>
        <time>2022-07-14T07:52:47Z</time>
      </trkpt>
      <trkpt lat="44.77357" lon="0.42041">
        <ele>115.3</ele>
        <time>2022-07-14T07:52:48Z</time>
      </trkpt>
      <trkpt lat="44.77355" lon="0.42046">
        <ele>115.3</ele>
        <time>2022-07-14T07:52:49Z</time>
      </trkpt>
      <trkpt lat="44.7735" lon="0.42055">
        <ele>115.3</ele>
        <time>2022-07-14T07:52:51Z</time>
      </trkpt>
      <trkpt lat="44.77345" lon="0.42065">
        <ele>115.4</ele>
        <time>2022-07-14T07:52:53Z</time>
      </trkpt>
      <trkpt lat="44.77342" lon="0.4207">
        <ele>115.5</ele>
        <time>2022-07-14T07:52:54Z</time>
      </trkpt>
      <trkpt lat="44.77339" lon="0.42075">
        <ele>115.6</ele>
        <time>2022-07-14T07:52:55Z</time>
      </trkpt>
      <trkpt lat="44.77336" lon="0.42081">
        <ele>115.6</ele>
        <time>2022-07-14T07:52:56Z</time>
      </trkpt>
      <trkpt lat="44.77334" lon="0.42086">
        <ele>115.6</ele>
        <time>2022-07-14T07:52:57Z</time>
      </trkpt>
      <trkpt lat="44.77328" lon="0.42096">
        <ele>115.5</ele>
        <time>2022-07-14T07:52:59Z</time>
      </trkpt>
      <trkpt lat="44.77325" lon="0.42102">
        <ele>115.3</ele>
        <time>2022-07-14T07:53:00Z</time>
      </trkpt>
      <trkpt lat="44.77322" lon="0.42108">
        <ele>115.2</ele>
        <time>2022-07-14T07:53:01Z</time>
      </trkpt>
      <trkpt lat="44.77318" lon="0.42114">
        <ele>114.9</ele>
        <time>2022-07-14T07:53:02Z</time>
      </trkpt>
      <trkpt lat="44.77315" lon="0.42121">
        <ele>114.5</ele>
        <time>2022-07-14T07:53:03Z</time>
      </trkpt>
      <trkpt lat="44.77312" lon="0.42127">
        <ele>114.2</ele>
        <time>2022-07-14T07:53:04Z</time>
      </trkpt>
      <trkpt lat="44.77308" lon="0.42133">
        <ele>113.9</ele>
        <time>2022-07-14T07:53:05Z</time>
      </trkpt>
      <trkpt lat="44.773" lon="0.42147">
        <ele>112.8</ele>
        <time>2022-07-14T07:53:07Z</time>
      </trkpt>
      <trkpt lat="44.77296" lon="0.42153">
        <ele>112.2</ele>
        <time>2022-07-14T07:53:08Z</time>
      </trkpt>
      <trkpt lat="44.77292" lon="0.4216">
        <ele>111.5</ele>
        <time>2022-07-14T07:53:09Z</time>
      </trkpt>
      <trkpt lat="44.77287" lon="0.42168">
        <ele>110.6</ele>
        <time>2022-07-14T07:53:10Z</time>
      </trkpt>
      <trkpt lat="44.77282" lon="0.42175">
        <ele>109.8</ele>
        <time>2022-07-14T07:53:11Z</time>
      </trkpt>
      <trkpt lat="44.77277" lon="0.42183">
        <ele>109</ele>
        <time>2022-07-14T07:53:12Z</time>
      </trkpt>
      <trkpt lat="44.77272" lon="0.42191">
        <ele>108.1</ele>
        <time>2022-07-14T07:53:13Z</time>
      </trkpt>
      <trkpt lat="44.77267" lon="0.422">
        <ele>107.2</ele>
        <time>2022-07-14T07:53:14Z</time>
      </trkpt>
      <trkpt lat="44.77265" lon="0.4221">
        <ele>106.4</ele>
        <time>2022-07-14T07:53:15Z</time>
      </trkpt>
      <trkpt lat="44.77263" lon="0.42219">
        <ele>105.6</ele>
        <time>2022-07-14T07:53:16Z</time>
      </trkpt>
      <trkpt lat="44.77261" lon="0.42228">
        <ele>104.8</ele>
        <time>2022-07-14T07:53:17Z</time>
      </trkpt>
      <trkpt lat="44.7726" lon="0.42238">
        <ele>104</ele>
        <time>2022-07-14T07:53:18Z</time>
      </trkpt>
      <trkpt lat="44.77259" lon="0.4225">
        <ele>102.8</ele>
        <time>2022-07-14T07:53:19Z</time>
      </trkpt>
      <trkpt lat="44.77258" lon="0.42273">
        <ele>100.2</ele>
        <time>2022-07-14T07:53:21Z</time>
      </trkpt>
      <trkpt lat="44.77258" lon="0.42298">
        <ele>96.5</ele>
        <time>2022-07-14T07:53:23Z</time>
      </trkpt>
      <trkpt lat="44.77258" lon="0.42322">
        <ele>93.1</ele>
        <time>2022-07-14T07:53:25Z</time>
      </trkpt>
      <trkpt lat="44.77259" lon="0.42337">
        <ele>91</ele>
        <time>2022-07-14T07:53:27Z</time>
      </trkpt>
      <trkpt lat="44.77259" lon="0.4234">
        <ele>90.5</ele>
        <time>2022-07-14T07:53:28Z</time>
      </trkpt>
      <trkpt lat="44.77259" lon="0.4234">
        <ele>90.5</ele>
        <time>2022-07-14T07:53:29Z</time>
      </trkpt>
      <trkpt lat="44.77259" lon="0.42345">
        <ele>89.9</ele>
        <time>2022-07-14T07:53:31Z</time>
      </trkpt>
      <trkpt lat="44.77251" lon="0.42348">
        <ele>90</ele>
        <time>2022-07-14T07:53:33Z</time>
      </trkpt>
      <trkpt lat="44.77237" lon="0.4235">
        <ele>90.1</ele>
        <time>2022-07-14T07:53:35Z</time>
      </trkpt>
      <trkpt lat="44.77224" lon="0.4235">
        <ele>90.2</ele>
        <time>2022-07-14T07:53:37Z</time>
      </trkpt>
      <trkpt lat="44.77218" lon="0.4235">
        <ele>90.2</ele>
        <time>2022-07-14T07:53:38Z</time>
      </trkpt>
      <trkpt lat="44.77213" lon="0.42351">
        <ele>90</ele>
        <time>2022-07-14T07:53:39Z</time>
      </trkpt>
      <trkpt lat="44.77209" lon="0.42352">
        <ele>89.8</ele>
        <time>2022-07-14T07:53:40Z</time>
      </trkpt>
      <trkpt lat="44.77205" lon="0.42354">
        <ele>89.5</ele>
        <time>2022-07-14T07:53:41Z</time>
      </trkpt>
      <trkpt lat="44.772" lon="0.42356">
        <ele>88.9</ele>
        <time>2022-07-14T07:53:42Z</time>
      </trkpt>
      <trkpt lat="44.77194" lon="0.4236">
        <ele>88.1</ele>
        <time>2022-07-14T07:53:43Z</time>
      </trkpt>
      <trkpt lat="44.7718" lon="0.42372">
        <ele>85.6</ele>
        <time>2022-07-14T07:53:45Z</time>
      </trkpt>
      <trkpt lat="44.77166" lon="0.42385">
        <ele>83.1</ele>
        <time>2022-07-14T07:53:47Z</time>
      </trkpt>
      <trkpt lat="44.7716" lon="0.4239">
        <ele>82</ele>
        <time>2022-07-14T07:53:48Z</time>
      </trkpt>
      <trkpt lat="44.77155" lon="0.42395">
        <ele>81.2</ele>
        <time>2022-07-14T07:53:49Z</time>
      </trkpt>
      <trkpt lat="44.77141" lon="0.42403">
        <ele>79.5</ele>
        <time>2022-07-14T07:53:51Z</time>
      </trkpt>
      <trkpt lat="44.77135" lon="0.42405">
        <ele>78.8</ele>
        <time>2022-07-14T07:53:52Z</time>
      </trkpt>
      <trkpt lat="44.77127" lon="0.42408">
        <ele>78.1</ele>
        <time>2022-07-14T07:53:53Z</time>
      </trkpt>
      <trkpt lat="44.7712" lon="0.4241">
        <ele>77.3</ele>
        <time>2022-07-14T07:53:54Z</time>
      </trkpt>
      <trkpt lat="44.77113" lon="0.42412">
        <ele>76.6</ele>
        <time>2022-07-14T07:53:55Z</time>
      </trkpt>
      <trkpt lat="44.77108" lon="0.42414">
        <ele>76.2</ele>
        <time>2022-07-14T07:53:56Z</time>
      </trkpt>
      <trkpt lat="44.77113" lon="0.4242">
        <ele>75.5</ele>
        <time>2022-07-14T07:53:57Z</time>
      </trkpt>
      <trkpt lat="44.7712" lon="0.42426">
        <ele>74.8</ele>
        <time>2022-07-14T07:53:59Z</time>
      </trkpt>
      <trkpt lat="44.77107" lon="0.42418">
        <ele>73.7</ele>
        <time>2022-07-14T07:54:00Z</time>
      </trkpt>
      <trkpt lat="44.77108" lon="0.42419">
        <ele>73.8</ele>
        <time>2022-07-14T07:54:01Z</time>
      </trkpt>
      <trkpt lat="44.7711" lon="0.4242">
        <ele>74</ele>
        <time>2022-07-14T07:54:02Z</time>
      </trkpt>
      <trkpt lat="44.77112" lon="0.42421">
        <ele>74.2</ele>
        <time>2022-07-14T07:54:03Z</time>
      </trkpt>
      <trkpt lat="44.77119" lon="0.42426">
        <ele>75</ele>
        <time>2022-07-14T07:54:05Z</time>
      </trkpt>
      <trkpt lat="44.77124" lon="0.42432">
        <ele>75.2</ele>
        <time>2022-07-14T07:54:07Z</time>
      </trkpt>
      <trkpt lat="44.77124" lon="0.42433">
        <ele>75.2</ele>
        <time>2022-07-14T07:54:09Z</time>
      </trkpt>
      <trkpt lat="44.77128" lon="0.4244">
        <ele>75.2</ele>
        <time>2022-07-14T07:54:11Z</time>
      </trkpt>
      <trkpt lat="44.7713" lon="0.4245">
        <ele>75.4</ele>
        <time>2022-07-14T07:54:13Z</time>
      </trkpt>
      <trkpt lat="44.77131" lon="0.4246">
        <ele>75.8</ele>
        <time>2022-07-14T07:54:44Z</time>
      </trkpt>
      <trkpt lat="44.77133" lon="0.42469">
        <ele>76.5</ele>
        <time>2022-07-14T07:54:45Z</time>
      </trkpt>
      <trkpt lat="44.77134" lon="0.42472">
        <ele>76.7</ele>
        <time>2022-07-14T07:54:47Z</time>
      </trkpt>
      <trkpt lat="44.77139" lon="0.42482">
        <ele>77.9</ele>
        <time>2022-07-14T07:54:49Z</time>
      </trkpt>
      <trkpt lat="44.77139" lon="0.42482">
        <ele>77.9</ele>
        <time>2022-07-14T07:54:50Z</time>
      </trkpt>
      <trkpt lat="44.77136" lon="0.42484">
        <ele>77.8</ele>
        <time>2022-07-14T07:54:51Z</time>
      </trkpt>
      <trkpt lat="44.77131" lon="0.42487">
        <ele>77.7</ele>
        <time>2022-07-14T07:54:53Z</time>
      </trkpt>
      <trkpt lat="44.77125" lon="0.42491">
        <ele>77.5</ele>
        <time>2022-07-14T07:54:55Z</time>
      </trkpt>
      <trkpt lat="44.77119" lon="0.42498">
        <ele>77.2</ele>
        <time>2022-07-14T07:54:57Z</time>
      </trkpt>
      <trkpt lat="44.77114" lon="0.42504">
        <ele>77.1</ele>
        <time>2022-07-14T07:54:59Z</time>
      </trkpt>
      <trkpt lat="44.7711" lon="0.42509">
        <ele>77</ele>
        <time>2022-07-14T07:55:00Z</time>
      </trkpt>
      <trkpt lat="44.77107" lon="0.42513">
        <ele>76.9</ele>
        <time>2022-07-14T07:55:01Z</time>
      </trkpt>
      <trkpt lat="44.77104" lon="0.42517">
        <ele>76.8</ele>
        <time>2022-07-14T07:55:03Z</time>
      </trkpt>
      <trkpt lat="44.77102" lon="0.42519">
        <ele>76.8</ele>
        <time>2022-07-14T07:55:05Z</time>
      </trkpt>
      <trkpt lat="44.771" lon="0.42522">
        <ele>78.1</ele>
        <time>2022-07-14T07:55:07Z</time>
      </trkpt>
      <trkpt lat="44.77097" lon="0.42524">
        <ele>77.2</ele>
        <time>2022-07-14T07:55:08Z</time>
      </trkpt>
      <trkpt lat="44.77095" lon="0.42526">
        <ele>77.2</ele>
        <time>2022-07-14T07:55:09Z</time>
      </trkpt>
      <trkpt lat="44.77071" lon="0.42551">
        <ele>76.6</ele>
        <time>2022-07-14T07:55:11Z</time>
      </trkpt>
      <trkpt lat="44.77067" lon="0.42553">
        <ele>76.6</ele>
        <time>2022-07-14T07:55:12Z</time>
      </trkpt>
      <trkpt lat="44.77064" lon="0.42554">
        <ele>76.6</ele>
        <time>2022-07-14T07:55:13Z</time>
      </trkpt>
      <trkpt lat="44.77055" lon="0.42553">
        <ele>75.4</ele>
        <time>2022-07-14T07:55:15Z</time>
      </trkpt>
      <trkpt lat="44.77051" lon="0.42553">
        <ele>75.4</ele>
        <time>2022-07-14T07:55:16Z</time>
      </trkpt>
      <trkpt lat="44.7705" lon="0.42556">
        <ele>75.3</ele>
        <time>2022-07-14T07:55:17Z</time>
      </trkpt>
      <trkpt lat="44.77048" lon="0.42565">
        <ele>75.3</ele>
        <time>2022-07-14T07:55:19Z</time>
      </trkpt>
      <trkpt lat="44.77042" lon="0.42571">
        <ele>75.3</ele>
        <time>2022-07-14T07:55:21Z</time>
      </trkpt>
      <trkpt lat="44.77033" lon="0.42573">
        <ele>75.3</ele>
        <time>2022-07-14T07:55:23Z</time>
      </trkpt>
      <trkpt lat="44.77024" lon="0.42573">
        <ele>74.1</ele>
        <time>2022-07-14T07:55:25Z</time>
      </trkpt>
      <trkpt lat="44.77015" lon="0.4257">
        <ele>73.2</ele>
        <time>2022-07-14T07:55:27Z</time>
      </trkpt>
      <trkpt lat="44.77006" lon="0.42567">
        <ele>72.1</ele>
        <time>2022-07-14T07:55:29Z</time>
      </trkpt>
      <trkpt lat="44.76999" lon="0.42564">
        <ele>71.1</ele>
        <time>2022-07-14T07:55:31Z</time>
      </trkpt>
      <trkpt lat="44.76995" lon="0.42562">
        <ele>71.1</ele>
        <time>2022-07-14T07:55:32Z</time>
      </trkpt>
      <trkpt lat="44.76991" lon="0.4256">
        <ele>71.1</ele>
        <time>2022-07-14T07:55:33Z</time>
      </trkpt>
      <trkpt lat="44.76983" lon="0.42558">
        <ele>71</ele>
        <time>2022-07-14T07:55:35Z</time>
      </trkpt>
      <trkpt lat="44.76976" lon="0.42556">
        <ele>71.9</ele>
        <time>2022-07-14T07:55:37Z</time>
      </trkpt>
      <trkpt lat="44.76973" lon="0.42558">
        <ele>71.9</ele>
        <time>2022-07-14T07:55:38Z</time>
      </trkpt>
      <trkpt lat="44.76971" lon="0.42561">
        <ele>71.9</ele>
        <time>2022-07-14T07:55:39Z</time>
      </trkpt>
      <trkpt lat="44.76973" lon="0.4257">
        <ele>71.9</ele>
        <time>2022-07-14T07:55:41Z</time>
      </trkpt>
      <trkpt lat="44.76978" lon="0.42578">
        <ele>71</ele>
        <time>2022-07-14T07:55:43Z</time>
      </trkpt>
      <trkpt lat="44.76981" lon="0.42587">
        <ele>71</ele>
        <time>2022-07-14T07:55:45Z</time>
      </trkpt>
      <trkpt lat="44.76984" lon="0.42592">
        <ele>71.1</ele>
        <time>2022-07-14T07:55:46Z</time>
      </trkpt>
      <trkpt lat="44.76986" lon="0.42597">
        <ele>71.1</ele>
        <time>2022-07-14T07:55:47Z</time>
      </trkpt>
      <trkpt lat="44.7699" lon="0.42608">
        <ele>71.9</ele>
        <time>2022-07-14T07:55:49Z</time>
      </trkpt>
      <trkpt lat="44.76992" lon="0.4262">
        <ele>71.9</ele>
        <time>2022-07-14T07:55:51Z</time>
      </trkpt>
      <trkpt lat="44.76994" lon="0.42632">
        <ele>72.1</ele>
        <time>2022-07-14T07:55:53Z</time>
      </trkpt>
      <trkpt lat="44.76995" lon="0.42643">
        <ele>72.3</ele>
        <time>2022-07-14T07:55:55Z</time>
      </trkpt>
      <trkpt lat="44.76996" lon="0.42648">
        <ele>72.3</ele>
        <time>2022-07-14T07:55:56Z</time>
      </trkpt>
      <trkpt lat="44.76997" lon="0.42653">
        <ele>72.3</ele>
        <time>2022-07-14T07:55:57Z</time>
      </trkpt>
      <trkpt lat="44.76999" lon="0.42664">
        <ele>72.5</ele>
        <time>2022-07-14T07:55:59Z</time>
      </trkpt>
      <trkpt lat="44.77" lon="0.4267">
        <ele>72.5</ele>
        <time>2022-07-14T07:56:00Z</time>
      </trkpt>
      <trkpt lat="44.77001" lon="0.42676">
        <ele>72.7</ele>
        <time>2022-07-14T07:56:01Z</time>
      </trkpt>
      <trkpt lat="44.77" lon="0.42681">
        <ele>72.7</ele>
        <time>2022-07-14T07:56:02Z</time>
      </trkpt>
      <trkpt lat="44.76999" lon="0.42687">
        <ele>72.7</ele>
        <time>2022-07-14T07:56:03Z</time>
      </trkpt>
      <trkpt lat="44.76997" lon="0.42699">
        <ele>73</ele>
        <time>2022-07-14T07:56:05Z</time>
      </trkpt>
      <trkpt lat="44.76994" lon="0.42711">
        <ele>73.3</ele>
        <time>2022-07-14T07:56:07Z</time>
      </trkpt>
      <trkpt lat="44.76991" lon="0.42723">
        <ele>73.3</ele>
        <time>2022-07-14T07:56:09Z</time>
      </trkpt>
      <trkpt lat="44.76988" lon="0.42732">
        <ele>72.3</ele>
        <time>2022-07-14T07:56:11Z</time>
      </trkpt>
      <trkpt lat="44.76987" lon="0.42737">
        <ele>72.3</ele>
        <time>2022-07-14T07:56:12Z</time>
      </trkpt>
      <trkpt lat="44.76986" lon="0.42743">
        <ele>72.3</ele>
        <time>2022-07-14T07:56:13Z</time>
      </trkpt>
      <trkpt lat="44.76984" lon="0.42748">
        <ele>73</ele>
        <time>2022-07-14T07:56:14Z</time>
      </trkpt>
      <trkpt lat="44.76983" lon="0.42754">
        <ele>73</ele>
        <time>2022-07-14T07:56:15Z</time>
      </trkpt>
      <trkpt lat="44.76983" lon="0.4276">
        <ele>73</ele>
        <time>2022-07-14T07:56:16Z</time>
      </trkpt>
      <trkpt lat="44.76982" lon="0.42765">
        <ele>73.6</ele>
        <time>2022-07-14T07:56:17Z</time>
      </trkpt>
      <trkpt lat="44.7698" lon="0.42775">
        <ele>73.6</ele>
        <time>2022-07-14T07:56:19Z</time>
      </trkpt>
      <trkpt lat="44.76976" lon="0.42783">
        <ele>72.2</ele>
        <time>2022-07-14T07:56:21Z</time>
      </trkpt>
      <trkpt lat="44.7697" lon="0.4279">
        <ele>72.2</ele>
        <time>2022-07-14T07:56:23Z</time>
      </trkpt>
      <trkpt lat="44.76967" lon="0.42795">
        <ele>72.2</ele>
        <time>2022-07-14T07:56:24Z</time>
      </trkpt>
      <trkpt lat="44.76965" lon="0.428">
        <ele>72.1</ele>
        <time>2022-07-14T07:56:25Z</time>
      </trkpt>
      <trkpt lat="44.76961" lon="0.4281">
        <ele>71.2</ele>
        <time>2022-07-14T07:56:27Z</time>
      </trkpt>
      <trkpt lat="44.76959" lon="0.42814">
        <ele>71.3</ele>
        <time>2022-07-14T07:56:28Z</time>
      </trkpt>
      <trkpt lat="44.76957" lon="0.42819">
        <ele>71.3</ele>
        <time>2022-07-14T07:56:29Z</time>
      </trkpt>
      <trkpt lat="44.76952" lon="0.42828">
        <ele>71</ele>
        <time>2022-07-14T07:56:31Z</time>
      </trkpt>
      <trkpt lat="44.7695" lon="0.4283">
        <ele>71</ele>
        <time>2022-07-14T07:56:32Z</time>
      </trkpt>
      <trkpt lat="44.76948" lon="0.42833">
        <ele>71</ele>
        <time>2022-07-14T07:56:33Z</time>
      </trkpt>
      <trkpt lat="44.76945" lon="0.42843">
        <ele>71</ele>
        <time>2022-07-14T07:56:35Z</time>
      </trkpt>
      <trkpt lat="44.76945" lon="0.42848">
        <ele>71.2</ele>
        <time>2022-07-14T07:56:36Z</time>
      </trkpt>
      <trkpt lat="44.76944" lon="0.42853">
        <ele>71.2</ele>
        <time>2022-07-14T07:56:37Z</time>
      </trkpt>
      <trkpt lat="44.76941" lon="0.42864">
        <ele>71.7</ele>
        <time>2022-07-14T07:56:39Z</time>
      </trkpt>
      <trkpt lat="44.76939" lon="0.42868">
        <ele>71.2</ele>
        <time>2022-07-14T07:56:40Z</time>
      </trkpt>
      <trkpt lat="44.76938" lon="0.42872">
        <ele>71.2</ele>
        <time>2022-07-14T07:56:41Z</time>
      </trkpt>
      <trkpt lat="44.76933" lon="0.4288">
        <ele>71.2</ele>
        <time>2022-07-14T07:56:43Z</time>
      </trkpt>
      <trkpt lat="44.76928" lon="0.42885">
        <ele>70.9</ele>
        <time>2022-07-14T07:56:45Z</time>
      </trkpt>
      <trkpt lat="44.76927" lon="0.42886">
        <ele>70.9</ele>
        <time>2022-07-14T07:56:47Z</time>
      </trkpt>
      <trkpt lat="44.76911" lon="0.42892">
        <ele>70.1</ele>
        <time>2022-07-14T07:57:18Z</time>
      </trkpt>
      <trkpt lat="44.7691" lon="0.42892">
        <ele>69.9</ele>
        <time>2022-07-14T07:57:19Z</time>
      </trkpt>
      <trkpt lat="44.7691" lon="0.42892">
        <ele>69.9</ele>
        <time>2022-07-14T07:57:20Z</time>
      </trkpt>
      <trkpt lat="44.76907" lon="0.42892">
        <ele>69.6</ele>
        <time>2022-07-14T07:57:21Z</time>
      </trkpt>
      <trkpt lat="44.76905" lon="0.42892">
        <ele>69.4</ele>
        <time>2022-07-14T07:57:22Z</time>
      </trkpt>
      <trkpt lat="44.76902" lon="0.42893">
        <ele>69</ele>
        <time>2022-07-14T07:57:23Z</time>
      </trkpt>
      <trkpt lat="44.76898" lon="0.42895">
        <ele>68.7</ele>
        <time>2022-07-14T07:57:25Z</time>
      </trkpt>
      <trkpt lat="44.7689" lon="0.429">
        <ele>67.6</ele>
        <time>2022-07-14T07:57:27Z</time>
      </trkpt>
      <trkpt lat="44.76882" lon="0.42903">
        <ele>66.8</ele>
        <time>2022-07-14T07:57:29Z</time>
      </trkpt>
      <trkpt lat="44.76875" lon="0.42902">
        <ele>66</ele>
        <time>2022-07-14T07:57:31Z</time>
      </trkpt>
      <trkpt lat="44.76872" lon="0.42902">
        <ele>65.7</ele>
        <time>2022-07-14T07:57:33Z</time>
      </trkpt>
      <trkpt lat="44.76863" lon="0.42905">
        <ele>64.7</ele>
        <time>2022-07-14T07:57:35Z</time>
      </trkpt>
      <trkpt lat="44.76862" lon="0.42911">
        <ele>64.7</ele>
        <time>2022-07-14T07:57:36Z</time>
      </trkpt>
      <trkpt lat="44.76861" lon="0.42917">
        <ele>64.7</ele>
        <time>2022-07-14T07:57:37Z</time>
      </trkpt>
      <trkpt lat="44.76859" lon="0.42927">
        <ele>64.9</ele>
        <time>2022-07-14T07:57:39Z</time>
      </trkpt>
      <trkpt lat="44.76858" lon="0.42932">
        <ele>65.1</ele>
        <time>2022-07-14T07:57:40Z</time>
      </trkpt>
      <trkpt lat="44.76858" lon="0.42936">
        <ele>65.2</ele>
        <time>2022-07-14T07:57:41Z</time>
      </trkpt>
      <trkpt lat="44.76856" lon="0.42944">
        <ele>65.5</ele>
        <time>2022-07-14T07:57:43Z</time>
      </trkpt>
      <trkpt lat="44.76855" lon="0.42952">
        <ele>65.7</ele>
        <time>2022-07-14T07:57:45Z</time>
      </trkpt>
      <trkpt lat="44.76854" lon="0.42957">
        <ele>65.8</ele>
        <time>2022-07-14T07:57:46Z</time>
      </trkpt>
      <trkpt lat="44.76853" lon="0.42961">
        <ele>65.9</ele>
        <time>2022-07-14T07:57:47Z</time>
      </trkpt>
      <trkpt lat="44.76851" lon="0.4297">
        <ele>66.1</ele>
        <time>2022-07-14T07:57:49Z</time>
      </trkpt>
      <trkpt lat="44.76849" lon="0.4298">
        <ele>66.2</ele>
        <time>2022-07-14T07:57:51Z</time>
      </trkpt>
      <trkpt lat="44.76847" lon="0.4299">
        <ele>66.3</ele>
        <time>2022-07-14T07:57:53Z</time>
      </trkpt>
      <trkpt lat="44.76845" lon="0.43002">
        <ele>66.2</ele>
        <time>2022-07-14T07:57:55Z</time>
      </trkpt>
      <trkpt lat="44.76844" lon="0.43009">
        <ele>66.2</ele>
        <time>2022-07-14T07:57:56Z</time>
      </trkpt>
      <trkpt lat="44.76843" lon="0.43016">
        <ele>66.2</ele>
        <time>2022-07-14T07:57:57Z</time>
      </trkpt>
      <trkpt lat="44.7684" lon="0.43029">
        <ele>66.1</ele>
        <time>2022-07-14T07:57:59Z</time>
      </trkpt>
      <trkpt lat="44.76839" lon="0.43035">
        <ele>66</ele>
        <time>2022-07-14T07:58:00Z</time>
      </trkpt>
      <trkpt lat="44.76838" lon="0.43042">
        <ele>66</ele>
        <time>2022-07-14T07:58:01Z</time>
      </trkpt>
      <trkpt lat="44.76835" lon="0.43055">
        <ele>66</ele>
        <time>2022-07-14T07:58:03Z</time>
      </trkpt>
      <trkpt lat="44.76834" lon="0.43062">
        <ele>65.9</ele>
        <time>2022-07-14T07:58:04Z</time>
      </trkpt>
      <trkpt lat="44.76833" lon="0.43068">
        <ele>65.9</ele>
        <time>2022-07-14T07:58:05Z</time>
      </trkpt>
      <trkpt lat="44.7683" lon="0.4308">
        <ele>65.9</ele>
        <time>2022-07-14T07:58:07Z</time>
      </trkpt>
      <trkpt lat="44.76829" lon="0.43085">
        <ele>65.9</ele>
        <time>2022-07-14T07:58:08Z</time>
      </trkpt>
      <trkpt lat="44.76828" lon="0.43091">
        <ele>65.9</ele>
        <time>2022-07-14T07:58:09Z</time>
      </trkpt>
      <trkpt lat="44.76825" lon="0.43102">
        <ele>66</ele>
        <time>2022-07-14T07:58:11Z</time>
      </trkpt>
      <trkpt lat="44.76823" lon="0.43108">
        <ele>66</ele>
        <time>2022-07-14T07:58:12Z</time>
      </trkpt>
      <trkpt lat="44.76822" lon="0.43113">
        <ele>66</ele>
        <time>2022-07-14T07:58:13Z</time>
      </trkpt>
      <trkpt lat="44.7682" lon="0.43118">
        <ele>66</ele>
        <time>2022-07-14T07:58:14Z</time>
      </trkpt>
      <trkpt lat="44.76818" lon="0.43123">
        <ele>66</ele>
        <time>2022-07-14T07:58:15Z</time>
      </trkpt>
      <trkpt lat="44.76815" lon="0.43135">
        <ele>65.9</ele>
        <time>2022-07-14T07:58:17Z</time>
      </trkpt>
      <trkpt lat="44.76812" lon="0.43145">
        <ele>66</ele>
        <time>2022-07-14T07:58:19Z</time>
      </trkpt>
      <trkpt lat="44.7681" lon="0.4315">
        <ele>66</ele>
        <time>2022-07-14T07:58:20Z</time>
      </trkpt>
      <trkpt lat="44.76808" lon="0.43155">
        <ele>66</ele>
        <time>2022-07-14T07:58:21Z</time>
      </trkpt>
      <trkpt lat="44.76806" lon="0.43164">
        <ele>66</ele>
        <time>2022-07-14T07:58:23Z</time>
      </trkpt>
      <trkpt lat="44.76804" lon="0.43168">
        <ele>66.1</ele>
        <time>2022-07-14T07:58:24Z</time>
      </trkpt>
      <trkpt lat="44.76803" lon="0.43174">
        <ele>66.1</ele>
        <time>2022-07-14T07:58:25Z</time>
      </trkpt>
      <trkpt lat="44.76799" lon="0.43185">
        <ele>66.1</ele>
        <time>2022-07-14T07:58:27Z</time>
      </trkpt>
      <trkpt lat="44.76796" lon="0.43195">
        <ele>66.2</ele>
        <time>2022-07-14T07:58:29Z</time>
      </trkpt>
      <trkpt lat="44.76794" lon="0.432">
        <ele>66.2</ele>
        <time>2022-07-14T07:58:30Z</time>
      </trkpt>
      <trkpt lat="44.76793" lon="0.43206">
        <ele>66.1</ele>
        <time>2022-07-14T07:58:31Z</time>
      </trkpt>
      <trkpt lat="44.76789" lon="0.43215">
        <ele>66.1</ele>
        <time>2022-07-14T07:58:33Z</time>
      </trkpt>
      <trkpt lat="44.76788" lon="0.43221">
        <ele>66</ele>
        <time>2022-07-14T07:58:34Z</time>
      </trkpt>
      <trkpt lat="44.76786" lon="0.43225">
        <ele>66</ele>
        <time>2022-07-14T07:58:35Z</time>
      </trkpt>
      <trkpt lat="44.76783" lon="0.43236">
        <ele>66</ele>
        <time>2022-07-14T07:58:37Z</time>
      </trkpt>
      <trkpt lat="44.76781" lon="0.43242">
        <ele>65.9</ele>
        <time>2022-07-14T07:58:38Z</time>
      </trkpt>
      <trkpt lat="44.76779" lon="0.43248">
        <ele>65.9</ele>
        <time>2022-07-14T07:58:39Z</time>
      </trkpt>
      <trkpt lat="44.76776" lon="0.43258">
        <ele>66</ele>
        <time>2022-07-14T07:58:41Z</time>
      </trkpt>
      <trkpt lat="44.76772" lon="0.43266">
        <ele>66</ele>
        <time>2022-07-14T07:58:43Z</time>
      </trkpt>
      <trkpt lat="44.76771" lon="0.4327">
        <ele>66</ele>
        <time>2022-07-14T07:58:44Z</time>
      </trkpt>
      <trkpt lat="44.7677" lon="0.43272">
        <ele>66</ele>
        <time>2022-07-14T07:58:45Z</time>
      </trkpt>
      <trkpt lat="44.76767" lon="0.43279">
        <ele>66</ele>
        <time>2022-07-14T07:58:47Z</time>
      </trkpt>
      <trkpt lat="44.76763" lon="0.43289">
        <ele>66</ele>
        <time>2022-07-14T07:58:49Z</time>
      </trkpt>
      <trkpt lat="44.76758" lon="0.43299">
        <ele>66</ele>
        <time>2022-07-14T07:58:51Z</time>
      </trkpt>
      <trkpt lat="44.76756" lon="0.43304">
        <ele>66</ele>
        <time>2022-07-14T07:58:52Z</time>
      </trkpt>
      <trkpt lat="44.76754" lon="0.4331">
        <ele>66</ele>
        <time>2022-07-14T07:58:53Z</time>
      </trkpt>
      <trkpt lat="44.76751" lon="0.43318">
        <ele>66</ele>
        <time>2022-07-14T07:58:55Z</time>
      </trkpt>
      <trkpt lat="44.76748" lon="0.43323">
        <ele>66</ele>
        <time>2022-07-14T07:58:56Z</time>
      </trkpt>
      <trkpt lat="44.76746" lon="0.43328">
        <ele>66</ele>
        <time>2022-07-14T07:58:57Z</time>
      </trkpt>
      <trkpt lat="44.76744" lon="0.43334">
        <ele>66</ele>
        <time>2022-07-14T07:58:58Z</time>
      </trkpt>
      <trkpt lat="44.76741" lon="0.4334">
        <ele>66</ele>
        <time>2022-07-14T07:58:59Z</time>
      </trkpt>
      <trkpt lat="44.76737" lon="0.4335">
        <ele>66</ele>
        <time>2022-07-14T07:59:01Z</time>
      </trkpt>
      <trkpt lat="44.76732" lon="0.43361">
        <ele>66</ele>
        <time>2022-07-14T07:59:03Z</time>
      </trkpt>
      <trkpt lat="44.76728" lon="0.43372">
        <ele>66.1</ele>
        <time>2022-07-14T07:59:05Z</time>
      </trkpt>
      <trkpt lat="44.76725" lon="0.43377">
        <ele>66.1</ele>
        <time>2022-07-14T07:59:06Z</time>
      </trkpt>
      <trkpt lat="44.76723" lon="0.43383">
        <ele>66.2</ele>
        <time>2022-07-14T07:59:07Z</time>
      </trkpt>
      <trkpt lat="44.76718" lon="0.43394">
        <ele>66.3</ele>
        <time>2022-07-14T07:59:09Z</time>
      </trkpt>
      <trkpt lat="44.76716" lon="0.43399">
        <ele>66.4</ele>
        <time>2022-07-14T07:59:10Z</time>
      </trkpt>
      <trkpt lat="44.76714" lon="0.43404">
        <ele>66.4</ele>
        <time>2022-07-14T07:59:11Z</time>
      </trkpt>
      <trkpt lat="44.76709" lon="0.43415">
        <ele>66.6</ele>
        <time>2022-07-14T07:59:13Z</time>
      </trkpt>
      <trkpt lat="44.76707" lon="0.4342">
        <ele>66.7</ele>
        <time>2022-07-14T07:59:14Z</time>
      </trkpt>
      <trkpt lat="44.76705" lon="0.43426">
        <ele>66.7</ele>
        <time>2022-07-14T07:59:15Z</time>
      </trkpt>
      <trkpt lat="44.76699" lon="0.43436">
        <ele>66.8</ele>
        <time>2022-07-14T07:59:17Z</time>
      </trkpt>
      <trkpt lat="44.76697" lon="0.43441">
        <ele>66.8</ele>
        <time>2022-07-14T07:59:18Z</time>
      </trkpt>
      <trkpt lat="44.76694" lon="0.43445">
        <ele>66.9</ele>
        <time>2022-07-14T07:59:19Z</time>
      </trkpt>
      <trkpt lat="44.76689" lon="0.43455">
        <ele>66.9</ele>
        <time>2022-07-14T07:59:21Z</time>
      </trkpt>
      <trkpt lat="44.76687" lon="0.4346">
        <ele>67</ele>
        <time>2022-07-14T07:59:22Z</time>
      </trkpt>
      <trkpt lat="44.76685" lon="0.43464">
        <ele>67</ele>
        <time>2022-07-14T07:59:23Z</time>
      </trkpt>
      <trkpt lat="44.76683" lon="0.43468">
        <ele>67.2</ele>
        <time>2022-07-14T07:59:24Z</time>
      </trkpt>
      <trkpt lat="44.7668" lon="0.43473">
        <ele>67.3</ele>
        <time>2022-07-14T07:59:25Z</time>
      </trkpt>
      <trkpt lat="44.76678" lon="0.43476">
        <ele>67.5</ele>
        <time>2022-07-14T07:59:26Z</time>
      </trkpt>
      <trkpt lat="44.76678" lon="0.43478">
        <ele>67.6</ele>
        <time>2022-07-14T07:59:27Z</time>
      </trkpt>
      <trkpt lat="44.76677" lon="0.43482">
        <ele>67.7</ele>
        <time>2022-07-14T07:59:28Z</time>
      </trkpt>
      <trkpt lat="44.76677" lon="0.43486">
        <ele>67.8</ele>
        <time>2022-07-14T07:59:29Z</time>
      </trkpt>
      <trkpt lat="44.76677" lon="0.4349">
        <ele>68</ele>
        <time>2022-07-14T07:59:30Z</time>
      </trkpt>
      <trkpt lat="44.76677" lon="0.43493">
        <ele>68.1</ele>
        <time>2022-07-14T07:59:31Z</time>
      </trkpt>
      <trkpt lat="44.76676" lon="0.435">
        <ele>68.3</ele>
        <time>2022-07-14T07:59:33Z</time>
      </trkpt>
      <trkpt lat="44.76676" lon="0.4351">
        <ele>68.6</ele>
        <time>2022-07-14T07:59:35Z</time>
      </trkpt>
      <trkpt lat="44.76675" lon="0.43522">
        <ele>68.7</ele>
        <time>2022-07-14T07:59:37Z</time>
      </trkpt>
      <trkpt lat="44.76674" lon="0.43533">
        <ele>68.8</ele>
        <time>2022-07-14T07:59:39Z</time>
      </trkpt>
      <trkpt lat="44.76674" lon="0.43538">
        <ele>68.9</ele>
        <time>2022-07-14T07:59:40Z</time>
      </trkpt>
      <trkpt lat="44.76674" lon="0.43544">
        <ele>68.9</ele>
        <time>2022-07-14T07:59:41Z</time>
      </trkpt>
      <trkpt lat="44.76675" lon="0.43555">
        <ele>68.9</ele>
        <time>2022-07-14T07:59:43Z</time>
      </trkpt>
      <trkpt lat="44.76675" lon="0.4356">
        <ele>68.9</ele>
        <time>2022-07-14T07:59:44Z</time>
      </trkpt>
      <trkpt lat="44.76676" lon="0.43566">
        <ele>68.9</ele>
        <time>2022-07-14T07:59:45Z</time>
      </trkpt>
      <trkpt lat="44.76677" lon="0.43578">
        <ele>68.9</ele>
        <time>2022-07-14T07:59:47Z</time>
      </trkpt>
      <trkpt lat="44.76678" lon="0.43583">
        <ele>68.9</ele>
        <time>2022-07-14T07:59:48Z</time>
      </trkpt>
      <trkpt lat="44.76678" lon="0.43589">
        <ele>68.9</ele>
        <time>2022-07-14T07:59:49Z</time>
      </trkpt>
      <trkpt lat="44.7668" lon="0.436">
        <ele>69</ele>
        <time>2022-07-14T07:59:51Z</time>
      </trkpt>
      <trkpt lat="44.76681" lon="0.43611">
        <ele>69</ele>
        <time>2022-07-14T07:59:53Z</time>
      </trkpt>
      <trkpt lat="44.76682" lon="0.4362">
        <ele>69</ele>
        <time>2022-07-14T07:59:55Z</time>
      </trkpt>
      <trkpt lat="44.76682" lon="0.43625">
        <ele>69</ele>
        <time>2022-07-14T07:59:56Z</time>
      </trkpt>
      <trkpt lat="44.76683" lon="0.4363">
        <ele>69</ele>
        <time>2022-07-14T07:59:57Z</time>
      </trkpt>
      <trkpt lat="44.76686" lon="0.4364">
        <ele>69.1</ele>
        <time>2022-07-14T07:59:59Z</time>
      </trkpt>
      <trkpt lat="44.76688" lon="0.43649">
        <ele>69.2</ele>
        <time>2022-07-14T08:00:01Z</time>
      </trkpt>
      <trkpt lat="44.7669" lon="0.43658">
        <ele>69.3</ele>
        <time>2022-07-14T08:00:03Z</time>
      </trkpt>
      <trkpt lat="44.76691" lon="0.43662">
        <ele>69.4</ele>
        <time>2022-07-14T08:00:04Z</time>
      </trkpt>
      <trkpt lat="44.76692" lon="0.43667">
        <ele>69.5</ele>
        <time>2022-07-14T08:00:05Z</time>
      </trkpt>
      <trkpt lat="44.76694" lon="0.43677">
        <ele>69.6</ele>
        <time>2022-07-14T08:00:07Z</time>
      </trkpt>
      <trkpt lat="44.76696" lon="0.43686">
        <ele>69.8</ele>
        <time>2022-07-14T08:00:09Z</time>
      </trkpt>
      <trkpt lat="44.76697" lon="0.43695">
        <ele>70</ele>
        <time>2022-07-14T08:00:10Z</time>
      </trkpt>
      <trkpt lat="44.76696" lon="0.43699">
        <ele>70.1</ele>
        <time>2022-07-14T08:00:11Z</time>
      </trkpt>
      <trkpt lat="44.76696" lon="0.43708">
        <ele>70.4</ele>
        <time>2022-07-14T08:00:13Z</time>
      </trkpt>
      <trkpt lat="44.76695" lon="0.43715">
        <ele>70.7</ele>
        <time>2022-07-14T08:00:15Z</time>
      </trkpt>
      <trkpt lat="44.76694" lon="0.43723">
        <ele>71</ele>
        <time>2022-07-14T08:00:17Z</time>
      </trkpt>
      <trkpt lat="44.76694" lon="0.4373">
        <ele>71.4</ele>
        <time>2022-07-14T08:00:19Z</time>
      </trkpt>
      <trkpt lat="44.76693" lon="0.43733">
        <ele>71.6</ele>
        <time>2022-07-14T08:00:20Z</time>
      </trkpt>
      <trkpt lat="44.76693" lon="0.43735">
        <ele>71.7</ele>
        <time>2022-07-14T08:00:21Z</time>
      </trkpt>
      <trkpt lat="44.76693" lon="0.43741">
        <ele>72.1</ele>
        <time>2022-07-14T08:00:23Z</time>
      </trkpt>
      <trkpt lat="44.76692" lon="0.43748">
        <ele>72.5</ele>
        <time>2022-07-14T08:00:25Z</time>
      </trkpt>
      <trkpt lat="44.76692" lon="0.43752">
        <ele>72.7</ele>
        <time>2022-07-14T08:00:26Z</time>
      </trkpt>
      <trkpt lat="44.76691" lon="0.43756">
        <ele>72.9</ele>
        <time>2022-07-14T08:00:27Z</time>
      </trkpt>
      <trkpt lat="44.76691" lon="0.43763">
        <ele>73.2</ele>
        <time>2022-07-14T08:00:29Z</time>
      </trkpt>
      <trkpt lat="44.7669" lon="0.43771">
        <ele>73.6</ele>
        <time>2022-07-14T08:00:31Z</time>
      </trkpt>
      <trkpt lat="44.76689" lon="0.43779">
        <ele>73.9</ele>
        <time>2022-07-14T08:00:33Z</time>
      </trkpt>
      <trkpt lat="44.76688" lon="0.43787">
        <ele>74.3</ele>
        <time>2022-07-14T08:00:35Z</time>
      </trkpt>
      <trkpt lat="44.76688" lon="0.43793">
        <ele>74.6</ele>
        <time>2022-07-14T08:00:37Z</time>
      </trkpt>
      <trkpt lat="44.76687" lon="0.43798">
        <ele>74.8</ele>
        <time>2022-07-14T08:00:39Z</time>
      </trkpt>
      <trkpt lat="44.76687" lon="0.43801">
        <ele>75</ele>
        <time>2022-07-14T08:00:40Z</time>
      </trkpt>
      <trkpt lat="44.76687" lon="0.43803">
        <ele>75.1</ele>
        <time>2022-07-14T08:00:41Z</time>
      </trkpt>
      <trkpt lat="44.76686" lon="0.43811">
        <ele>75.5</ele>
        <time>2022-07-14T08:00:43Z</time>
      </trkpt>
      <trkpt lat="44.76686" lon="0.43818">
        <ele>75.9</ele>
        <time>2022-07-14T08:00:45Z</time>
      </trkpt>
      <trkpt lat="44.76685" lon="0.43822">
        <ele>76</ele>
        <time>2022-07-14T08:00:46Z</time>
      </trkpt>
      <trkpt lat="44.76685" lon="0.43825">
        <ele>76.2</ele>
        <time>2022-07-14T08:00:47Z</time>
      </trkpt>
      <trkpt lat="44.76685" lon="0.43828">
        <ele>76.3</ele>
        <time>2022-07-14T08:00:48Z</time>
      </trkpt>
      <trkpt lat="44.76685" lon="0.4383">
        <ele>76.4</ele>
        <time>2022-07-14T08:00:49Z</time>
      </trkpt>
      <trkpt lat="44.76684" lon="0.43832">
        <ele>76.6</ele>
        <time>2022-07-14T08:00:50Z</time>
      </trkpt>
      <trkpt lat="44.76684" lon="0.43837">
        <ele>76.8</ele>
        <time>2022-07-14T08:00:51Z</time>
      </trkpt>
      <trkpt lat="44.76684" lon="0.43841">
        <ele>77</ele>
        <time>2022-07-14T08:00:53Z</time>
      </trkpt>
      <trkpt lat="44.76683" lon="0.43847">
        <ele>77.3</ele>
        <time>2022-07-14T08:00:55Z</time>
      </trkpt>
      <trkpt lat="44.76683" lon="0.43849">
        <ele>77.4</ele>
        <time>2022-07-14T08:00:56Z</time>
      </trkpt>
      <trkpt lat="44.76683" lon="0.43852">
        <ele>77.5</ele>
        <time>2022-07-14T08:00:57Z</time>
      </trkpt>
      <trkpt lat="44.76682" lon="0.43858">
        <ele>77.7</ele>
        <time>2022-07-14T08:00:59Z</time>
      </trkpt>
      <trkpt lat="44.76682" lon="0.43862">
        <ele>77.7</ele>
        <time>2022-07-14T08:01:00Z</time>
      </trkpt>
      <trkpt lat="44.76681" lon="0.43865">
        <ele>77.8</ele>
        <time>2022-07-14T08:01:01Z</time>
      </trkpt>
      <trkpt lat="44.76681" lon="0.43874">
        <ele>77.8</ele>
        <time>2022-07-14T08:01:03Z</time>
      </trkpt>
      <trkpt lat="44.7668" lon="0.43884">
        <ele>77.7</ele>
        <time>2022-07-14T08:01:05Z</time>
      </trkpt>
      <trkpt lat="44.76679" lon="0.43894">
        <ele>77.5</ele>
        <time>2022-07-14T08:01:07Z</time>
      </trkpt>
      <trkpt lat="44.76678" lon="0.43898">
        <ele>77.4</ele>
        <time>2022-07-14T08:01:08Z</time>
      </trkpt>
      <trkpt lat="44.76678" lon="0.43903">
        <ele>77.3</ele>
        <time>2022-07-14T08:01:09Z</time>
      </trkpt>
      <trkpt lat="44.76676" lon="0.43914">
        <ele>77</ele>
        <time>2022-07-14T08:01:11Z</time>
      </trkpt>
      <trkpt lat="44.76675" lon="0.4392">
        <ele>76.9</ele>
        <time>2022-07-14T08:01:12Z</time>
      </trkpt>
      <trkpt lat="44.76674" lon="0.43927">
        <ele>76.7</ele>
        <time>2022-07-14T08:01:13Z</time>
      </trkpt>
      <trkpt lat="44.76672" lon="0.43941">
        <ele>76.5</ele>
        <time>2022-07-14T08:01:15Z</time>
      </trkpt>
      <trkpt lat="44.7667" lon="0.43948">
        <ele>76.4</ele>
        <time>2022-07-14T08:01:16Z</time>
      </trkpt>
      <trkpt lat="44.76669" lon="0.43955">
        <ele>76.3</ele>
        <time>2022-07-14T08:01:17Z</time>
      </trkpt>
      <trkpt lat="44.76667" lon="0.43969">
        <ele>76.1</ele>
        <time>2022-07-14T08:01:19Z</time>
      </trkpt>
      <trkpt lat="44.76665" lon="0.43976">
        <ele>75.9</ele>
        <time>2022-07-14T08:01:20Z</time>
      </trkpt>
      <trkpt lat="44.76664" lon="0.43983">
        <ele>75.7</ele>
        <time>2022-07-14T08:01:21Z</time>
      </trkpt>
      <trkpt lat="44.76661" lon="0.43999">
        <ele>75.2</ele>
        <time>2022-07-14T08:01:23Z</time>
      </trkpt>
      <trkpt lat="44.7666" lon="0.44006">
        <ele>75.1</ele>
        <time>2022-07-14T08:01:24Z</time>
      </trkpt>
      <trkpt lat="44.76659" lon="0.44014">
        <ele>75</ele>
        <time>2022-07-14T08:01:25Z</time>
      </trkpt>
      <trkpt lat="44.76656" lon="0.44027">
        <ele>74.9</ele>
        <time>2022-07-14T08:01:27Z</time>
      </trkpt>
      <trkpt lat="44.76652" lon="0.4404">
        <ele>74.7</ele>
        <time>2022-07-14T08:01:29Z</time>
      </trkpt>
      <trkpt lat="44.7665" lon="0.44046">
        <ele>74.7</ele>
        <time>2022-07-14T08:01:30Z</time>
      </trkpt>
      <trkpt lat="44.76648" lon="0.44053">
        <ele>74.6</ele>
        <time>2022-07-14T08:01:31Z</time>
      </trkpt>
      <trkpt lat="44.76646" lon="0.44059">
        <ele>74.5</ele>
        <time>2022-07-14T08:01:32Z</time>
      </trkpt>
      <trkpt lat="44.76644" lon="0.44064">
        <ele>74.5</ele>
        <time>2022-07-14T08:01:33Z</time>
      </trkpt>
      <trkpt lat="44.76642" lon="0.4407">
        <ele>74.5</ele>
        <time>2022-07-14T08:01:34Z</time>
      </trkpt>
      <trkpt lat="44.7664" lon="0.44076">
        <ele>74.6</ele>
        <time>2022-07-14T08:01:35Z</time>
      </trkpt>
      <trkpt lat="44.76637" lon="0.44085">
        <ele>74.7</ele>
        <time>2022-07-14T08:01:37Z</time>
      </trkpt>
      <trkpt lat="44.7663" lon="0.44094">
        <ele>74.7</ele>
        <time>2022-07-14T08:01:39Z</time>
      </trkpt>
      <trkpt lat="44.76624" lon="0.44101">
        <ele>74.6</ele>
        <time>2022-07-14T08:01:41Z</time>
      </trkpt>
      <trkpt lat="44.7662" lon="0.44106">
        <ele>74.5</ele>
        <time>2022-07-14T08:01:43Z</time>
      </trkpt>
      <trkpt lat="44.76628" lon="0.44134">
        <ele>73</ele>
        <time>2022-07-14T08:01:44Z</time>
      </trkpt>
      <trkpt lat="44.76633" lon="0.44133">
        <ele>72.9</ele>
        <time>2022-07-14T08:01:45Z</time>
      </trkpt>
      <trkpt lat="44.76642" lon="0.44131">
        <ele>72.7</ele>
        <time>2022-07-14T08:01:47Z</time>
      </trkpt>
      <trkpt lat="44.76647" lon="0.44129">
        <ele>72.6</ele>
        <time>2022-07-14T08:01:48Z</time>
      </trkpt>
      <trkpt lat="44.76653" lon="0.44127">
        <ele>72.5</ele>
        <time>2022-07-14T08:01:49Z</time>
      </trkpt>
      <trkpt lat="44.76664" lon="0.44123">
        <ele>72.4</ele>
        <time>2022-07-14T08:01:51Z</time>
      </trkpt>
      <trkpt lat="44.76675" lon="0.44118">
        <ele>72.2</ele>
        <time>2022-07-14T08:01:53Z</time>
      </trkpt>
      <trkpt lat="44.76685" lon="0.44112">
        <ele>72.1</ele>
        <time>2022-07-14T08:01:55Z</time>
      </trkpt>
      <trkpt lat="44.76693" lon="0.44107">
        <ele>72.1</ele>
        <time>2022-07-14T08:01:57Z</time>
      </trkpt>
      <trkpt lat="44.76697" lon="0.44105">
        <ele>72.1</ele>
        <time>2022-07-14T08:01:58Z</time>
      </trkpt>
      <trkpt lat="44.76702" lon="0.44102">
        <ele>72.1</ele>
        <time>2022-07-14T08:01:59Z</time>
      </trkpt>
      <trkpt lat="44.76705" lon="0.44099">
        <ele>72.2</ele>
        <time>2022-07-14T08:02:00Z</time>
      </trkpt>
      <trkpt lat="44.76707" lon="0.44097">
        <ele>72.2</ele>
        <time>2022-07-14T08:02:01Z</time>
      </trkpt>
      <trkpt lat="44.76713" lon="0.44091">
        <ele>72.3</ele>
        <time>2022-07-14T08:02:03Z</time>
      </trkpt>
      <trkpt lat="44.76716" lon="0.44089">
        <ele>72.3</ele>
        <time>2022-07-14T08:02:04Z</time>
      </trkpt>
      <trkpt lat="44.76718" lon="0.44087">
        <ele>72.3</ele>
        <time>2022-07-14T08:02:05Z</time>
      </trkpt>
      <trkpt lat="44.7672" lon="0.44086">
        <ele>72.4</ele>
        <time>2022-07-14T08:02:07Z</time>
      </trkpt>
      <trkpt lat="44.76721" lon="0.44108">
        <ele>72.6</ele>
        <time>2022-07-14T08:02:58Z</time>
      </trkpt>
      <trkpt lat="44.76719" lon="0.4411">
        <ele>72.5</ele>
        <time>2022-07-14T08:02:59Z</time>
      </trkpt>
      <trkpt lat="44.76716" lon="0.44113">
        <ele>72.5</ele>
        <time>2022-07-14T08:03:01Z</time>
      </trkpt>
      <trkpt lat="44.76712" lon="0.44117">
        <ele>72.4</ele>
        <time>2022-07-14T08:03:03Z</time>
      </trkpt>
      <trkpt lat="44.76708" lon="0.4412">
        <ele>72.4</ele>
        <time>2022-07-14T08:03:05Z</time>
      </trkpt>
      <trkpt lat="44.76703" lon="0.44124">
        <ele>72.3</ele>
        <time>2022-07-14T08:03:07Z</time>
      </trkpt>
      <trkpt lat="44.76696" lon="0.44106">
        <ele>72.2</ele>
        <time>2022-07-14T08:03:09Z</time>
      </trkpt>
      <trkpt lat="44.76691" lon="0.44109">
        <ele>72.1</ele>
        <time>2022-07-14T08:03:11Z</time>
      </trkpt>
      <trkpt lat="44.76687" lon="0.44111">
        <ele>72.1</ele>
        <time>2022-07-14T08:03:13Z</time>
      </trkpt>
      <trkpt lat="44.76684" lon="0.44113">
        <ele>72.1</ele>
        <time>2022-07-14T08:03:14Z</time>
      </trkpt>
      <trkpt lat="44.76682" lon="0.44114">
        <ele>72.1</ele>
        <time>2022-07-14T08:03:15Z</time>
      </trkpt>
      <trkpt lat="44.76677" lon="0.44117">
        <ele>72.1</ele>
        <time>2022-07-14T08:03:17Z</time>
      </trkpt>
      <trkpt lat="44.76673" lon="0.44119">
        <ele>72.2</ele>
        <time>2022-07-14T08:03:19Z</time>
      </trkpt>
      <trkpt lat="44.76669" lon="0.44121">
        <ele>72.2</ele>
        <time>2022-07-14T08:03:21Z</time>
      </trkpt>
      <trkpt lat="44.76664" lon="0.44123">
        <ele>72.3</ele>
        <time>2022-07-14T08:03:23Z</time>
      </trkpt>
      <trkpt lat="44.7666" lon="0.44124">
        <ele>72.3</ele>
        <time>2022-07-14T08:03:25Z</time>
      </trkpt>
      <trkpt lat="44.76655" lon="0.44126">
        <ele>72.4</ele>
        <time>2022-07-14T08:03:27Z</time>
      </trkpt>
      <trkpt lat="44.7665" lon="0.44128">
        <ele>72.5</ele>
        <time>2022-07-14T08:03:29Z</time>
      </trkpt>
      <trkpt lat="44.76646" lon="0.44129">
        <ele>72.6</ele>
        <time>2022-07-14T08:03:31Z</time>
      </trkpt>
      <trkpt lat="44.76641" lon="0.44131">
        <ele>72.5</ele>
        <time>2022-07-14T08:03:33Z</time>
      </trkpt>
      <trkpt lat="44.7664" lon="0.44131">
        <ele>72.5</ele>
        <time>2022-07-14T08:03:34Z</time>
      </trkpt>
      <trkpt lat="44.76639" lon="0.44131">
        <ele>72.5</ele>
        <time>2022-07-14T08:03:35Z</time>
      </trkpt>
      <trkpt lat="44.76638" lon="0.44132">
        <ele>72.5</ele>
        <time>2022-07-14T08:03:36Z</time>
      </trkpt>
      <trkpt lat="44.76637" lon="0.44132">
        <ele>72.5</ele>
        <time>2022-07-14T08:03:37Z</time>
      </trkpt>
      <trkpt lat="44.76637" lon="0.44132">
        <ele>72.5</ele>
        <time>2022-07-14T08:03:38Z</time>
      </trkpt>
      <trkpt lat="44.76646" lon="0.4417">
        <ele>75.6</ele>
        <time>2022-07-14T08:05:34Z</time>
      </trkpt>
      <trkpt lat="44.76648" lon="0.44171">
        <ele>76</ele>
        <time>2022-07-14T08:05:35Z</time>
      </trkpt>
      <trkpt lat="44.7665" lon="0.44172">
        <ele>76</ele>
        <time>2022-07-14T08:05:37Z</time>
      </trkpt>
      <trkpt lat="44.76654" lon="0.44174">
        <ele>76</ele>
        <time>2022-07-14T08:05:39Z</time>
      </trkpt>
      <trkpt lat="44.7666" lon="0.44176">
        <ele>76</ele>
        <time>2022-07-14T08:05:41Z</time>
      </trkpt>
      <trkpt lat="44.76667" lon="0.44179">
        <ele>76.3</ele>
        <time>2022-07-14T08:05:43Z</time>
      </trkpt>
      <trkpt lat="44.76675" lon="0.44182">
        <ele>76.3</ele>
        <time>2022-07-14T08:05:45Z</time>
      </trkpt>
      <trkpt lat="44.76679" lon="0.44184">
        <ele>76.3</ele>
        <time>2022-07-14T08:05:46Z</time>
      </trkpt>
      <trkpt lat="44.76682" lon="0.44185">
        <ele>76.3</ele>
        <time>2022-07-14T08:05:47Z</time>
      </trkpt>
      <trkpt lat="44.7669" lon="0.44188">
        <ele>75.4</ele>
        <time>2022-07-14T08:05:49Z</time>
      </trkpt>
      <trkpt lat="44.76698" lon="0.44191">
        <ele>74.8</ele>
        <time>2022-07-14T08:05:51Z</time>
      </trkpt>
      <trkpt lat="44.76706" lon="0.44194">
        <ele>74.8</ele>
        <time>2022-07-14T08:05:53Z</time>
      </trkpt>
      <trkpt lat="44.7671" lon="0.44196">
        <ele>74.3</ele>
        <time>2022-07-14T08:05:54Z</time>
      </trkpt>
      <trkpt lat="44.76714" lon="0.44197">
        <ele>74.2</ele>
        <time>2022-07-14T08:05:55Z</time>
      </trkpt>
      <trkpt lat="44.76721" lon="0.442">
        <ele>74.4</ele>
        <time>2022-07-14T08:05:57Z</time>
      </trkpt>
      <trkpt lat="44.76729" lon="0.44203">
        <ele>74.4</ele>
        <time>2022-07-14T08:05:59Z</time>
      </trkpt>
      <trkpt lat="44.76729" lon="0.44203">
        <ele>74.3</ele>
        <time>2022-07-14T08:06:01Z</time>
      </trkpt>
      <trkpt lat="44.76735" lon="0.44225">
        <ele>75.8</ele>
        <time>2022-07-14T08:06:03Z</time>
      </trkpt>
      <trkpt lat="44.76731" lon="0.44228">
        <ele>74.5</ele>
        <time>2022-07-14T08:06:04Z</time>
      </trkpt>
      <trkpt lat="44.76726" lon="0.4423">
        <ele>74.5</ele>
        <time>2022-07-14T08:06:05Z</time>
      </trkpt>
      <trkpt lat="44.76722" lon="0.44232">
        <ele>74.5</ele>
        <time>2022-07-14T08:06:06Z</time>
      </trkpt>
      <trkpt lat="44.76718" lon="0.44235">
        <ele>73.6</ele>
        <time>2022-07-14T08:06:07Z</time>
      </trkpt>
      <trkpt lat="44.76715" lon="0.44239">
        <ele>73.7</ele>
        <time>2022-07-14T08:06:08Z</time>
      </trkpt>
      <trkpt lat="44.76711" lon="0.44242">
        <ele>73.7</ele>
        <time>2022-07-14T08:06:09Z</time>
      </trkpt>
      <trkpt lat="44.76708" lon="0.44246">
        <ele>73.2</ele>
        <time>2022-07-14T08:06:10Z</time>
      </trkpt>
      <trkpt lat="44.76704" lon="0.4425">
        <ele>73.2</ele>
        <time>2022-07-14T08:06:11Z</time>
      </trkpt>
      <trkpt lat="44.76696" lon="0.44257">
        <ele>73.2</ele>
        <time>2022-07-14T08:06:13Z</time>
      </trkpt>
      <trkpt lat="44.76693" lon="0.44261">
        <ele>73.2</ele>
        <time>2022-07-14T08:06:14Z</time>
      </trkpt>
      <trkpt lat="44.7669" lon="0.44265">
        <ele>73.2</ele>
        <time>2022-07-14T08:06:15Z</time>
      </trkpt>
      <trkpt lat="44.76688" lon="0.4427">
        <ele>73.2</ele>
        <time>2022-07-14T08:06:16Z</time>
      </trkpt>
      <trkpt lat="44.76685" lon="0.44275">
        <ele>73.7</ele>
        <time>2022-07-14T08:06:17Z</time>
      </trkpt>
      <trkpt lat="44.7668" lon="0.44285">
        <ele>73.4</ele>
        <time>2022-07-14T08:06:19Z</time>
      </trkpt>
      <trkpt lat="44.76678" lon="0.4429">
        <ele>74.1</ele>
        <time>2022-07-14T08:06:20Z</time>
      </trkpt>
      <trkpt lat="44.76677" lon="0.44296">
        <ele>74.1</ele>
        <time>2022-07-14T08:06:21Z</time>
      </trkpt>
      <trkpt lat="44.76676" lon="0.44306">
        <ele>74.1</ele>
        <time>2022-07-14T08:06:23Z</time>
      </trkpt>
      <trkpt lat="44.76676" lon="0.44313">
        <ele>75.4</ele>
        <time>2022-07-14T08:06:25Z</time>
      </trkpt>
      <trkpt lat="44.76675" lon="0.44319">
        <ele>75.4</ele>
        <time>2022-07-14T08:06:27Z</time>
      </trkpt>
      <trkpt lat="44.76675" lon="0.44325">
        <ele>77</ele>
        <time>2022-07-14T08:06:29Z</time>
      </trkpt>
      <trkpt lat="44.76675" lon="0.44329">
        <ele>77</ele>
        <time>2022-07-14T08:06:31Z</time>
      </trkpt>
      <trkpt lat="44.76675" lon="0.4433">
        <ele>77</ele>
        <time>2022-07-14T08:06:33Z</time>
      </trkpt>
      <trkpt lat="44.76676" lon="0.4434">
        <ele>77</ele>
        <time>2022-07-14T08:06:49Z</time>
      </trkpt>
      <trkpt lat="44.76677" lon="0.44345">
        <ele>78.6</ele>
        <time>2022-07-14T08:06:51Z</time>
      </trkpt>
      <trkpt lat="44.76678" lon="0.44348">
        <ele>78.6</ele>
        <time>2022-07-14T08:06:52Z</time>
      </trkpt>
      <trkpt lat="44.76678" lon="0.4435">
        <ele>78.6</ele>
        <time>2022-07-14T08:06:53Z</time>
      </trkpt>
      <trkpt lat="44.7668" lon="0.44353">
        <ele>78.6</ele>
        <time>2022-07-14T08:06:55Z</time>
      </trkpt>
      <trkpt lat="44.76681" lon="0.44358">
        <ele>80.3</ele>
        <time>2022-07-14T08:06:57Z</time>
      </trkpt>
      <trkpt lat="44.76682" lon="0.44359">
        <ele>80.2</ele>
        <time>2022-07-14T08:06:58Z</time>
      </trkpt>
      <trkpt lat="44.76682" lon="0.44361">
        <ele>80.2</ele>
        <time>2022-07-14T08:06:59Z</time>
      </trkpt>
      <trkpt lat="44.76683" lon="0.44363">
        <ele>80.2</ele>
        <time>2022-07-14T08:07:01Z</time>
      </trkpt>
      <trkpt lat="44.76684" lon="0.44364">
        <ele>80.2</ele>
        <time>2022-07-14T08:07:02Z</time>
      </trkpt>
      <trkpt lat="44.76691" lon="0.44376">
        <ele>83.8</ele>
        <time>2022-07-14T08:07:11Z</time>
      </trkpt>
      <trkpt lat="44.76691" lon="0.44378">
        <ele>83.8</ele>
        <time>2022-07-14T08:07:12Z</time>
      </trkpt>
      <trkpt lat="44.76691" lon="0.44379">
        <ele>83.8</ele>
        <time>2022-07-14T08:07:13Z</time>
      </trkpt>
      <trkpt lat="44.76692" lon="0.44381">
        <ele>83.8</ele>
        <time>2022-07-14T08:07:14Z</time>
      </trkpt>
      <trkpt lat="44.76692" lon="0.44383">
        <ele>83.8</ele>
        <time>2022-07-14T08:07:15Z</time>
      </trkpt>
      <trkpt lat="44.76692" lon="0.44388">
        <ele>83.8</ele>
        <time>2022-07-14T08:07:17Z</time>
      </trkpt>
      <trkpt lat="44.76692" lon="0.44391">
        <ele>83.8</ele>
        <time>2022-07-14T08:07:19Z</time>
      </trkpt>
      <trkpt lat="44.76693" lon="0.44395">
        <ele>86.1</ele>
        <time>2022-07-14T08:07:21Z</time>
      </trkpt>
      <trkpt lat="44.76691" lon="0.44399">
        <ele>86.1</ele>
        <time>2022-07-14T08:07:23Z</time>
      </trkpt>
      <trkpt lat="44.7669" lon="0.44403">
        <ele>86.1</ele>
        <time>2022-07-14T08:07:25Z</time>
      </trkpt>
      <trkpt lat="44.76688" lon="0.44407">
        <ele>86</ele>
        <time>2022-07-14T08:07:27Z</time>
      </trkpt>
      <trkpt lat="44.76687" lon="0.44409">
        <ele>88.2</ele>
        <time>2022-07-14T08:07:28Z</time>
      </trkpt>
      <trkpt lat="44.76686" lon="0.44412">
        <ele>88.2</ele>
        <time>2022-07-14T08:07:29Z</time>
      </trkpt>
      <trkpt lat="44.76686" lon="0.44418">
        <ele>88.2</ele>
        <time>2022-07-14T08:07:31Z</time>
      </trkpt>
      <trkpt lat="44.76685" lon="0.44423">
        <ele>88.2</ele>
        <time>2022-07-14T08:07:33Z</time>
      </trkpt>
      <trkpt lat="44.76684" lon="0.44427">
        <ele>87.8</ele>
        <time>2022-07-14T08:07:35Z</time>
      </trkpt>
      <trkpt lat="44.76683" lon="0.44432">
        <ele>87.8</ele>
        <time>2022-07-14T08:07:37Z</time>
      </trkpt>
      <trkpt lat="44.76683" lon="0.44436">
        <ele>87.8</ele>
        <time>2022-07-14T08:07:39Z</time>
      </trkpt>
      <trkpt lat="44.76682" lon="0.44439">
        <ele>87.7</ele>
        <time>2022-07-14T08:07:40Z</time>
      </trkpt>
      <trkpt lat="44.76682" lon="0.44442">
        <ele>87.7</ele>
        <time>2022-07-14T08:07:41Z</time>
      </trkpt>
      <trkpt lat="44.76681" lon="0.44447">
        <ele>89.5</ele>
        <time>2022-07-14T08:07:43Z</time>
      </trkpt>
      <trkpt lat="44.7668" lon="0.44449">
        <ele>89.5</ele>
        <time>2022-07-14T08:07:44Z</time>
      </trkpt>
      <trkpt lat="44.76681" lon="0.44471">
        <ele>91.1</ele>
        <time>2022-07-14T08:08:08Z</time>
      </trkpt>
      <trkpt lat="44.76681" lon="0.44474">
        <ele>91.1</ele>
        <time>2022-07-14T08:08:09Z</time>
      </trkpt>
      <trkpt lat="44.76681" lon="0.44477">
        <ele>91.1</ele>
        <time>2022-07-14T08:08:10Z</time>
      </trkpt>
      <trkpt lat="44.76681" lon="0.4448">
        <ele>92.7</ele>
        <time>2022-07-14T08:08:11Z</time>
      </trkpt>
      <trkpt lat="44.76679" lon="0.44487">
        <ele>92.7</ele>
        <time>2022-07-14T08:08:13Z</time>
      </trkpt>
      <trkpt lat="44.76679" lon="0.44491">
        <ele>92.7</ele>
        <time>2022-07-14T08:08:15Z</time>
      </trkpt>
      <trkpt lat="44.76678" lon="0.44493">
        <ele>92.7</ele>
        <time>2022-07-14T08:08:16Z</time>
      </trkpt>
      <trkpt lat="44.76678" lon="0.44495">
        <ele>93.8</ele>
        <time>2022-07-14T08:08:17Z</time>
      </trkpt>
      <trkpt lat="44.76677" lon="0.44502">
        <ele>93.8</ele>
        <time>2022-07-14T08:08:19Z</time>
      </trkpt>
      <trkpt lat="44.76675" lon="0.4451">
        <ele>93.8</ele>
        <time>2022-07-14T08:08:21Z</time>
      </trkpt>
      <trkpt lat="44.76673" lon="0.44514">
        <ele>94.5</ele>
        <time>2022-07-14T08:08:22Z</time>
      </trkpt>
      <trkpt lat="44.76671" lon="0.44517">
        <ele>91.6</ele>
        <time>2022-07-14T08:08:23Z</time>
      </trkpt>
      <trkpt lat="44.76668" lon="0.44524">
        <ele>91.6</ele>
        <time>2022-07-14T08:08:25Z</time>
      </trkpt>
      <trkpt lat="44.76665" lon="0.44526">
        <ele>91.6</ele>
        <time>2022-07-14T08:08:26Z</time>
      </trkpt>
      <trkpt lat="44.76663" lon="0.44529">
        <ele>92.7</ele>
        <time>2022-07-14T08:08:27Z</time>
      </trkpt>
      <trkpt lat="44.76658" lon="0.44536">
        <ele>90</ele>
        <time>2022-07-14T08:08:29Z</time>
      </trkpt>
      <trkpt lat="44.76652" lon="0.44545">
        <ele>89.9</ele>
        <time>2022-07-14T08:08:31Z</time>
      </trkpt>
      <trkpt lat="44.76646" lon="0.44556">
        <ele>88.2</ele>
        <time>2022-07-14T08:08:33Z</time>
      </trkpt>
      <trkpt lat="44.76643" lon="0.44568">
        <ele>89.2</ele>
        <time>2022-07-14T08:08:35Z</time>
      </trkpt>
      <trkpt lat="44.76641" lon="0.44572">
        <ele>89.2</ele>
        <time>2022-07-14T08:08:36Z</time>
      </trkpt>
      <trkpt lat="44.7664" lon="0.44577">
        <ele>89.2</ele>
        <time>2022-07-14T08:08:37Z</time>
      </trkpt>
      <trkpt lat="44.76637" lon="0.44585">
        <ele>90</ele>
        <time>2022-07-14T08:08:39Z</time>
      </trkpt>
      <trkpt lat="44.76636" lon="0.44588">
        <ele>87</ele>
        <time>2022-07-14T08:08:40Z</time>
      </trkpt>
      <trkpt lat="44.76634" lon="0.44591">
        <ele>87</ele>
        <time>2022-07-14T08:08:41Z</time>
      </trkpt>
      <trkpt lat="44.76631" lon="0.44594">
        <ele>87</ele>
        <time>2022-07-14T08:08:42Z</time>
      </trkpt>
      <trkpt lat="44.7663" lon="0.44598">
        <ele>88</ele>
        <time>2022-07-14T08:08:43Z</time>
      </trkpt>
      <trkpt lat="44.76626" lon="0.44605">
        <ele>87.9</ele>
        <time>2022-07-14T08:08:45Z</time>
      </trkpt>
      <trkpt lat="44.76623" lon="0.44612">
        <ele>85.3</ele>
        <time>2022-07-14T08:08:47Z</time>
      </trkpt>
      <trkpt lat="44.76622" lon="0.44616">
        <ele>86.5</ele>
        <time>2022-07-14T08:08:48Z</time>
      </trkpt>
      <trkpt lat="44.7662" lon="0.44619">
        <ele>86.5</ele>
        <time>2022-07-14T08:08:49Z</time>
      </trkpt>
      <trkpt lat="44.76616" lon="0.44626">
        <ele>86.5</ele>
        <time>2022-07-14T08:08:51Z</time>
      </trkpt>
      <trkpt lat="44.76614" lon="0.4463">
        <ele>86.4</ele>
        <time>2022-07-14T08:08:52Z</time>
      </trkpt>
      <trkpt lat="44.76614" lon="0.44634">
        <ele>87.5</ele>
        <time>2022-07-14T08:08:53Z</time>
      </trkpt>
      <trkpt lat="44.76612" lon="0.44641">
        <ele>87.5</ele>
        <time>2022-07-14T08:08:55Z</time>
      </trkpt>
      <trkpt lat="44.76609" lon="0.44648">
        <ele>84.8</ele>
        <time>2022-07-14T08:08:57Z</time>
      </trkpt>
      <trkpt lat="44.76608" lon="0.4465">
        <ele>85.9</ele>
        <time>2022-07-14T08:08:58Z</time>
      </trkpt>
      <trkpt lat="44.76606" lon="0.44653">
        <ele>85.9</ele>
        <time>2022-07-14T08:08:59Z</time>
      </trkpt>
      <trkpt lat="44.76604" lon="0.44656">
        <ele>85.9</ele>
        <time>2022-07-14T08:09:00Z</time>
      </trkpt>
      <trkpt lat="44.76603" lon="0.44661">
        <ele>85.9</ele>
        <time>2022-07-14T08:09:01Z</time>
      </trkpt>
      <trkpt lat="44.76602" lon="0.44665">
        <ele>85.9</ele>
        <time>2022-07-14T08:09:02Z</time>
      </trkpt>
      <trkpt lat="44.76601" lon="0.4467">
        <ele>87</ele>
        <time>2022-07-14T08:09:03Z</time>
      </trkpt>
      <trkpt lat="44.76599" lon="0.44679">
        <ele>84.7</ele>
        <time>2022-07-14T08:09:05Z</time>
      </trkpt>
      <trkpt lat="44.76599" lon="0.44686">
        <ele>85.5</ele>
        <time>2022-07-14T08:09:07Z</time>
      </trkpt>
      <trkpt lat="44.76599" lon="0.4469">
        <ele>85.5</ele>
        <time>2022-07-14T08:09:08Z</time>
      </trkpt>
      <trkpt lat="44.766" lon="0.44693">
        <ele>87.8</ele>
        <time>2022-07-14T08:09:09Z</time>
      </trkpt>
      <trkpt lat="44.76603" lon="0.44698">
        <ele>87.8</ele>
        <time>2022-07-14T08:09:11Z</time>
      </trkpt>
      <trkpt lat="44.76605" lon="0.44704">
        <ele>88.5</ele>
        <time>2022-07-14T08:09:13Z</time>
      </trkpt>
      <trkpt lat="44.76607" lon="0.44709">
        <ele>88.5</ele>
        <time>2022-07-14T08:09:15Z</time>
      </trkpt>
      <trkpt lat="44.76609" lon="0.44714">
        <ele>88.5</ele>
        <time>2022-07-14T08:09:17Z</time>
      </trkpt>
      <trkpt lat="44.7661" lon="0.44716">
        <ele>88.4</ele>
        <time>2022-07-14T08:09:18Z</time>
      </trkpt>
      <trkpt lat="44.76611" lon="0.44719">
        <ele>89.1</ele>
        <time>2022-07-14T08:09:19Z</time>
      </trkpt>
      <trkpt lat="44.76613" lon="0.44725">
        <ele>91.1</ele>
        <time>2022-07-14T08:09:21Z</time>
      </trkpt>
      <trkpt lat="44.76613" lon="0.44727">
        <ele>91.1</ele>
        <time>2022-07-14T08:09:22Z</time>
      </trkpt>
      <trkpt lat="44.76613" lon="0.44731">
        <ele>91.1</ele>
        <time>2022-07-14T08:09:23Z</time>
      </trkpt>
      <trkpt lat="44.76613" lon="0.4474">
        <ele>91.6</ele>
        <time>2022-07-14T08:09:25Z</time>
      </trkpt>
      <trkpt lat="44.76614" lon="0.44751">
        <ele>91.5</ele>
        <time>2022-07-14T08:09:27Z</time>
      </trkpt>
      <trkpt lat="44.76614" lon="0.44756">
        <ele>91.8</ele>
        <time>2022-07-14T08:09:28Z</time>
      </trkpt>
      <trkpt lat="44.76614" lon="0.44758">
        <ele>91.8</ele>
        <time>2022-07-14T08:09:29Z</time>
      </trkpt>
      <trkpt lat="44.76617" lon="0.44765">
        <ele>91.8</ele>
        <time>2022-07-14T08:09:31Z</time>
      </trkpt>
      <trkpt lat="44.76619" lon="0.4477">
        <ele>91.9</ele>
        <time>2022-07-14T08:09:32Z</time>
      </trkpt>
      <trkpt lat="44.7662" lon="0.44773">
        <ele>91.9</ele>
        <time>2022-07-14T08:09:33Z</time>
      </trkpt>
      <trkpt lat="44.76621" lon="0.44779">
        <ele>91.9</ele>
        <time>2022-07-14T08:09:35Z</time>
      </trkpt>
      <trkpt lat="44.76623" lon="0.44787">
        <ele>92</ele>
        <time>2022-07-14T08:09:37Z</time>
      </trkpt>
      <trkpt lat="44.76623" lon="0.44793">
        <ele>92</ele>
        <time>2022-07-14T08:09:38Z</time>
      </trkpt>
      <trkpt lat="44.76624" lon="0.44797">
        <ele>92</ele>
        <time>2022-07-14T08:09:39Z</time>
      </trkpt>
      <trkpt lat="44.7663" lon="0.44806">
        <ele>92.9</ele>
        <time>2022-07-14T08:09:41Z</time>
      </trkpt>
      <trkpt lat="44.7663" lon="0.44809">
        <ele>92.9</ele>
        <time>2022-07-14T08:09:42Z</time>
      </trkpt>
      <trkpt lat="44.7663" lon="0.44812">
        <ele>92.9</ele>
        <time>2022-07-14T08:09:43Z</time>
      </trkpt>
      <trkpt lat="44.76632" lon="0.44818">
        <ele>92.9</ele>
        <time>2022-07-14T08:09:45Z</time>
      </trkpt>
      <trkpt lat="44.76634" lon="0.44821">
        <ele>92.9</ele>
        <time>2022-07-14T08:09:46Z</time>
      </trkpt>
      <trkpt lat="44.76634" lon="0.44823">
        <ele>92.9</ele>
        <time>2022-07-14T08:09:47Z</time>
      </trkpt>
      <trkpt lat="44.76637" lon="0.44829">
        <ele>94.3</ele>
        <time>2022-07-14T08:09:49Z</time>
      </trkpt>
      <trkpt lat="44.76638" lon="0.44832">
        <ele>94.3</ele>
        <time>2022-07-14T08:09:50Z</time>
      </trkpt>
      <trkpt lat="44.76639" lon="0.44834">
        <ele>94.3</ele>
        <time>2022-07-14T08:09:51Z</time>
      </trkpt>
      <trkpt lat="44.7664" lon="0.44839">
        <ele>94</ele>
        <time>2022-07-14T08:09:53Z</time>
      </trkpt>
      <trkpt lat="44.7664" lon="0.44842">
        <ele>94</ele>
        <time>2022-07-14T08:09:54Z</time>
      </trkpt>
      <trkpt lat="44.76641" lon="0.44844">
        <ele>94</ele>
        <time>2022-07-14T08:09:55Z</time>
      </trkpt>
      <trkpt lat="44.76642" lon="0.44847">
        <ele>94</ele>
        <time>2022-07-14T08:09:56Z</time>
      </trkpt>
      <trkpt lat="44.76643" lon="0.4485">
        <ele>94</ele>
        <time>2022-07-14T08:09:57Z</time>
      </trkpt>
      <trkpt lat="44.76644" lon="0.44853">
        <ele>94</ele>
        <time>2022-07-14T08:09:58Z</time>
      </trkpt>
      <trkpt lat="44.76646" lon="0.44855">
        <ele>93.8</ele>
        <time>2022-07-14T08:09:59Z</time>
      </trkpt>
      <trkpt lat="44.76647" lon="0.44861">
        <ele>93.8</ele>
        <time>2022-07-14T08:10:01Z</time>
      </trkpt>
      <trkpt lat="44.7665" lon="0.44865">
        <ele>94.6</ele>
        <time>2022-07-14T08:10:03Z</time>
      </trkpt>
      <trkpt lat="44.76652" lon="0.44869">
        <ele>94.6</ele>
        <time>2022-07-14T08:10:05Z</time>
      </trkpt>
      <trkpt lat="44.76654" lon="0.44873">
        <ele>94.6</ele>
        <time>2022-07-14T08:10:07Z</time>
      </trkpt>
      <trkpt lat="44.76656" lon="0.44878">
        <ele>94.6</ele>
        <time>2022-07-14T08:10:09Z</time>
      </trkpt>
      <trkpt lat="44.76657" lon="0.44879">
        <ele>94.6</ele>
        <time>2022-07-14T08:10:10Z</time>
      </trkpt>
      <trkpt lat="44.76659" lon="0.44881">
        <ele>94.6</ele>
        <time>2022-07-14T08:10:11Z</time>
      </trkpt>
      <trkpt lat="44.76661" lon="0.44882">
        <ele>95.5</ele>
        <time>2022-07-14T08:10:12Z</time>
      </trkpt>
      <trkpt lat="44.76662" lon="0.44883">
        <ele>95.5</ele>
        <time>2022-07-14T08:10:13Z</time>
      </trkpt>
      <trkpt lat="44.76664" lon="0.44885">
        <ele>95.5</ele>
        <time>2022-07-14T08:10:14Z</time>
      </trkpt>
      <trkpt lat="44.76666" lon="0.44887">
        <ele>95.5</ele>
        <time>2022-07-14T08:10:15Z</time>
      </trkpt>
      <trkpt lat="44.76668" lon="0.4489">
        <ele>95.7</ele>
        <time>2022-07-14T08:10:17Z</time>
      </trkpt>
      <trkpt lat="44.7667" lon="0.44897">
        <ele>95.7</ele>
        <time>2022-07-14T08:10:19Z</time>
      </trkpt>
      <trkpt lat="44.76671" lon="0.44902">
        <ele>95.7</ele>
        <time>2022-07-14T08:10:21Z</time>
      </trkpt>
      <trkpt lat="44.76673" lon="0.44907">
        <ele>96.7</ele>
        <time>2022-07-14T08:10:23Z</time>
      </trkpt>
      <trkpt lat="44.76673" lon="0.44915">
        <ele>96.7</ele>
        <time>2022-07-14T08:10:25Z</time>
      </trkpt>
      <trkpt lat="44.76673" lon="0.44918">
        <ele>96.6</ele>
        <time>2022-07-14T08:10:26Z</time>
      </trkpt>
      <trkpt lat="44.76671" lon="0.4492">
        <ele>95.8</ele>
        <time>2022-07-14T08:10:27Z</time>
      </trkpt>
      <trkpt lat="44.7667" lon="0.44923">
        <ele>95.7</ele>
        <time>2022-07-14T08:10:28Z</time>
      </trkpt>
      <trkpt lat="44.76671" lon="0.44927">
        <ele>95.8</ele>
        <time>2022-07-14T08:10:29Z</time>
      </trkpt>
      <trkpt lat="44.76673" lon="0.44934">
        <ele>96.8</ele>
        <time>2022-07-14T08:10:31Z</time>
      </trkpt>
      <trkpt lat="44.76673" lon="0.44938">
        <ele>96.8</ele>
        <time>2022-07-14T08:10:32Z</time>
      </trkpt>
      <trkpt lat="44.76673" lon="0.44944">
        <ele>97.1</ele>
        <time>2022-07-14T08:10:33Z</time>
      </trkpt>
      <trkpt lat="44.76674" lon="0.44953">
        <ele>97.1</ele>
        <time>2022-07-14T08:10:35Z</time>
      </trkpt>
      <trkpt lat="44.76675" lon="0.44956">
        <ele>97</ele>
        <time>2022-07-14T08:10:36Z</time>
      </trkpt>
      <trkpt lat="44.76675" lon="0.44959">
        <ele>97.1</ele>
        <time>2022-07-14T08:10:37Z</time>
      </trkpt>
      <trkpt lat="44.76676" lon="0.44963">
        <ele>97.1</ele>
        <time>2022-07-14T08:10:39Z</time>
      </trkpt>
      <trkpt lat="44.76677" lon="0.44966">
        <ele>97.1</ele>
        <time>2022-07-14T08:10:40Z</time>
      </trkpt>
      <trkpt lat="44.76678" lon="0.44967">
        <ele>97</ele>
        <time>2022-07-14T08:10:41Z</time>
      </trkpt>
      <trkpt lat="44.76679" lon="0.44969">
        <ele>97</ele>
        <time>2022-07-14T08:10:43Z</time>
      </trkpt>
      <trkpt lat="44.76681" lon="0.44979">
        <ele>96.8</ele>
        <time>2022-07-14T08:10:47Z</time>
      </trkpt>
      <trkpt lat="44.76679" lon="0.44989">
        <ele>96.8</ele>
        <time>2022-07-14T08:10:49Z</time>
      </trkpt>
      <trkpt lat="44.76678" lon="0.44999">
        <ele>96.7</ele>
        <time>2022-07-14T08:10:51Z</time>
      </trkpt>
      <trkpt lat="44.76678" lon="0.45003">
        <ele>96.7</ele>
        <time>2022-07-14T08:10:52Z</time>
      </trkpt>
      <trkpt lat="44.76679" lon="0.45006">
        <ele>96.7</ele>
        <time>2022-07-14T08:10:53Z</time>
      </trkpt>
      <trkpt lat="44.76679" lon="0.45012">
        <ele>96.7</ele>
        <time>2022-07-14T08:10:55Z</time>
      </trkpt>
      <trkpt lat="44.76678" lon="0.45019">
        <ele>96.7</ele>
        <time>2022-07-14T08:10:57Z</time>
      </trkpt>
      <trkpt lat="44.76678" lon="0.45023">
        <ele>96.7</ele>
        <time>2022-07-14T08:10:58Z</time>
      </trkpt>
      <trkpt lat="44.76678" lon="0.45025">
        <ele>96.7</ele>
        <time>2022-07-14T08:10:59Z</time>
      </trkpt>
      <trkpt lat="44.76676" lon="0.45032">
        <ele>96.8</ele>
        <time>2022-07-14T08:11:07Z</time>
      </trkpt>
      <trkpt lat="44.76676" lon="0.45034">
        <ele>96.8</ele>
        <time>2022-07-14T08:11:08Z</time>
      </trkpt>
      <trkpt lat="44.76676" lon="0.45036">
        <ele>96.8</ele>
        <time>2022-07-14T08:11:09Z</time>
      </trkpt>
      <trkpt lat="44.76675" lon="0.4504">
        <ele>96.8</ele>
        <time>2022-07-14T08:11:11Z</time>
      </trkpt>
      <trkpt lat="44.76672" lon="0.45045">
        <ele>95.2</ele>
        <time>2022-07-14T08:11:13Z</time>
      </trkpt>
      <trkpt lat="44.76671" lon="0.45051">
        <ele>95.1</ele>
        <time>2022-07-14T08:11:15Z</time>
      </trkpt>
      <trkpt lat="44.76671" lon="0.45056">
        <ele>95.1</ele>
        <time>2022-07-14T08:11:17Z</time>
      </trkpt>
      <trkpt lat="44.76671" lon="0.45065">
        <ele>95</ele>
        <time>2022-07-14T08:11:19Z</time>
      </trkpt>
      <trkpt lat="44.76672" lon="0.45074">
        <ele>95</ele>
        <time>2022-07-14T08:11:21Z</time>
      </trkpt>
      <trkpt lat="44.76671" lon="0.45076">
        <ele>95</ele>
        <time>2022-07-14T08:11:22Z</time>
      </trkpt>
      <trkpt lat="44.7667" lon="0.45078">
        <ele>95</ele>
        <time>2022-07-14T08:11:23Z</time>
      </trkpt>
      <trkpt lat="44.76669" lon="0.45083">
        <ele>94.6</ele>
        <time>2022-07-14T08:11:25Z</time>
      </trkpt>
      <trkpt lat="44.76667" lon="0.4509">
        <ele>94.6</ele>
        <time>2022-07-14T08:11:27Z</time>
      </trkpt>
      <trkpt lat="44.76667" lon="0.45091">
        <ele>94.6</ele>
        <time>2022-07-14T08:11:29Z</time>
      </trkpt>
      <trkpt lat="44.76665" lon="0.45097">
        <ele>93.8</ele>
        <time>2022-07-14T08:11:31Z</time>
      </trkpt>
      <trkpt lat="44.76664" lon="0.45103">
        <ele>93.8</ele>
        <time>2022-07-14T08:11:33Z</time>
      </trkpt>
      <trkpt lat="44.76662" lon="0.45109">
        <ele>93.8</ele>
        <time>2022-07-14T08:11:35Z</time>
      </trkpt>
      <trkpt lat="44.76661" lon="0.45113">
        <ele>92.8</ele>
        <time>2022-07-14T08:11:36Z</time>
      </trkpt>
      <trkpt lat="44.76661" lon="0.45117">
        <ele>92.8</ele>
        <time>2022-07-14T08:11:37Z</time>
      </trkpt>
      <trkpt lat="44.76652" lon="0.45126">
        <ele>90.9</ele>
        <time>2022-07-14T08:11:39Z</time>
      </trkpt>
      <trkpt lat="44.76652" lon="0.45126">
        <ele>90.9</ele>
        <time>2022-07-14T08:11:40Z</time>
      </trkpt>
      <trkpt lat="44.76652" lon="0.45126">
        <ele>90.9</ele>
        <time>2022-07-14T08:11:41Z</time>
      </trkpt>
      <trkpt lat="44.76652" lon="0.45129">
        <ele>90.9</ele>
        <time>2022-07-14T08:11:43Z</time>
      </trkpt>
      <trkpt lat="44.76653" lon="0.45132">
        <ele>90.8</ele>
        <time>2022-07-14T08:11:45Z</time>
      </trkpt>
      <trkpt lat="44.76654" lon="0.45137">
        <ele>90.8</ele>
        <time>2022-07-14T08:11:47Z</time>
      </trkpt>
      <trkpt lat="44.76654" lon="0.45138">
        <ele>90.8</ele>
        <time>2022-07-14T08:11:49Z</time>
      </trkpt>
      <trkpt lat="44.76654" lon="0.45138">
        <ele>90.8</ele>
        <time>2022-07-14T08:11:50Z</time>
      </trkpt>
      <trkpt lat="44.76654" lon="0.45138">
        <ele>90.8</ele>
        <time>2022-07-14T08:11:51Z</time>
      </trkpt>
      <trkpt lat="44.76654" lon="0.45138">
        <ele>90.8</ele>
        <time>2022-07-14T08:11:53Z</time>
      </trkpt>
      <trkpt lat="44.76654" lon="0.45138">
        <ele>90.8</ele>
        <time>2022-07-14T08:11:54Z</time>
      </trkpt>
      <trkpt lat="44.76654" lon="0.45138">
        <ele>90.8</ele>
        <time>2022-07-14T08:11:55Z</time>
      </trkpt>
      <trkpt lat="44.76654" lon="0.45138">
        <ele>90.8</ele>
        <time>2022-07-14T08:11:57Z</time>
      </trkpt>
      <trkpt lat="44.76654" lon="0.45138">
        <ele>90.8</ele>
        <time>2022-07-14T08:11:58Z</time>
      </trkpt>
      <trkpt lat="44.76654" lon="0.45138">
        <ele>90.8</ele>
        <time>2022-07-14T08:11:59Z</time>
      </trkpt>
      <trkpt lat="44.76651" lon="0.45145">
        <ele>90.8</ele>
        <time>2022-07-14T08:12:01Z</time>
      </trkpt>
      <trkpt lat="44.76654" lon="0.45138">
        <ele>90.8</ele>
        <time>2022-07-14T08:12:03Z</time>
      </trkpt>
      <trkpt lat="44.76654" lon="0.45138">
        <ele>90.8</ele>
        <time>2022-07-14T08:12:04Z</time>
      </trkpt>
      <trkpt lat="44.76654" lon="0.45138">
        <ele>90.8</ele>
        <time>2022-07-14T08:12:05Z</time>
      </trkpt>
      <trkpt lat="44.76648" lon="0.45152">
        <ele>91.1</ele>
        <time>2022-07-14T08:12:07Z</time>
      </trkpt>
      <trkpt lat="44.76646" lon="0.45157">
        <ele>91.2</ele>
        <time>2022-07-14T08:12:08Z</time>
      </trkpt>
      <trkpt lat="44.76645" lon="0.45161">
        <ele>91.3</ele>
        <time>2022-07-14T08:12:09Z</time>
      </trkpt>
      <trkpt lat="44.76644" lon="0.45164">
        <ele>91.3</ele>
        <time>2022-07-14T08:12:11Z</time>
      </trkpt>
      <trkpt lat="44.76643" lon="0.45168">
        <ele>91.4</ele>
        <time>2022-07-14T08:12:12Z</time>
      </trkpt>
      <trkpt lat="44.76643" lon="0.45169">
        <ele>91.5</ele>
        <time>2022-07-14T08:12:13Z</time>
      </trkpt>
      <trkpt lat="44.76642" lon="0.45175">
        <ele>91.6</ele>
        <time>2022-07-14T08:12:15Z</time>
      </trkpt>
      <trkpt lat="44.76641" lon="0.45183">
        <ele>91.9</ele>
        <time>2022-07-14T08:12:17Z</time>
      </trkpt>
      <trkpt lat="44.76642" lon="0.45193">
        <ele>92.3</ele>
        <time>2022-07-14T08:12:19Z</time>
      </trkpt>
      <trkpt lat="44.76642" lon="0.45198">
        <ele>92.5</ele>
        <time>2022-07-14T08:12:21Z</time>
      </trkpt>
      <trkpt lat="44.76643" lon="0.45203">
        <ele>92.7</ele>
        <time>2022-07-14T08:12:23Z</time>
      </trkpt>
      <trkpt lat="44.76643" lon="0.4521">
        <ele>93</ele>
        <time>2022-07-14T08:12:25Z</time>
      </trkpt>
      <trkpt lat="44.76643" lon="0.45211">
        <ele>93</ele>
        <time>2022-07-14T08:12:27Z</time>
      </trkpt>
      <trkpt lat="44.7665" lon="0.45229">
        <ele>93.6</ele>
        <time>2022-07-14T08:12:29Z</time>
      </trkpt>
      <trkpt lat="44.76653" lon="0.45245">
        <ele>93.9</ele>
        <time>2022-07-14T08:12:31Z</time>
      </trkpt>
      <trkpt lat="44.76654" lon="0.45252">
        <ele>93.9</ele>
        <time>2022-07-14T08:12:32Z</time>
      </trkpt>
      <trkpt lat="44.76655" lon="0.45259">
        <ele>93.7</ele>
        <time>2022-07-14T08:12:33Z</time>
      </trkpt>
      <trkpt lat="44.76655" lon="0.45275">
        <ele>92.8</ele>
        <time>2022-07-14T08:12:35Z</time>
      </trkpt>
      <trkpt lat="44.76654" lon="0.4528">
        <ele>92.5</ele>
        <time>2022-07-14T08:12:36Z</time>
      </trkpt>
      <trkpt lat="44.76653" lon="0.45282">
        <ele>92.4</ele>
        <time>2022-07-14T08:12:37Z</time>
      </trkpt>
      <trkpt lat="44.7665" lon="0.45299">
        <ele>91.3</ele>
        <time>2022-07-14T08:12:39Z</time>
      </trkpt>
      <trkpt lat="44.7665" lon="0.45299">
        <ele>91.1</ele>
        <time>2022-07-14T08:12:40Z</time>
      </trkpt>
      <trkpt lat="44.7665" lon="0.45299">
        <ele>91.1</ele>
        <time>2022-07-14T08:12:41Z</time>
      </trkpt>
      <trkpt lat="44.76651" lon="0.45303">
        <ele>90.1</ele>
        <time>2022-07-14T08:12:43Z</time>
      </trkpt>
      <trkpt lat="44.76652" lon="0.45306">
        <ele>89.2</ele>
        <time>2022-07-14T08:12:44Z</time>
      </trkpt>
      <trkpt lat="44.76653" lon="0.45309">
        <ele>88.6</ele>
        <time>2022-07-14T08:12:45Z</time>
      </trkpt>
      <trkpt lat="44.76654" lon="0.45312">
        <ele>87.7</ele>
        <time>2022-07-14T08:12:46Z</time>
      </trkpt>
      <trkpt lat="44.76656" lon="0.45315">
        <ele>86.7</ele>
        <time>2022-07-14T08:12:47Z</time>
      </trkpt>
      <trkpt lat="44.76658" lon="0.45321">
        <ele>85</ele>
        <time>2022-07-14T08:12:49Z</time>
      </trkpt>
      <trkpt lat="44.76662" lon="0.45327">
        <ele>84.5</ele>
        <time>2022-07-14T08:12:51Z</time>
      </trkpt>
      <trkpt lat="44.76666" lon="0.45332">
        <ele>84.8</ele>
        <time>2022-07-14T08:12:53Z</time>
      </trkpt>
      <trkpt lat="44.76671" lon="0.45339">
        <ele>85.2</ele>
        <time>2022-07-14T08:12:55Z</time>
      </trkpt>
      <trkpt lat="44.76677" lon="0.45346">
        <ele>85.6</ele>
        <time>2022-07-14T08:12:57Z</time>
      </trkpt>
      <trkpt lat="44.76681" lon="0.45352">
        <ele>85.8</ele>
        <time>2022-07-14T08:12:59Z</time>
      </trkpt>
      <trkpt lat="44.76683" lon="0.45354">
        <ele>85.9</ele>
        <time>2022-07-14T08:13:00Z</time>
      </trkpt>
      <trkpt lat="44.76685" lon="0.45356">
        <ele>86</ele>
        <time>2022-07-14T08:13:01Z</time>
      </trkpt>
      <trkpt lat="44.76688" lon="0.4536">
        <ele>86.2</ele>
        <time>2022-07-14T08:13:03Z</time>
      </trkpt>
      <trkpt lat="44.76691" lon="0.45364">
        <ele>86.3</ele>
        <time>2022-07-14T08:13:05Z</time>
      </trkpt>
      <trkpt lat="44.76694" lon="0.45368">
        <ele>86.4</ele>
        <time>2022-07-14T08:13:07Z</time>
      </trkpt>
      <trkpt lat="44.76698" lon="0.45372">
        <ele>86.6</ele>
        <time>2022-07-14T08:13:09Z</time>
      </trkpt>
      <trkpt lat="44.76702" lon="0.45377">
        <ele>86.7</ele>
        <time>2022-07-14T08:13:11Z</time>
      </trkpt>
      <trkpt lat="44.76705" lon="0.4538">
        <ele>86.8</ele>
        <time>2022-07-14T08:13:13Z</time>
      </trkpt>
      <trkpt lat="44.76708" lon="0.45382">
        <ele>87</ele>
        <time>2022-07-14T08:13:15Z</time>
      </trkpt>
      <trkpt lat="44.76712" lon="0.45385">
        <ele>87.2</ele>
        <time>2022-07-14T08:13:17Z</time>
      </trkpt>
      <trkpt lat="44.76716" lon="0.45389">
        <ele>87.5</ele>
        <time>2022-07-14T08:13:19Z</time>
      </trkpt>
      <trkpt lat="44.7672" lon="0.45391">
        <ele>87.8</ele>
        <time>2022-07-14T08:13:21Z</time>
      </trkpt>
      <trkpt lat="44.76721" lon="0.45392">
        <ele>87.9</ele>
        <time>2022-07-14T08:13:22Z</time>
      </trkpt>
      <trkpt lat="44.76722" lon="0.45393">
        <ele>88</ele>
        <time>2022-07-14T08:13:23Z</time>
      </trkpt>
      <trkpt lat="44.76725" lon="0.45395">
        <ele>88.3</ele>
        <time>2022-07-14T08:13:25Z</time>
      </trkpt>
      <trkpt lat="44.76727" lon="0.45396">
        <ele>88.5</ele>
        <time>2022-07-14T08:13:27Z</time>
      </trkpt>
      <trkpt lat="44.76728" lon="0.45396">
        <ele>88.7</ele>
        <time>2022-07-14T08:13:28Z</time>
      </trkpt>
      <trkpt lat="44.7673" lon="0.45397">
        <ele>88.9</ele>
        <time>2022-07-14T08:13:29Z</time>
      </trkpt>
      <trkpt lat="44.76733" lon="0.45398">
        <ele>89.2</ele>
        <time>2022-07-14T08:13:31Z</time>
      </trkpt>
      <trkpt lat="44.76736" lon="0.454">
        <ele>89.7</ele>
        <time>2022-07-14T08:13:33Z</time>
      </trkpt>
      <trkpt lat="44.7674" lon="0.45402">
        <ele>90.2</ele>
        <time>2022-07-14T08:13:35Z</time>
      </trkpt>
      <trkpt lat="44.76743" lon="0.45403">
        <ele>90.7</ele>
        <time>2022-07-14T08:13:37Z</time>
      </trkpt>
      <trkpt lat="44.76746" lon="0.45404">
        <ele>91.1</ele>
        <time>2022-07-14T08:13:39Z</time>
      </trkpt>
      <trkpt lat="44.76747" lon="0.45405">
        <ele>91.3</ele>
        <time>2022-07-14T08:13:40Z</time>
      </trkpt>
      <trkpt lat="44.76748" lon="0.45406">
        <ele>91.5</ele>
        <time>2022-07-14T08:13:41Z</time>
      </trkpt>
      <trkpt lat="44.7675" lon="0.45406">
        <ele>91.7</ele>
        <time>2022-07-14T08:13:43Z</time>
      </trkpt>
      <trkpt lat="44.76773" lon="0.45422">
        <ele>95.2</ele>
        <time>2022-07-14T08:14:00Z</time>
      </trkpt>
      <trkpt lat="44.76775" lon="0.45424">
        <ele>95.4</ele>
        <time>2022-07-14T08:14:01Z</time>
      </trkpt>
      <trkpt lat="44.76778" lon="0.45426">
        <ele>95.7</ele>
        <time>2022-07-14T08:14:03Z</time>
      </trkpt>
      <trkpt lat="44.7678" lon="0.45428">
        <ele>96</ele>
        <time>2022-07-14T08:14:04Z</time>
      </trkpt>
      <trkpt lat="44.76781" lon="0.45429">
        <ele>96.1</ele>
        <time>2022-07-14T08:14:05Z</time>
      </trkpt>
      <trkpt lat="44.76785" lon="0.45432">
        <ele>96.5</ele>
        <time>2022-07-14T08:14:07Z</time>
      </trkpt>
      <trkpt lat="44.76789" lon="0.45435">
        <ele>96.8</ele>
        <time>2022-07-14T08:14:09Z</time>
      </trkpt>
      <trkpt lat="44.76791" lon="0.45437">
        <ele>96.9</ele>
        <time>2022-07-14T08:14:10Z</time>
      </trkpt>
      <trkpt lat="44.76796" lon="0.45439">
        <ele>97.1</ele>
        <time>2022-07-14T08:14:11Z</time>
      </trkpt>
      <trkpt lat="44.76798" lon="0.4544">
        <ele>97.3</ele>
        <time>2022-07-14T08:14:13Z</time>
      </trkpt>
      <trkpt lat="44.768" lon="0.45441">
        <ele>97.4</ele>
        <time>2022-07-14T08:14:15Z</time>
      </trkpt>
      <trkpt lat="44.76803" lon="0.45442">
        <ele>97.5</ele>
        <time>2022-07-14T08:14:16Z</time>
      </trkpt>
      <trkpt lat="44.76805" lon="0.45443">
        <ele>97.7</ele>
        <time>2022-07-14T08:14:17Z</time>
      </trkpt>
      <trkpt lat="44.76809" lon="0.4544">
        <ele>97.9</ele>
        <time>2022-07-14T08:14:19Z</time>
      </trkpt>
      <trkpt lat="44.76813" lon="0.45438">
        <ele>98.2</ele>
        <time>2022-07-14T08:14:21Z</time>
      </trkpt>
      <trkpt lat="44.76817" lon="0.45435">
        <ele>98.5</ele>
        <time>2022-07-14T08:14:23Z</time>
      </trkpt>
      <trkpt lat="44.76821" lon="0.45434">
        <ele>98.8</ele>
        <time>2022-07-14T08:14:25Z</time>
      </trkpt>
      <trkpt lat="44.76825" lon="0.45433">
        <ele>99.1</ele>
        <time>2022-07-14T08:14:27Z</time>
      </trkpt>
      <trkpt lat="44.7683" lon="0.45432">
        <ele>99.4</ele>
        <time>2022-07-14T08:14:29Z</time>
      </trkpt>
      <trkpt lat="44.76834" lon="0.45431">
        <ele>99.6</ele>
        <time>2022-07-14T08:14:31Z</time>
      </trkpt>
      <trkpt lat="44.76838" lon="0.4543">
        <ele>99.7</ele>
        <time>2022-07-14T08:14:33Z</time>
      </trkpt>
      <trkpt lat="44.76843" lon="0.4543">
        <ele>99.9</ele>
        <time>2022-07-14T08:14:35Z</time>
      </trkpt>
      <trkpt lat="44.76847" lon="0.45429">
        <ele>100.1</ele>
        <time>2022-07-14T08:14:37Z</time>
      </trkpt>
      <trkpt lat="44.76851" lon="0.45428">
        <ele>100.2</ele>
        <time>2022-07-14T08:14:39Z</time>
      </trkpt>
      <trkpt lat="44.76855" lon="0.45427">
        <ele>100.3</ele>
        <time>2022-07-14T08:14:41Z</time>
      </trkpt>
      <trkpt lat="44.76859" lon="0.45426">
        <ele>100.5</ele>
        <time>2022-07-14T08:14:43Z</time>
      </trkpt>
      <trkpt lat="44.76863" lon="0.45426">
        <ele>100.6</ele>
        <time>2022-07-14T08:14:45Z</time>
      </trkpt>
      <trkpt lat="44.76865" lon="0.45425">
        <ele>100.7</ele>
        <time>2022-07-14T08:14:46Z</time>
      </trkpt>
      <trkpt lat="44.76867" lon="0.45425">
        <ele>100.8</ele>
        <time>2022-07-14T08:14:47Z</time>
      </trkpt>
      <trkpt lat="44.76871" lon="0.45424">
        <ele>100.9</ele>
        <time>2022-07-14T08:14:49Z</time>
      </trkpt>
      <trkpt lat="44.76875" lon="0.45423">
        <ele>101.1</ele>
        <time>2022-07-14T08:14:51Z</time>
      </trkpt>
      <trkpt lat="44.76877" lon="0.45423">
        <ele>101.2</ele>
        <time>2022-07-14T08:14:52Z</time>
      </trkpt>
      <trkpt lat="44.76879" lon="0.45422">
        <ele>101.2</ele>
        <time>2022-07-14T08:14:53Z</time>
      </trkpt>
      <trkpt lat="44.76883" lon="0.45422">
        <ele>101.4</ele>
        <time>2022-07-14T08:14:55Z</time>
      </trkpt>
      <trkpt lat="44.76887" lon="0.45421">
        <ele>101.5</ele>
        <time>2022-07-14T08:14:57Z</time>
      </trkpt>
      <trkpt lat="44.76891" lon="0.4542">
        <ele>101.7</ele>
        <time>2022-07-14T08:14:59Z</time>
      </trkpt>
      <trkpt lat="44.76896" lon="0.45419">
        <ele>101.9</ele>
        <time>2022-07-14T08:15:01Z</time>
      </trkpt>
      <trkpt lat="44.769" lon="0.45418">
        <ele>102.1</ele>
        <time>2022-07-14T08:15:03Z</time>
      </trkpt>
      <trkpt lat="44.76905" lon="0.45417">
        <ele>102.3</ele>
        <time>2022-07-14T08:15:05Z</time>
      </trkpt>
      <trkpt lat="44.76907" lon="0.45417">
        <ele>102.4</ele>
        <time>2022-07-14T08:15:06Z</time>
      </trkpt>
      <trkpt lat="44.7691" lon="0.45416">
        <ele>102.5</ele>
        <time>2022-07-14T08:15:07Z</time>
      </trkpt>
      <trkpt lat="44.76914" lon="0.45416">
        <ele>102.8</ele>
        <time>2022-07-14T08:15:09Z</time>
      </trkpt>
      <trkpt lat="44.76919" lon="0.45415">
        <ele>103</ele>
        <time>2022-07-14T08:15:11Z</time>
      </trkpt>
      <trkpt lat="44.76921" lon="0.45414">
        <ele>103.1</ele>
        <time>2022-07-14T08:15:12Z</time>
      </trkpt>
      <trkpt lat="44.76924" lon="0.45414">
        <ele>103.3</ele>
        <time>2022-07-14T08:15:13Z</time>
      </trkpt>
      <trkpt lat="44.76928" lon="0.45413">
        <ele>103.5</ele>
        <time>2022-07-14T08:15:15Z</time>
      </trkpt>
      <trkpt lat="44.76933" lon="0.45412">
        <ele>103.8</ele>
        <time>2022-07-14T08:15:17Z</time>
      </trkpt>
      <trkpt lat="44.76936" lon="0.45411">
        <ele>104</ele>
        <time>2022-07-14T08:15:18Z</time>
      </trkpt>
      <trkpt lat="44.76939" lon="0.45411">
        <ele>104.2</ele>
        <time>2022-07-14T08:15:19Z</time>
      </trkpt>
      <trkpt lat="44.76944" lon="0.45412">
        <ele>104.6</ele>
        <time>2022-07-14T08:15:21Z</time>
      </trkpt>
      <trkpt lat="44.7695" lon="0.45412">
        <ele>105</ele>
        <time>2022-07-14T08:15:23Z</time>
      </trkpt>
      <trkpt lat="44.76952" lon="0.45413">
        <ele>105.1</ele>
        <time>2022-07-14T08:15:24Z</time>
      </trkpt>
      <trkpt lat="44.76954" lon="0.45413">
        <ele>105.3</ele>
        <time>2022-07-14T08:15:25Z</time>
      </trkpt>
      <trkpt lat="44.76959" lon="0.45414">
        <ele>105.7</ele>
        <time>2022-07-14T08:15:27Z</time>
      </trkpt>
      <trkpt lat="44.76963" lon="0.45415">
        <ele>106</ele>
        <time>2022-07-14T08:15:29Z</time>
      </trkpt>
      <trkpt lat="44.76966" lon="0.45415">
        <ele>106.2</ele>
        <time>2022-07-14T08:15:30Z</time>
      </trkpt>
      <trkpt lat="44.76968" lon="0.45416">
        <ele>106.4</ele>
        <time>2022-07-14T08:15:31Z</time>
      </trkpt>
      <trkpt lat="44.76972" lon="0.45417">
        <ele>106.7</ele>
        <time>2022-07-14T08:15:33Z</time>
      </trkpt>
      <trkpt lat="44.76977" lon="0.45419">
        <ele>107</ele>
        <time>2022-07-14T08:15:35Z</time>
      </trkpt>
      <trkpt lat="44.76979" lon="0.45421">
        <ele>107.2</ele>
        <time>2022-07-14T08:15:36Z</time>
      </trkpt>
      <trkpt lat="44.76982" lon="0.45422">
        <ele>107.3</ele>
        <time>2022-07-14T08:15:37Z</time>
      </trkpt>
      <trkpt lat="44.76986" lon="0.45424">
        <ele>107.6</ele>
        <time>2022-07-14T08:15:39Z</time>
      </trkpt>
      <trkpt lat="44.7699" lon="0.45427">
        <ele>107.8</ele>
        <time>2022-07-14T08:15:41Z</time>
      </trkpt>
      <trkpt lat="44.76995" lon="0.45429">
        <ele>108</ele>
        <time>2022-07-14T08:15:43Z</time>
      </trkpt>
      <trkpt lat="44.76999" lon="0.45432">
        <ele>108.3</ele>
        <time>2022-07-14T08:15:45Z</time>
      </trkpt>
      <trkpt lat="44.77004" lon="0.45435">
        <ele>108.6</ele>
        <time>2022-07-14T08:15:47Z</time>
      </trkpt>
      <trkpt lat="44.77009" lon="0.45438">
        <ele>108.8</ele>
        <time>2022-07-14T08:15:49Z</time>
      </trkpt>
      <trkpt lat="44.77013" lon="0.4544">
        <ele>109.1</ele>
        <time>2022-07-14T08:15:51Z</time>
      </trkpt>
      <trkpt lat="44.77018" lon="0.45444">
        <ele>109.3</ele>
        <time>2022-07-14T08:15:53Z</time>
      </trkpt>
      <trkpt lat="44.77023" lon="0.45447">
        <ele>109.5</ele>
        <time>2022-07-14T08:15:55Z</time>
      </trkpt>
      <trkpt lat="44.77027" lon="0.45451">
        <ele>109.7</ele>
        <time>2022-07-14T08:15:57Z</time>
      </trkpt>
      <trkpt lat="44.77033" lon="0.45455">
        <ele>109.7</ele>
        <time>2022-07-14T08:15:59Z</time>
      </trkpt>
      <trkpt lat="44.77038" lon="0.45459">
        <ele>109.7</ele>
        <time>2022-07-14T08:16:01Z</time>
      </trkpt>
      <trkpt lat="44.77045" lon="0.45464">
        <ele>109.4</ele>
        <time>2022-07-14T08:16:03Z</time>
      </trkpt>
      <trkpt lat="44.77049" lon="0.45467">
        <ele>109.2</ele>
        <time>2022-07-14T08:16:04Z</time>
      </trkpt>
      <trkpt lat="44.77053" lon="0.4547">
        <ele>108.9</ele>
        <time>2022-07-14T08:16:05Z</time>
      </trkpt>
      <trkpt lat="44.77057" lon="0.45473">
        <ele>108.6</ele>
        <time>2022-07-14T08:16:06Z</time>
      </trkpt>
      <trkpt lat="44.77061" lon="0.45476">
        <ele>108.3</ele>
        <time>2022-07-14T08:16:07Z</time>
      </trkpt>
      <trkpt lat="44.7707" lon="0.45478">
        <ele>107.6</ele>
        <time>2022-07-14T08:16:09Z</time>
      </trkpt>
      <trkpt lat="44.77082" lon="0.4548">
        <ele>107</ele>
        <time>2022-07-14T08:16:11Z</time>
      </trkpt>
      <trkpt lat="44.77088" lon="0.45481">
        <ele>106.7</ele>
        <time>2022-07-14T08:16:12Z</time>
      </trkpt>
      <trkpt lat="44.77092" lon="0.45483">
        <ele>106.6</ele>
        <time>2022-07-14T08:16:13Z</time>
      </trkpt>
      <trkpt lat="44.77102" lon="0.45496">
        <ele>102.8</ele>
        <time>2022-07-14T08:16:15Z</time>
      </trkpt>
      <trkpt lat="44.77099" lon="0.45505">
        <ele>102.6</ele>
        <time>2022-07-14T08:16:17Z</time>
      </trkpt>
      <trkpt lat="44.77097" lon="0.45517">
        <ele>102.3</ele>
        <time>2022-07-14T08:16:19Z</time>
      </trkpt>
      <trkpt lat="44.77094" lon="0.4553">
        <ele>102</ele>
        <time>2022-07-14T08:16:21Z</time>
      </trkpt>
      <trkpt lat="44.77092" lon="0.45537">
        <ele>101.8</ele>
        <time>2022-07-14T08:16:22Z</time>
      </trkpt>
      <trkpt lat="44.77091" lon="0.45544">
        <ele>101.6</ele>
        <time>2022-07-14T08:16:23Z</time>
      </trkpt>
      <trkpt lat="44.77088" lon="0.45558">
        <ele>101.2</ele>
        <time>2022-07-14T08:16:25Z</time>
      </trkpt>
      <trkpt lat="44.77085" lon="0.45572">
        <ele>100.8</ele>
        <time>2022-07-14T08:16:27Z</time>
      </trkpt>
      <trkpt lat="44.77081" lon="0.45586">
        <ele>100.4</ele>
        <time>2022-07-14T08:16:29Z</time>
      </trkpt>
      <trkpt lat="44.7708" lon="0.45593">
        <ele>100.3</ele>
        <time>2022-07-14T08:16:30Z</time>
      </trkpt>
      <trkpt lat="44.77078" lon="0.45599">
        <ele>100.1</ele>
        <time>2022-07-14T08:16:31Z</time>
      </trkpt>
      <trkpt lat="44.77075" lon="0.45613">
        <ele>99.7</ele>
        <time>2022-07-14T08:16:33Z</time>
      </trkpt>
      <trkpt lat="44.77072" lon="0.45627">
        <ele>99.2</ele>
        <time>2022-07-14T08:16:35Z</time>
      </trkpt>
      <trkpt lat="44.77068" lon="0.45641">
        <ele>98.8</ele>
        <time>2022-07-14T08:16:37Z</time>
      </trkpt>
      <trkpt lat="44.77066" lon="0.45648">
        <ele>98.6</ele>
        <time>2022-07-14T08:16:38Z</time>
      </trkpt>
      <trkpt lat="44.77064" lon="0.45655">
        <ele>98.4</ele>
        <time>2022-07-14T08:16:39Z</time>
      </trkpt>
      <trkpt lat="44.77063" lon="0.4566">
        <ele>98.2</ele>
        <time>2022-07-14T08:16:40Z</time>
      </trkpt>
      <trkpt lat="44.77067" lon="0.4567">
        <ele>97.9</ele>
        <time>2022-07-14T08:16:41Z</time>
      </trkpt>
      <trkpt lat="44.7707" lon="0.4567">
        <ele>98</ele>
        <time>2022-07-14T08:16:42Z</time>
      </trkpt>
      <trkpt lat="44.77074" lon="0.4567">
        <ele>98.1</ele>
        <time>2022-07-14T08:16:43Z</time>
      </trkpt>
      <trkpt lat="44.77078" lon="0.45669">
        <ele>98.2</ele>
        <time>2022-07-14T08:16:44Z</time>
      </trkpt>
      <trkpt lat="44.77082" lon="0.45669">
        <ele>98.3</ele>
        <time>2022-07-14T08:16:45Z</time>
      </trkpt>
      <trkpt lat="44.77089" lon="0.45669">
        <ele>98.6</ele>
        <time>2022-07-14T08:16:47Z</time>
      </trkpt>
      <trkpt lat="44.77095" lon="0.45668">
        <ele>98.9</ele>
        <time>2022-07-14T08:16:49Z</time>
      </trkpt>
      <trkpt lat="44.77101" lon="0.45668">
        <ele>99.3</ele>
        <time>2022-07-14T08:16:51Z</time>
      </trkpt>
      <trkpt lat="44.77106" lon="0.45667">
        <ele>99.7</ele>
        <time>2022-07-14T08:16:53Z</time>
      </trkpt>
      <trkpt lat="44.77112" lon="0.45667">
        <ele>100.1</ele>
        <time>2022-07-14T08:16:55Z</time>
      </trkpt>
      <trkpt lat="44.77118" lon="0.45667">
        <ele>100.7</ele>
        <time>2022-07-14T08:16:57Z</time>
      </trkpt>
      <trkpt lat="44.77121" lon="0.45666">
        <ele>100.9</ele>
        <time>2022-07-14T08:16:58Z</time>
      </trkpt>
      <trkpt lat="44.77123" lon="0.45666">
        <ele>101.1</ele>
        <time>2022-07-14T08:16:59Z</time>
      </trkpt>
      <trkpt lat="44.77128" lon="0.45666">
        <ele>101.5</ele>
        <time>2022-07-14T08:17:01Z</time>
      </trkpt>
      <trkpt lat="44.77133" lon="0.45666">
        <ele>102</ele>
        <time>2022-07-14T08:17:03Z</time>
      </trkpt>
      <trkpt lat="44.77135" lon="0.45666">
        <ele>102.2</ele>
        <time>2022-07-14T08:17:04Z</time>
      </trkpt>
      <trkpt lat="44.77137" lon="0.45665">
        <ele>102.4</ele>
        <time>2022-07-14T08:17:05Z</time>
      </trkpt>
      <trkpt lat="44.77142" lon="0.45665">
        <ele>102.9</ele>
        <time>2022-07-14T08:17:07Z</time>
      </trkpt>
      <trkpt lat="44.77146" lon="0.45665">
        <ele>103.3</ele>
        <time>2022-07-14T08:17:09Z</time>
      </trkpt>
      <trkpt lat="44.77148" lon="0.45665">
        <ele>103.5</ele>
        <time>2022-07-14T08:17:10Z</time>
      </trkpt>
      <trkpt lat="44.77151" lon="0.45664">
        <ele>103.7</ele>
        <time>2022-07-14T08:17:11Z</time>
      </trkpt>
      <trkpt lat="44.77155" lon="0.45664">
        <ele>104.1</ele>
        <time>2022-07-14T08:17:13Z</time>
      </trkpt>
      <trkpt lat="44.77159" lon="0.45664">
        <ele>104.5</ele>
        <time>2022-07-14T08:17:15Z</time>
      </trkpt>
      <trkpt lat="44.77163" lon="0.45664">
        <ele>104.9</ele>
        <time>2022-07-14T08:17:17Z</time>
      </trkpt>
      <trkpt lat="44.77165" lon="0.45664">
        <ele>105.1</ele>
        <time>2022-07-14T08:17:18Z</time>
      </trkpt>
      <trkpt lat="44.77167" lon="0.45663">
        <ele>105.3</ele>
        <time>2022-07-14T08:17:19Z</time>
      </trkpt>
      <trkpt lat="44.77171" lon="0.45663">
        <ele>105.7</ele>
        <time>2022-07-14T08:17:21Z</time>
      </trkpt>
      <trkpt lat="44.77175" lon="0.45663">
        <ele>106.1</ele>
        <time>2022-07-14T08:17:23Z</time>
      </trkpt>
      <trkpt lat="44.7718" lon="0.45663">
        <ele>106.5</ele>
        <time>2022-07-14T08:17:25Z</time>
      </trkpt>
      <trkpt lat="44.77184" lon="0.45662">
        <ele>106.9</ele>
        <time>2022-07-14T08:17:27Z</time>
      </trkpt>
      <trkpt lat="44.77188" lon="0.45662">
        <ele>107.3</ele>
        <time>2022-07-14T08:17:29Z</time>
      </trkpt>
      <trkpt lat="44.77191" lon="0.45661">
        <ele>107.4</ele>
        <time>2022-07-14T08:17:30Z</time>
      </trkpt>
      <trkpt lat="44.77193" lon="0.45661">
        <ele>107.6</ele>
        <time>2022-07-14T08:17:31Z</time>
      </trkpt>
      <trkpt lat="44.77197" lon="0.4566">
        <ele>108</ele>
        <time>2022-07-14T08:17:33Z</time>
      </trkpt>
      <trkpt lat="44.77201" lon="0.45659">
        <ele>108.3</ele>
        <time>2022-07-14T08:17:35Z</time>
      </trkpt>
      <trkpt lat="44.77203" lon="0.45658">
        <ele>108.4</ele>
        <time>2022-07-14T08:17:36Z</time>
      </trkpt>
      <trkpt lat="44.77205" lon="0.45658">
        <ele>108.5</ele>
        <time>2022-07-14T08:17:37Z</time>
      </trkpt>
      <trkpt lat="44.77209" lon="0.45657">
        <ele>108.8</ele>
        <time>2022-07-14T08:17:39Z</time>
      </trkpt>
      <trkpt lat="44.7721" lon="0.45656">
        <ele>109</ele>
        <time>2022-07-14T08:17:40Z</time>
      </trkpt>
      <trkpt lat="44.77212" lon="0.45656">
        <ele>109.1</ele>
        <time>2022-07-14T08:17:41Z</time>
      </trkpt>
      <trkpt lat="44.77217" lon="0.45657">
        <ele>109.4</ele>
        <time>2022-07-14T08:17:43Z</time>
      </trkpt>
      <trkpt lat="44.7722" lon="0.4566">
        <ele>109.6</ele>
        <time>2022-07-14T08:17:45Z</time>
      </trkpt>
      <trkpt lat="44.77225" lon="0.4566">
        <ele>109.9</ele>
        <time>2022-07-14T08:17:47Z</time>
      </trkpt>
      <trkpt lat="44.77227" lon="0.45659">
        <ele>110</ele>
        <time>2022-07-14T08:17:48Z</time>
      </trkpt>
      <trkpt lat="44.7723" lon="0.45659">
        <ele>110.1</ele>
        <time>2022-07-14T08:17:49Z</time>
      </trkpt>
      <trkpt lat="44.77234" lon="0.45659">
        <ele>110.4</ele>
        <time>2022-07-14T08:17:51Z</time>
      </trkpt>
      <trkpt lat="44.77239" lon="0.45658">
        <ele>110.6</ele>
        <time>2022-07-14T08:17:53Z</time>
      </trkpt>
      <trkpt lat="44.77243" lon="0.45658">
        <ele>110.7</ele>
        <time>2022-07-14T08:17:55Z</time>
      </trkpt>
      <trkpt lat="44.77248" lon="0.45658">
        <ele>110.9</ele>
        <time>2022-07-14T08:17:57Z</time>
      </trkpt>
      <trkpt lat="44.7725" lon="0.45658">
        <ele>111</ele>
        <time>2022-07-14T08:17:58Z</time>
      </trkpt>
      <trkpt lat="44.77252" lon="0.45658">
        <ele>111</ele>
        <time>2022-07-14T08:17:59Z</time>
      </trkpt>
      <trkpt lat="44.77258" lon="0.45657">
        <ele>111.1</ele>
        <time>2022-07-14T08:18:01Z</time>
      </trkpt>
      <trkpt lat="44.77264" lon="0.45657">
        <ele>111.2</ele>
        <time>2022-07-14T08:18:03Z</time>
      </trkpt>
      <trkpt lat="44.7727" lon="0.45656">
        <ele>111.2</ele>
        <time>2022-07-14T08:18:05Z</time>
      </trkpt>
      <trkpt lat="44.77276" lon="0.45656">
        <ele>111.1</ele>
        <time>2022-07-14T08:18:07Z</time>
      </trkpt>
      <trkpt lat="44.77284" lon="0.45655">
        <ele>110.9</ele>
        <time>2022-07-14T08:18:09Z</time>
      </trkpt>
      <trkpt lat="44.77287" lon="0.45655">
        <ele>110.9</ele>
        <time>2022-07-14T08:18:10Z</time>
      </trkpt>
      <trkpt lat="44.77291" lon="0.45655">
        <ele>110.8</ele>
        <time>2022-07-14T08:18:11Z</time>
      </trkpt>
      <trkpt lat="44.77298" lon="0.45654">
        <ele>110.6</ele>
        <time>2022-07-14T08:18:13Z</time>
      </trkpt>
      <trkpt lat="44.77306" lon="0.45654">
        <ele>110.4</ele>
        <time>2022-07-14T08:18:15Z</time>
      </trkpt>
      <trkpt lat="44.77315" lon="0.45653">
        <ele>110.1</ele>
        <time>2022-07-14T08:18:17Z</time>
      </trkpt>
      <trkpt lat="44.77324" lon="0.45652">
        <ele>109.9</ele>
        <time>2022-07-14T08:18:19Z</time>
      </trkpt>
      <trkpt lat="44.77329" lon="0.45651">
        <ele>109.7</ele>
        <time>2022-07-14T08:18:20Z</time>
      </trkpt>
      <trkpt lat="44.77333" lon="0.45651">
        <ele>109.6</ele>
        <time>2022-07-14T08:18:21Z</time>
      </trkpt>
      <trkpt lat="44.77342" lon="0.4565">
        <ele>109.4</ele>
        <time>2022-07-14T08:18:23Z</time>
      </trkpt>
      <trkpt lat="44.77351" lon="0.45649">
        <ele>109.3</ele>
        <time>2022-07-14T08:18:25Z</time>
      </trkpt>
      <trkpt lat="44.77358" lon="0.45649">
        <ele>109.3</ele>
        <time>2022-07-14T08:18:27Z</time>
      </trkpt>
      <trkpt lat="44.77365" lon="0.45649">
        <ele>109.4</ele>
        <time>2022-07-14T08:18:29Z</time>
      </trkpt>
      <trkpt lat="44.77372" lon="0.45649">
        <ele>109.5</ele>
        <time>2022-07-14T08:18:31Z</time>
      </trkpt>
      <trkpt lat="44.77379" lon="0.45649">
        <ele>109.6</ele>
        <time>2022-07-14T08:18:33Z</time>
      </trkpt>
      <trkpt lat="44.77383" lon="0.45649">
        <ele>109.7</ele>
        <time>2022-07-14T08:18:34Z</time>
      </trkpt>
      <trkpt lat="44.77387" lon="0.45649">
        <ele>109.7</ele>
        <time>2022-07-14T08:18:35Z</time>
      </trkpt>
      <trkpt lat="44.77393" lon="0.45649">
        <ele>109.7</ele>
        <time>2022-07-14T08:18:37Z</time>
      </trkpt>
      <trkpt lat="44.77397" lon="0.45648">
        <ele>109.7</ele>
        <time>2022-07-14T08:18:38Z</time>
      </trkpt>
      <trkpt lat="44.77401" lon="0.45647">
        <ele>109.6</ele>
        <time>2022-07-14T08:18:39Z</time>
      </trkpt>
      <trkpt lat="44.77408" lon="0.45646">
        <ele>109.4</ele>
        <time>2022-07-14T08:18:41Z</time>
      </trkpt>
      <trkpt lat="44.77411" lon="0.45645">
        <ele>109.3</ele>
        <time>2022-07-14T08:18:42Z</time>
      </trkpt>
      <trkpt lat="44.77414" lon="0.45645">
        <ele>109.1</ele>
        <time>2022-07-14T08:18:43Z</time>
      </trkpt>
      <trkpt lat="44.77425" lon="0.45642">
        <ele>108.4</ele>
        <time>2022-07-14T08:18:45Z</time>
      </trkpt>
      <trkpt lat="44.77431" lon="0.45641">
        <ele>108.1</ele>
        <time>2022-07-14T08:18:46Z</time>
      </trkpt>
      <trkpt lat="44.77438" lon="0.4564">
        <ele>107.7</ele>
        <time>2022-07-14T08:18:47Z</time>
      </trkpt>
      <trkpt lat="44.77451" lon="0.45637">
        <ele>107</ele>
        <time>2022-07-14T08:18:49Z</time>
      </trkpt>
      <trkpt lat="44.77457" lon="0.45636">
        <ele>106.7</ele>
        <time>2022-07-14T08:18:50Z</time>
      </trkpt>
      <trkpt lat="44.77463" lon="0.45635">
        <ele>106.5</ele>
        <time>2022-07-14T08:18:51Z</time>
      </trkpt>
      <trkpt lat="44.77476" lon="0.45628">
        <ele>106.1</ele>
        <time>2022-07-14T08:18:53Z</time>
      </trkpt>
      <trkpt lat="44.77482" lon="0.45625">
        <ele>105.9</ele>
        <time>2022-07-14T08:18:54Z</time>
      </trkpt>
      <trkpt lat="44.77488" lon="0.45622">
        <ele>105.8</ele>
        <time>2022-07-14T08:18:55Z</time>
      </trkpt>
      <trkpt lat="44.775" lon="0.45616">
        <ele>105.5</ele>
        <time>2022-07-14T08:18:57Z</time>
      </trkpt>
      <trkpt lat="44.77507" lon="0.45613">
        <ele>105.4</ele>
        <time>2022-07-14T08:18:58Z</time>
      </trkpt>
      <trkpt lat="44.77513" lon="0.45609">
        <ele>105.3</ele>
        <time>2022-07-14T08:18:59Z</time>
      </trkpt>
      <trkpt lat="44.77526" lon="0.45605">
        <ele>105.1</ele>
        <time>2022-07-14T08:19:01Z</time>
      </trkpt>
      <trkpt lat="44.77533" lon="0.45603">
        <ele>105.1</ele>
        <time>2022-07-14T08:19:02Z</time>
      </trkpt>
      <trkpt lat="44.77539" lon="0.45601">
        <ele>105.1</ele>
        <time>2022-07-14T08:19:03Z</time>
      </trkpt>
      <trkpt lat="44.77552" lon="0.45598">
        <ele>105</ele>
        <time>2022-07-14T08:19:05Z</time>
      </trkpt>
      <trkpt lat="44.77565" lon="0.45595">
        <ele>105</ele>
        <time>2022-07-14T08:19:07Z</time>
      </trkpt>
      <trkpt lat="44.77571" lon="0.45594">
        <ele>105</ele>
        <time>2022-07-14T08:19:08Z</time>
      </trkpt>
      <trkpt lat="44.77576" lon="0.45593">
        <ele>105.1</ele>
        <time>2022-07-14T08:19:09Z</time>
      </trkpt>
      <trkpt lat="44.77582" lon="0.45591">
        <ele>105.2</ele>
        <time>2022-07-14T08:19:10Z</time>
      </trkpt>
      <trkpt lat="44.77587" lon="0.45588">
        <ele>105.4</ele>
        <time>2022-07-14T08:19:11Z</time>
      </trkpt>
      <trkpt lat="44.77595" lon="0.45582">
        <ele>105.6</ele>
        <time>2022-07-14T08:19:13Z</time>
      </trkpt>
      <trkpt lat="44.77601" lon="0.45576">
        <ele>106</ele>
        <time>2022-07-14T08:19:15Z</time>
      </trkpt>
      <trkpt lat="44.77608" lon="0.4557">
        <ele>106.3</ele>
        <time>2022-07-14T08:19:17Z</time>
      </trkpt>
      <trkpt lat="44.77612" lon="0.45567">
        <ele>106.5</ele>
        <time>2022-07-14T08:19:18Z</time>
      </trkpt>
      <trkpt lat="44.77616" lon="0.45564">
        <ele>106.7</ele>
        <time>2022-07-14T08:19:19Z</time>
      </trkpt>
      <trkpt lat="44.77625" lon="0.45558">
        <ele>107</ele>
        <time>2022-07-14T08:19:21Z</time>
      </trkpt>
      <trkpt lat="44.77628" lon="0.45556">
        <ele>107.2</ele>
        <time>2022-07-14T08:19:22Z</time>
      </trkpt>
      <trkpt lat="44.77632" lon="0.45553">
        <ele>107.3</ele>
        <time>2022-07-14T08:19:23Z</time>
      </trkpt>
      <trkpt lat="44.7764" lon="0.45547">
        <ele>107.5</ele>
        <time>2022-07-14T08:19:25Z</time>
      </trkpt>
      <trkpt lat="44.77648" lon="0.45542">
        <ele>107.7</ele>
        <time>2022-07-14T08:19:27Z</time>
      </trkpt>
      <trkpt lat="44.77656" lon="0.45536">
        <ele>108</ele>
        <time>2022-07-14T08:19:29Z</time>
      </trkpt>
      <trkpt lat="44.7766" lon="0.45533">
        <ele>108.1</ele>
        <time>2022-07-14T08:19:30Z</time>
      </trkpt>
      <trkpt lat="44.77663" lon="0.45531">
        <ele>108.3</ele>
        <time>2022-07-14T08:19:31Z</time>
      </trkpt>
      <trkpt lat="44.7767" lon="0.45526">
        <ele>108.6</ele>
        <time>2022-07-14T08:19:33Z</time>
      </trkpt>
      <trkpt lat="44.77674" lon="0.45523">
        <ele>108.8</ele>
        <time>2022-07-14T08:19:34Z</time>
      </trkpt>
      <trkpt lat="44.77677" lon="0.45521">
        <ele>108.9</ele>
        <time>2022-07-14T08:19:35Z</time>
      </trkpt>
      <trkpt lat="44.77682" lon="0.45517">
        <ele>109.1</ele>
        <time>2022-07-14T08:19:37Z</time>
      </trkpt>
      <trkpt lat="44.77685" lon="0.45515">
        <ele>109.2</ele>
        <time>2022-07-14T08:19:38Z</time>
      </trkpt>
      <trkpt lat="44.77689" lon="0.45512">
        <ele>109.3</ele>
        <time>2022-07-14T08:19:39Z</time>
      </trkpt>
      <trkpt lat="44.77697" lon="0.45507">
        <ele>109.6</ele>
        <time>2022-07-14T08:19:41Z</time>
      </trkpt>
      <trkpt lat="44.77705" lon="0.45503">
        <ele>109.8</ele>
        <time>2022-07-14T08:19:43Z</time>
      </trkpt>
      <trkpt lat="44.77714" lon="0.45498">
        <ele>110</ele>
        <time>2022-07-14T08:19:45Z</time>
      </trkpt>
      <trkpt lat="44.77722" lon="0.45493">
        <ele>110.2</ele>
        <time>2022-07-14T08:19:47Z</time>
      </trkpt>
      <trkpt lat="44.7773" lon="0.45489">
        <ele>110.2</ele>
        <time>2022-07-14T08:19:49Z</time>
      </trkpt>
      <trkpt lat="44.77735" lon="0.45488">
        <ele>110.2</ele>
        <time>2022-07-14T08:19:50Z</time>
      </trkpt>
      <trkpt lat="44.77739" lon="0.45488">
        <ele>110.1</ele>
        <time>2022-07-14T08:19:51Z</time>
      </trkpt>
      <trkpt lat="44.77748" lon="0.45488">
        <ele>109.9</ele>
        <time>2022-07-14T08:19:53Z</time>
      </trkpt>
      <trkpt lat="44.77757" lon="0.45489">
        <ele>109.6</ele>
        <time>2022-07-14T08:19:55Z</time>
      </trkpt>
      <trkpt lat="44.77766" lon="0.45491">
        <ele>109.3</ele>
        <time>2022-07-14T08:19:57Z</time>
      </trkpt>
      <trkpt lat="44.77775" lon="0.45492">
        <ele>109</ele>
        <time>2022-07-14T08:19:59Z</time>
      </trkpt>
      <trkpt lat="44.77784" lon="0.45493">
        <ele>108.7</ele>
        <time>2022-07-14T08:20:01Z</time>
      </trkpt>
      <trkpt lat="44.77793" lon="0.45495">
        <ele>108.4</ele>
        <time>2022-07-14T08:20:03Z</time>
      </trkpt>
      <trkpt lat="44.77802" lon="0.45496">
        <ele>108</ele>
        <time>2022-07-14T08:20:05Z</time>
      </trkpt>
      <trkpt lat="44.77813" lon="0.45498">
        <ele>107.3</ele>
        <time>2022-07-14T08:20:07Z</time>
      </trkpt>
      <trkpt lat="44.77825" lon="0.455">
        <ele>106.5</ele>
        <time>2022-07-14T08:20:09Z</time>
      </trkpt>
      <trkpt lat="44.77838" lon="0.45502">
        <ele>105.9</ele>
        <time>2022-07-14T08:20:11Z</time>
      </trkpt>
      <trkpt lat="44.77851" lon="0.45505">
        <ele>105.4</ele>
        <time>2022-07-14T08:20:13Z</time>
      </trkpt>
      <trkpt lat="44.77863" lon="0.45507">
        <ele>105.1</ele>
        <time>2022-07-14T08:20:15Z</time>
      </trkpt>
      <trkpt lat="44.77876" lon="0.45509">
        <ele>104.9</ele>
        <time>2022-07-14T08:20:17Z</time>
      </trkpt>
      <trkpt lat="44.77882" lon="0.45509">
        <ele>104.9</ele>
        <time>2022-07-14T08:20:18Z</time>
      </trkpt>
      <trkpt lat="44.77888" lon="0.4551">
        <ele>104.9</ele>
        <time>2022-07-14T08:20:19Z</time>
      </trkpt>
      <trkpt lat="44.77893" lon="0.4551">
        <ele>105</ele>
        <time>2022-07-14T08:20:20Z</time>
      </trkpt>
      <trkpt lat="44.77898" lon="0.45508">
        <ele>105.1</ele>
        <time>2022-07-14T08:20:21Z</time>
      </trkpt>
      <trkpt lat="44.77906" lon="0.45499">
        <ele>105.3</ele>
        <time>2022-07-14T08:20:23Z</time>
      </trkpt>
      <trkpt lat="44.77911" lon="0.45489">
        <ele>105.7</ele>
        <time>2022-07-14T08:20:25Z</time>
      </trkpt>
      <trkpt lat="44.77917" lon="0.4548">
        <ele>106</ele>
        <time>2022-07-14T08:20:27Z</time>
      </trkpt>
      <trkpt lat="44.77919" lon="0.45476">
        <ele>106.1</ele>
        <time>2022-07-14T08:20:28Z</time>
      </trkpt>
      <trkpt lat="44.77922" lon="0.45471">
        <ele>106.3</ele>
        <time>2022-07-14T08:20:29Z</time>
      </trkpt>
      <trkpt lat="44.77927" lon="0.45463">
        <ele>106.6</ele>
        <time>2022-07-14T08:20:31Z</time>
      </trkpt>
      <trkpt lat="44.77932" lon="0.45455">
        <ele>106.9</ele>
        <time>2022-07-14T08:20:33Z</time>
      </trkpt>
      <trkpt lat="44.77936" lon="0.45447">
        <ele>107.2</ele>
        <time>2022-07-14T08:20:35Z</time>
      </trkpt>
      <trkpt lat="44.7794" lon="0.4544">
        <ele>107.5</ele>
        <time>2022-07-14T08:20:37Z</time>
      </trkpt>
      <trkpt lat="44.77944" lon="0.45433">
        <ele>107.8</ele>
        <time>2022-07-14T08:20:39Z</time>
      </trkpt>
      <trkpt lat="44.77949" lon="0.45426">
        <ele>108.1</ele>
        <time>2022-07-14T08:20:41Z</time>
      </trkpt>
      <trkpt lat="44.77953" lon="0.4542">
        <ele>108.4</ele>
        <time>2022-07-14T08:20:43Z</time>
      </trkpt>
      <trkpt lat="44.77958" lon="0.45414">
        <ele>108.9</ele>
        <time>2022-07-14T08:20:45Z</time>
      </trkpt>
      <trkpt lat="44.77961" lon="0.4541">
        <ele>109.1</ele>
        <time>2022-07-14T08:20:46Z</time>
      </trkpt>
      <trkpt lat="44.77964" lon="0.45407">
        <ele>109.3</ele>
        <time>2022-07-14T08:20:47Z</time>
      </trkpt>
      <trkpt lat="44.77968" lon="0.454">
        <ele>109.7</ele>
        <time>2022-07-14T08:20:49Z</time>
      </trkpt>
      <trkpt lat="44.77974" lon="0.45395">
        <ele>110</ele>
        <time>2022-07-14T08:20:51Z</time>
      </trkpt>
      <trkpt lat="44.77979" lon="0.45392">
        <ele>110.3</ele>
        <time>2022-07-14T08:20:53Z</time>
      </trkpt>
      <trkpt lat="44.77984" lon="0.45388">
        <ele>110.6</ele>
        <time>2022-07-14T08:20:55Z</time>
      </trkpt>
      <trkpt lat="44.77989" lon="0.45385">
        <ele>110.9</ele>
        <time>2022-07-14T08:20:57Z</time>
      </trkpt>
      <trkpt lat="44.77991" lon="0.45384">
        <ele>111</ele>
        <time>2022-07-14T08:20:58Z</time>
      </trkpt>
      <trkpt lat="44.77994" lon="0.45383">
        <ele>111.1</ele>
        <time>2022-07-14T08:20:59Z</time>
      </trkpt>
      <trkpt lat="44.77999" lon="0.4538">
        <ele>111.3</ele>
        <time>2022-07-14T08:21:01Z</time>
      </trkpt>
      <trkpt lat="44.78005" lon="0.45378">
        <ele>111.5</ele>
        <time>2022-07-14T08:21:03Z</time>
      </trkpt>
      <trkpt lat="44.78011" lon="0.45376">
        <ele>111.7</ele>
        <time>2022-07-14T08:21:05Z</time>
      </trkpt>
      <trkpt lat="44.78017" lon="0.45375">
        <ele>112</ele>
        <time>2022-07-14T08:21:07Z</time>
      </trkpt>
      <trkpt lat="44.78024" lon="0.45374">
        <ele>112.3</ele>
        <time>2022-07-14T08:21:09Z</time>
      </trkpt>
      <trkpt lat="44.7803" lon="0.45374">
        <ele>112.6</ele>
        <time>2022-07-14T08:21:11Z</time>
      </trkpt>
      <trkpt lat="44.78035" lon="0.45373">
        <ele>112.9</ele>
        <time>2022-07-14T08:21:13Z</time>
      </trkpt>
      <trkpt lat="44.78041" lon="0.45372">
        <ele>113.2</ele>
        <time>2022-07-14T08:21:15Z</time>
      </trkpt>
      <trkpt lat="44.78048" lon="0.45371">
        <ele>113.5</ele>
        <time>2022-07-14T08:21:17Z</time>
      </trkpt>
      <trkpt lat="44.78054" lon="0.4537">
        <ele>113.7</ele>
        <time>2022-07-14T08:21:19Z</time>
      </trkpt>
      <trkpt lat="44.7806" lon="0.4537">
        <ele>113.9</ele>
        <time>2022-07-14T08:21:21Z</time>
      </trkpt>
      <trkpt lat="44.78063" lon="0.45369">
        <ele>114</ele>
        <time>2022-07-14T08:21:22Z</time>
      </trkpt>
      <trkpt lat="44.78066" lon="0.45369">
        <ele>114.1</ele>
        <time>2022-07-14T08:21:23Z</time>
      </trkpt>
      <trkpt lat="44.78072" lon="0.45368">
        <ele>114.2</ele>
        <time>2022-07-14T08:21:25Z</time>
      </trkpt>
      <trkpt lat="44.78078" lon="0.45367">
        <ele>114.4</ele>
        <time>2022-07-14T08:21:27Z</time>
      </trkpt>
      <trkpt lat="44.78084" lon="0.45365">
        <ele>114.5</ele>
        <time>2022-07-14T08:21:29Z</time>
      </trkpt>
      <trkpt lat="44.7809" lon="0.45364">
        <ele>114.7</ele>
        <time>2022-07-14T08:21:31Z</time>
      </trkpt>
      <trkpt lat="44.78093" lon="0.45363">
        <ele>114.8</ele>
        <time>2022-07-14T08:21:32Z</time>
      </trkpt>
      <trkpt lat="44.78096" lon="0.45362">
        <ele>114.9</ele>
        <time>2022-07-14T08:21:33Z</time>
      </trkpt>
      <trkpt lat="44.78102" lon="0.45362">
        <ele>115</ele>
        <time>2022-07-14T08:21:35Z</time>
      </trkpt>
      <trkpt lat="44.78108" lon="0.45362">
        <ele>115.1</ele>
        <time>2022-07-14T08:21:37Z</time>
      </trkpt>
      <trkpt lat="44.78113" lon="0.45362">
        <ele>115.3</ele>
        <time>2022-07-14T08:21:39Z</time>
      </trkpt>
      <trkpt lat="44.78116" lon="0.45362">
        <ele>115.4</ele>
        <time>2022-07-14T08:21:40Z</time>
      </trkpt>
      <trkpt lat="44.7812" lon="0.45362">
        <ele>115.4</ele>
        <time>2022-07-14T08:21:41Z</time>
      </trkpt>
      <trkpt lat="44.78126" lon="0.45363">
        <ele>115.6</ele>
        <time>2022-07-14T08:21:43Z</time>
      </trkpt>
      <trkpt lat="44.78132" lon="0.45365">
        <ele>115.8</ele>
        <time>2022-07-14T08:21:45Z</time>
      </trkpt>
      <trkpt lat="44.78138" lon="0.45367">
        <ele>116</ele>
        <time>2022-07-14T08:21:47Z</time>
      </trkpt>
      <trkpt lat="44.78141" lon="0.45368">
        <ele>116.1</ele>
        <time>2022-07-14T08:21:48Z</time>
      </trkpt>
      <trkpt lat="44.78143" lon="0.45369">
        <ele>116.2</ele>
        <time>2022-07-14T08:21:49Z</time>
      </trkpt>
      <trkpt lat="44.78149" lon="0.45371">
        <ele>116.3</ele>
        <time>2022-07-14T08:21:51Z</time>
      </trkpt>
      <trkpt lat="44.78155" lon="0.45373">
        <ele>116.5</ele>
        <time>2022-07-14T08:21:53Z</time>
      </trkpt>
      <trkpt lat="44.78161" lon="0.45375">
        <ele>116.7</ele>
        <time>2022-07-14T08:21:55Z</time>
      </trkpt>
      <trkpt lat="44.78166" lon="0.45377">
        <ele>116.9</ele>
        <time>2022-07-14T08:21:57Z</time>
      </trkpt>
      <trkpt lat="44.78172" lon="0.45377">
        <ele>117.1</ele>
        <time>2022-07-14T08:21:59Z</time>
      </trkpt>
      <trkpt lat="44.78177" lon="0.45377">
        <ele>117.3</ele>
        <time>2022-07-14T08:22:01Z</time>
      </trkpt>
      <trkpt lat="44.7818" lon="0.45374">
        <ele>117.4</ele>
        <time>2022-07-14T08:22:02Z</time>
      </trkpt>
      <trkpt lat="44.7818" lon="0.45371">
        <ele>117.5</ele>
        <time>2022-07-14T08:22:03Z</time>
      </trkpt>
      <trkpt lat="44.7818" lon="0.45364">
        <ele>117.7</ele>
        <time>2022-07-14T08:22:05Z</time>
      </trkpt>
      <trkpt lat="44.7818" lon="0.4536">
        <ele>117.8</ele>
        <time>2022-07-14T08:22:06Z</time>
      </trkpt>
      <trkpt lat="44.7818" lon="0.45357">
        <ele>117.9</ele>
        <time>2022-07-14T08:22:07Z</time>
      </trkpt>
      <trkpt lat="44.7818" lon="0.4535">
        <ele>118.2</ele>
        <time>2022-07-14T08:22:09Z</time>
      </trkpt>
      <trkpt lat="44.7818" lon="0.45343">
        <ele>118.4</ele>
        <time>2022-07-14T08:22:11Z</time>
      </trkpt>
      <trkpt lat="44.7818" lon="0.45336">
        <ele>118.6</ele>
        <time>2022-07-14T08:22:13Z</time>
      </trkpt>
      <trkpt lat="44.7818" lon="0.45329">
        <ele>118.9</ele>
        <time>2022-07-14T08:22:15Z</time>
      </trkpt>
      <trkpt lat="44.78181" lon="0.45323">
        <ele>119.2</ele>
        <time>2022-07-14T08:22:17Z</time>
      </trkpt>
      <trkpt lat="44.78181" lon="0.45316">
        <ele>119.4</ele>
        <time>2022-07-14T08:22:19Z</time>
      </trkpt>
      <trkpt lat="44.78181" lon="0.45313">
        <ele>119.5</ele>
        <time>2022-07-14T08:22:20Z</time>
      </trkpt>
      <trkpt lat="44.78181" lon="0.4531">
        <ele>119.7</ele>
        <time>2022-07-14T08:22:21Z</time>
      </trkpt>
      <trkpt lat="44.78181" lon="0.45304">
        <ele>120</ele>
        <time>2022-07-14T08:22:23Z</time>
      </trkpt>
      <trkpt lat="44.78181" lon="0.45298">
        <ele>120.2</ele>
        <time>2022-07-14T08:22:25Z</time>
      </trkpt>
      <trkpt lat="44.78181" lon="0.45293">
        <ele>120.5</ele>
        <time>2022-07-14T08:22:27Z</time>
      </trkpt>
      <trkpt lat="44.78181" lon="0.45288">
        <ele>120.8</ele>
        <time>2022-07-14T08:22:29Z</time>
      </trkpt>
      <trkpt lat="44.78181" lon="0.45282">
        <ele>121.1</ele>
        <time>2022-07-14T08:22:31Z</time>
      </trkpt>
      <trkpt lat="44.78181" lon="0.45277">
        <ele>121.5</ele>
        <time>2022-07-14T08:22:33Z</time>
      </trkpt>
      <trkpt lat="44.78182" lon="0.45272">
        <ele>121.8</ele>
        <time>2022-07-14T08:22:35Z</time>
      </trkpt>
      <trkpt lat="44.78182" lon="0.45267">
        <ele>122.1</ele>
        <time>2022-07-14T08:22:37Z</time>
      </trkpt>
      <trkpt lat="44.78182" lon="0.45264">
        <ele>122.3</ele>
        <time>2022-07-14T08:22:38Z</time>
      </trkpt>
      <trkpt lat="44.78182" lon="0.45261">
        <ele>122.5</ele>
        <time>2022-07-14T08:22:39Z</time>
      </trkpt>
      <trkpt lat="44.78182" lon="0.45256">
        <ele>122.9</ele>
        <time>2022-07-14T08:22:41Z</time>
      </trkpt>
      <trkpt lat="44.78182" lon="0.45253">
        <ele>123.1</ele>
        <time>2022-07-14T08:22:42Z</time>
      </trkpt>
      <trkpt lat="44.78181" lon="0.45251">
        <ele>123.3</ele>
        <time>2022-07-14T08:22:43Z</time>
      </trkpt>
      <trkpt lat="44.78181" lon="0.45246">
        <ele>123.6</ele>
        <time>2022-07-14T08:22:45Z</time>
      </trkpt>
      <trkpt lat="44.7818" lon="0.45241">
        <ele>124</ele>
        <time>2022-07-14T08:22:47Z</time>
      </trkpt>
      <trkpt lat="44.7818" lon="0.45236">
        <ele>124.3</ele>
        <time>2022-07-14T08:22:49Z</time>
      </trkpt>
      <trkpt lat="44.7818" lon="0.45232">
        <ele>124.6</ele>
        <time>2022-07-14T08:22:51Z</time>
      </trkpt>
      <trkpt lat="44.78179" lon="0.45227">
        <ele>125</ele>
        <time>2022-07-14T08:22:53Z</time>
      </trkpt>
      <trkpt lat="44.78179" lon="0.45222">
        <ele>125.3</ele>
        <time>2022-07-14T08:22:55Z</time>
      </trkpt>
      <trkpt lat="44.78178" lon="0.45217">
        <ele>125.7</ele>
        <time>2022-07-14T08:22:57Z</time>
      </trkpt>
      <trkpt lat="44.78178" lon="0.45212">
        <ele>126</ele>
        <time>2022-07-14T08:22:59Z</time>
      </trkpt>
      <trkpt lat="44.78177" lon="0.45207">
        <ele>126.3</ele>
        <time>2022-07-14T08:23:01Z</time>
      </trkpt>
      <trkpt lat="44.78176" lon="0.45203">
        <ele>126.7</ele>
        <time>2022-07-14T08:23:03Z</time>
      </trkpt>
      <trkpt lat="44.78176" lon="0.45198">
        <ele>127</ele>
        <time>2022-07-14T08:23:05Z</time>
      </trkpt>
      <trkpt lat="44.78175" lon="0.45194">
        <ele>127.3</ele>
        <time>2022-07-14T08:23:07Z</time>
      </trkpt>
      <trkpt lat="44.78174" lon="0.45189">
        <ele>127.6</ele>
        <time>2022-07-14T08:23:09Z</time>
      </trkpt>
      <trkpt lat="44.78174" lon="0.45187">
        <ele>127.7</ele>
        <time>2022-07-14T08:23:10Z</time>
      </trkpt>
      <trkpt lat="44.78173" lon="0.45184">
        <ele>127.9</ele>
        <time>2022-07-14T08:23:11Z</time>
      </trkpt>
      <trkpt lat="44.78172" lon="0.4518">
        <ele>128.2</ele>
        <time>2022-07-14T08:23:13Z</time>
      </trkpt>
      <trkpt lat="44.78171" lon="0.45176">
        <ele>128.5</ele>
        <time>2022-07-14T08:23:15Z</time>
      </trkpt>
      <trkpt lat="44.7817" lon="0.45174">
        <ele>128.7</ele>
        <time>2022-07-14T08:23:16Z</time>
      </trkpt>
      <trkpt lat="44.78169" lon="0.45172">
        <ele>128.9</ele>
        <time>2022-07-14T08:23:17Z</time>
      </trkpt>
      <trkpt lat="44.78168" lon="0.45167">
        <ele>129.2</ele>
        <time>2022-07-14T08:23:19Z</time>
      </trkpt>
      <trkpt lat="44.78166" lon="0.45163">
        <ele>129.5</ele>
        <time>2022-07-14T08:23:21Z</time>
      </trkpt>
      <trkpt lat="44.78165" lon="0.45158">
        <ele>129.8</ele>
        <time>2022-07-14T08:23:23Z</time>
      </trkpt>
      <trkpt lat="44.78163" lon="0.45153">
        <ele>130.1</ele>
        <time>2022-07-14T08:23:25Z</time>
      </trkpt>
      <trkpt lat="44.78161" lon="0.45149">
        <ele>130.4</ele>
        <time>2022-07-14T08:23:27Z</time>
      </trkpt>
      <trkpt lat="44.7816" lon="0.45145">
        <ele>130.6</ele>
        <time>2022-07-14T08:23:29Z</time>
      </trkpt>
      <trkpt lat="44.78159" lon="0.45142">
        <ele>130.8</ele>
        <time>2022-07-14T08:23:30Z</time>
      </trkpt>
      <trkpt lat="44.78158" lon="0.4514">
        <ele>130.9</ele>
        <time>2022-07-14T08:23:31Z</time>
      </trkpt>
      <trkpt lat="44.78156" lon="0.45136">
        <ele>131.2</ele>
        <time>2022-07-14T08:23:33Z</time>
      </trkpt>
      <trkpt lat="44.78155" lon="0.45131">
        <ele>131.5</ele>
        <time>2022-07-14T08:23:35Z</time>
      </trkpt>
      <trkpt lat="44.78153" lon="0.45126">
        <ele>131.8</ele>
        <time>2022-07-14T08:23:37Z</time>
      </trkpt>
      <trkpt lat="44.78152" lon="0.45124">
        <ele>131.9</ele>
        <time>2022-07-14T08:23:38Z</time>
      </trkpt>
      <trkpt lat="44.78151" lon="0.45121">
        <ele>132</ele>
        <time>2022-07-14T08:23:39Z</time>
      </trkpt>
      <trkpt lat="44.78149" lon="0.45116">
        <ele>132.4</ele>
        <time>2022-07-14T08:23:41Z</time>
      </trkpt>
      <trkpt lat="44.78147" lon="0.45111">
        <ele>132.6</ele>
        <time>2022-07-14T08:23:43Z</time>
      </trkpt>
      <trkpt lat="44.78146" lon="0.45107">
        <ele>132.9</ele>
        <time>2022-07-14T08:23:45Z</time>
      </trkpt>
      <trkpt lat="44.78144" lon="0.45103">
        <ele>133.2</ele>
        <time>2022-07-14T08:23:47Z</time>
      </trkpt>
      <trkpt lat="44.78142" lon="0.45098">
        <ele>133.4</ele>
        <time>2022-07-14T08:23:49Z</time>
      </trkpt>
      <trkpt lat="44.78141" lon="0.45094">
        <ele>133.7</ele>
        <time>2022-07-14T08:23:51Z</time>
      </trkpt>
      <trkpt lat="44.78139" lon="0.4509">
        <ele>133.9</ele>
        <time>2022-07-14T08:23:53Z</time>
      </trkpt>
      <trkpt lat="44.78138" lon="0.45085">
        <ele>134.2</ele>
        <time>2022-07-14T08:23:55Z</time>
      </trkpt>
      <trkpt lat="44.78137" lon="0.45081">
        <ele>134.5</ele>
        <time>2022-07-14T08:23:57Z</time>
      </trkpt>
      <trkpt lat="44.78136" lon="0.45078">
        <ele>134.6</ele>
        <time>2022-07-14T08:23:58Z</time>
      </trkpt>
      <trkpt lat="44.78136" lon="0.45076">
        <ele>134.7</ele>
        <time>2022-07-14T08:23:59Z</time>
      </trkpt>
      <trkpt lat="44.78134" lon="0.45071">
        <ele>135</ele>
        <time>2022-07-14T08:24:01Z</time>
      </trkpt>
      <trkpt lat="44.78133" lon="0.45066">
        <ele>135.3</ele>
        <time>2022-07-14T08:24:03Z</time>
      </trkpt>
      <trkpt lat="44.78132" lon="0.45062">
        <ele>135.5</ele>
        <time>2022-07-14T08:24:05Z</time>
      </trkpt>
      <trkpt lat="44.78132" lon="0.45057">
        <ele>135.8</ele>
        <time>2022-07-14T08:24:07Z</time>
      </trkpt>
      <trkpt lat="44.78131" lon="0.45053">
        <ele>136.1</ele>
        <time>2022-07-14T08:24:09Z</time>
      </trkpt>
      <trkpt lat="44.78131" lon="0.45049">
        <ele>136.3</ele>
        <time>2022-07-14T08:24:11Z</time>
      </trkpt>
      <trkpt lat="44.78131" lon="0.45045">
        <ele>136.6</ele>
        <time>2022-07-14T08:24:13Z</time>
      </trkpt>
      <trkpt lat="44.78131" lon="0.45041">
        <ele>136.8</ele>
        <time>2022-07-14T08:24:15Z</time>
      </trkpt>
      <trkpt lat="44.78132" lon="0.45039">
        <ele>137</ele>
        <time>2022-07-14T08:24:16Z</time>
      </trkpt>
      <trkpt lat="44.78132" lon="0.45037">
        <ele>137</ele>
        <time>2022-07-14T08:24:17Z</time>
      </trkpt>
      <trkpt lat="44.78135" lon="0.45037">
        <ele>137.4</ele>
        <time>2022-07-14T08:24:19Z</time>
      </trkpt>
      <trkpt lat="44.78138" lon="0.4504">
        <ele>138.2</ele>
        <time>2022-07-14T08:24:21Z</time>
      </trkpt>
      <trkpt lat="44.78139" lon="0.45042">
        <ele>138.4</ele>
        <time>2022-07-14T08:24:22Z</time>
      </trkpt>
      <trkpt lat="44.7814" lon="0.45043">
        <ele>138.5</ele>
        <time>2022-07-14T08:24:23Z</time>
      </trkpt>
      <trkpt lat="44.78143" lon="0.45047">
        <ele>138.9</ele>
        <time>2022-07-14T08:24:25Z</time>
      </trkpt>
      <trkpt lat="44.78146" lon="0.4505">
        <ele>139.3</ele>
        <time>2022-07-14T08:24:27Z</time>
      </trkpt>
      <trkpt lat="44.78149" lon="0.45054">
        <ele>139.7</ele>
        <time>2022-07-14T08:24:29Z</time>
      </trkpt>
      <trkpt lat="44.7815" lon="0.45055">
        <ele>139.9</ele>
        <time>2022-07-14T08:24:30Z</time>
      </trkpt>
      <trkpt lat="44.78152" lon="0.45057">
        <ele>140.1</ele>
        <time>2022-07-14T08:24:31Z</time>
      </trkpt>
      <trkpt lat="44.78155" lon="0.4506">
        <ele>140.5</ele>
        <time>2022-07-14T08:24:33Z</time>
      </trkpt>
      <trkpt lat="44.78158" lon="0.45063">
        <ele>140.9</ele>
        <time>2022-07-14T08:24:35Z</time>
      </trkpt>
      <trkpt lat="44.78161" lon="0.45066">
        <ele>141.2</ele>
        <time>2022-07-14T08:24:37Z</time>
      </trkpt>
      <trkpt lat="44.78164" lon="0.45068">
        <ele>141.6</ele>
        <time>2022-07-14T08:24:39Z</time>
      </trkpt>
      <trkpt lat="44.78166" lon="0.45068">
        <ele>141.8</ele>
        <time>2022-07-14T08:24:40Z</time>
      </trkpt>
      <trkpt lat="44.78169" lon="0.45068">
        <ele>142</ele>
        <time>2022-07-14T08:24:41Z</time>
      </trkpt>
      <trkpt lat="44.78172" lon="0.45067">
        <ele>142.3</ele>
        <time>2022-07-14T08:24:43Z</time>
      </trkpt>
      <trkpt lat="44.78177" lon="0.45066">
        <ele>143</ele>
        <time>2022-07-14T08:24:45Z</time>
      </trkpt>
      <trkpt lat="44.78179" lon="0.45067">
        <ele>143.3</ele>
        <time>2022-07-14T08:24:46Z</time>
      </trkpt>
      <trkpt lat="44.78181" lon="0.45067">
        <ele>143.7</ele>
        <time>2022-07-14T08:24:47Z</time>
      </trkpt>
      <trkpt lat="44.78186" lon="0.45068">
        <ele>144.4</ele>
        <time>2022-07-14T08:24:49Z</time>
      </trkpt>
      <trkpt lat="44.7819" lon="0.4507">
        <ele>145.1</ele>
        <time>2022-07-14T08:24:51Z</time>
      </trkpt>
      <trkpt lat="44.78194" lon="0.45072">
        <ele>145.8</ele>
        <time>2022-07-14T08:24:53Z</time>
      </trkpt>
      <trkpt lat="44.78198" lon="0.45075">
        <ele>146.4</ele>
        <time>2022-07-14T08:24:55Z</time>
      </trkpt>
      <trkpt lat="44.78203" lon="0.45078">
        <ele>146.5</ele>
        <time>2022-07-14T08:24:57Z</time>
      </trkpt>
      <trkpt lat="44.78208" lon="0.45082">
        <ele>146.7</ele>
        <time>2022-07-14T08:24:59Z</time>
      </trkpt>
      <trkpt lat="44.78211" lon="0.45084">
        <ele>146.7</ele>
        <time>2022-07-14T08:25:00Z</time>
      </trkpt>
      <trkpt lat="44.78214" lon="0.45086">
        <ele>146.7</ele>
        <time>2022-07-14T08:25:01Z</time>
      </trkpt>
      <trkpt lat="44.78219" lon="0.4509">
        <ele>146.6</ele>
        <time>2022-07-14T08:25:03Z</time>
      </trkpt>
      <trkpt lat="44.78226" lon="0.45093">
        <ele>146.5</ele>
        <time>2022-07-14T08:25:05Z</time>
      </trkpt>
      <trkpt lat="44.78229" lon="0.45095">
        <ele>146.4</ele>
        <time>2022-07-14T08:25:06Z</time>
      </trkpt>
      <trkpt lat="44.78233" lon="0.45097">
        <ele>146.2</ele>
        <time>2022-07-14T08:25:07Z</time>
      </trkpt>
      <trkpt lat="44.78241" lon="0.45101">
        <ele>145.8</ele>
        <time>2022-07-14T08:25:09Z</time>
      </trkpt>
      <trkpt lat="44.7825" lon="0.45105">
        <ele>145.3</ele>
        <time>2022-07-14T08:25:11Z</time>
      </trkpt>
      <trkpt lat="44.78258" lon="0.4511">
        <ele>144.9</ele>
        <time>2022-07-14T08:25:13Z</time>
      </trkpt>
      <trkpt lat="44.78262" lon="0.45111">
        <ele>144.7</ele>
        <time>2022-07-14T08:25:14Z</time>
      </trkpt>
      <trkpt lat="44.78268" lon="0.45102">
        <ele>144.7</ele>
        <time>2022-07-14T08:25:15Z</time>
      </trkpt>
      <trkpt lat="44.78272" lon="0.45092">
        <ele>145.1</ele>
        <time>2022-07-14T08:25:17Z</time>
      </trkpt>
      <trkpt lat="44.78274" lon="0.45085">
        <ele>145.1</ele>
        <time>2022-07-14T08:25:19Z</time>
      </trkpt>
      <trkpt lat="44.78275" lon="0.45079">
        <ele>145.1</ele>
        <time>2022-07-14T08:25:21Z</time>
      </trkpt>
      <trkpt lat="44.78277" lon="0.45073">
        <ele>146</ele>
        <time>2022-07-14T08:25:23Z</time>
      </trkpt>
      <trkpt lat="44.78278" lon="0.45066">
        <ele>146</ele>
        <time>2022-07-14T08:25:25Z</time>
      </trkpt>
      <trkpt lat="44.7828" lon="0.4506">
        <ele>146.6</ele>
        <time>2022-07-14T08:25:27Z</time>
      </trkpt>
      <trkpt lat="44.78282" lon="0.45054">
        <ele>146.3</ele>
        <time>2022-07-14T08:25:29Z</time>
      </trkpt>
      <trkpt lat="44.78283" lon="0.45048">
        <ele>146.3</ele>
        <time>2022-07-14T08:25:31Z</time>
      </trkpt>
      <trkpt lat="44.78285" lon="0.45042">
        <ele>146.9</ele>
        <time>2022-07-14T08:25:33Z</time>
      </trkpt>
      <trkpt lat="44.78287" lon="0.45037">
        <ele>146.9</ele>
        <time>2022-07-14T08:25:35Z</time>
      </trkpt>
      <trkpt lat="44.78289" lon="0.4503">
        <ele>146.9</ele>
        <time>2022-07-14T08:25:37Z</time>
      </trkpt>
      <trkpt lat="44.7829" lon="0.45024">
        <ele>147.6</ele>
        <time>2022-07-14T08:25:39Z</time>
      </trkpt>
      <trkpt lat="44.78291" lon="0.45018">
        <ele>147.6</ele>
        <time>2022-07-14T08:25:41Z</time>
      </trkpt>
      <trkpt lat="44.7829" lon="0.45015">
        <ele>147.6</ele>
        <time>2022-07-14T08:25:42Z</time>
      </trkpt>
      <trkpt lat="44.78288" lon="0.45013">
        <ele>147.6</ele>
        <time>2022-07-14T08:25:43Z</time>
      </trkpt>
      <trkpt lat="44.78283" lon="0.45011">
        <ele>147.6</ele>
        <time>2022-07-14T08:25:45Z</time>
      </trkpt>
      <trkpt lat="44.7828" lon="0.45007">
        <ele>148.2</ele>
        <time>2022-07-14T08:25:47Z</time>
      </trkpt>
      <trkpt lat="44.7828" lon="0.45002">
        <ele>148.2</ele>
        <time>2022-07-14T08:25:49Z</time>
      </trkpt>
      <trkpt lat="44.78282" lon="0.44997">
        <ele>148.1</ele>
        <time>2022-07-14T08:25:51Z</time>
      </trkpt>
      <trkpt lat="44.78284" lon="0.44991">
        <ele>148.6</ele>
        <time>2022-07-14T08:25:53Z</time>
      </trkpt>
      <trkpt lat="44.78285" lon="0.44986">
        <ele>148.6</ele>
        <time>2022-07-14T08:25:55Z</time>
      </trkpt>
      <trkpt lat="44.78287" lon="0.44981">
        <ele>148.6</ele>
        <time>2022-07-14T08:25:57Z</time>
      </trkpt>
      <trkpt lat="44.78289" lon="0.44975">
        <ele>148.6</ele>
        <time>2022-07-14T08:25:59Z</time>
      </trkpt>
      <trkpt lat="44.78291" lon="0.4497">
        <ele>149.3</ele>
        <time>2022-07-14T08:26:01Z</time>
      </trkpt>
      <trkpt lat="44.78293" lon="0.44965">
        <ele>149.3</ele>
        <time>2022-07-14T08:26:03Z</time>
      </trkpt>
      <trkpt lat="44.78293" lon="0.44962">
        <ele>149.4</ele>
        <time>2022-07-14T08:26:04Z</time>
      </trkpt>
      <trkpt lat="44.78294" lon="0.44959">
        <ele>149.4</ele>
        <time>2022-07-14T08:26:05Z</time>
      </trkpt>
      <trkpt lat="44.78296" lon="0.44952">
        <ele>150</ele>
        <time>2022-07-14T08:26:07Z</time>
      </trkpt>
      <trkpt lat="44.78298" lon="0.44946">
        <ele>150</ele>
        <time>2022-07-14T08:26:09Z</time>
      </trkpt>
      <trkpt lat="44.783" lon="0.44939">
        <ele>150.5</ele>
        <time>2022-07-14T08:26:11Z</time>
      </trkpt>
      <trkpt lat="44.78301" lon="0.44937">
        <ele>150.5</ele>
        <time>2022-07-14T08:26:12Z</time>
      </trkpt>
      <trkpt lat="44.78302" lon="0.44934">
        <ele>150.5</ele>
        <time>2022-07-14T08:26:13Z</time>
      </trkpt>
      <trkpt lat="44.78304" lon="0.44927">
        <ele>150.5</ele>
        <time>2022-07-14T08:26:15Z</time>
      </trkpt>
      <trkpt lat="44.78306" lon="0.4492">
        <ele>151.1</ele>
        <time>2022-07-14T08:26:17Z</time>
      </trkpt>
      <trkpt lat="44.78309" lon="0.44913">
        <ele>151.1</ele>
        <time>2022-07-14T08:26:19Z</time>
      </trkpt>
      <trkpt lat="44.7831" lon="0.44909">
        <ele>151.1</ele>
        <time>2022-07-14T08:26:20Z</time>
      </trkpt>
      <trkpt lat="44.78311" lon="0.44906">
        <ele>151.2</ele>
        <time>2022-07-14T08:26:21Z</time>
      </trkpt>
      <trkpt lat="44.78313" lon="0.44899">
        <ele>151.2</ele>
        <time>2022-07-14T08:26:23Z</time>
      </trkpt>
      <trkpt lat="44.78315" lon="0.44892">
        <ele>151.2</ele>
        <time>2022-07-14T08:26:25Z</time>
      </trkpt>
      <trkpt lat="44.78317" lon="0.44885">
        <ele>151.3</ele>
        <time>2022-07-14T08:26:27Z</time>
      </trkpt>
      <trkpt lat="44.78319" lon="0.44878">
        <ele>151.4</ele>
        <time>2022-07-14T08:26:29Z</time>
      </trkpt>
      <trkpt lat="44.78321" lon="0.44871">
        <ele>151.4</ele>
        <time>2022-07-14T08:26:31Z</time>
      </trkpt>
      <trkpt lat="44.78324" lon="0.44864">
        <ele>151.4</ele>
        <time>2022-07-14T08:26:33Z</time>
      </trkpt>
      <trkpt lat="44.78326" lon="0.44856">
        <ele>151.4</ele>
        <time>2022-07-14T08:26:35Z</time>
      </trkpt>
      <trkpt lat="44.78328" lon="0.44849">
        <ele>151.5</ele>
        <time>2022-07-14T08:26:37Z</time>
      </trkpt>
      <trkpt lat="44.78331" lon="0.44842">
        <ele>151.6</ele>
        <time>2022-07-14T08:26:39Z</time>
      </trkpt>
      <trkpt lat="44.78333" lon="0.44835">
        <ele>151.6</ele>
        <time>2022-07-14T08:26:41Z</time>
      </trkpt>
      <trkpt lat="44.78335" lon="0.44828">
        <ele>151.6</ele>
        <time>2022-07-14T08:26:43Z</time>
      </trkpt>
      <trkpt lat="44.78336" lon="0.4482">
        <ele>151.7</ele>
        <time>2022-07-14T08:26:45Z</time>
      </trkpt>
      <trkpt lat="44.78337" lon="0.44813">
        <ele>151.7</ele>
        <time>2022-07-14T08:26:47Z</time>
      </trkpt>
      <trkpt lat="44.78338" lon="0.44806">
        <ele>151.7</ele>
        <time>2022-07-14T08:26:49Z</time>
      </trkpt>
      <trkpt lat="44.7834" lon="0.44801">
        <ele>151.8</ele>
        <time>2022-07-14T08:26:51Z</time>
      </trkpt>
      <trkpt lat="44.78343" lon="0.448">
        <ele>151.7</ele>
        <time>2022-07-14T08:26:53Z</time>
      </trkpt>
      <trkpt lat="44.78343" lon="0.448">
        <ele>151.7</ele>
        <time>2022-07-14T08:26:55Z</time>
      </trkpt>
    </trkseg>
  </trk>
</gpx>